<?xml version='1.0' encoding='UTF-8'?><gpx version="1.1" creator="JPX - https://github.com/jenetics/jpx" xmlns="http://www.topografix.com/GPX/1/1"><trk><trkseg><trkpt lat="46.02626500248561" lon="11.903581934686219"><ele>281.0</ele><time>2026-04-25T15:43:07Z</time></trkpt><trkpt lat="46.02619247891021" lon="11.903573233454733"><ele>281.0</ele><time>2026-04-25T15:43:50Z</time></trkpt><trkpt lat="46.02614483664162" lon="11.903693561608554"><ele>281.0</ele><time>2026-04-25T15:43:52Z</time></trkpt><trkpt lat="46.026111825288545" lon="11.90377376088542"><ele>281.0</ele><time>2026-04-25T15:43:53Z</time></trkpt><trkpt lat="46.0260719816899" lon="11.903890785372747"><ele>281.0</ele><time>2026-04-25T15:43:53.999Z</time></trkpt><trkpt lat="46.02603957842435" lon="11.903984469968927"><ele>281.0</ele><time>2026-04-25T15:43:54.999Z</time></trkpt><trkpt lat="46.02598443686844" lon="11.90409185477268"><ele>281.0</ele><time>2026-04-25T15:43:56.999Z</time></trkpt><trkpt lat="46.02599645659808" lon="11.904213777573466"><ele>281.0</ele><time>2026-04-25T15:44:00.999Z</time></trkpt><trkpt lat="46.026061498590764" lon="11.904318733285805"><ele>281.0</ele><time>2026-04-25T15:44:02.999Z</time></trkpt><trkpt lat="46.02607116715244" lon="11.904420314397857"><ele>281.0</ele><time>2026-04-25T15:44:06.999Z</time></trkpt><trkpt lat="46.02597513912525" lon="11.904501464812427"><ele>281.0</ele><time>2026-04-25T15:44:08.999Z</time></trkpt><trkpt lat="46.02588104273886" lon="11.904581285378795"><ele>281.0</ele><time>2026-04-25T15:44:10.999Z</time></trkpt><trkpt lat="46.0258258681692" lon="11.904648248758942"><ele>281.0</ele><time>2026-04-25T15:44:13.999Z</time></trkpt><trkpt lat="46.02580145400539" lon="11.904754888244588"><ele>281.0</ele><time>2026-04-25T15:44:23.999Z</time></trkpt><trkpt lat="46.02589033230783" lon="11.904885493271875"><ele>281.0</ele><time>2026-04-25T15:44:25.999Z</time></trkpt><trkpt lat="46.02597382458908" lon="11.904963525067258"><ele>281.0</ele><time>2026-04-25T15:44:26.999Z</time></trkpt><trkpt lat="46.026047686092475" lon="11.905034854638721"><ele>281.2</ele><time>2026-04-25T15:44:27.999Z</time></trkpt><trkpt lat="46.026135241268896" lon="11.90512546537135"><ele>281.40000000000003</ele><time>2026-04-25T15:44:28.999Z</time></trkpt><trkpt lat="46.026222894223196" lon="11.905235114152696"><ele>281.6</ele><time>2026-04-25T15:44:29.999Z</time></trkpt><trkpt lat="46.026321404002324" lon="11.905343641415728"><ele>281.8</ele><time>2026-04-25T15:44:30.999Z</time></trkpt><trkpt lat="46.02639635876091" lon="11.905379301526445"><ele>282.0</ele><time>2026-04-25T15:44:32.999Z</time></trkpt><trkpt lat="46.026487071255055" lon="11.90534739236779"><ele>282.0</ele><time>2026-04-25T15:44:33.999Z</time></trkpt><trkpt lat="46.026559239936" lon="11.905252297022118"><ele>282.0</ele><time>2026-04-25T15:44:34.999Z</time></trkpt><trkpt lat="46.02664927696714" lon="11.90515021497362"><ele>282.0</ele><time>2026-04-25T15:44:35.999Z</time></trkpt><trkpt lat="46.02675926190008" lon="11.90502834044105"><ele>282.0</ele><time>2026-04-25T15:44:36.999Z</time></trkpt><trkpt lat="46.02686351231823" lon="11.904953748468351"><ele>282.2</ele><time>2026-04-25T15:44:37.999Z</time></trkpt><trkpt lat="46.02696273169674" lon="11.904885692251877"><ele>282.4</ele><time>2026-04-25T15:44:38.999Z</time></trkpt><trkpt lat="46.02707500968733" lon="11.904815501384862"><ele>282.6</ele><time>2026-04-25T15:44:39.999Z</time></trkpt><trkpt lat="46.02716924462817" lon="11.904759805391649"><ele>282.8</ele><time>2026-04-25T15:44:40.999Z</time></trkpt><trkpt lat="46.027254437164466" lon="11.904716287833647"><ele>283.0</ele><time>2026-04-25T15:44:42Z</time></trkpt><trkpt lat="46.02735026747389" lon="11.90467202842854"><ele>283.0</ele><time>2026-04-25T15:44:43Z</time></trkpt><trkpt lat="46.027453074880924" lon="11.9046389817384"><ele>283.0</ele><time>2026-04-25T15:44:44Z</time></trkpt><trkpt lat="46.027561793483784" lon="11.904605228781106"><ele>283.0</ele><time>2026-04-25T15:44:45Z</time></trkpt><trkpt lat="46.027673162305376" lon="11.904576589998763"><ele>283.0</ele><time>2026-04-25T15:44:46Z</time></trkpt><trkpt lat="46.02778079631919" lon="11.904557591153393"><ele>283.0</ele><time>2026-04-25T15:44:47Z</time></trkpt><trkpt lat="46.0278719860393" lon="11.904543108176322"><ele>283.0</ele><time>2026-04-25T15:44:48Z</time></trkpt><trkpt lat="46.02796372034861" lon="11.90453277142266"><ele>283.0</ele><time>2026-04-25T15:44:49Z</time></trkpt><trkpt lat="46.02806117800974" lon="11.904525813245478"><ele>283.0</ele><time>2026-04-25T15:44:50Z</time></trkpt><trkpt lat="46.02816142090904" lon="11.904542418823851"><ele>283.0</ele><time>2026-04-25T15:44:51Z</time></trkpt><trkpt lat="46.02824337891125" lon="11.90452699143453"><ele>283.0</ele><time>2026-04-25T15:44:52Z</time></trkpt><trkpt lat="46.028323272799646" lon="11.90451195258479"><ele>283.3333333333333</ele><time>2026-04-25T15:44:53Z</time></trkpt><trkpt lat="46.02840467993816" lon="11.904477411247672"><ele>283.66666666666663</ele><time>2026-04-25T15:44:54Z</time></trkpt><trkpt lat="46.028487968173046" lon="11.904466558461278"><ele>284.0</ele><time>2026-04-25T15:44:55Z</time></trkpt><trkpt lat="46.0285754085569" lon="11.904452055472836"><ele>284.3333333333333</ele><time>2026-04-25T15:44:56Z</time></trkpt><trkpt lat="46.02866010799721" lon="11.90444085994164"><ele>284.6666666666667</ele><time>2026-04-25T15:44:57Z</time></trkpt><trkpt lat="46.02874631400088" lon="11.904436911977207"><ele>285.0</ele><time>2026-04-25T15:44:58Z</time></trkpt><trkpt lat="46.02883445363477" lon="11.904425223434435"><ele>285.0</ele><time>2026-04-25T15:44:59Z</time></trkpt><trkpt lat="46.02893082629158" lon="11.904399120936247"><ele>285.0</ele><time>2026-04-25T15:45:00Z</time></trkpt><trkpt lat="46.0290332829745" lon="11.904356327428792"><ele>285.0</ele><time>2026-04-25T15:45:01Z</time></trkpt><trkpt lat="46.02916544949595" lon="11.904316987917037"><ele>285.0</ele><time>2026-04-25T15:45:02Z</time></trkpt><trkpt lat="46.02929282179164" lon="11.904245773288528"><ele>286.6666666666667</ele><time>2026-04-25T15:45:03Z</time></trkpt><trkpt lat="46.02942501003147" lon="11.904153629740211"><ele>288.33333333333337</ele><time>2026-04-25T15:45:04Z</time></trkpt><trkpt lat="46.02955695328041" lon="11.904009547536269"><ele>290.0</ele><time>2026-04-25T15:45:05Z</time></trkpt><trkpt lat="46.029670268127525" lon="11.903872676451234"><ele>290.0</ele><time>2026-04-25T15:45:06Z</time></trkpt><trkpt lat="46.02978913908588" lon="11.903720111585368"><ele>290.0</ele><time>2026-04-25T15:45:07Z</time></trkpt><trkpt lat="46.02988959740125" lon="11.903565426327644"><ele>290.0</ele><time>2026-04-25T15:45:08Z</time></trkpt><trkpt lat="46.02996736211937" lon="11.903418507946398"><ele>290.0</ele><time>2026-04-25T15:45:09Z</time></trkpt><trkpt lat="46.03004153406805" lon="11.90325173248086"><ele>289.75</ele><time>2026-04-25T15:45:10Z</time></trkpt><trkpt lat="46.03011428070548" lon="11.903074410828376"><ele>289.5</ele><time>2026-04-25T15:45:11Z</time></trkpt><trkpt lat="46.030168387470454" lon="11.902874277003603"><ele>289.25</ele><time>2026-04-25T15:45:12Z</time></trkpt><trkpt lat="46.03022901951198" lon="11.902692826808945"><ele>289.0</ele><time>2026-04-25T15:45:13Z</time></trkpt><trkpt lat="46.03025856381551" lon="11.902521510784963"><ele>288.75</ele><time>2026-04-25T15:45:14Z</time></trkpt><trkpt lat="46.03026076029133" lon="11.902357596260705"><ele>288.5</ele><time>2026-04-25T15:45:15Z</time></trkpt><trkpt lat="46.03028533114053" lon="11.902174321461855"><ele>288.25</ele><time>2026-04-25T15:45:16Z</time></trkpt><trkpt lat="46.03028844314015" lon="11.901992376474958"><ele>288.0</ele><time>2026-04-25T15:45:17Z</time></trkpt><trkpt lat="46.03027179067487" lon="11.901835651196937"><ele>288.25</ele><time>2026-04-25T15:45:18Z</time></trkpt><trkpt lat="46.030262099887786" lon="11.901667661435424"><ele>288.5</ele><time>2026-04-25T15:45:19Z</time></trkpt><trkpt lat="46.030231260437475" lon="11.90148031720359"><ele>288.75</ele><time>2026-04-25T15:45:20Z</time></trkpt><trkpt lat="46.030197995891044" lon="11.901294901911415"><ele>289.0</ele><time>2026-04-25T15:45:21Z</time></trkpt><trkpt lat="46.03015227743891" lon="11.90111678000596"><ele>289.0</ele><time>2026-04-25T15:45:22Z</time></trkpt><trkpt lat="46.03010520473765" lon="11.900971693403969"><ele>289.0</ele><time>2026-04-25T15:45:23Z</time></trkpt><trkpt lat="46.0300594145039" lon="11.900845098991757"><ele>289.0</ele><time>2026-04-25T15:45:24Z</time></trkpt><trkpt lat="46.03000407377941" lon="11.900726334070079"><ele>289.0</ele><time>2026-04-25T15:45:25Z</time></trkpt><trkpt lat="46.02995460903974" lon="11.90062239823242"><ele>289.0</ele><time>2026-04-25T15:45:26Z</time></trkpt><trkpt lat="46.02990322874568" lon="11.900533142878324"><ele>289.0</ele><time>2026-04-25T15:45:27Z</time></trkpt><trkpt lat="46.02986517075331" lon="11.900459737523837"><ele>289.0</ele><time>2026-04-25T15:45:28Z</time></trkpt><trkpt lat="46.029826124750244" lon="11.900385092501475"><ele>289.0</ele><time>2026-04-25T15:45:30Z</time></trkpt><trkpt lat="46.02979756847185" lon="11.900293838154036"><ele>289.0</ele><time>2026-04-25T15:45:33Z</time></trkpt><trkpt lat="46.029859878530225" lon="11.900199198318338"><ele>289.0</ele><time>2026-04-25T15:45:36Z</time></trkpt><trkpt lat="46.02991566956293" lon="11.900116490320976"><ele>289.0</ele><time>2026-04-25T15:45:37Z</time></trkpt><trkpt lat="46.0299802997704" lon="11.900049440837973"><ele>289.0</ele><time>2026-04-25T15:45:38Z</time></trkpt><trkpt lat="46.030049512402016" lon="11.899967302090154"><ele>289.0</ele><time>2026-04-25T15:45:39Z</time></trkpt><trkpt lat="46.03014034802169" lon="11.899869051892527"><ele>289.0</ele><time>2026-04-25T15:45:40Z</time></trkpt><trkpt lat="46.03023685406253" lon="11.8997489283446"><ele>289.0</ele><time>2026-04-25T15:45:41Z</time></trkpt><trkpt lat="46.03032658209072" lon="11.899655340565992"><ele>289.0</ele><time>2026-04-25T15:45:42Z</time></trkpt><trkpt lat="46.03041580829748" lon="11.899566946556074"><ele>289.0</ele><time>2026-04-25T15:45:43Z</time></trkpt><trkpt lat="46.03049940663167" lon="11.899495979518672"><ele>289.0</ele><time>2026-04-25T15:45:44Z</time></trkpt><trkpt lat="46.03059957887318" lon="11.899439385782152"><ele>289.0</ele><time>2026-04-25T15:45:45Z</time></trkpt><trkpt lat="46.030704946987264" lon="11.899397749056401"><ele>289.0</ele><time>2026-04-25T15:45:46Z</time></trkpt><trkpt lat="46.03081552903961" lon="11.899364902025473"><ele>289.0</ele><time>2026-04-25T15:45:47Z</time></trkpt><trkpt lat="46.0309399493461" lon="11.899383944277456"><ele>290.0</ele><time>2026-04-25T15:45:48Z</time></trkpt><trkpt lat="46.0310815772289" lon="11.899361187117536"><ele>291.0</ele><time>2026-04-25T15:45:49Z</time></trkpt><trkpt lat="46.031251536149" lon="11.899357484712501"><ele>292.0</ele><time>2026-04-25T15:45:50Z</time></trkpt><trkpt lat="46.031422576473865" lon="11.899349979711209"><ele>292.0</ele><time>2026-04-25T15:45:51Z</time></trkpt><trkpt lat="46.03156705084919" lon="11.899345129102171"><ele>292.0</ele><time>2026-04-25T15:45:52Z</time></trkpt><trkpt lat="46.03169128467031" lon="11.899352526227686"><ele>292.0</ele><time>2026-04-25T15:45:53Z</time></trkpt><trkpt lat="46.03183444447245" lon="11.899358076771092"><ele>292.0</ele><time>2026-04-25T15:45:54Z</time></trkpt><trkpt lat="46.031995614934985" lon="11.899360571179946"><ele>292.5</ele><time>2026-04-25T15:45:55Z</time></trkpt><trkpt lat="46.03215320222948" lon="11.899387392816633"><ele>293.0</ele><time>2026-04-25T15:45:56Z</time></trkpt><trkpt lat="46.03229204019775" lon="11.899381537305382"><ele>293.5</ele><time>2026-04-25T15:45:57Z</time></trkpt><trkpt lat="46.03243569337654" lon="11.899390579225194"><ele>294.0</ele><time>2026-04-25T15:45:58Z</time></trkpt><trkpt lat="46.032592051631894" lon="11.899378599695682"><ele>294.6666666666667</ele><time>2026-04-25T15:45:59Z</time></trkpt><trkpt lat="46.03274926397053" lon="11.89938385691146"><ele>295.33333333333337</ele><time>2026-04-25T15:45:59.999Z</time></trkpt><trkpt lat="46.032925745484306" lon="11.89936846574898"><ele>296.0</ele><time>2026-04-25T15:46:00.999Z</time></trkpt><trkpt lat="46.033082801760855" lon="11.899327472539348"><ele>296.0</ele><time>2026-04-25T15:46:01.999Z</time></trkpt><trkpt lat="46.03322220387828" lon="11.89931532037033"><ele>296.0</ele><time>2026-04-25T15:46:02.999Z</time></trkpt><trkpt lat="46.03334698879559" lon="11.899300021668557"><ele>296.0</ele><time>2026-04-25T15:46:03.999Z</time></trkpt><trkpt lat="46.033459300529955" lon="11.899285572951193"><ele>296.0</ele><time>2026-04-25T15:46:04.999Z</time></trkpt><trkpt lat="46.03356347132845" lon="11.89927392992544"><ele>295.6</ele><time>2026-04-25T15:46:05.999Z</time></trkpt><trkpt lat="46.03366610845625" lon="11.899262492165487"><ele>295.20000000000005</ele><time>2026-04-25T15:46:06.999Z</time></trkpt><trkpt lat="46.03377399261746" lon="11.899276337203009"><ele>294.79999999999995</ele><time>2026-04-25T15:46:07.999Z</time></trkpt><trkpt lat="46.03387549714557" lon="11.89928847253178"><ele>294.4</ele><time>2026-04-25T15:46:08.999Z</time></trkpt><trkpt lat="46.03397359212839" lon="11.899337047387089"><ele>294.0</ele><time>2026-04-25T15:46:09.999Z</time></trkpt><trkpt lat="46.03407153060994" lon="11.89942017965073"><ele>294.75</ele><time>2026-04-25T15:46:10.999Z</time></trkpt><trkpt lat="46.034175884156866" lon="11.899508429869323"><ele>295.5</ele><time>2026-04-25T15:46:11.999Z</time></trkpt><trkpt lat="46.034283166537705" lon="11.89963191976928"><ele>296.25</ele><time>2026-04-25T15:46:12.999Z</time></trkpt><trkpt lat="46.03441693738826" lon="11.899760682457014"><ele>297.0</ele><time>2026-04-25T15:46:13.999Z</time></trkpt><trkpt lat="46.03456601898857" lon="11.899901950852298"><ele>297.0</ele><time>2026-04-25T15:46:14.999Z</time></trkpt><trkpt lat="46.03472330492224" lon="11.900053954794664"><ele>297.0</ele><time>2026-04-25T15:46:15.999Z</time></trkpt><trkpt lat="46.0348680106334" lon="11.900194856949394"><ele>297.0</ele><time>2026-04-25T15:46:16.999Z</time></trkpt><trkpt lat="46.03500390547122" lon="11.900325286954766"><ele>297.6666666666667</ele><time>2026-04-25T15:46:17.999Z</time></trkpt><trkpt lat="46.03514726104696" lon="11.900466310431614"><ele>298.33333333333337</ele><time>2026-04-25T15:46:18.999Z</time></trkpt><trkpt lat="46.03526756739029" lon="11.900588061399"><ele>299.0</ele><time>2026-04-25T15:46:19.999Z</time></trkpt><trkpt lat="46.035372297629245" lon="11.900700298991994"><ele>299.0</ele><time>2026-04-25T15:46:20.999Z</time></trkpt><trkpt lat="46.03547012494124" lon="11.900801708044867"><ele>299.0</ele><time>2026-04-25T15:46:21.999Z</time></trkpt><trkpt lat="46.03557541009607" lon="11.900907597724956"><ele>299.0</ele><time>2026-04-25T15:46:22.999Z</time></trkpt><trkpt lat="46.03567593792339" lon="11.901010534023461"><ele>299.0</ele><time>2026-04-25T15:46:23.999Z</time></trkpt><trkpt lat="46.03577212013683" lon="11.9011017123933"><ele>299.0</ele><time>2026-04-25T15:46:24.999Z</time></trkpt><trkpt lat="46.03587882336409" lon="11.901182775175874"><ele>299.0</ele><time>2026-04-25T15:46:25.999Z</time></trkpt><trkpt lat="46.03599616776216" lon="11.901247117488353"><ele>299.0</ele><time>2026-04-25T15:46:26.999Z</time></trkpt><trkpt lat="46.03609911925858" lon="11.90129345628686"><ele>299.0</ele><time>2026-04-25T15:46:27.999Z</time></trkpt><trkpt lat="46.03618515415526" lon="11.901331043179002"><ele>299.0</ele><time>2026-04-25T15:46:28.999Z</time></trkpt><trkpt lat="46.03627051648581" lon="11.90138254988533"><ele>299.0</ele><time>2026-04-25T15:46:29.999Z</time></trkpt><trkpt lat="46.03636518006342" lon="11.90145812452563"><ele>299.0</ele><time>2026-04-25T15:46:30.999Z</time></trkpt><trkpt lat="46.03645510195841" lon="11.901546619045371"><ele>299.0</ele><time>2026-04-25T15:46:31.999Z</time></trkpt><trkpt lat="46.03652911221859" lon="11.901639737979737"><ele>299.0</ele><time>2026-04-25T15:46:32.999Z</time></trkpt><trkpt lat="46.03660970040294" lon="11.901755069437694"><ele>299.0</ele><time>2026-04-25T15:46:33.999Z</time></trkpt><trkpt lat="46.03669201951492" lon="11.901879498459081"><ele>298.75</ele><time>2026-04-25T15:46:34.999Z</time></trkpt><trkpt lat="46.03677017784076" lon="11.902004827062955"><ele>298.5</ele><time>2026-04-25T15:46:35.999Z</time></trkpt><trkpt lat="46.0368540188315" lon="11.902137443169845"><ele>298.25</ele><time>2026-04-25T15:46:36.999Z</time></trkpt><trkpt lat="46.03693604550334" lon="11.902257649453459"><ele>298.0</ele><time>2026-04-25T15:46:37.999Z</time></trkpt><trkpt lat="46.03702964926901" lon="11.902374071850023"><ele>298.0</ele><time>2026-04-25T15:46:38.999Z</time></trkpt><trkpt lat="46.037139399674025" lon="11.902483772968521"><ele>298.0</ele><time>2026-04-25T15:46:39.999Z</time></trkpt><trkpt lat="46.03725626178795" lon="11.902591177130159"><ele>298.0</ele><time>2026-04-25T15:46:40.999Z</time></trkpt><trkpt lat="46.03737536551103" lon="11.902706875584158"><ele>298.0</ele><time>2026-04-25T15:46:41.999Z</time></trkpt><trkpt lat="46.03747724921365" lon="11.902809256120685"><ele>298.66666666666663</ele><time>2026-04-25T15:46:42.999Z</time></trkpt><trkpt lat="46.03756019712443" lon="11.90290231820697"><ele>299.3333333333333</ele><time>2026-04-25T15:46:43.999Z</time></trkpt><trkpt lat="46.03763827334488" lon="11.902981165568072"><ele>300.0</ele><time>2026-04-25T15:46:44.999Z</time></trkpt><trkpt lat="46.03770569398122" lon="11.903042438138879"><ele>300.6666666666667</ele><time>2026-04-25T15:46:45.999Z</time></trkpt><trkpt lat="46.03775933423571" lon="11.903096156063665"><ele>301.33333333333337</ele><time>2026-04-25T15:46:46.999Z</time></trkpt><trkpt lat="46.03781393687776" lon="11.903151961541559"><ele>302.0</ele><time>2026-04-25T15:46:48Z</time></trkpt><trkpt lat="46.037873012515405" lon="11.90321407980097"><ele>302.0</ele><time>2026-04-25T15:46:49Z</time></trkpt><trkpt lat="46.037941422446806" lon="11.903285164664124"><ele>302.0</ele><time>2026-04-25T15:46:50Z</time></trkpt><trkpt lat="46.03801636003473" lon="11.903360516290768"><ele>302.0</ele><time>2026-04-25T15:46:51Z</time></trkpt><trkpt lat="46.03809179366994" lon="11.90343717516951"><ele>302.0</ele><time>2026-04-25T15:46:52Z</time></trkpt><trkpt lat="46.03815408883464" lon="11.903511854579241"><ele>302.0</ele><time>2026-04-25T15:46:53Z</time></trkpt><trkpt lat="46.038204498890195" lon="11.903592754195197"><ele>302.0</ele><time>2026-04-25T15:46:54Z</time></trkpt><trkpt lat="46.03825585986418" lon="11.903676343313471"><ele>302.33333333333337</ele><time>2026-04-25T15:46:55Z</time></trkpt><trkpt lat="46.03830969612716" lon="11.903768708312079"><ele>302.6666666666667</ele><time>2026-04-25T15:46:56Z</time></trkpt><trkpt lat="46.038366185054166" lon="11.90386776259009"><ele>303.0</ele><time>2026-04-25T15:46:57Z</time></trkpt><trkpt lat="46.038419471159635" lon="11.90397151476026"><ele>303.3333333333333</ele><time>2026-04-25T15:46:58Z</time></trkpt><trkpt lat="46.038453536697844" lon="11.904077177271565"><ele>303.66666666666663</ele><time>2026-04-25T15:46:59Z</time></trkpt><trkpt lat="46.038483334034844" lon="11.904197206014077"><ele>304.0</ele><time>2026-04-25T15:47:00Z</time></trkpt><trkpt lat="46.038509195766196" lon="11.90435379144696"><ele>304.0</ele><time>2026-04-25T15:47:01Z</time></trkpt><trkpt lat="46.038518052522974" lon="11.904514227222961"><ele>304.0</ele><time>2026-04-25T15:47:02Z</time></trkpt><trkpt lat="46.03851669382331" lon="11.904669051040838"><ele>304.0</ele><time>2026-04-25T15:47:03Z</time></trkpt><trkpt lat="46.03851685557429" lon="11.904800243006397"><ele>304.0</ele><time>2026-04-25T15:47:04Z</time></trkpt><trkpt lat="46.03852374744751" lon="11.904910231734304"><ele>304.0</ele><time>2026-04-25T15:47:05Z</time></trkpt><trkpt lat="46.038544166378195" lon="11.905005390546163"><ele>304.0</ele><time>2026-04-25T15:47:06Z</time></trkpt><trkpt lat="46.038583506299894" lon="11.905100306156944"><ele>304.0</ele><time>2026-04-25T15:47:07Z</time></trkpt><trkpt lat="46.038617401453244" lon="11.905217770986285"><ele>304.0</ele><time>2026-04-25T15:47:08Z</time></trkpt><trkpt lat="46.038683169591444" lon="11.905301887873513"><ele>304.0</ele><time>2026-04-25T15:47:09Z</time></trkpt><trkpt lat="46.03876815487719" lon="11.905374689062686"><ele>304.0</ele><time>2026-04-25T15:47:10Z</time></trkpt><trkpt lat="46.03887027319668" lon="11.905436235325352"><ele>304.0</ele><time>2026-04-25T15:47:11Z</time></trkpt><trkpt lat="46.038960255382285" lon="11.905481706102256"><ele>304.0</ele><time>2026-04-25T15:47:12Z</time></trkpt><trkpt lat="46.03903553408921" lon="11.905519810479715"><ele>304.0</ele><time>2026-04-25T15:47:13Z</time></trkpt><trkpt lat="46.03909495435814" lon="11.905551884050068"><ele>304.0</ele><time>2026-04-25T15:47:14Z</time></trkpt><trkpt lat="46.03916661493708" lon="11.905593846238142"><ele>304.0</ele><time>2026-04-25T15:47:16Z</time></trkpt><trkpt lat="46.0391304541417" lon="11.905843247974184"><ele>304.25</ele><time>2026-04-25T15:47:19Z</time></trkpt><trkpt lat="46.03909218290342" lon="11.905975170608155"><ele>304.5</ele><time>2026-04-25T15:47:20Z</time></trkpt><trkpt lat="46.03905886866858" lon="11.906121959604086"><ele>304.75</ele><time>2026-04-25T15:47:21Z</time></trkpt><trkpt lat="46.039016907300734" lon="11.906322287734454"><ele>305.0</ele><time>2026-04-25T15:47:22Z</time></trkpt><trkpt lat="46.03896257346477" lon="11.90652842073813"><ele>305.0</ele><time>2026-04-25T15:47:23Z</time></trkpt><trkpt lat="46.038935984413804" lon="11.90671421024242"><ele>305.0</ele><time>2026-04-25T15:47:24Z</time></trkpt><trkpt lat="46.038897663462464" lon="11.906906070154054"><ele>305.0</ele><time>2026-04-25T15:47:25Z</time></trkpt><trkpt lat="46.03888549678231" lon="11.90707887081067"><ele>305.0</ele><time>2026-04-25T15:47:26Z</time></trkpt><trkpt lat="46.03888434263764" lon="11.907271812680879"><ele>305.25</ele><time>2026-04-25T15:47:27Z</time></trkpt><trkpt lat="46.03890395679596" lon="11.90747521284791"><ele>305.5</ele><time>2026-04-25T15:47:28Z</time></trkpt><trkpt lat="46.03893567556536" lon="11.907656934364152"><ele>305.75</ele><time>2026-04-25T15:47:29Z</time></trkpt><trkpt lat="46.03898855571573" lon="11.907841044256608"><ele>306.0</ele><time>2026-04-25T15:47:30Z</time></trkpt><trkpt lat="46.039055207569696" lon="11.908023826693329"><ele>306.6666666666667</ele><time>2026-04-25T15:47:31Z</time></trkpt><trkpt lat="46.03913860350288" lon="11.908198349209645"><ele>307.33333333333337</ele><time>2026-04-25T15:47:32Z</time></trkpt><trkpt lat="46.03923903467059" lon="11.908375706485808"><ele>308.0</ele><time>2026-04-25T15:47:33Z</time></trkpt><trkpt lat="46.03934575549473" lon="11.908534388234182"><ele>308.5</ele><time>2026-04-25T15:47:34Z</time></trkpt><trkpt lat="46.03944518016542" lon="11.908679180255282"><ele>309.0</ele><time>2026-04-25T15:47:35Z</time></trkpt><trkpt lat="46.0395348336454" lon="11.90880646943397"><ele>309.5</ele><time>2026-04-25T15:47:36Z</time></trkpt><trkpt lat="46.03962615383734" lon="11.90894845200178"><ele>310.0</ele><time>2026-04-25T15:47:37Z</time></trkpt><trkpt lat="46.03972650091199" lon="11.909084173569413"><ele>310.0</ele><time>2026-04-25T15:47:38Z</time></trkpt><trkpt lat="46.03980283706452" lon="11.909195016988551"><ele>310.0</ele><time>2026-04-25T15:47:39Z</time></trkpt><trkpt lat="46.03987664614646" lon="11.909291187931638"><ele>310.0</ele><time>2026-04-25T15:47:40Z</time></trkpt><trkpt lat="46.03994749236965" lon="11.909357687854902"><ele>310.0</ele><time>2026-04-25T15:47:41Z</time></trkpt><trkpt lat="46.04000188292799" lon="11.90943786403374"><ele>310.0</ele><time>2026-04-25T15:47:42Z</time></trkpt><trkpt lat="46.04004026191676" lon="11.90953770189315"><ele>310.0</ele><time>2026-04-25T15:47:43Z</time></trkpt><trkpt lat="46.04004353860334" lon="11.909633311265074"><ele>310.14285714285717</ele><time>2026-04-25T15:47:44Z</time></trkpt><trkpt lat="46.040024041021894" lon="11.909723529749042"><ele>310.2857142857143</ele><time>2026-04-25T15:47:45Z</time></trkpt><trkpt lat="46.04004454918041" lon="11.909883967695903"><ele>310.42857142857144</ele><time>2026-04-25T15:47:47Z</time></trkpt><trkpt lat="46.040085676539405" lon="11.909953326628521"><ele>310.57142857142856</ele><time>2026-04-25T15:47:48Z</time></trkpt><trkpt lat="46.040134388645704" lon="11.91001545634777"><ele>310.7142857142857</ele><time>2026-04-25T15:47:49Z</time></trkpt><trkpt lat="46.0401996369318" lon="11.910007781100374"><ele>310.85714285714283</ele><time>2026-04-25T15:47:50Z</time></trkpt><trkpt lat="46.04025990394091" lon="11.909966807648955"><ele>311.0</ele><time>2026-04-25T15:47:51Z</time></trkpt><trkpt lat="46.040326259130815" lon="11.909912898201984"><ele>311.0</ele><time>2026-04-25T15:47:52Z</time></trkpt><trkpt lat="46.04039067795896" lon="11.909839464347032"><ele>311.0</ele><time>2026-04-25T15:47:53Z</time></trkpt><trkpt lat="46.040490213574685" lon="11.909863529207996"><ele>311.0</ele><time>2026-04-25T15:47:54Z</time></trkpt><trkpt lat="46.040588827764566" lon="11.909889843946079"><ele>311.0</ele><time>2026-04-25T15:47:55Z</time></trkpt><trkpt lat="46.040716130519804" lon="11.909933951476718"><ele>311.0</ele><time>2026-04-25T15:47:56Z</time></trkpt><trkpt lat="46.04086010919541" lon="11.909986622872118"><ele>311.0</ele><time>2026-04-25T15:47:57Z</time></trkpt><trkpt lat="46.041003413053836" lon="11.910047457432063"><ele>311.0</ele><time>2026-04-25T15:47:58Z</time></trkpt><trkpt lat="46.04116099199286" lon="11.910105340525636"><ele>311.0</ele><time>2026-04-25T15:47:59Z</time></trkpt><trkpt lat="46.04132157329134" lon="11.910169624015182"><ele>311.0</ele><time>2026-04-25T15:48:00Z</time></trkpt><trkpt lat="46.04147885432726" lon="11.91023136477137"><ele>311.0</ele><time>2026-04-25T15:48:01Z</time></trkpt><trkpt lat="46.04164329612968" lon="11.91030066372442"><ele>311.0</ele><time>2026-04-25T15:48:01.999Z</time></trkpt><trkpt lat="46.04181076010556" lon="11.910367167340821"><ele>313.33333333333337</ele><time>2026-04-25T15:48:02.999Z</time></trkpt><trkpt lat="46.04197803757488" lon="11.910431820498715"><ele>315.6666666666667</ele><time>2026-04-25T15:48:03.999Z</time></trkpt><trkpt lat="46.04213726948375" lon="11.910493703524454"><ele>318.0</ele><time>2026-04-25T15:48:04.999Z</time></trkpt><trkpt lat="46.042280558232285" lon="11.910551355688149"><ele>318.0</ele><time>2026-04-25T15:48:05.999Z</time></trkpt><trkpt lat="46.04242474023121" lon="11.910609123618043"><ele>318.0</ele><time>2026-04-25T15:48:06.999Z</time></trkpt><trkpt lat="46.042578077735435" lon="11.910671863207357"><ele>318.0</ele><time>2026-04-25T15:48:07.999Z</time></trkpt><trkpt lat="46.042727860459856" lon="11.910727980287586"><ele>318.0</ele><time>2026-04-25T15:48:08.999Z</time></trkpt><trkpt lat="46.04287873462064" lon="11.910788647788731"><ele>318.0</ele><time>2026-04-25T15:48:09.999Z</time></trkpt><trkpt lat="46.043034446820535" lon="11.910853000705677"><ele>318.0</ele><time>2026-04-25T15:48:10.999Z</time></trkpt><trkpt lat="46.04320159775054" lon="11.910921446118984"><ele>319.6666666666667</ele><time>2026-04-25T15:48:11.999Z</time></trkpt><trkpt lat="46.04338020148354" lon="11.910989527974042"><ele>321.33333333333337</ele><time>2026-04-25T15:48:12.999Z</time></trkpt><trkpt lat="46.04356780555796" lon="11.91106514566153"><ele>323.0</ele><time>2026-04-25T15:48:13.999Z</time></trkpt><trkpt lat="46.04374035716654" lon="11.911132886165401"><ele>323.0</ele><time>2026-04-25T15:48:14.999Z</time></trkpt><trkpt lat="46.04388694630349" lon="11.91119373488014"><ele>323.0</ele><time>2026-04-25T15:48:15.999Z</time></trkpt><trkpt lat="46.04402852483502" lon="11.911254343212484"><ele>323.0</ele><time>2026-04-25T15:48:16.999Z</time></trkpt><trkpt lat="46.044173198671" lon="11.911316029458924"><ele>324.0</ele><time>2026-04-25T15:48:17.999Z</time></trkpt><trkpt lat="46.04432362670309" lon="11.911393014538758"><ele>325.0</ele><time>2026-04-25T15:48:18.999Z</time></trkpt><trkpt lat="46.04447128815026" lon="11.911486423501618"><ele>326.0</ele><time>2026-04-25T15:48:19.999Z</time></trkpt><trkpt lat="46.044620628377515" lon="11.911587832686298"><ele>326.0</ele><time>2026-04-25T15:48:20.999Z</time></trkpt><trkpt lat="46.0447689568706" lon="11.911697132365573"><ele>326.0</ele><time>2026-04-25T15:48:21.999Z</time></trkpt><trkpt lat="46.04491458409269" lon="11.911821474223348"><ele>326.0</ele><time>2026-04-25T15:48:22.999Z</time></trkpt><trkpt lat="46.045053994934335" lon="11.91195556478407"><ele>326.6666666666667</ele><time>2026-04-25T15:48:23.999Z</time></trkpt><trkpt lat="46.04518607126396" lon="11.9120912890322"><ele>327.3333333333333</ele><time>2026-04-25T15:48:24.999Z</time></trkpt><trkpt lat="46.04531133270886" lon="11.91222140581201"><ele>328.0</ele><time>2026-04-25T15:48:25.999Z</time></trkpt><trkpt lat="46.04543642303005" lon="11.912360006005706"><ele>328.0</ele><time>2026-04-25T15:48:26.999Z</time></trkpt><trkpt lat="46.04555963698756" lon="11.912507076634013"><ele>328.0</ele><time>2026-04-25T15:48:27.999Z</time></trkpt><trkpt lat="46.045678811403626" lon="11.912667753311528"><ele>328.0</ele><time>2026-04-25T15:48:28.999Z</time></trkpt><trkpt lat="46.0458032306778" lon="11.91284121562301"><ele>328.3333333333333</ele><time>2026-04-25T15:48:29.999Z</time></trkpt><trkpt lat="46.045917847662324" lon="11.913016480596538"><ele>328.6666666666667</ele><time>2026-04-25T15:48:30.999Z</time></trkpt><trkpt lat="46.04602425486905" lon="11.913184179428857"><ele>329.0</ele><time>2026-04-25T15:48:31.999Z</time></trkpt><trkpt lat="46.04613433200447" lon="11.91335643568284"><ele>329.0</ele><time>2026-04-25T15:48:32.999Z</time></trkpt><trkpt lat="46.046246579192214" lon="11.91354386368792"><ele>329.0</ele><time>2026-04-25T15:48:33.999Z</time></trkpt><trkpt lat="46.04635185270674" lon="11.913733582431401"><ele>329.0</ele><time>2026-04-25T15:48:34.999Z</time></trkpt><trkpt lat="46.046441832338765" lon="11.91391647924575"><ele>329.0</ele><time>2026-04-25T15:48:35.999Z</time></trkpt><trkpt lat="46.04652447184414" lon="11.914095116200311"><ele>329.0</ele><time>2026-04-25T15:48:36.999Z</time></trkpt><trkpt lat="46.04661448838503" lon="11.914278721971067"><ele>329.0</ele><time>2026-04-25T15:48:37.999Z</time></trkpt><trkpt lat="46.0467076899204" lon="11.914463983242463"><ele>330.33333333333337</ele><time>2026-04-25T15:48:38.999Z</time></trkpt><trkpt lat="46.04680015957341" lon="11.914649765218453"><ele>331.6666666666667</ele><time>2026-04-25T15:48:39.999Z</time></trkpt><trkpt lat="46.04689771039251" lon="11.91484273453347"><ele>333.0</ele><time>2026-04-25T15:48:40.999Z</time></trkpt><trkpt lat="46.0469959031348" lon="11.915039253705018"><ele>331.6666666666667</ele><time>2026-04-25T15:48:41.999Z</time></trkpt><trkpt lat="46.04710022813217" lon="11.91524235119189"><ele>330.33333333333337</ele><time>2026-04-25T15:48:42.999Z</time></trkpt><trkpt lat="46.04720124252119" lon="11.915436706294932"><ele>329.0</ele><time>2026-04-25T15:48:43.999Z</time></trkpt><trkpt lat="46.047313654456325" lon="11.915620943983615"><ele>329.0</ele><time>2026-04-25T15:48:44.999Z</time></trkpt><trkpt lat="46.04742831012015" lon="11.915813972753554"><ele>329.0</ele><time>2026-04-25T15:48:45.999Z</time></trkpt><trkpt lat="46.04756368617019" lon="11.915995746176813"><ele>329.0</ele><time>2026-04-25T15:48:46.999Z</time></trkpt><trkpt lat="46.047719111351746" lon="11.916160864129985"><ele>329.33333333333337</ele><time>2026-04-25T15:48:47.999Z</time></trkpt><trkpt lat="46.0478870856496" lon="11.916310248792326"><ele>329.6666666666667</ele><time>2026-04-25T15:48:48.999Z</time></trkpt><trkpt lat="46.0480523547162" lon="11.91647898034332"><ele>330.0</ele><time>2026-04-25T15:48:49.999Z</time></trkpt><trkpt lat="46.04820874834855" lon="11.916628757318191"><ele>330.0</ele><time>2026-04-25T15:48:50.999Z</time></trkpt><trkpt lat="46.048363934159674" lon="11.916740983414064"><ele>330.0</ele><time>2026-04-25T15:48:51.999Z</time></trkpt><trkpt lat="46.04849457768144" lon="11.916892583756622"><ele>330.0</ele><time>2026-04-25T15:48:52.999Z</time></trkpt><trkpt lat="46.048624697989794" lon="11.916993837525453"><ele>330.0</ele><time>2026-04-25T15:48:54Z</time></trkpt><trkpt lat="46.04875462444284" lon="11.917125301316661"><ele>330.0</ele><time>2026-04-25T15:48:55Z</time></trkpt><trkpt lat="46.0488940313676" lon="11.91726850787793"><ele>330.0</ele><time>2026-04-25T15:48:56Z</time></trkpt><trkpt lat="46.049031494915376" lon="11.917384574783917"><ele>331.3333333333333</ele><time>2026-04-25T15:48:57Z</time></trkpt><trkpt lat="46.04915737641198" lon="11.917506185505994"><ele>332.66666666666663</ele><time>2026-04-25T15:48:58Z</time></trkpt><trkpt lat="46.04928883841486" lon="11.917622449251615"><ele>334.0</ele><time>2026-04-25T15:48:59Z</time></trkpt><trkpt lat="46.04940633418498" lon="11.91775611955187"><ele>334.0</ele><time>2026-04-25T15:49:00Z</time></trkpt><trkpt lat="46.04954003201076" lon="11.917882872499103"><ele>334.0</ele><time>2026-04-25T15:49:01Z</time></trkpt><trkpt lat="46.04967383295486" lon="11.918004972422246"><ele>334.0</ele><time>2026-04-25T15:49:02Z</time></trkpt><trkpt lat="46.04980169482528" lon="11.9181263060712"><ele>334.0</ele><time>2026-04-25T15:49:03Z</time></trkpt><trkpt lat="46.04991685607302" lon="11.918249277001184"><ele>334.0</ele><time>2026-04-25T15:49:04Z</time></trkpt><trkpt lat="46.0500379898853" lon="11.918349566364817"><ele>334.0</ele><time>2026-04-25T15:49:05Z</time></trkpt><trkpt lat="46.05015814901493" lon="11.91846289489221"><ele>334.0</ele><time>2026-04-25T15:49:06Z</time></trkpt><trkpt lat="46.05028202433805" lon="11.918581320124558"><ele>334.0</ele><time>2026-04-25T15:49:07Z</time></trkpt><trkpt lat="46.05040709490816" lon="11.918701983114797"><ele>334.0</ele><time>2026-04-25T15:49:08Z</time></trkpt><trkpt lat="46.05053358763844" lon="11.918822416546412"><ele>334.0</ele><time>2026-04-25T15:49:09Z</time></trkpt><trkpt lat="46.05066232290193" lon="11.91894171728811"><ele>334.3333333333333</ele><time>2026-04-25T15:49:10Z</time></trkpt><trkpt lat="46.050793457712615" lon="11.91906468190661"><ele>334.6666666666667</ele><time>2026-04-25T15:49:11Z</time></trkpt><trkpt lat="46.05092263888278" lon="11.919193578302444"><ele>335.0</ele><time>2026-04-25T15:49:12Z</time></trkpt><trkpt lat="46.05104249095653" lon="11.919310209386206"><ele>335.25</ele><time>2026-04-25T15:49:13Z</time></trkpt><trkpt lat="46.05115024399511" lon="11.91943571249459"><ele>335.5</ele><time>2026-04-25T15:49:14Z</time></trkpt><trkpt lat="46.05125377343162" lon="11.919534229165127"><ele>335.75</ele><time>2026-04-25T15:49:15Z</time></trkpt><trkpt lat="46.05134484296586" lon="11.919618684207501"><ele>336.0</ele><time>2026-04-25T15:49:16Z</time></trkpt><trkpt lat="46.05144694682071" lon="11.919694498655083"><ele>336.0</ele><time>2026-04-25T15:49:17Z</time></trkpt><trkpt lat="46.05153500539526" lon="11.919774179346621"><ele>336.0</ele><time>2026-04-25T15:49:18Z</time></trkpt><trkpt lat="46.051583013636964" lon="11.919939353516972"><ele>336.0</ele><time>2026-04-25T15:49:19Z</time></trkpt><trkpt lat="46.05169929288384" lon="11.919934554762834"><ele>336.0</ele><time>2026-04-25T15:49:20Z</time></trkpt><trkpt lat="46.05175814343475" lon="11.919981464582943"><ele>336.0</ele><time>2026-04-25T15:49:21Z</time></trkpt><trkpt lat="46.051822455474124" lon="11.920074473616207"><ele>336.20000000000005</ele><time>2026-04-25T15:49:23Z</time></trkpt><trkpt lat="46.05192441884237" lon="11.92016315755203"><ele>336.40000000000003</ele><time>2026-04-25T15:49:25Z</time></trkpt><trkpt lat="46.05199148903284" lon="11.920252572037352"><ele>336.6</ele><time>2026-04-25T15:49:26Z</time></trkpt><trkpt lat="46.05206395425869" lon="11.920359146889583"><ele>336.8</ele><time>2026-04-25T15:49:27Z</time></trkpt><trkpt lat="46.052158176774796" lon="11.920495757725627"><ele>337.0</ele><time>2026-04-25T15:49:28Z</time></trkpt><trkpt lat="46.05223855706677" lon="11.920649658243581"><ele>337.0</ele><time>2026-04-25T15:49:29Z</time></trkpt><trkpt lat="46.05232525788904" lon="11.920844319523535"><ele>337.0</ele><time>2026-04-25T15:49:30Z</time></trkpt><trkpt lat="46.052418552940956" lon="11.92104791588157"><ele>337.0</ele><time>2026-04-25T15:49:31Z</time></trkpt><trkpt lat="46.052507506670956" lon="11.921245995857864"><ele>338.3333333333333</ele><time>2026-04-25T15:49:32Z</time></trkpt><trkpt lat="46.052600914918216" lon="11.92145644403986"><ele>339.6666666666667</ele><time>2026-04-25T15:49:33Z</time></trkpt><trkpt lat="46.052697394963474" lon="11.921671698855198"><ele>341.0</ele><time>2026-04-25T15:49:34Z</time></trkpt><trkpt lat="46.05279566361039" lon="11.921887499174034"><ele>341.0</ele><time>2026-04-25T15:49:35Z</time></trkpt><trkpt lat="46.052884462189034" lon="11.922086946800905"><ele>341.0</ele><time>2026-04-25T15:49:36Z</time></trkpt><trkpt lat="46.05297400929428" lon="11.922295357175871"><ele>341.0</ele><time>2026-04-25T15:49:37Z</time></trkpt><trkpt lat="46.05306858402962" lon="11.922491011325963"><ele>341.0</ele><time>2026-04-25T15:49:38Z</time></trkpt><trkpt lat="46.05316717619827" lon="11.922684494511422"><ele>341.0</ele><time>2026-04-25T15:49:39Z</time></trkpt><trkpt lat="46.05327017721769" lon="11.922887295248794"><ele>341.0</ele><time>2026-04-25T15:49:40Z</time></trkpt><trkpt lat="46.053367383056866" lon="11.923059300707303"><ele>341.5</ele><time>2026-04-25T15:49:41Z</time></trkpt><trkpt lat="46.05345658932256" lon="11.923224869007166"><ele>342.0</ele><time>2026-04-25T15:49:42Z</time></trkpt><trkpt lat="46.05355031226182" lon="11.923390193282641"><ele>342.5</ele><time>2026-04-25T15:49:43Z</time></trkpt><trkpt lat="46.053643324643275" lon="11.92356110301858"><ele>343.0</ele><time>2026-04-25T15:49:44Z</time></trkpt><trkpt lat="46.053735747833294" lon="11.923724302917714"><ele>343.25</ele><time>2026-04-25T15:49:45Z</time></trkpt><trkpt lat="46.05382154718774" lon="11.92387479257936"><ele>343.5</ele><time>2026-04-25T15:49:46Z</time></trkpt><trkpt lat="46.053903322651564" lon="11.924020600123264"><ele>343.75</ele><time>2026-04-25T15:49:47Z</time></trkpt><trkpt lat="46.05398449758417" lon="11.924170150458547"><ele>344.0</ele><time>2026-04-25T15:49:48Z</time></trkpt><trkpt lat="46.05406861208579" lon="11.924319668020498"><ele>345.25</ele><time>2026-04-25T15:49:49Z</time></trkpt><trkpt lat="46.05415203130672" lon="11.924472313431203"><ele>346.5</ele><time>2026-04-25T15:49:50Z</time></trkpt><trkpt lat="46.05424353424157" lon="11.924628365087237"><ele>347.75</ele><time>2026-04-25T15:49:51Z</time></trkpt><trkpt lat="46.05432326318318" lon="11.924776552480928"><ele>349.0</ele><time>2026-04-25T15:49:52Z</time></trkpt><trkpt lat="46.05440903656175" lon="11.924934106135703"><ele>349.0</ele><time>2026-04-25T15:49:53Z</time></trkpt><trkpt lat="46.05451080214435" lon="11.925087494969503"><ele>349.0</ele><time>2026-04-25T15:49:54Z</time></trkpt><trkpt lat="46.05458812890717" lon="11.925252594798959"><ele>349.0</ele><time>2026-04-25T15:49:55Z</time></trkpt><trkpt lat="46.05467185113842" lon="11.925407192658213"><ele>349.0</ele><time>2026-04-25T15:49:56Z</time></trkpt><trkpt lat="46.054761310599865" lon="11.925567278772476"><ele>349.0</ele><time>2026-04-25T15:49:57Z</time></trkpt><trkpt lat="46.054846457668056" lon="11.92573162692044"><ele>349.0</ele><time>2026-04-25T15:49:58Z</time></trkpt><trkpt lat="46.05495051288251" lon="11.925872091480732"><ele>349.0</ele><time>2026-04-25T15:49:59Z</time></trkpt><trkpt lat="46.0550344690998" lon="11.926042329940536"><ele>349.0</ele><time>2026-04-25T15:50:00Z</time></trkpt><trkpt lat="46.05514843738092" lon="11.926181598727771"><ele>349.75</ele><time>2026-04-25T15:50:01Z</time></trkpt><trkpt lat="46.05526356741643" lon="11.926315538693569"><ele>350.5</ele><time>2026-04-25T15:50:02Z</time></trkpt><trkpt lat="46.055380344868105" lon="11.926447035808154"><ele>351.25</ele><time>2026-04-25T15:50:03Z</time></trkpt><trkpt lat="46.05549812272005" lon="11.926579019076451"><ele>352.0</ele><time>2026-04-25T15:50:04Z</time></trkpt><trkpt lat="46.05561755244762" lon="11.926713815621753"><ele>351.75</ele><time>2026-04-25T15:50:05Z</time></trkpt><trkpt lat="46.05574165569157" lon="11.926846953476065"><ele>351.5</ele><time>2026-04-25T15:50:06Z</time></trkpt><trkpt lat="46.055856161377086" lon="11.926963144140888"><ele>351.25</ele><time>2026-04-25T15:50:07Z</time></trkpt><trkpt lat="46.055979575530124" lon="11.927077947105762"><ele>351.0</ele><time>2026-04-25T15:50:08Z</time></trkpt><trkpt lat="46.05610756688231" lon="11.92719116925539"><ele>352.3333333333333</ele><time>2026-04-25T15:50:09Z</time></trkpt><trkpt lat="46.05623595354002" lon="11.927310865626758"><ele>353.66666666666663</ele><time>2026-04-25T15:50:09.999Z</time></trkpt><trkpt lat="46.056363591011994" lon="11.927431162318063"><ele>355.0</ele><time>2026-04-25T15:50:10.999Z</time></trkpt><trkpt lat="46.056492197672796" lon="11.927550995860113"><ele>354.75</ele><time>2026-04-25T15:50:11.999Z</time></trkpt><trkpt lat="46.05659060553039" lon="11.927680900328395"><ele>354.5</ele><time>2026-04-25T15:50:12.999Z</time></trkpt><trkpt lat="46.056723871121164" lon="11.927798616084774"><ele>354.25</ele><time>2026-04-25T15:50:13.999Z</time></trkpt><trkpt lat="46.05685307434797" lon="11.927912317050142"><ele>354.0</ele><time>2026-04-25T15:50:14.999Z</time></trkpt><trkpt lat="46.05698282476751" lon="11.92802515241646"><ele>355.6666666666667</ele><time>2026-04-25T15:50:15.999Z</time></trkpt><trkpt lat="46.05710770248584" lon="11.928139542342473"><ele>357.33333333333337</ele><time>2026-04-25T15:50:16.999Z</time></trkpt><trkpt lat="46.05723652980623" lon="11.92826182569514"><ele>359.0</ele><time>2026-04-25T15:50:17.999Z</time></trkpt><trkpt lat="46.05736450279818" lon="11.92837943772786"><ele>359.0</ele><time>2026-04-25T15:50:18.999Z</time></trkpt><trkpt lat="46.05749887843916" lon="11.928497619717582"><ele>359.0</ele><time>2026-04-25T15:50:19.999Z</time></trkpt><trkpt lat="46.05762939518548" lon="11.928621829068238"><ele>359.0</ele><time>2026-04-25T15:50:20.999Z</time></trkpt><trkpt lat="46.057749917741305" lon="11.928737752580188"><ele>359.0</ele><time>2026-04-25T15:50:21.999Z</time></trkpt><trkpt lat="46.057882544169374" lon="11.928875010665354"><ele>359.0</ele><time>2026-04-25T15:50:22.999Z</time></trkpt><trkpt lat="46.05797168261193" lon="11.929020147350991"><ele>359.0</ele><time>2026-04-25T15:50:23.999Z</time></trkpt><trkpt lat="46.05809027442119" lon="11.929146180796387"><ele>359.0</ele><time>2026-04-25T15:50:24.999Z</time></trkpt><trkpt lat="46.05822798058352" lon="11.929263560811979"><ele>359.6666666666667</ele><time>2026-04-25T15:50:25.999Z</time></trkpt><trkpt lat="46.05833627518719" lon="11.929417728037263"><ele>360.3333333333333</ele><time>2026-04-25T15:50:26.999Z</time></trkpt><trkpt lat="46.05844296137285" lon="11.9295790487692"><ele>361.0</ele><time>2026-04-25T15:50:27.999Z</time></trkpt><trkpt lat="46.05854661038136" lon="11.929727681081692"><ele>361.0</ele><time>2026-04-25T15:50:28.999Z</time></trkpt><trkpt lat="46.0586440932042" lon="11.929862861935728"><ele>361.0</ele><time>2026-04-25T15:50:29.999Z</time></trkpt><trkpt lat="46.05874441319712" lon="11.930009940910251"><ele>361.0</ele><time>2026-04-25T15:50:30.999Z</time></trkpt><trkpt lat="46.05885226557293" lon="11.930162031544887"><ele>361.0</ele><time>2026-04-25T15:50:31.999Z</time></trkpt><trkpt lat="46.05895561983507" lon="11.930296990675798"><ele>361.25</ele><time>2026-04-25T15:50:32.999Z</time></trkpt><trkpt lat="46.05904159141794" lon="11.930435648602407"><ele>361.5</ele><time>2026-04-25T15:50:33.999Z</time></trkpt><trkpt lat="46.05913298413268" lon="11.930575673709585"><ele>361.75</ele><time>2026-04-25T15:50:34.999Z</time></trkpt><trkpt lat="46.05922668526701" lon="11.930718444733433"><ele>362.0</ele><time>2026-04-25T15:50:35.999Z</time></trkpt><trkpt lat="46.059312338900305" lon="11.930872769301445"><ele>362.5</ele><time>2026-04-25T15:50:36.999Z</time></trkpt><trkpt lat="46.05938327359683" lon="11.931025764334398"><ele>363.0</ele><time>2026-04-25T15:50:37.999Z</time></trkpt><trkpt lat="46.05945057519072" lon="11.931175117542534"><ele>363.5</ele><time>2026-04-25T15:50:38.999Z</time></trkpt><trkpt lat="46.05951595265012" lon="11.93132369368932"><ele>364.0</ele><time>2026-04-25T15:50:39.999Z</time></trkpt><trkpt lat="46.05958117053253" lon="11.931469517516868"><ele>364.0</ele><time>2026-04-25T15:50:40.999Z</time></trkpt><trkpt lat="46.059649399894546" lon="11.931613250639442"><ele>364.0</ele><time>2026-04-25T15:50:41.999Z</time></trkpt><trkpt lat="46.05971119765116" lon="11.931757494007469"><ele>364.0</ele><time>2026-04-25T15:50:42.999Z</time></trkpt><trkpt lat="46.059769974595845" lon="11.931897076943105"><ele>364.0</ele><time>2026-04-25T15:50:43.999Z</time></trkpt><trkpt lat="46.059828485458176" lon="11.93203775011685"><ele>364.0</ele><time>2026-04-25T15:50:44.999Z</time></trkpt><trkpt lat="46.05986177730395" lon="11.932176114463697"><ele>364.0</ele><time>2026-04-25T15:50:45.999Z</time></trkpt><trkpt lat="46.05988747329824" lon="11.93231841463516"><ele>364.0</ele><time>2026-04-25T15:50:46.999Z</time></trkpt><trkpt lat="46.05990242217686" lon="11.932452816463847"><ele>364.0</ele><time>2026-04-25T15:50:47.999Z</time></trkpt><trkpt lat="46.059915706413385" lon="11.93259701059836"><ele>364.0</ele><time>2026-04-25T15:50:48.999Z</time></trkpt><trkpt lat="46.05992205037539" lon="11.932763206794528"><ele>364.0</ele><time>2026-04-25T15:50:49.999Z</time></trkpt><trkpt lat="46.059937977719436" lon="11.93291995209712"><ele>364.0</ele><time>2026-04-25T15:50:50.999Z</time></trkpt><trkpt lat="46.059962434747504" lon="11.933087135744865"><ele>364.0</ele><time>2026-04-25T15:50:51.999Z</time></trkpt><trkpt lat="46.05998106832584" lon="11.93325403421183"><ele>364.0</ele><time>2026-04-25T15:50:52.999Z</time></trkpt><trkpt lat="46.05999658184652" lon="11.933364705151305"><ele>364.0</ele><time>2026-04-25T15:50:53.999Z</time></trkpt><trkpt lat="46.0600392086472" lon="11.933514519955112"><ele>363.2</ele><time>2026-04-25T15:50:54.999Z</time></trkpt><trkpt lat="46.06009153418885" lon="11.933648281739112"><ele>362.4</ele><time>2026-04-25T15:50:55.999Z</time></trkpt><trkpt lat="46.06015974634963" lon="11.933803513197871"><ele>361.6</ele><time>2026-04-25T15:50:56.999Z</time></trkpt><trkpt lat="46.060217943349166" lon="11.933920003623326"><ele>360.8</ele><time>2026-04-25T15:50:57.999Z</time></trkpt><trkpt lat="46.0602875292991" lon="11.934030694396188"><ele>360.0</ele><time>2026-04-25T15:50:58.999Z</time></trkpt><trkpt lat="46.06034292606455" lon="11.934139596302028"><ele>359.8</ele><time>2026-04-25T15:51:00Z</time></trkpt><trkpt lat="46.0603845098256" lon="11.934250085647799"><ele>359.6</ele><time>2026-04-25T15:51:01Z</time></trkpt><trkpt lat="46.06043175492476" lon="11.934357362652655"><ele>359.4</ele><time>2026-04-25T15:51:02Z</time></trkpt><trkpt lat="46.060484297337325" lon="11.934478618505734"><ele>359.2</ele><time>2026-04-25T15:51:03Z</time></trkpt><trkpt lat="46.06052889320229" lon="11.934596946302896"><ele>359.0</ele><time>2026-04-25T15:51:04Z</time></trkpt><trkpt lat="46.06059759475263" lon="11.934705389205218"><ele>359.0</ele><time>2026-04-25T15:51:05Z</time></trkpt><trkpt lat="46.06066240472876" lon="11.93479348774275"><ele>359.0</ele><time>2026-04-25T15:51:06Z</time></trkpt><trkpt lat="46.06071572224079" lon="11.934879584752506"><ele>359.0</ele><time>2026-04-25T15:51:07Z</time></trkpt><trkpt lat="46.060797353791486" lon="11.934915564272442"><ele>359.0</ele><time>2026-04-25T15:51:08Z</time></trkpt><trkpt lat="46.06088298159176" lon="11.934922972025847"><ele>359.0</ele><time>2026-04-25T15:51:09Z</time></trkpt><trkpt lat="46.060965376495666" lon="11.934909166739713"><ele>359.0</ele><time>2026-04-25T15:51:10Z</time></trkpt><trkpt lat="46.06103870211787" lon="11.93487102985933"><ele>359.1666666666667</ele><time>2026-04-25T15:51:11Z</time></trkpt><trkpt lat="46.061099861627014" lon="11.934788112880568"><ele>359.33333333333337</ele><time>2026-04-25T15:51:12Z</time></trkpt><trkpt lat="46.06114131557688" lon="11.934661210800657"><ele>359.5</ele><time>2026-04-25T15:51:13Z</time></trkpt><trkpt lat="46.061166190015626" lon="11.934561727821233"><ele>359.6666666666667</ele><time>2026-04-25T15:51:14Z</time></trkpt><trkpt lat="46.06118476798809" lon="11.934455875877973"><ele>359.8333333333333</ele><time>2026-04-25T15:51:15Z</time></trkpt><trkpt lat="46.06118589522528" lon="11.934332599666712"><ele>360.0</ele><time>2026-04-25T15:51:16Z</time></trkpt><trkpt lat="46.06118022751187" lon="11.934188571383475"><ele>360.0</ele><time>2026-04-25T15:51:17Z</time></trkpt><trkpt lat="46.06117511448105" lon="11.934025186078559"><ele>360.0</ele><time>2026-04-25T15:51:18Z</time></trkpt><trkpt lat="46.06121043093615" lon="11.933856259549998"><ele>360.0</ele><time>2026-04-25T15:51:19Z</time></trkpt><trkpt lat="46.061257389824426" lon="11.933694029474433"><ele>360.0</ele><time>2026-04-25T15:51:20Z</time></trkpt><trkpt lat="46.06131541288619" lon="11.933560703597166"><ele>360.0</ele><time>2026-04-25T15:51:21Z</time></trkpt><trkpt lat="46.06139820483985" lon="11.933402643009671"><ele>360.0</ele><time>2026-04-25T15:51:22Z</time></trkpt><trkpt lat="46.061495585351125" lon="11.9332539790097"><ele>360.0</ele><time>2026-04-25T15:51:23Z</time></trkpt><trkpt lat="46.061578839010245" lon="11.933134937804022"><ele>360.0</ele><time>2026-04-25T15:51:24Z</time></trkpt><trkpt lat="46.061663843413406" lon="11.933019288846419"><ele>360.25</ele><time>2026-04-25T15:51:25Z</time></trkpt><trkpt lat="46.06175521792018" lon="11.932889706009469"><ele>360.5</ele><time>2026-04-25T15:51:26Z</time></trkpt><trkpt lat="46.06183853626012" lon="11.932716974417646"><ele>360.75</ele><time>2026-04-25T15:51:27Z</time></trkpt><trkpt lat="46.06191838687413" lon="11.932576329555495"><ele>361.0</ele><time>2026-04-25T15:51:28Z</time></trkpt><trkpt lat="46.06200084625929" lon="11.932463863053414"><ele>361.0</ele><time>2026-04-25T15:51:29Z</time></trkpt><trkpt lat="46.062074508011484" lon="11.932344860982663"><ele>361.0</ele><time>2026-04-25T15:51:30Z</time></trkpt><trkpt lat="46.062172845185515" lon="11.932237287306878"><ele>361.0</ele><time>2026-04-25T15:51:31Z</time></trkpt><trkpt lat="46.06229831896992" lon="11.932126695710943"><ele>361.0</ele><time>2026-04-25T15:51:32Z</time></trkpt><trkpt lat="46.062389599690405" lon="11.932060146244583"><ele>356.0</ele><time>2026-04-25T15:51:33Z</time></trkpt><trkpt lat="46.06250892815522" lon="11.932015587261242"><ele>351.0</ele><time>2026-04-25T15:51:34Z</time></trkpt><trkpt lat="46.06265860132552" lon="11.932009258850425"><ele>346.0</ele><time>2026-04-25T15:51:35Z</time></trkpt><trkpt lat="46.0628037231975" lon="11.931964491930092"><ele>341.0</ele><time>2026-04-25T15:51:36Z</time></trkpt><trkpt lat="46.06295542574206" lon="11.931956523634842"><ele>341.0</ele><time>2026-04-25T15:51:37Z</time></trkpt><trkpt lat="46.06307350376184" lon="11.931936880617073"><ele>341.0</ele><time>2026-04-25T15:51:38Z</time></trkpt><trkpt lat="46.06318689198933" lon="11.93192000147782"><ele>341.0</ele><time>2026-04-25T15:51:39Z</time></trkpt><trkpt lat="46.063293000707674" lon="11.931887975492025"><ele>341.0</ele><time>2026-04-25T15:51:40Z</time></trkpt><trkpt lat="46.06342503721466" lon="11.931908715123228"><ele>340.25</ele><time>2026-04-25T15:51:41Z</time></trkpt><trkpt lat="46.063539875680284" lon="11.931974076650699"><ele>339.5</ele><time>2026-04-25T15:51:42Z</time></trkpt><trkpt lat="46.063664065887764" lon="11.932025122751773"><ele>338.75</ele><time>2026-04-25T15:51:43Z</time></trkpt><trkpt lat="46.063750033607505" lon="11.93213118775496"><ele>338.0</ele><time>2026-04-25T15:51:44Z</time></trkpt><trkpt lat="46.0638616103776" lon="11.932256217962902"><ele>338.0</ele><time>2026-04-25T15:51:45Z</time></trkpt><trkpt lat="46.063953224018924" lon="11.932402630432469"><ele>338.0</ele><time>2026-04-25T15:51:46Z</time></trkpt><trkpt lat="46.0640400406391" lon="11.932559674250381"><ele>338.0</ele><time>2026-04-25T15:51:47Z</time></trkpt><trkpt lat="46.064116208850514" lon="11.932743543188929"><ele>338.0</ele><time>2026-04-25T15:51:48Z</time></trkpt><trkpt lat="46.064187988064575" lon="11.932926475587948"><ele>337.0</ele><time>2026-04-25T15:51:49Z</time></trkpt><trkpt lat="46.064253683923695" lon="11.933082930174951"><ele>336.0</ele><time>2026-04-25T15:51:50Z</time></trkpt><trkpt lat="46.064312206298176" lon="11.933247643644107"><ele>335.0</ele><time>2026-04-25T15:51:51Z</time></trkpt><trkpt lat="46.06437538299911" lon="11.933415324248903"><ele>334.0</ele><time>2026-04-25T15:51:52Z</time></trkpt><trkpt lat="46.06439888601928" lon="11.933586962877571"><ele>333.0</ele><time>2026-04-25T15:51:53Z</time></trkpt><trkpt lat="46.064420471928564" lon="11.933755307464505"><ele>332.0</ele><time>2026-04-25T15:51:54Z</time></trkpt><trkpt lat="46.06443592864297" lon="11.933938100826218"><ele>331.0</ele><time>2026-04-25T15:51:55Z</time></trkpt><trkpt lat="46.06441625825465" lon="11.93412362187225"><ele>330.0</ele><time>2026-04-25T15:51:56Z</time></trkpt><trkpt lat="46.064386574407116" lon="11.934305883511609"><ele>332.25</ele><time>2026-04-25T15:51:57Z</time></trkpt><trkpt lat="46.0643511164467" lon="11.934500933043052"><ele>334.5</ele><time>2026-04-25T15:51:58Z</time></trkpt><trkpt lat="46.06431570965136" lon="11.934697214781568"><ele>336.75</ele><time>2026-04-25T15:51:59Z</time></trkpt><trkpt lat="46.06428102559134" lon="11.934891188071294"><ele>339.0</ele><time>2026-04-25T15:52:00Z</time></trkpt><trkpt lat="46.06424636108316" lon="11.935102618037037"><ele>337.5</ele><time>2026-04-25T15:52:01Z</time></trkpt><trkpt lat="46.06420889072546" lon="11.93532328254898"><ele>336.0</ele><time>2026-04-25T15:52:02Z</time></trkpt><trkpt lat="46.064169812648004" lon="11.935522612646585"><ele>334.5</ele><time>2026-04-25T15:52:03Z</time></trkpt><trkpt lat="46.064133914762785" lon="11.935724085199848"><ele>333.0</ele><time>2026-04-25T15:52:04Z</time></trkpt><trkpt lat="46.06409631699152" lon="11.935933688055458"><ele>333.0</ele><time>2026-04-25T15:52:05Z</time></trkpt><trkpt lat="46.06404287517878" lon="11.936130901511294"><ele>333.0</ele><time>2026-04-25T15:52:06Z</time></trkpt><trkpt lat="46.063998832759914" lon="11.936316220450275"><ele>333.0</ele><time>2026-04-25T15:52:07Z</time></trkpt><trkpt lat="46.06395273644658" lon="11.936498962565963"><ele>333.0</ele><time>2026-04-25T15:52:08Z</time></trkpt><trkpt lat="46.06391490198608" lon="11.936690960565379"><ele>334.25</ele><time>2026-04-25T15:52:09Z</time></trkpt><trkpt lat="46.06385914441853" lon="11.936872205359528"><ele>335.5</ele><time>2026-04-25T15:52:10Z</time></trkpt><trkpt lat="46.06378132024411" lon="11.937039088948527"><ele>336.75</ele><time>2026-04-25T15:52:11Z</time></trkpt><trkpt lat="46.06371352120607" lon="11.937211228191176"><ele>338.0</ele><time>2026-04-25T15:52:12Z</time></trkpt><trkpt lat="46.06364695541421" lon="11.937375611541095"><ele>338.0</ele><time>2026-04-25T15:52:13Z</time></trkpt><trkpt lat="46.06357508936446" lon="11.937545097721937"><ele>338.0</ele><time>2026-04-25T15:52:14Z</time></trkpt><trkpt lat="46.06350432413223" lon="11.937711987970664"><ele>338.0</ele><time>2026-04-25T15:52:15Z</time></trkpt><trkpt lat="46.06344948245653" lon="11.937886237373332"><ele>338.0</ele><time>2026-04-25T15:52:16Z</time></trkpt><trkpt lat="46.06337298624716" lon="11.938040830623736"><ele>338.25</ele><time>2026-04-25T15:52:17Z</time></trkpt><trkpt lat="46.06330967254669" lon="11.938199396521357"><ele>338.5</ele><time>2026-04-25T15:52:18Z</time></trkpt><trkpt lat="46.06323986921784" lon="11.938377192622472"><ele>338.75</ele><time>2026-04-25T15:52:19Z</time></trkpt><trkpt lat="46.063181081730185" lon="11.938523559298758"><ele>339.0</ele><time>2026-04-25T15:52:20Z</time></trkpt><trkpt lat="46.06311874346583" lon="11.938698951821554"><ele>339.0</ele><time>2026-04-25T15:52:21Z</time></trkpt><trkpt lat="46.063085875450234" lon="11.938892076124768"><ele>339.0</ele><time>2026-04-25T15:52:21.999Z</time></trkpt><trkpt lat="46.063056570888044" lon="11.939080303911766"><ele>339.0</ele><time>2026-04-25T15:52:22.999Z</time></trkpt><trkpt lat="46.06304730409009" lon="11.939267039732101"><ele>339.0</ele><time>2026-04-25T15:52:23.999Z</time></trkpt><trkpt lat="46.0630522499199" lon="11.93944838801284"><ele>341.25</ele><time>2026-04-25T15:52:24.999Z</time></trkpt><trkpt lat="46.06305932317412" lon="11.939641497873316"><ele>343.5</ele><time>2026-04-25T15:52:25.999Z</time></trkpt><trkpt lat="46.06308269314809" lon="11.939826162148098"><ele>345.75</ele><time>2026-04-25T15:52:26.999Z</time></trkpt><trkpt lat="46.06310552004237" lon="11.940000443914975"><ele>348.0</ele><time>2026-04-25T15:52:27.999Z</time></trkpt><trkpt lat="46.063144602396626" lon="11.940141950562746"><ele>349.2</ele><time>2026-04-25T15:52:28.999Z</time></trkpt><trkpt lat="46.063190020142734" lon="11.94027721303839"><ele>350.4</ele><time>2026-04-25T15:52:29.999Z</time></trkpt><trkpt lat="46.06324436108593" lon="11.940405311057406"><ele>351.59999999999997</ele><time>2026-04-25T15:52:30.999Z</time></trkpt><trkpt lat="46.063304595878286" lon="11.94052907682375"><ele>352.79999999999995</ele><time>2026-04-25T15:52:31.999Z</time></trkpt><trkpt lat="46.06337194760572" lon="11.940653267540474"><ele>354.0</ele><time>2026-04-25T15:52:32.999Z</time></trkpt><trkpt lat="46.06345431347043" lon="11.940773217118352"><ele>354.75</ele><time>2026-04-25T15:52:33.999Z</time></trkpt><trkpt lat="46.063541721387026" lon="11.94088789944911"><ele>355.5</ele><time>2026-04-25T15:52:34.999Z</time></trkpt><trkpt lat="46.06364260624375" lon="11.941010935861009"><ele>356.25</ele><time>2026-04-25T15:52:35.999Z</time></trkpt><trkpt lat="46.063741512271854" lon="11.94110085172339"><ele>357.0</ele><time>2026-04-25T15:52:36.999Z</time></trkpt><trkpt lat="46.06384273502697" lon="11.941181160594024"><ele>357.0</ele><time>2026-04-25T15:52:37.999Z</time></trkpt><trkpt lat="46.06397849696559" lon="11.941254851895973"><ele>357.0</ele><time>2026-04-25T15:52:38.999Z</time></trkpt><trkpt lat="46.06410895447858" lon="11.94131026170105"><ele>357.0</ele><time>2026-04-25T15:52:39.999Z</time></trkpt><trkpt lat="46.064261150131316" lon="11.94133498952899"><ele>357.0</ele><time>2026-04-25T15:52:40.999Z</time></trkpt><trkpt lat="46.06441334040909" lon="11.941360936771932"><ele>358.25</ele><time>2026-04-25T15:52:41.999Z</time></trkpt><trkpt lat="46.06452085445452" lon="11.941359873417388"><ele>359.5</ele><time>2026-04-25T15:52:42.999Z</time></trkpt><trkpt lat="46.0646485333139" lon="11.9413740001001"><ele>360.75</ele><time>2026-04-25T15:52:43.999Z</time></trkpt><trkpt lat="46.06475827155571" lon="11.941390094665676"><ele>362.0</ele><time>2026-04-25T15:52:44.999Z</time></trkpt><trkpt lat="46.064873104849624" lon="11.941414540317998"><ele>363.5</ele><time>2026-04-25T15:52:45.999Z</time></trkpt><trkpt lat="46.064983127527725" lon="11.941421677282028"><ele>365.0</ele><time>2026-04-25T15:52:46.999Z</time></trkpt><trkpt lat="46.065101449814115" lon="11.941437203282028"><ele>366.5</ele><time>2026-04-25T15:52:47.999Z</time></trkpt><trkpt lat="46.06522041072878" lon="11.941453539394926"><ele>368.0</ele><time>2026-04-25T15:52:48.999Z</time></trkpt><trkpt lat="46.065340844411296" lon="11.941469693641135"><ele>368.0</ele><time>2026-04-25T15:52:49.999Z</time></trkpt><trkpt lat="46.06546117290953" lon="11.94148800674189"><ele>368.0</ele><time>2026-04-25T15:52:50.999Z</time></trkpt><trkpt lat="46.06557711793596" lon="11.941497150928406"><ele>368.0</ele><time>2026-04-25T15:52:51.999Z</time></trkpt><trkpt lat="46.06570427085816" lon="11.941512327337243"><ele>368.0</ele><time>2026-04-25T15:52:52.999Z</time></trkpt><trkpt lat="46.06583154378813" lon="11.941520623386877"><ele>370.2</ele><time>2026-04-25T15:52:53.999Z</time></trkpt><trkpt lat="46.065942795709" lon="11.941531865664441"><ele>372.4</ele><time>2026-04-25T15:52:54.999Z</time></trkpt><trkpt lat="46.066036264114985" lon="11.94153527829812"><ele>374.59999999999997</ele><time>2026-04-25T15:52:55.999Z</time></trkpt><trkpt lat="46.066131284579015" lon="11.941562277557656"><ele>376.79999999999995</ele><time>2026-04-25T15:52:56.999Z</time></trkpt><trkpt lat="46.06624282712416" lon="11.941576313491103"><ele>379.0</ele><time>2026-04-25T15:52:57.999Z</time></trkpt><trkpt lat="46.06637979523856" lon="11.941593548822262"><ele>379.0</ele><time>2026-04-25T15:52:58.999Z</time></trkpt><trkpt lat="46.066516608145555" lon="11.94161076406524"><ele>379.0</ele><time>2026-04-25T15:52:59.999Z</time></trkpt><trkpt lat="46.06665095586265" lon="11.941612533696002"><ele>379.0</ele><time>2026-04-25T15:53:00.999Z</time></trkpt><trkpt lat="46.06677566610844" lon="11.9416414035695"><ele>379.0</ele><time>2026-04-25T15:53:01.999Z</time></trkpt><trkpt lat="46.066917858464436" lon="11.94168910711106"><ele>380.25</ele><time>2026-04-25T15:53:02.999Z</time></trkpt><trkpt lat="46.067060597167384" lon="11.941748149096012"><ele>381.5</ele><time>2026-04-25T15:53:03.999Z</time></trkpt><trkpt lat="46.06718361665216" lon="11.941797096513396"><ele>382.75</ele><time>2026-04-25T15:53:04.999Z</time></trkpt><trkpt lat="46.0672972100671" lon="11.941840044046048"><ele>384.0</ele><time>2026-04-25T15:53:06Z</time></trkpt><trkpt lat="46.067402024774104" lon="11.941894725858429"><ele>385.0</ele><time>2026-04-25T15:53:07Z</time></trkpt><trkpt lat="46.067505973675544" lon="11.94194250666613"><ele>386.0</ele><time>2026-04-25T15:53:08Z</time></trkpt><trkpt lat="46.06761531287137" lon="11.941992808747843"><ele>387.0</ele><time>2026-04-25T15:53:09Z</time></trkpt><trkpt lat="46.06772641581726" lon="11.942040092971679"><ele>388.0</ele><time>2026-04-25T15:53:10Z</time></trkpt><trkpt lat="46.06784352901071" lon="11.942086220547619"><ele>388.0</ele><time>2026-04-25T15:53:11Z</time></trkpt><trkpt lat="46.06796319849525" lon="11.94213297929653"><ele>388.0</ele><time>2026-04-25T15:53:12Z</time></trkpt><trkpt lat="46.06808696161359" lon="11.942182769837205"><ele>388.0</ele><time>2026-04-25T15:53:13Z</time></trkpt><trkpt lat="46.06821405210021" lon="11.942238488004161"><ele>388.0</ele><time>2026-04-25T15:53:14Z</time></trkpt><trkpt lat="46.068340870672614" lon="11.942294850190962"><ele>389.25</ele><time>2026-04-25T15:53:15Z</time></trkpt><trkpt lat="46.068473805023444" lon="11.942352912327424"><ele>390.5</ele><time>2026-04-25T15:53:16Z</time></trkpt><trkpt lat="46.06862611871655" lon="11.942427100987194"><ele>391.75</ele><time>2026-04-25T15:53:17Z</time></trkpt><trkpt lat="46.068755260499316" lon="11.942496721984028"><ele>393.0</ele><time>2026-04-25T15:53:18Z</time></trkpt><trkpt lat="46.06888227370116" lon="11.942575909718549"><ele>393.0</ele><time>2026-04-25T15:53:19Z</time></trkpt><trkpt lat="46.06900797314564" lon="11.942665249902273"><ele>393.0</ele><time>2026-04-25T15:53:20Z</time></trkpt><trkpt lat="46.06911520559826" lon="11.942767868403317"><ele>393.0</ele><time>2026-04-25T15:53:21Z</time></trkpt><trkpt lat="46.06922155267803" lon="11.942859943881432"><ele>393.0</ele><time>2026-04-25T15:53:22Z</time></trkpt><trkpt lat="46.0693289067397" lon="11.94296152416385"><ele>393.5</ele><time>2026-04-25T15:53:23Z</time></trkpt><trkpt lat="46.06943986908911" lon="11.943071571862461"><ele>394.0</ele><time>2026-04-25T15:53:24Z</time></trkpt><trkpt lat="46.06954356974009" lon="11.94318117161357"><ele>394.5</ele><time>2026-04-25T15:53:25Z</time></trkpt><trkpt lat="46.06965438894117" lon="11.943289138922342"><ele>395.0</ele><time>2026-04-25T15:53:26Z</time></trkpt><trkpt lat="46.069768261256186" lon="11.943407710948023"><ele>395.0</ele><time>2026-04-25T15:53:27Z</time></trkpt><trkpt lat="46.06986991326296" lon="11.94354896619451"><ele>395.0</ele><time>2026-04-25T15:53:28Z</time></trkpt><trkpt lat="46.06997455175874" lon="11.943689304869633"><ele>395.0</ele><time>2026-04-25T15:53:29Z</time></trkpt><trkpt lat="46.07009099057935" lon="11.943813124170669"><ele>395.0</ele><time>2026-04-25T15:53:30Z</time></trkpt><trkpt lat="46.07018749593327" lon="11.943962739551134"><ele>396.5</ele><time>2026-04-25T15:53:31Z</time></trkpt><trkpt lat="46.070281893339896" lon="11.944102332364363"><ele>398.0</ele><time>2026-04-25T15:53:32Z</time></trkpt><trkpt lat="46.07036779981706" lon="11.944259471306298"><ele>399.5</ele><time>2026-04-25T15:53:33Z</time></trkpt><trkpt lat="46.07044867405529" lon="11.94440948229048"><ele>401.0</ele><time>2026-04-25T15:53:34Z</time></trkpt><trkpt lat="46.07052399573004" lon="11.944565940279409"><ele>401.0</ele><time>2026-04-25T15:53:35Z</time></trkpt><trkpt lat="46.070611525037044" lon="11.944722562874656"><ele>401.0</ele><time>2026-04-25T15:53:36Z</time></trkpt><trkpt lat="46.07068704425742" lon="11.944891014331658"><ele>401.0</ele><time>2026-04-25T15:53:37Z</time></trkpt><trkpt lat="46.070758557095026" lon="11.945064392268835"><ele>401.0</ele><time>2026-04-25T15:53:38Z</time></trkpt><trkpt lat="46.07083810833566" lon="11.945225988492172"><ele>402.25</ele><time>2026-04-25T15:53:39Z</time></trkpt><trkpt lat="46.07089916897409" lon="11.945426196559376"><ele>403.5</ele><time>2026-04-25T15:53:40Z</time></trkpt><trkpt lat="46.07096471014121" lon="11.945615598594253"><ele>404.75</ele><time>2026-04-25T15:53:41Z</time></trkpt><trkpt lat="46.07102601720816" lon="11.945807984782471"><ele>406.0</ele><time>2026-04-25T15:53:42Z</time></trkpt><trkpt lat="46.07107764637792" lon="11.945978929712123"><ele>406.0</ele><time>2026-04-25T15:53:43Z</time></trkpt><trkpt lat="46.07112655932179" lon="11.946126203375176"><ele>406.0</ele><time>2026-04-25T15:53:44Z</time></trkpt><trkpt lat="46.07116702004733" lon="11.94628259301587"><ele>406.0</ele><time>2026-04-25T15:53:45Z</time></trkpt><trkpt lat="46.071233073739684" lon="11.946450120904409"><ele>406.0</ele><time>2026-04-25T15:53:46Z</time></trkpt><trkpt lat="46.071288873168236" lon="11.946617743832826"><ele>404.75</ele><time>2026-04-25T15:53:47Z</time></trkpt><trkpt lat="46.071351033966785" lon="11.946798307428548"><ele>403.5</ele><time>2026-04-25T15:53:48Z</time></trkpt><trkpt lat="46.07141072217661" lon="11.946964907564197"><ele>402.25</ele><time>2026-04-25T15:53:49Z</time></trkpt><trkpt lat="46.07148328953666" lon="11.947131642971964"><ele>401.0</ele><time>2026-04-25T15:53:50Z</time></trkpt><trkpt lat="46.07157950705918" lon="11.947267730381277"><ele>403.0</ele><time>2026-04-25T15:53:51Z</time></trkpt><trkpt lat="46.07167746771306" lon="11.947374559081906"><ele>405.0</ele><time>2026-04-25T15:53:52Z</time></trkpt><trkpt lat="46.07177643088367" lon="11.947455073386292"><ele>407.0</ele><time>2026-04-25T15:53:53Z</time></trkpt><trkpt lat="46.07188897178975" lon="11.947538509102383"><ele>409.0</ele><time>2026-04-25T15:53:54Z</time></trkpt><trkpt lat="46.072013708433154" lon="11.947606361908765"><ele>409.0</ele><time>2026-04-25T15:53:55Z</time></trkpt><trkpt lat="46.07214746829274" lon="11.947640964316186"><ele>409.0</ele><time>2026-04-25T15:53:56Z</time></trkpt><trkpt lat="46.07228892468473" lon="11.94767610759582"><ele>409.0</ele><time>2026-04-25T15:53:57Z</time></trkpt><trkpt lat="46.07242622659035" lon="11.94771562326547"><ele>409.0</ele><time>2026-04-25T15:53:58Z</time></trkpt><trkpt lat="46.072553649120934" lon="11.947751731504065"><ele>410.5</ele><time>2026-04-25T15:53:59Z</time></trkpt><trkpt lat="46.0726756050413" lon="11.94779134252221"><ele>412.0</ele><time>2026-04-25T15:54:00Z</time></trkpt><trkpt lat="46.07280178012384" lon="11.947828541376122"><ele>413.5</ele><time>2026-04-25T15:54:01Z</time></trkpt><trkpt lat="46.07293153879895" lon="11.947860149060698"><ele>415.0</ele><time>2026-04-25T15:54:02Z</time></trkpt><trkpt lat="46.073058217338925" lon="11.947898229977824"><ele>415.0</ele><time>2026-04-25T15:54:03Z</time></trkpt><trkpt lat="46.07317238022726" lon="11.94794578468684"><ele>415.0</ele><time>2026-04-25T15:54:04Z</time></trkpt><trkpt lat="46.07328830831901" lon="11.948006496535367"><ele>415.0</ele><time>2026-04-25T15:54:05Z</time></trkpt><trkpt lat="46.07338278264218" lon="11.9481184758378"><ele>415.0</ele><time>2026-04-25T15:54:06Z</time></trkpt><trkpt lat="46.073474782824434" lon="11.94823578126043"><ele>416.25</ele><time>2026-04-25T15:54:07Z</time></trkpt><trkpt lat="46.073559688745796" lon="11.948389748208141"><ele>417.5</ele><time>2026-04-25T15:54:08Z</time></trkpt><trkpt lat="46.07362720345114" lon="11.948543076875"><ele>418.75</ele><time>2026-04-25T15:54:09Z</time></trkpt><trkpt lat="46.07366877218963" lon="11.948701636723271"><ele>420.0</ele><time>2026-04-25T15:54:10Z</time></trkpt><trkpt lat="46.07370595828739" lon="11.948848166982108"><ele>420.0</ele><time>2026-04-25T15:54:11Z</time></trkpt><trkpt lat="46.07374145321756" lon="11.948994773019175"><ele>420.0</ele><time>2026-04-25T15:54:12Z</time></trkpt><trkpt lat="46.07376650630396" lon="11.949138818028429"><ele>420.0</ele><time>2026-04-25T15:54:13Z</time></trkpt><trkpt lat="46.073799827087164" lon="11.949296794048832"><ele>420.0</ele><time>2026-04-25T15:54:14Z</time></trkpt><trkpt lat="46.07385228307251" lon="11.949460877057387"><ele>419.25</ele><time>2026-04-25T15:54:15Z</time></trkpt><trkpt lat="46.07390296011621" lon="11.949624102602339"><ele>418.5</ele><time>2026-04-25T15:54:16Z</time></trkpt><trkpt lat="46.073943737046775" lon="11.949824677754577"><ele>417.75</ele><time>2026-04-25T15:54:17Z</time></trkpt><trkpt lat="46.07398512632137" lon="11.949969822409443"><ele>417.0</ele><time>2026-04-25T15:54:18Z</time></trkpt><trkpt lat="46.0740374556243" lon="11.950131918776721"><ele>416.5</ele><time>2026-04-25T15:54:19Z</time></trkpt><trkpt lat="46.07407352050723" lon="11.950296417313046"><ele>416.0</ele><time>2026-04-25T15:54:20Z</time></trkpt><trkpt lat="46.0741194606098" lon="11.950459931375642"><ele>415.5</ele><time>2026-04-25T15:54:21Z</time></trkpt><trkpt lat="46.07416401852865" lon="11.950629482713486"><ele>415.0</ele><time>2026-04-25T15:54:22Z</time></trkpt><trkpt lat="46.07420988496854" lon="11.950785785304785"><ele>416.8</ele><time>2026-04-25T15:54:23Z</time></trkpt><trkpt lat="46.07425078056004" lon="11.950930048222583"><ele>418.6</ele><time>2026-04-25T15:54:24Z</time></trkpt><trkpt lat="46.074291078189425" lon="11.95107599627552"><ele>420.4</ele><time>2026-04-25T15:54:25Z</time></trkpt><trkpt lat="46.074329269967194" lon="11.951214306647346"><ele>422.2</ele><time>2026-04-25T15:54:26Z</time></trkpt><trkpt lat="46.074363049752215" lon="11.95133794952122"><ele>424.0</ele><time>2026-04-25T15:54:27Z</time></trkpt><trkpt lat="46.07439455810567" lon="11.951452546963706"><ele>424.0</ele><time>2026-04-25T15:54:28Z</time></trkpt><trkpt lat="46.07442118049538" lon="11.951557757152601"><ele>424.0</ele><time>2026-04-25T15:54:29Z</time></trkpt><trkpt lat="46.07444758985077" lon="11.951642374150845"><ele>424.0</ele><time>2026-04-25T15:54:30Z</time></trkpt><trkpt lat="46.07446668714367" lon="11.951747521365668"><ele>424.0</ele><time>2026-04-25T15:54:34Z</time></trkpt><trkpt lat="46.0746381434767" lon="11.95173612791646"><ele>424.0</ele><time>2026-04-25T15:54:37Z</time></trkpt><trkpt lat="46.074710912031954" lon="11.951693959950784"><ele>424.0</ele><time>2026-04-25T15:54:38Z</time></trkpt><trkpt lat="46.07479760835941" lon="11.951669341096101"><ele>424.0</ele><time>2026-04-25T15:54:38.999Z</time></trkpt><trkpt lat="46.074889355456236" lon="11.95164083479966"><ele>424.0</ele><time>2026-04-25T15:54:39.999Z</time></trkpt><trkpt lat="46.07500309724007" lon="11.951604571021647"><ele>424.0</ele><time>2026-04-25T15:54:40.999Z</time></trkpt><trkpt lat="46.075134224520454" lon="11.951567728495238"><ele>424.0</ele><time>2026-04-25T15:54:41.999Z</time></trkpt><trkpt lat="46.07526191794088" lon="11.9515197203475"><ele>426.2</ele><time>2026-04-25T15:54:42.999Z</time></trkpt><trkpt lat="46.075356448364374" lon="11.95149753729284"><ele>428.4</ele><time>2026-04-25T15:54:43.999Z</time></trkpt><trkpt lat="46.07544461387423" lon="11.951473536717192"><ele>430.6</ele><time>2026-04-25T15:54:44.999Z</time></trkpt><trkpt lat="46.07553964853705" lon="11.951443476607238"><ele>432.8</ele><time>2026-04-25T15:54:45.999Z</time></trkpt><trkpt lat="46.07563049850928" lon="11.951412178688196"><ele>435.0</ele><time>2026-04-25T15:54:46.999Z</time></trkpt><trkpt lat="46.075706186615115" lon="11.951357896099752"><ele>436.6</ele><time>2026-04-25T15:54:47.999Z</time></trkpt><trkpt lat="46.07577068746747" lon="11.95128036044694"><ele>438.2</ele><time>2026-04-25T15:54:48.999Z</time></trkpt><trkpt lat="46.0758217078536" lon="11.951192123941574"><ele>439.79999999999995</ele><time>2026-04-25T15:54:49.999Z</time></trkpt><trkpt lat="46.07588041486208" lon="11.951059222049293"><ele>441.4</ele><time>2026-04-25T15:54:51.999Z</time></trkpt><trkpt lat="46.075920894390784" lon="11.950977834558465"><ele>443.0</ele><time>2026-04-25T15:54:54.999Z</time></trkpt><trkpt lat="46.07605881276735" lon="11.951120365957486"><ele>443.0</ele><time>2026-04-25T15:54:58.999Z</time></trkpt><trkpt lat="46.076132582874244" lon="11.951195655794768"><ele>442.99999999999994</ele><time>2026-04-25T15:54:59.999Z</time></trkpt><trkpt lat="46.07619699135653" lon="11.951253732589462"><ele>442.99999999999994</ele><time>2026-04-25T15:55:00.999Z</time></trkpt><trkpt lat="46.07628778776592" lon="11.951301588509537"><ele>443.0</ele><time>2026-04-25T15:55:01.999Z</time></trkpt><trkpt lat="46.07639435837749" lon="11.951392872781822"><ele>443.0</ele><time>2026-04-25T15:55:02.999Z</time></trkpt><trkpt lat="46.07650834855506" lon="11.951456548467474"><ele>443.0</ele><time>2026-04-25T15:55:03.999Z</time></trkpt><trkpt lat="46.076598401028356" lon="11.951495104302753"><ele>442.99999999999994</ele><time>2026-04-25T15:55:04.999Z</time></trkpt><trkpt lat="46.076681351662835" lon="11.951524965120889"><ele>442.99999999999994</ele><time>2026-04-25T15:55:05.999Z</time></trkpt><trkpt lat="46.076776432550155" lon="11.951558903667667"><ele>443.0</ele><time>2026-04-25T15:55:06.999Z</time></trkpt><trkpt lat="46.07686457972811" lon="11.95156081245572"><ele>443.0</ele><time>2026-04-25T15:55:07.999Z</time></trkpt><trkpt lat="46.07695800585127" lon="11.951587582396428"><ele>444.14285714285717</ele><time>2026-04-25T15:55:09.999Z</time></trkpt><trkpt lat="46.07702175632596" lon="11.951619793968074"><ele>445.28571428571433</ele><time>2026-04-25T15:55:10.999Z</time></trkpt><trkpt lat="46.077097837854744" lon="11.951654484816462"><ele>446.42857142857144</ele><time>2026-04-25T15:55:12Z</time></trkpt><trkpt lat="46.077166454364686" lon="11.951687451307958"><ele>447.57142857142856</ele><time>2026-04-25T15:55:13Z</time></trkpt><trkpt lat="46.07723028977557" lon="11.951729643586017"><ele>448.7142857142857</ele><time>2026-04-25T15:55:14Z</time></trkpt><trkpt lat="46.07729622334376" lon="11.951767292718378"><ele>449.85714285714283</ele><time>2026-04-25T15:55:15Z</time></trkpt><trkpt lat="46.07735322020742" lon="11.951834292188403"><ele>451.0</ele><time>2026-04-25T15:55:16Z</time></trkpt><trkpt lat="46.07742210454362" lon="11.951902170750166"><ele>452.6</ele><time>2026-04-25T15:55:17Z</time></trkpt><trkpt lat="46.07748060298822" lon="11.952002965196849"><ele>454.20000000000005</ele><time>2026-04-25T15:55:18Z</time></trkpt><trkpt lat="46.07755822621836" lon="11.952126045561384"><ele>455.79999999999995</ele><time>2026-04-25T15:55:19Z</time></trkpt><trkpt lat="46.07763214831399" lon="11.952250674102379"><ele>457.4</ele><time>2026-04-25T15:55:20Z</time></trkpt><trkpt lat="46.07769189478143" lon="11.952375143166673"><ele>459.0</ele><time>2026-04-25T15:55:21Z</time></trkpt><trkpt lat="46.077756786852284" lon="11.952474673782389"><ele>460.3333333333333</ele><time>2026-04-25T15:55:22Z</time></trkpt><trkpt lat="46.07782238619784" lon="11.952582599025682"><ele>461.66666666666663</ele><time>2026-04-25T15:55:23Z</time></trkpt><trkpt lat="46.0778851442207" lon="11.952653535664899"><ele>463.0</ele><time>2026-04-25T15:55:24Z</time></trkpt><trkpt lat="46.07794841561966" lon="11.952729090862368"><ele>464.3333333333333</ele><time>2026-04-25T15:55:25Z</time></trkpt><trkpt lat="46.07801967460992" lon="11.952805383164023"><ele>465.66666666666663</ele><time>2026-04-25T15:55:26Z</time></trkpt><trkpt lat="46.07810401731727" lon="11.952851110656177"><ele>467.0</ele><time>2026-04-25T15:55:27Z</time></trkpt><trkpt lat="46.078185788419376" lon="11.952876074922434"><ele>466.99999999999994</ele><time>2026-04-25T15:55:28Z</time></trkpt><trkpt lat="46.07825355224974" lon="11.952928621221332"><ele>467.0</ele><time>2026-04-25T15:55:29Z</time></trkpt><trkpt lat="46.07833230195192" lon="11.952942212443281"><ele>467.0</ele><time>2026-04-25T15:55:30Z</time></trkpt><trkpt lat="46.07840310236991" lon="11.95297415839069"><ele>467.0</ele><time>2026-04-25T15:55:31Z</time></trkpt><trkpt lat="46.07848479362758" lon="11.952968240063795"><ele>466.99999999999994</ele><time>2026-04-25T15:55:32Z</time></trkpt><trkpt lat="46.0785750508349" lon="11.952953150974427"><ele>467.0</ele><time>2026-04-25T15:55:33Z</time></trkpt><trkpt lat="46.07866168676201" lon="11.952954438262115"><ele>466.75</ele><time>2026-04-25T15:55:34Z</time></trkpt><trkpt lat="46.07876586620718" lon="11.95298914521389"><ele>466.5</ele><time>2026-04-25T15:55:35Z</time></trkpt><trkpt lat="46.07888244999039" lon="11.95302945021715"><ele>466.25</ele><time>2026-04-25T15:55:36Z</time></trkpt><trkpt lat="46.07899014089773" lon="11.953068261748312"><ele>466.0</ele><time>2026-04-25T15:55:37Z</time></trkpt><trkpt lat="46.07911297887331" lon="11.953105918020604"><ele>459.25</ele><time>2026-04-25T15:55:38Z</time></trkpt><trkpt lat="46.07924170445328" lon="11.953139411743793"><ele>452.5</ele><time>2026-04-25T15:55:39Z</time></trkpt><trkpt lat="46.079358858691876" lon="11.953162832139105"><ele>445.75</ele><time>2026-04-25T15:55:40Z</time></trkpt><trkpt lat="46.07946847384248" lon="11.953179803459307"><ele>439.0</ele><time>2026-04-25T15:55:41Z</time></trkpt><trkpt lat="46.07957161194483" lon="11.953194651626394"><ele>439.0</ele><time>2026-04-25T15:55:42Z</time></trkpt><trkpt lat="46.07967343951128" lon="11.953215274736941"><ele>439.0</ele><time>2026-04-25T15:55:43Z</time></trkpt><trkpt lat="46.079777484374425" lon="11.953236954366053"><ele>439.0</ele><time>2026-04-25T15:55:44Z</time></trkpt><trkpt lat="46.07988463594977" lon="11.953256625694578"><ele>439.0</ele><time>2026-04-25T15:55:45Z</time></trkpt><trkpt lat="46.07997950117596" lon="11.953273627811653"><ele>439.0</ele><time>2026-04-25T15:55:46Z</time></trkpt><trkpt lat="46.08006821184008" lon="11.953312620862096"><ele>439.1666666666667</ele><time>2026-04-25T15:55:47Z</time></trkpt><trkpt lat="46.080150072200475" lon="11.953309080785155"><ele>439.33333333333337</ele><time>2026-04-25T15:55:48Z</time></trkpt><trkpt lat="46.08024300095323" lon="11.953336831348173"><ele>439.5</ele><time>2026-04-25T15:55:49Z</time></trkpt><trkpt lat="46.08031925480382" lon="11.953357507299554"><ele>439.66666666666663</ele><time>2026-04-25T15:55:50Z</time></trkpt><trkpt lat="46.08040528131677" lon="11.95337503601858"><ele>439.8333333333333</ele><time>2026-04-25T15:55:51Z</time></trkpt><trkpt lat="46.080486926015524" lon="11.953384572587085"><ele>440.0</ele><time>2026-04-25T15:55:52Z</time></trkpt><trkpt lat="46.0805620347083" lon="11.953435157060383"><ele>440.0</ele><time>2026-04-25T15:55:53Z</time></trkpt><trkpt lat="46.08062738216525" lon="11.95354337873371"><ele>440.0</ele><time>2026-04-25T15:55:54Z</time></trkpt><trkpt lat="46.0807157474509" lon="11.953647615940618"><ele>440.0</ele><time>2026-04-25T15:55:55Z</time></trkpt><trkpt lat="46.08077953067123" lon="11.953759745578544"><ele>440.0</ele><time>2026-04-25T15:55:56Z</time></trkpt><trkpt lat="46.08083531864126" lon="11.953851174536611"><ele>440.0</ele><time>2026-04-25T15:55:57Z</time></trkpt><trkpt lat="46.08088681531425" lon="11.953931320574515"><ele>437.99999999999994</ele><time>2026-04-25T15:55:58Z</time></trkpt><trkpt lat="46.08094506737652" lon="11.9539994370979"><ele>436.0</ele><time>2026-04-25T15:55:59Z</time></trkpt><trkpt lat="46.08101331629016" lon="11.954040797042003"><ele>434.0</ele><time>2026-04-25T15:56:00Z</time></trkpt><trkpt lat="46.081092698092306" lon="11.954058676593082"><ele>432.0</ele><time>2026-04-25T15:56:01Z</time></trkpt><trkpt lat="46.08117538148949" lon="11.954039365367503"><ele>429.99999999999994</ele><time>2026-04-25T15:56:02Z</time></trkpt><trkpt lat="46.081253512106734" lon="11.95399584713607"><ele>428.0</ele><time>2026-04-25T15:56:03Z</time></trkpt><trkpt lat="46.08133487337489" lon="11.953985747895144"><ele>428.00000000000006</ele><time>2026-04-25T15:56:04Z</time></trkpt><trkpt lat="46.08139942134295" lon="11.95394606017478"><ele>428.0</ele><time>2026-04-25T15:56:05Z</time></trkpt><trkpt lat="46.0814765512529" lon="11.953950155658571"><ele>428.0</ele><time>2026-04-25T15:56:06Z</time></trkpt><trkpt lat="46.081551057846454" lon="11.953980023957353"><ele>428.0</ele><time>2026-04-25T15:56:07Z</time></trkpt><trkpt lat="46.08161154365727" lon="11.954043299642398"><ele>428.0</ele><time>2026-04-25T15:56:08Z</time></trkpt><trkpt lat="46.08166053757572" lon="11.95411512032458"><ele>428.00000000000006</ele><time>2026-04-25T15:56:09Z</time></trkpt><trkpt lat="46.08172619414823" lon="11.954166503180991"><ele>428.0</ele><time>2026-04-25T15:56:10Z</time></trkpt><trkpt lat="46.081799381961375" lon="11.954221307947384"><ele>425.2</ele><time>2026-04-25T15:56:11Z</time></trkpt><trkpt lat="46.08188916657886" lon="11.954185137081575"><ele>422.4</ele><time>2026-04-25T15:56:12Z</time></trkpt><trkpt lat="46.08197980749728" lon="11.954129601780185"><ele>419.59999999999997</ele><time>2026-04-25T15:56:13Z</time></trkpt><trkpt lat="46.08209428435359" lon="11.954073458913863"><ele>416.79999999999995</ele><time>2026-04-25T15:56:14Z</time></trkpt><trkpt lat="46.082179670990904" lon="11.954036143382991"><ele>414.0</ele><time>2026-04-25T15:56:15Z</time></trkpt><trkpt lat="46.08229974971406" lon="11.953993899975053"><ele>414.0</ele><time>2026-04-25T15:56:16Z</time></trkpt><trkpt lat="46.08242552204905" lon="11.954001914736931"><ele>414.0</ele><time>2026-04-25T15:56:17Z</time></trkpt><trkpt lat="46.08254634289591" lon="11.95401725258989"><ele>414.0</ele><time>2026-04-25T15:56:18Z</time></trkpt><trkpt lat="46.08268316415228" lon="11.954042776272516"><ele>414.0</ele><time>2026-04-25T15:56:19Z</time></trkpt><trkpt lat="46.082827910251666" lon="11.954065296826272"><ele>413.5</ele><time>2026-04-25T15:56:20Z</time></trkpt><trkpt lat="46.08298884943132" lon="11.954090336863274"><ele>413.0</ele><time>2026-04-25T15:56:21Z</time></trkpt><trkpt lat="46.08313444018622" lon="11.9541156029681"><ele>412.5</ele><time>2026-04-25T15:56:22Z</time></trkpt><trkpt lat="46.08325761404183" lon="11.95412389541402"><ele>412.0</ele><time>2026-04-25T15:56:23Z</time></trkpt><trkpt lat="46.08336310076583" lon="11.95413951889858"><ele>413.00000000000006</ele><time>2026-04-25T15:56:24Z</time></trkpt><trkpt lat="46.08346745982695" lon="11.95416374164222"><ele>414.0</ele><time>2026-04-25T15:56:25Z</time></trkpt><trkpt lat="46.08355614114823" lon="11.954178932663018"><ele>415.0</ele><time>2026-04-25T15:56:26Z</time></trkpt><trkpt lat="46.083636135061454" lon="11.954184256779357"><ele>416.0</ele><time>2026-04-25T15:56:27Z</time></trkpt><trkpt lat="46.08371579965344" lon="11.954193756194488"><ele>417.00000000000006</ele><time>2026-04-25T15:56:28Z</time></trkpt><trkpt lat="46.08378609194399" lon="11.954232492134334"><ele>418.0</ele><time>2026-04-25T15:56:29Z</time></trkpt><trkpt lat="46.083883042968324" lon="11.954250755291632"><ele>418.0</ele><time>2026-04-25T15:56:31Z</time></trkpt><trkpt lat="46.0839697738651" lon="11.954195477148868"><ele>418.0</ele><time>2026-04-25T15:56:33Z</time></trkpt><trkpt lat="46.084051731997135" lon="11.954018967298271"><ele>418.0</ele><time>2026-04-25T15:56:34.999Z</time></trkpt><trkpt lat="46.084044895803366" lon="11.953892885866612"><ele>418.0</ele><time>2026-04-25T15:56:35.999Z</time></trkpt><trkpt lat="46.084090220873065" lon="11.95377098512335"><ele>418.0</ele><time>2026-04-25T15:56:37.999Z</time></trkpt><trkpt lat="46.08416409278024" lon="11.953683953631844"><ele>418.2</ele><time>2026-04-25T15:56:39.999Z</time></trkpt><trkpt lat="46.08425520193478" lon="11.953684916691413"><ele>418.4</ele><time>2026-04-25T15:56:40.999Z</time></trkpt><trkpt lat="46.084335838466465" lon="11.95367114799732"><ele>418.59999999999997</ele><time>2026-04-25T15:56:41.999Z</time></trkpt><trkpt lat="46.08444232848135" lon="11.95365317743207"><ele>418.79999999999995</ele><time>2026-04-25T15:56:42.999Z</time></trkpt><trkpt lat="46.08455666809906" lon="11.953612751596827"><ele>419.0</ele><time>2026-04-25T15:56:43.999Z</time></trkpt><trkpt lat="46.08466446153802" lon="11.953601905745609"><ele>419.0</ele><time>2026-04-25T15:56:44.999Z</time></trkpt><trkpt lat="46.08477047318239" lon="11.95354738567246"><ele>419.0</ele><time>2026-04-25T15:56:45.999Z</time></trkpt><trkpt lat="46.08486799609723" lon="11.953460102143817"><ele>419.0</ele><time>2026-04-25T15:56:46.999Z</time></trkpt><trkpt lat="46.08498137491289" lon="11.953395006821557"><ele>419.0</ele><time>2026-04-25T15:56:47.999Z</time></trkpt><trkpt lat="46.085091698939316" lon="11.95330882945019"><ele>423.25</ele><time>2026-04-25T15:56:48.999Z</time></trkpt><trkpt lat="46.08520077055619" lon="11.953217014181778"><ele>427.5</ele><time>2026-04-25T15:56:49.999Z</time></trkpt><trkpt lat="46.08531050897923" lon="11.953128482293415"><ele>431.75</ele><time>2026-04-25T15:56:50.999Z</time></trkpt><trkpt lat="46.08542809672003" lon="11.953052442181606"><ele>436.0</ele><time>2026-04-25T15:56:51.999Z</time></trkpt><trkpt lat="46.08552514326588" lon="11.952986172945513"><ele>436.0</ele><time>2026-04-25T15:56:52.999Z</time></trkpt><trkpt lat="46.08561168024246" lon="11.952922330996332"><ele>436.0</ele><time>2026-04-25T15:56:53.999Z</time></trkpt><trkpt lat="46.08570940164832" lon="11.952862078551323"><ele>436.0</ele><time>2026-04-25T15:56:54.999Z</time></trkpt><trkpt lat="46.08581574763555" lon="11.952831743682118"><ele>436.0</ele><time>2026-04-25T15:56:55.999Z</time></trkpt><trkpt lat="46.08591257203044" lon="11.952819315770045"><ele>436.0</ele><time>2026-04-25T15:56:56.999Z</time></trkpt><trkpt lat="46.08601811659447" lon="11.952795732178053"><ele>432.4</ele><time>2026-04-25T15:56:57.999Z</time></trkpt><trkpt lat="46.086115817237825" lon="11.952776071813027"><ele>428.8</ele><time>2026-04-25T15:56:58.999Z</time></trkpt><trkpt lat="46.086216301797684" lon="11.952756399095586"><ele>425.2</ele><time>2026-04-25T15:56:59.999Z</time></trkpt><trkpt lat="46.08632181655942" lon="11.95272717515752"><ele>421.59999999999997</ele><time>2026-04-25T15:57:00.999Z</time></trkpt><trkpt lat="46.08643130526332" lon="11.952704616227038"><ele>418.0</ele><time>2026-04-25T15:57:01.999Z</time></trkpt><trkpt lat="46.08653794032245" lon="11.952698838278149"><ele>417.2</ele><time>2026-04-25T15:57:02.999Z</time></trkpt><trkpt lat="46.08663965403555" lon="11.952697034173328"><ele>416.4</ele><time>2026-04-25T15:57:03.999Z</time></trkpt><trkpt lat="46.0867347575752" lon="11.952710687578938"><ele>415.59999999999997</ele><time>2026-04-25T15:57:04.999Z</time></trkpt><trkpt lat="46.08684139745067" lon="11.952732352376897"><ele>414.79999999999995</ele><time>2026-04-25T15:57:05.999Z</time></trkpt><trkpt lat="46.08693058448982" lon="11.952745873430025"><ele>414.0</ele><time>2026-04-25T15:57:06.999Z</time></trkpt><trkpt lat="46.08702322939897" lon="11.952747414699608"><ele>414.0</ele><time>2026-04-25T15:57:07.999Z</time></trkpt><trkpt lat="46.0871337980439" lon="11.952714634490999"><ele>414.0</ele><time>2026-04-25T15:57:08.999Z</time></trkpt><trkpt lat="46.08725197599493" lon="11.95265877522032"><ele>414.0</ele><time>2026-04-25T15:57:09.999Z</time></trkpt><trkpt lat="46.087362164070505" lon="11.95264711277999"><ele>414.0</ele><time>2026-04-25T15:57:10.999Z</time></trkpt><trkpt lat="46.08744961664065" lon="11.952621360247958"><ele>414.0</ele><time>2026-04-25T15:57:11.999Z</time></trkpt><trkpt lat="46.08753060282366" lon="11.952603929697403"><ele>414.2</ele><time>2026-04-25T15:57:12.999Z</time></trkpt><trkpt lat="46.08761809181996" lon="11.952616978491966"><ele>414.4</ele><time>2026-04-25T15:57:13.999Z</time></trkpt><trkpt lat="46.08773074397891" lon="11.95265076367279"><ele>414.6</ele><time>2026-04-25T15:57:14.999Z</time></trkpt><trkpt lat="46.08783830026377" lon="11.952663822018476"><ele>414.8</ele><time>2026-04-25T15:57:15.999Z</time></trkpt><trkpt lat="46.08792766013571" lon="11.952699331900481"><ele>415.0</ele><time>2026-04-25T15:57:16.999Z</time></trkpt><trkpt lat="46.088026090769546" lon="11.952708816682357"><ele>415.00000000000006</ele><time>2026-04-25T15:57:18Z</time></trkpt><trkpt lat="46.088128488507635" lon="11.95268499780066"><ele>415.0</ele><time>2026-04-25T15:57:19Z</time></trkpt><trkpt lat="46.08821176213833" lon="11.952652450250898"><ele>415.0</ele><time>2026-04-25T15:57:20Z</time></trkpt><trkpt lat="46.08827553020889" lon="11.952650085936726"><ele>415.0</ele><time>2026-04-25T15:57:21Z</time></trkpt><trkpt lat="46.088340642230435" lon="11.952639204971032"><ele>415.00000000000006</ele><time>2026-04-25T15:57:22Z</time></trkpt><trkpt lat="46.0884189543903" lon="11.952643846727074"><ele>415.0</ele><time>2026-04-25T15:57:23Z</time></trkpt><trkpt lat="46.08849147742006" lon="11.952750331737743"><ele>416.4</ele><time>2026-04-25T15:57:24Z</time></trkpt><trkpt lat="46.088593093194895" lon="11.952849788775296"><ele>417.8</ele><time>2026-04-25T15:57:25Z</time></trkpt><trkpt lat="46.08869013118103" lon="11.952936958574139"><ele>419.20000000000005</ele><time>2026-04-25T15:57:26Z</time></trkpt><trkpt lat="46.088770750649516" lon="11.953004227569073"><ele>420.6</ele><time>2026-04-25T15:57:27Z</time></trkpt><trkpt lat="46.08883283304999" lon="11.953087075650467"><ele>422.0</ele><time>2026-04-25T15:57:28Z</time></trkpt><trkpt lat="46.088893251833035" lon="11.953148465930376"><ele>421.99999999999994</ele><time>2026-04-25T15:57:29Z</time></trkpt><trkpt lat="46.08896600672117" lon="11.953170006569744"><ele>422.0</ele><time>2026-04-25T15:57:30Z</time></trkpt><trkpt lat="46.08904209112838" lon="11.953196811608896"><ele>422.0</ele><time>2026-04-25T15:57:31Z</time></trkpt><trkpt lat="46.089117298401746" lon="11.95315283902789"><ele>422.0</ele><time>2026-04-25T15:57:32Z</time></trkpt><trkpt lat="46.089189016456324" lon="11.953070481103126"><ele>421.99999999999994</ele><time>2026-04-25T15:57:33Z</time></trkpt><trkpt lat="46.08923065115857" lon="11.952949922986704"><ele>422.0</ele><time>2026-04-25T15:57:34Z</time></trkpt><trkpt lat="46.08926642827043" lon="11.952837094444558"><ele>423.8333333333333</ele><time>2026-04-25T15:57:35Z</time></trkpt><trkpt lat="46.089313008044954" lon="11.952768449513655"><ele>425.66666666666663</ele><time>2026-04-25T15:57:36Z</time></trkpt><trkpt lat="46.08938621261291" lon="11.952754330661387"><ele>427.5</ele><time>2026-04-25T15:57:37Z</time></trkpt><trkpt lat="46.0894450764556" lon="11.95271942522867"><ele>429.33333333333337</ele><time>2026-04-25T15:57:38Z</time></trkpt><trkpt lat="46.08952539340314" lon="11.952744327965556"><ele>431.1666666666667</ele><time>2026-04-25T15:57:39Z</time></trkpt><trkpt lat="46.089609223960935" lon="11.952774519417789"><ele>433.0</ele><time>2026-04-25T15:57:40Z</time></trkpt><trkpt lat="46.08970106180393" lon="11.952839286495449"><ele>433.0</ele><time>2026-04-25T15:57:41Z</time></trkpt><trkpt lat="46.089799748811295" lon="11.952916944555309"><ele>432.99999999999994</ele><time>2026-04-25T15:57:42Z</time></trkpt><trkpt lat="46.0898872748195" lon="11.952987433248577"><ele>432.99999999999994</ele><time>2026-04-25T15:57:43Z</time></trkpt><trkpt lat="46.08996751397587" lon="11.953037875361346"><ele>433.0</ele><time>2026-04-25T15:57:44Z</time></trkpt><trkpt lat="46.090047827170935" lon="11.953056346221084"><ele>433.0</ele><time>2026-04-25T15:57:45Z</time></trkpt><trkpt lat="46.090156952491824" lon="11.953057011987962"><ele>435.59999999999997</ele><time>2026-04-25T15:57:46Z</time></trkpt><trkpt lat="46.0902637678022" lon="11.95305148301019"><ele>438.19999999999993</ele><time>2026-04-25T15:57:47Z</time></trkpt><trkpt lat="46.09037935100068" lon="11.95304025005383"><ele>440.8</ele><time>2026-04-25T15:57:48Z</time></trkpt><trkpt lat="46.09047949159038" lon="11.953018793662965"><ele>443.4</ele><time>2026-04-25T15:57:49Z</time></trkpt><trkpt lat="46.09059256932626" lon="11.952958472861887"><ele>446.0</ele><time>2026-04-25T15:57:50Z</time></trkpt><trkpt lat="46.09072170041172" lon="11.952857262878341"><ele>444.5</ele><time>2026-04-25T15:57:51Z</time></trkpt><trkpt lat="46.09083520756376" lon="11.952762452041046"><ele>443.0</ele><time>2026-04-25T15:57:52Z</time></trkpt><trkpt lat="46.0909195440174" lon="11.95266178917786"><ele>441.5</ele><time>2026-04-25T15:57:53Z</time></trkpt><trkpt lat="46.09102602036511" lon="11.952578323213887"><ele>440.0</ele><time>2026-04-25T15:57:54Z</time></trkpt><trkpt lat="46.091102385922945" lon="11.952479463075738"><ele>438.0</ele><time>2026-04-25T15:57:55Z</time></trkpt><trkpt lat="46.09118027893413" lon="11.952410244102305"><ele>436.0</ele><time>2026-04-25T15:57:56Z</time></trkpt><trkpt lat="46.091264385915345" lon="11.952348968439498"><ele>434.0</ele><time>2026-04-25T15:57:57Z</time></trkpt><trkpt lat="46.091352326962785" lon="11.952331621509543"><ele>432.0</ele><time>2026-04-25T15:57:58Z</time></trkpt><trkpt lat="46.0914426193757" lon="11.95229293631008"><ele>430.0</ele><time>2026-04-25T15:57:59Z</time></trkpt><trkpt lat="46.091549374571386" lon="11.952321465439343"><ele>431.4</ele><time>2026-04-25T15:58:00Z</time></trkpt><trkpt lat="46.09166100601364" lon="11.952308463518822"><ele>432.8</ele><time>2026-04-25T15:58:01Z</time></trkpt><trkpt lat="46.09175855729771" lon="11.95230560903768"><ele>434.20000000000005</ele><time>2026-04-25T15:58:02Z</time></trkpt><trkpt lat="46.09185818279772" lon="11.952290619402797"><ele>435.6</ele><time>2026-04-25T15:58:03Z</time></trkpt><trkpt lat="46.09194944132386" lon="11.952244629588659"><ele>437.0</ele><time>2026-04-25T15:58:04Z</time></trkpt><trkpt lat="46.0920258958553" lon="11.952217243737937"><ele>437.0</ele><time>2026-04-25T15:58:05Z</time></trkpt><trkpt lat="46.09211004434904" lon="11.952202384914045"><ele>437.00000000000006</ele><time>2026-04-25T15:58:06Z</time></trkpt><trkpt lat="46.092192360519356" lon="11.952204359162442"><ele>437.00000000000006</ele><time>2026-04-25T15:58:07Z</time></trkpt><trkpt lat="46.092275279962216" lon="11.952250071624508"><ele>437.0</ele><time>2026-04-25T15:58:08Z</time></trkpt><trkpt lat="46.09237002748791" lon="11.95232641191712"><ele>437.0</ele><time>2026-04-25T15:58:09Z</time></trkpt><trkpt lat="46.092474093877264" lon="11.952408266112844"><ele>438.25</ele><time>2026-04-25T15:58:10Z</time></trkpt><trkpt lat="46.092570626379484" lon="11.952490167285081"><ele>439.5</ele><time>2026-04-25T15:58:11Z</time></trkpt><trkpt lat="46.09268152378198" lon="11.952600543007366"><ele>440.75</ele><time>2026-04-25T15:58:12Z</time></trkpt><trkpt lat="46.09279856375499" lon="11.952715922619893"><ele>442.0</ele><time>2026-04-25T15:58:13Z</time></trkpt><trkpt lat="46.092922730352406" lon="11.952819552250073"><ele>442.6666666666667</ele><time>2026-04-25T15:58:14Z</time></trkpt><trkpt lat="46.093031105361334" lon="11.952873312927297"><ele>443.33333333333337</ele><time>2026-04-25T15:58:15Z</time></trkpt><trkpt lat="46.09311920634167" lon="11.952947332788465"><ele>444.0</ele><time>2026-04-25T15:58:16Z</time></trkpt><trkpt lat="46.09319590120412" lon="11.953013064100755"><ele>444.66666666666663</ele><time>2026-04-25T15:58:17Z</time></trkpt><trkpt lat="46.09325000045094" lon="11.953087042288033"><ele>445.3333333333333</ele><time>2026-04-25T15:58:18Z</time></trkpt><trkpt lat="46.09330907592458" lon="11.953136431218672"><ele>446.0</ele><time>2026-04-25T15:58:19Z</time></trkpt><trkpt lat="46.09338296639432" lon="11.953192869863036"><ele>446.0</ele><time>2026-04-25T15:58:20Z</time></trkpt><trkpt lat="46.09348171421573" lon="11.953238477637724"><ele>446.0</ele><time>2026-04-25T15:58:21Z</time></trkpt><trkpt lat="46.093617218371065" lon="11.953279075120316"><ele>446.0</ele><time>2026-04-25T15:58:22Z</time></trkpt><trkpt lat="46.093739572679134" lon="11.953299101868827"><ele>446.0</ele><time>2026-04-25T15:58:23Z</time></trkpt><trkpt lat="46.09386619706761" lon="11.953285454266522"><ele>446.0</ele><time>2026-04-25T15:58:24Z</time></trkpt><trkpt lat="46.09400516839124" lon="11.953305470856472"><ele>446.0</ele><time>2026-04-25T15:58:25Z</time></trkpt><trkpt lat="46.094121861474235" lon="11.953302267620584"><ele>446.0</ele><time>2026-04-25T15:58:26Z</time></trkpt><trkpt lat="46.094229716967675" lon="11.95327729303833"><ele>446.0</ele><time>2026-04-25T15:58:27Z</time></trkpt><trkpt lat="46.09434166401203" lon="11.95328193160797"><ele>446.20000000000005</ele><time>2026-04-25T15:58:28Z</time></trkpt><trkpt lat="46.09443231656762" lon="11.953272012929194"><ele>446.40000000000003</ele><time>2026-04-25T15:58:29Z</time></trkpt><trkpt lat="46.09452148682087" lon="11.953285182429044"><ele>446.6</ele><time>2026-04-25T15:58:30Z</time></trkpt><trkpt lat="46.09461673829886" lon="11.953300608020418"><ele>446.8</ele><time>2026-04-25T15:58:31Z</time></trkpt><trkpt lat="46.09472816868793" lon="11.953346043946008"><ele>447.0</ele><time>2026-04-25T15:58:32Z</time></trkpt><trkpt lat="46.09482983273119" lon="11.953398617813663"><ele>451.40000000000003</ele><time>2026-04-25T15:58:33Z</time></trkpt><trkpt lat="46.09490938430066" lon="11.953443641372482"><ele>455.80000000000007</ele><time>2026-04-25T15:58:34Z</time></trkpt><trkpt lat="46.09498698252228" lon="11.953493642157703"><ele>460.2</ele><time>2026-04-25T15:58:35Z</time></trkpt><trkpt lat="46.09506110601001" lon="11.95358102186174"><ele>464.6</ele><time>2026-04-25T15:58:36Z</time></trkpt><trkpt lat="46.09512948999713" lon="11.953683091373698"><ele>469.0</ele><time>2026-04-25T15:58:37Z</time></trkpt><trkpt lat="46.095209061387976" lon="11.953782904452952"><ele>477.25</ele><time>2026-04-25T15:58:38Z</time></trkpt><trkpt lat="46.09531631033057" lon="11.953858748911115"><ele>485.5</ele><time>2026-04-25T15:58:39Z</time></trkpt><trkpt lat="46.095417221051164" lon="11.953886785787077"><ele>493.75</ele><time>2026-04-25T15:58:40Z</time></trkpt><trkpt lat="46.095523720100694" lon="11.953933797251556"><ele>502.0</ele><time>2026-04-25T15:58:41Z</time></trkpt><trkpt lat="46.09564372859949" lon="11.95395992990032"><ele>502.0</ele><time>2026-04-25T15:58:41.999Z</time></trkpt><trkpt lat="46.09574949301919" lon="11.953992528046568"><ele>502.0</ele><time>2026-04-25T15:58:42.999Z</time></trkpt><trkpt lat="46.09586207602818" lon="11.953994090678199"><ele>502.0</ele><time>2026-04-25T15:58:43.999Z</time></trkpt><trkpt lat="46.09599542327338" lon="11.953990845395893"><ele>502.0</ele><time>2026-04-25T15:58:44.999Z</time></trkpt><trkpt lat="46.09612002066341" lon="11.953987220773515"><ele>499.6666666666667</ele><time>2026-04-25T15:58:45.999Z</time></trkpt><trkpt lat="46.096208587606526" lon="11.953990454034432"><ele>497.33333333333337</ele><time>2026-04-25T15:58:46.999Z</time></trkpt><trkpt lat="46.09629791793313" lon="11.953978212502953"><ele>495.0</ele><time>2026-04-25T15:58:47.999Z</time></trkpt><trkpt lat="46.096397673717945" lon="11.953991613977298"><ele>492.66666666666663</ele><time>2026-04-25T15:58:48.999Z</time></trkpt><trkpt lat="46.096489324976936" lon="11.95399742097706"><ele>490.3333333333333</ele><time>2026-04-25T15:58:49.999Z</time></trkpt><trkpt lat="46.096562209251715" lon="11.953964527926125"><ele>488.0</ele><time>2026-04-25T15:58:50.999Z</time></trkpt><trkpt lat="46.09663969928847" lon="11.95391883061218"><ele>487.99999999999994</ele><time>2026-04-25T15:58:51.999Z</time></trkpt><trkpt lat="46.09669949471211" lon="11.953833987699257"><ele>488.0</ele><time>2026-04-25T15:58:52.999Z</time></trkpt><trkpt lat="46.09675674719632" lon="11.953733183846564"><ele>488.0</ele><time>2026-04-25T15:58:53.999Z</time></trkpt><trkpt lat="46.09681933060513" lon="11.953651955583528"><ele>488.0</ele><time>2026-04-25T15:58:54.999Z</time></trkpt><trkpt lat="46.09686011042457" lon="11.953549524128283"><ele>487.99999999999994</ele><time>2026-04-25T15:58:55.999Z</time></trkpt><trkpt lat="46.09687784091842" lon="11.953451289035243"><ele>488.0</ele><time>2026-04-25T15:58:56.999Z</time></trkpt><trkpt lat="46.096926379723875" lon="11.953372549035763"><ele>483.59999999999997</ele><time>2026-04-25T15:58:58.999Z</time></trkpt><trkpt lat="46.09702331406358" lon="11.953172125705667"><ele>479.19999999999993</ele><time>2026-04-25T15:59:49Z</time></trkpt><trkpt lat="46.09707122428367" lon="11.953082599708512"><ele>474.8</ele><time>2026-04-25T15:59:50Z</time></trkpt><trkpt lat="46.09712577654698" lon="11.952988799375246"><ele>470.4</ele><time>2026-04-25T15:59:51Z</time></trkpt><trkpt lat="46.09717267542846" lon="11.952851425973249"><ele>466.0</ele><time>2026-04-25T15:59:53Z</time></trkpt><trkpt lat="46.09715967627415" lon="11.95271245235448"><ele>466.0</ele><time>2026-04-25T15:59:54Z</time></trkpt><trkpt lat="46.0971533365152" lon="11.95258607854004"><ele>466.0</ele><time>2026-04-25T15:59:55Z</time></trkpt><trkpt lat="46.097136653836266" lon="11.952455523383275"><ele>466.0</ele><time>2026-04-25T15:59:56Z</time></trkpt><trkpt lat="46.09712846413459" lon="11.952312563364908"><ele>466.0</ele><time>2026-04-25T15:59:57Z</time></trkpt><trkpt lat="46.09714667283862" lon="11.95218239424811"><ele>466.0</ele><time>2026-04-25T15:59:58Z</time></trkpt><trkpt lat="46.097148476400854" lon="11.952047794051717"><ele>466.6</ele><time>2026-04-25T15:59:59Z</time></trkpt><trkpt lat="46.097167536272934" lon="11.95191029817975"><ele>467.20000000000005</ele><time>2026-04-25T16:00:00Z</time></trkpt><trkpt lat="46.09719556720393" lon="11.951762164292164"><ele>467.79999999999995</ele><time>2026-04-25T16:00:01Z</time></trkpt><trkpt lat="46.09722461310349" lon="11.951628214883916"><ele>468.4</ele><time>2026-04-25T16:00:02Z</time></trkpt><trkpt lat="46.09724655588772" lon="11.951523509279507"><ele>469.0</ele><time>2026-04-25T16:00:03Z</time></trkpt><trkpt lat="46.09730104420579" lon="11.951409271804756"><ele>470.2</ele><time>2026-04-25T16:00:05Z</time></trkpt><trkpt lat="46.097382037309124" lon="11.951364035443442"><ele>471.4</ele><time>2026-04-25T16:00:07Z</time></trkpt><trkpt lat="46.09744453106327" lon="11.951410917786733"><ele>472.6</ele><time>2026-04-25T16:00:08Z</time></trkpt><trkpt lat="46.09758473959597" lon="11.951466642978309"><ele>473.8</ele><time>2026-04-25T16:00:10Z</time></trkpt><trkpt lat="46.09767723493722" lon="11.951481032653867"><ele>475.0</ele><time>2026-04-25T16:00:11Z</time></trkpt><trkpt lat="46.09777449650921" lon="11.951461097787794"><ele>475.0</ele><time>2026-04-25T16:00:12Z</time></trkpt><trkpt lat="46.0978708253898" lon="11.951461002946697"><ele>475.0</ele><time>2026-04-25T16:00:13Z</time></trkpt><trkpt lat="46.09796993989478" lon="11.951446862692194"><ele>475.0</ele><time>2026-04-25T16:00:14Z</time></trkpt><trkpt lat="46.09807053061591" lon="11.95142594712194"><ele>475.0</ele><time>2026-04-25T16:00:15Z</time></trkpt><trkpt lat="46.09817189944836" lon="11.95142939922044"><ele>475.0</ele><time>2026-04-25T16:00:16Z</time></trkpt><trkpt lat="46.098261012216575" lon="11.951404685371767"><ele>477.8</ele><time>2026-04-25T16:00:17Z</time></trkpt><trkpt lat="46.098348318016214" lon="11.951373835724844"><ele>480.6</ele><time>2026-04-25T16:00:18Z</time></trkpt><trkpt lat="46.09842155244008" lon="11.951315079172288"><ele>483.4</ele><time>2026-04-25T16:00:19Z</time></trkpt><trkpt lat="46.0984870210674" lon="11.95122572656027"><ele>486.2</ele><time>2026-04-25T16:00:20Z</time></trkpt><trkpt lat="46.09854138751046" lon="11.951110266740844"><ele>489.0</ele><time>2026-04-25T16:00:21Z</time></trkpt><trkpt lat="46.09858410615714" lon="11.950962916360277"><ele>488.1666666666667</ele><time>2026-04-25T16:00:22Z</time></trkpt><trkpt lat="46.09861656465644" lon="11.950800621958065"><ele>487.33333333333337</ele><time>2026-04-25T16:00:23Z</time></trkpt><trkpt lat="46.09863443218384" lon="11.950667043824932"><ele>486.5</ele><time>2026-04-25T16:00:24Z</time></trkpt><trkpt lat="46.098651803392215" lon="11.950575246987587"><ele>485.6666666666667</ele><time>2026-04-25T16:00:25Z</time></trkpt><trkpt lat="46.098695804564834" lon="11.950499158046602"><ele>484.83333333333337</ele><time>2026-04-25T16:00:26Z</time></trkpt><trkpt lat="46.09878577666927" lon="11.95044630865889"><ele>484.0</ele><time>2026-04-25T16:00:27Z</time></trkpt><trkpt lat="46.09888451281197" lon="11.950363323887117"><ele>484.0</ele><time>2026-04-25T16:00:28Z</time></trkpt><trkpt lat="46.09900610610448" lon="11.950253565104068"><ele>484.0</ele><time>2026-04-25T16:00:29Z</time></trkpt><trkpt lat="46.099129766572545" lon="11.950143381238703"><ele>484.0</ele><time>2026-04-25T16:00:30Z</time></trkpt><trkpt lat="46.099227010055955" lon="11.950056516432644"><ele>484.0</ele><time>2026-04-25T16:00:31Z</time></trkpt><trkpt lat="46.09929995463255" lon="11.9499890825552"><ele>487.4</ele><time>2026-04-25T16:00:32Z</time></trkpt><trkpt lat="46.09936490063849" lon="11.949927467075412"><ele>490.79999999999995</ele><time>2026-04-25T16:00:33Z</time></trkpt><trkpt lat="46.09947653016714" lon="11.949892839555762"><ele>494.20000000000005</ele><time>2026-04-25T16:00:34Z</time></trkpt><trkpt lat="46.09960547244805" lon="11.949865006693537"><ele>497.6</ele><time>2026-04-25T16:00:35Z</time></trkpt><trkpt lat="46.09970937040573" lon="11.94981544670639"><ele>501.0</ele><time>2026-04-25T16:00:36Z</time></trkpt><trkpt lat="46.099804705877176" lon="11.949764112413865"><ele>501.0</ele><time>2026-04-25T16:00:37Z</time></trkpt><trkpt lat="46.09988675474902" lon="11.949732921054194"><ele>501.0</ele><time>2026-04-25T16:00:38Z</time></trkpt><trkpt lat="46.09996755162865" lon="11.949762692048434"><ele>501.0</ele><time>2026-04-25T16:00:39Z</time></trkpt><trkpt lat="46.10005699130024" lon="11.949802595059259"><ele>501.0</ele><time>2026-04-25T16:00:40Z</time></trkpt><trkpt lat="46.100157086303945" lon="11.949818516254911"><ele>501.0</ele><time>2026-04-25T16:00:41Z</time></trkpt><trkpt lat="46.10023495128986" lon="11.949837208669177"><ele>501.0</ele><time>2026-04-25T16:00:42Z</time></trkpt><trkpt lat="46.10029837485524" lon="11.949834053453095"><ele>503.4</ele><time>2026-04-25T16:00:43Z</time></trkpt><trkpt lat="46.10037117419078" lon="11.94980877458228"><ele>505.8</ele><time>2026-04-25T16:00:44Z</time></trkpt><trkpt lat="46.10044022277835" lon="11.949735264734771"><ele>508.19999999999993</ele><time>2026-04-25T16:00:45Z</time></trkpt><trkpt lat="46.10049601184386" lon="11.949626012388457"><ele>510.59999999999997</ele><time>2026-04-25T16:00:46Z</time></trkpt><trkpt lat="46.100543501321724" lon="11.949478919498823"><ele>513.0</ele><time>2026-04-25T16:00:47Z</time></trkpt><trkpt lat="46.10061641265017" lon="11.949325602541455"><ele>515.0</ele><time>2026-04-25T16:00:48Z</time></trkpt><trkpt lat="46.1006773554739" lon="11.949172408248224"><ele>517.0</ele><time>2026-04-25T16:00:48.999Z</time></trkpt><trkpt lat="46.10071430217014" lon="11.949039580540239"><ele>519.0</ele><time>2026-04-25T16:00:49.999Z</time></trkpt><trkpt lat="46.10075362796617" lon="11.948903119227511"><ele>521.0</ele><time>2026-04-25T16:00:50.999Z</time></trkpt><trkpt lat="46.100812281044774" lon="11.94878553799389"><ele>523.0</ele><time>2026-04-25T16:00:51.999Z</time></trkpt><trkpt lat="46.10084475874403" lon="11.948686374388835"><ele>523.0</ele><time>2026-04-25T16:00:52.999Z</time></trkpt><trkpt lat="46.1008520184843" lon="11.948584831187526"><ele>523.0</ele><time>2026-04-25T16:00:53.999Z</time></trkpt><trkpt lat="46.10083958428129" lon="11.948459788542626"><ele>523.0</ele><time>2026-04-25T16:00:54.999Z</time></trkpt><trkpt lat="46.10080588136262" lon="11.94832007967507"><ele>523.0</ele><time>2026-04-25T16:00:55.999Z</time></trkpt><trkpt lat="46.10075204759041" lon="11.9481615387446"><ele>523.0</ele><time>2026-04-25T16:00:56.999Z</time></trkpt><trkpt lat="46.10069093614607" lon="11.94800143262687"><ele>523.1666666666667</ele><time>2026-04-25T16:00:57.999Z</time></trkpt><trkpt lat="46.10066101016227" lon="11.947847504311627"><ele>523.3333333333334</ele><time>2026-04-25T16:00:58.999Z</time></trkpt><trkpt lat="46.10062802138765" lon="11.947727168248734"><ele>523.5</ele><time>2026-04-25T16:00:59.999Z</time></trkpt><trkpt lat="46.100604359213854" lon="11.947640406871765"><ele>523.6666666666666</ele><time>2026-04-25T16:01:00.999Z</time></trkpt><trkpt lat="46.10057778194453" lon="11.947535593157586"><ele>523.8333333333333</ele><time>2026-04-25T16:01:01.999Z</time></trkpt><trkpt lat="46.10055954674963" lon="11.947428040093767"><ele>524.0</ele><time>2026-04-25T16:01:02.999Z</time></trkpt><trkpt lat="46.10057732241763" lon="11.947332811426167"><ele>524.0</ele><time>2026-04-25T16:01:03.999Z</time></trkpt><trkpt lat="46.100584250641255" lon="11.947226100874921"><ele>524.0</ele><time>2026-04-25T16:01:04.999Z</time></trkpt><trkpt lat="46.10066634368004" lon="11.947167201501324"><ele>524.0</ele><time>2026-04-25T16:01:05.999Z</time></trkpt><trkpt lat="46.100745993941835" lon="11.947128363543934"><ele>524.0</ele><time>2026-04-25T16:01:06.999Z</time></trkpt><trkpt lat="46.10083617876413" lon="11.947077592049924"><ele>524.0</ele><time>2026-04-25T16:01:07.999Z</time></trkpt><trkpt lat="46.10093181223751" lon="11.947049239753795"><ele>524.0</ele><time>2026-04-25T16:01:08.999Z</time></trkpt><trkpt lat="46.10099875823785" lon="11.947041315222362"><ele>525.0</ele><time>2026-04-25T16:01:09.999Z</time></trkpt><trkpt lat="46.101064097887495" lon="11.947063676115018"><ele>526.0</ele><time>2026-04-25T16:01:10.999Z</time></trkpt><trkpt lat="46.101133482020714" lon="11.947098557555005"><ele>527.0</ele><time>2026-04-25T16:01:11.999Z</time></trkpt><trkpt lat="46.10118696150406" lon="11.947186872526487"><ele>528.0</ele><time>2026-04-25T16:01:12.999Z</time></trkpt><trkpt lat="46.101257263050805" lon="11.947281795340368"><ele>529.0</ele><time>2026-04-25T16:01:13.999Z</time></trkpt><trkpt lat="46.10133523779022" lon="11.947356370796806"><ele>530.0</ele><time>2026-04-25T16:01:14.999Z</time></trkpt><trkpt lat="46.101387951016704" lon="11.947414026054794"><ele>530.0</ele><time>2026-04-25T16:01:15.999Z</time></trkpt><trkpt lat="46.101457664429425" lon="11.947511462619724"><ele>530.0</ele><time>2026-04-25T16:01:17.999Z</time></trkpt><trkpt lat="46.10155907308634" lon="11.94754066480951"><ele>530.0</ele><time>2026-04-25T16:01:19.999Z</time></trkpt><trkpt lat="46.1016235147567" lon="11.94750625110982"><ele>530.0</ele><time>2026-04-25T16:01:20.999Z</time></trkpt><trkpt lat="46.10166138171996" lon="11.947392971652521"><ele>530.0</ele><time>2026-04-25T16:01:21.999Z</time></trkpt><trkpt lat="46.10169441902282" lon="11.947278138272228"><ele>530.0</ele><time>2026-04-25T16:01:22.999Z</time></trkpt><trkpt lat="46.101715350170096" lon="11.947153857969399"><ele>532.0</ele><time>2026-04-25T16:01:23.999Z</time></trkpt><trkpt lat="46.101713567346444" lon="11.94700166252053"><ele>534.0</ele><time>2026-04-25T16:01:24.999Z</time></trkpt><trkpt lat="46.10172054627699" lon="11.946837809883403"><ele>536.0</ele><time>2026-04-25T16:01:25.999Z</time></trkpt><trkpt lat="46.101741279447566" lon="11.946693020874225"><ele>538.0</ele><time>2026-04-25T16:01:26.999Z</time></trkpt><trkpt lat="46.10176138416601" lon="11.94658021340398"><ele>540.0</ele><time>2026-04-25T16:01:27.999Z</time></trkpt><trkpt lat="46.101814815457324" lon="11.946473164213481"><ele>541.8</ele><time>2026-04-25T16:01:28.999Z</time></trkpt><trkpt lat="46.10188062665875" lon="11.946361415055634"><ele>543.6</ele><time>2026-04-25T16:01:30Z</time></trkpt><trkpt lat="46.10196002249142" lon="11.946243377918275"><ele>545.4</ele><time>2026-04-25T16:01:31Z</time></trkpt><trkpt lat="46.10205597632428" lon="11.94612631528201"><ele>547.2</ele><time>2026-04-25T16:01:32Z</time></trkpt><trkpt lat="46.10213984481062" lon="11.946036080235977"><ele>549.0</ele><time>2026-04-25T16:01:33Z</time></trkpt><trkpt lat="46.10222227832485" lon="11.945952458548536"><ele>549.0</ele><time>2026-04-25T16:01:34Z</time></trkpt><trkpt lat="46.102319474055236" lon="11.945879785576093"><ele>549.0</ele><time>2026-04-25T16:01:35Z</time></trkpt><trkpt lat="46.10241386914855" lon="11.94583612359023"><ele>549.0</ele><time>2026-04-25T16:01:36Z</time></trkpt><trkpt lat="46.10251316604055" lon="11.945781980291848"><ele>549.0</ele><time>2026-04-25T16:01:37Z</time></trkpt><trkpt lat="46.102599232472784" lon="11.945710277920027"><ele>549.0</ele><time>2026-04-25T16:01:38Z</time></trkpt><trkpt lat="46.102685014219624" lon="11.945626590542021"><ele>550.4</ele><time>2026-04-25T16:01:39Z</time></trkpt><trkpt lat="46.10275907101677" lon="11.945562361948932"><ele>551.8</ele><time>2026-04-25T16:01:40Z</time></trkpt><trkpt lat="46.10283530617476" lon="11.94548074431895"><ele>553.2</ele><time>2026-04-25T16:01:41Z</time></trkpt><trkpt lat="46.102915076882134" lon="11.945398745932902"><ele>554.6</ele><time>2026-04-25T16:01:42Z</time></trkpt><trkpt lat="46.10300044587556" lon="11.945320878288815"><ele>556.0</ele><time>2026-04-25T16:01:43Z</time></trkpt><trkpt lat="46.10307958812151" lon="11.945255720139446"><ele>556.0</ele><time>2026-04-25T16:01:44Z</time></trkpt><trkpt lat="46.103137236526166" lon="11.945173779835407"><ele>556.0</ele><time>2026-04-25T16:01:45Z</time></trkpt><trkpt lat="46.10321341829126" lon="11.9450658189117"><ele>556.0</ele><time>2026-04-25T16:01:46Z</time></trkpt><trkpt lat="46.10330628189034" lon="11.944948871613"><ele>556.0</ele><time>2026-04-25T16:01:47Z</time></trkpt><trkpt lat="46.10338680299471" lon="11.944855581057375"><ele>556.0</ele><time>2026-04-25T16:01:48Z</time></trkpt><trkpt lat="46.103452981942446" lon="11.94477605805525"><ele>557.25</ele><time>2026-04-25T16:01:49Z</time></trkpt><trkpt lat="46.10350903813281" lon="11.94470452359768"><ele>558.5</ele><time>2026-04-25T16:01:50Z</time></trkpt><trkpt lat="46.10359666723362" lon="11.944499570440302"><ele>559.75</ele><time>2026-04-25T16:01:52Z</time></trkpt><trkpt lat="46.103618719843574" lon="11.944328138719705"><ele>561.0</ele><time>2026-04-25T16:01:53Z</time></trkpt><trkpt lat="46.10359439358241" lon="11.944128526119963"><ele>562.75</ele><time>2026-04-25T16:01:54Z</time></trkpt><trkpt lat="46.10358580248557" lon="11.94395444089088"><ele>564.5</ele><time>2026-04-25T16:01:55Z</time></trkpt><trkpt lat="46.10360086396508" lon="11.943806582728051"><ele>566.25</ele><time>2026-04-25T16:01:56Z</time></trkpt><trkpt lat="46.103620728302914" lon="11.943623173602068"><ele>568.0</ele><time>2026-04-25T16:01:57Z</time></trkpt><trkpt lat="46.10363905689049" lon="11.943449569517263"><ele>568.1666666666667</ele><time>2026-04-25T16:01:58Z</time></trkpt><trkpt lat="46.10365661790384" lon="11.943282867489913"><ele>568.3333333333334</ele><time>2026-04-25T16:01:59Z</time></trkpt><trkpt lat="46.10367125674725" lon="11.943132446659053"><ele>568.5</ele><time>2026-04-25T16:02:00Z</time></trkpt><trkpt lat="46.103673906972006" lon="11.943015538335157"><ele>568.6666666666666</ele><time>2026-04-25T16:02:01Z</time></trkpt><trkpt lat="46.10369118553684" lon="11.942927110680778"><ele>568.8333333333333</ele><time>2026-04-25T16:02:02Z</time></trkpt><trkpt lat="46.10372137155855" lon="11.942833619296954"><ele>569.0</ele><time>2026-04-25T16:02:03Z</time></trkpt><trkpt lat="46.10376742674939" lon="11.942735159948905"><ele>569.0</ele><time>2026-04-25T16:02:04Z</time></trkpt><trkpt lat="46.103846215257" lon="11.942654539309618"><ele>569.0</ele><time>2026-04-25T16:02:05Z</time></trkpt><trkpt lat="46.1039545358607" lon="11.942581194681841"><ele>569.0</ele><time>2026-04-25T16:02:06Z</time></trkpt><trkpt lat="46.10406368263249" lon="11.942513747079403"><ele>569.0</ele><time>2026-04-25T16:02:07Z</time></trkpt><trkpt lat="46.10414740684104" lon="11.942459969177433"><ele>569.0</ele><time>2026-04-25T16:02:08Z</time></trkpt><trkpt lat="46.10421913412939" lon="11.942426610284516"><ele>568.8</ele><time>2026-04-25T16:02:09Z</time></trkpt><trkpt lat="46.104277911251984" lon="11.942384066532382"><ele>568.5999999999999</ele><time>2026-04-25T16:02:10Z</time></trkpt><trkpt lat="46.10432797566338" lon="11.942324181429397"><ele>568.4</ele><time>2026-04-25T16:02:11Z</time></trkpt><trkpt lat="46.10437797355511" lon="11.942220435200626"><ele>568.1999999999999</ele><time>2026-04-25T16:02:12Z</time></trkpt><trkpt lat="46.10443453838502" lon="11.94207012744993"><ele>568.0</ele><time>2026-04-25T16:02:13Z</time></trkpt><trkpt lat="46.10449613474366" lon="11.941933245075882"><ele>568.0</ele><time>2026-04-25T16:02:14Z</time></trkpt><trkpt lat="46.104546348344954" lon="11.941813333417887"><ele>568.0</ele><time>2026-04-25T16:02:15Z</time></trkpt><trkpt lat="46.104598453030974" lon="11.941706237568676"><ele>568.0</ele><time>2026-04-25T16:02:16Z</time></trkpt><trkpt lat="46.10463333381956" lon="11.941580969646115"><ele>568.0</ele><time>2026-04-25T16:02:17Z</time></trkpt><trkpt lat="46.104682930443246" lon="11.941456474446493"><ele>568.0</ele><time>2026-04-25T16:02:18Z</time></trkpt><trkpt lat="46.10470856217217" lon="11.941306230871442"><ele>569.4</ele><time>2026-04-25T16:02:19Z</time></trkpt><trkpt lat="46.10471927981969" lon="11.941151177204961"><ele>570.8</ele><time>2026-04-25T16:02:20Z</time></trkpt><trkpt lat="46.10473243005304" lon="11.940978769808549"><ele>572.2</ele><time>2026-04-25T16:02:21Z</time></trkpt><trkpt lat="46.10473337248184" lon="11.940811879218131"><ele>573.6</ele><time>2026-04-25T16:02:22Z</time></trkpt><trkpt lat="46.10474573213449" lon="11.940666708797377"><ele>575.0</ele><time>2026-04-25T16:02:23Z</time></trkpt><trkpt lat="46.1047676650337" lon="11.940526883480354"><ele>576.5</ele><time>2026-04-25T16:02:24Z</time></trkpt><trkpt lat="46.10479979335441" lon="11.940382210654773"><ele>578.0</ele><time>2026-04-25T16:02:25Z</time></trkpt><trkpt lat="46.10484734475309" lon="11.940245532833147"><ele>579.5</ele><time>2026-04-25T16:02:26Z</time></trkpt><trkpt lat="46.1049231220521" lon="11.94011651800962"><ele>581.0</ele><time>2026-04-25T16:02:27Z</time></trkpt><trkpt lat="46.10501743129457" lon="11.93999955049012"><ele>581.0</ele><time>2026-04-25T16:02:28Z</time></trkpt><trkpt lat="46.105124701356125" lon="11.939871424208908"><ele>581.0</ele><time>2026-04-25T16:02:29Z</time></trkpt><trkpt lat="46.10525116697002" lon="11.939728602965452"><ele>581.0</ele><time>2026-04-25T16:02:30Z</time></trkpt><trkpt lat="46.10536846060594" lon="11.939604277323216"><ele>581.0</ele><time>2026-04-25T16:02:31Z</time></trkpt><trkpt lat="46.105464285848754" lon="11.939487211829535"><ele>581.0</ele><time>2026-04-25T16:02:32Z</time></trkpt><trkpt lat="46.10555164232469" lon="11.939398383018588"><ele>581.0</ele><time>2026-04-25T16:02:33Z</time></trkpt><trkpt lat="46.10563145032579" lon="11.939302487958395"><ele>581.0</ele><time>2026-04-25T16:02:34Z</time></trkpt><trkpt lat="46.10570250291408" lon="11.939222787645274"><ele>581.0</ele><time>2026-04-25T16:02:35Z</time></trkpt><trkpt lat="46.10578283857821" lon="11.939153465595908"><ele>581.0</ele><time>2026-04-25T16:02:36Z</time></trkpt><trkpt lat="46.10587405715925" lon="11.939091315123191"><ele>577.75</ele><time>2026-04-25T16:02:37Z</time></trkpt><trkpt lat="46.105971642008605" lon="11.939050724805155"><ele>574.5</ele><time>2026-04-25T16:02:38Z</time></trkpt><trkpt lat="46.10608203663527" lon="11.939068486168628"><ele>571.25</ele><time>2026-04-25T16:02:39Z</time></trkpt><trkpt lat="46.10619923548425" lon="11.939058411600064"><ele>568.0</ele><time>2026-04-25T16:02:40Z</time></trkpt><trkpt lat="46.1063339799733" lon="11.939031995273762"><ele>568.0</ele><time>2026-04-25T16:02:41Z</time></trkpt><trkpt lat="46.10647052590925" lon="11.939023570214523"><ele>568.0</ele><time>2026-04-25T16:02:42Z</time></trkpt><trkpt lat="46.10659476741951" lon="11.93900234375257"><ele>568.0</ele><time>2026-04-25T16:02:43Z</time></trkpt><trkpt lat="46.10670338963433" lon="11.938967301599918"><ele>568.0</ele><time>2026-04-25T16:02:44Z</time></trkpt><trkpt lat="46.1068130421954" lon="11.9389521487147"><ele>568.4</ele><time>2026-04-25T16:02:45Z</time></trkpt><trkpt lat="46.106911942155875" lon="11.938931483773214"><ele>568.8</ele><time>2026-04-25T16:02:46Z</time></trkpt><trkpt lat="46.10701843892591" lon="11.9389204766524"><ele>569.2</ele><time>2026-04-25T16:02:46.999Z</time></trkpt><trkpt lat="46.10712467614706" lon="11.938911770986167"><ele>569.6</ele><time>2026-04-25T16:02:47.999Z</time></trkpt><trkpt lat="46.107241063222276" lon="11.938927248457121"><ele>570.0</ele><time>2026-04-25T16:02:48.999Z</time></trkpt><trkpt lat="46.10735686103555" lon="11.938943347553518"><ele>570.8333333333334</ele><time>2026-04-25T16:02:49.999Z</time></trkpt><trkpt lat="46.10745620475419" lon="11.938960774998925"><ele>571.6666666666666</ele><time>2026-04-25T16:02:50.999Z</time></trkpt><trkpt lat="46.10753820773695" lon="11.938966521972208"><ele>572.5</ele><time>2026-04-25T16:02:51.999Z</time></trkpt><trkpt lat="46.1076107566743" lon="11.938981203438791"><ele>573.3333333333333</ele><time>2026-04-25T16:02:52.999Z</time></trkpt><trkpt lat="46.10769421785125" lon="11.938960903471811"><ele>574.1666666666666</ele><time>2026-04-25T16:02:53.999Z</time></trkpt><trkpt lat="46.10778031197485" lon="11.938932909062412"><ele>575.0</ele><time>2026-04-25T16:02:54.999Z</time></trkpt><trkpt lat="46.10786025280364" lon="11.938855707608313"><ele>575.0</ele><time>2026-04-25T16:02:55.999Z</time></trkpt><trkpt lat="46.10798501230371" lon="11.938791160619873"><ele>575.0</ele><time>2026-04-25T16:02:56.999Z</time></trkpt><trkpt lat="46.108059794398336" lon="11.938674693316775"><ele>575.0</ele><time>2026-04-25T16:02:57.999Z</time></trkpt><trkpt lat="46.10812573483715" lon="11.938601256469097"><ele>575.0</ele><time>2026-04-25T16:02:58.999Z</time></trkpt><trkpt lat="46.10820276085107" lon="11.9385312772518"><ele>575.0</ele><time>2026-04-25T16:02:59.999Z</time></trkpt><trkpt lat="46.108302212953696" lon="11.938494510903011"><ele>575.4</ele><time>2026-04-25T16:03:00.999Z</time></trkpt><trkpt lat="46.10839434220101" lon="11.938453458277325"><ele>575.8</ele><time>2026-04-25T16:03:01.999Z</time></trkpt><trkpt lat="46.10846351360261" lon="11.938419362928384"><ele>576.2</ele><time>2026-04-25T16:03:02.999Z</time></trkpt><trkpt lat="46.10859731355668" lon="11.938396256391531"><ele>576.6</ele><time>2026-04-25T16:03:04.999Z</time></trkpt><trkpt lat="46.1086788284519" lon="11.938373403020297"><ele>577.0</ele><time>2026-04-25T16:03:05.999Z</time></trkpt><trkpt lat="46.108768081898745" lon="11.938376230963106"><ele>577.0</ele><time>2026-04-25T16:03:06.999Z</time></trkpt><trkpt lat="46.10885269361622" lon="11.938378415226449"><ele>577.0</ele><time>2026-04-25T16:03:07.999Z</time></trkpt><trkpt lat="46.10892283727" lon="11.938386255316333"><ele>577.0</ele><time>2026-04-25T16:03:08.999Z</time></trkpt><trkpt lat="46.108998207604266" lon="11.938415130843076"><ele>577.0</ele><time>2026-04-25T16:03:09.999Z</time></trkpt><trkpt lat="46.10908391787122" lon="11.93844798264077"><ele>577.0</ele><time>2026-04-25T16:03:10.999Z</time></trkpt><trkpt lat="46.1091769883117" lon="11.938501665078139"><ele>577.0</ele><time>2026-04-25T16:03:11.999Z</time></trkpt><trkpt lat="46.10925350046281" lon="11.938543540505092"><ele>578.2</ele><time>2026-04-25T16:03:12.999Z</time></trkpt><trkpt lat="46.10931403558869" lon="11.938583968870399"><ele>579.4000000000001</ele><time>2026-04-25T16:03:13.999Z</time></trkpt><trkpt lat="46.109446241558224" lon="11.938660667799747"><ele>580.5999999999999</ele><time>2026-04-25T16:03:15.999Z</time></trkpt><trkpt lat="46.109522444432635" lon="11.938648124450648"><ele>581.8</ele><time>2026-04-25T16:03:16.999Z</time></trkpt><trkpt lat="46.10962615103418" lon="11.938532289167261"><ele>583.0</ele><time>2026-04-25T16:03:17.999Z</time></trkpt><trkpt lat="46.10974396452518" lon="11.938406969233014"><ele>584.6</ele><time>2026-04-25T16:03:18.999Z</time></trkpt><trkpt lat="46.10985296483631" lon="11.938324267994927"><ele>586.1999999999999</ele><time>2026-04-25T16:03:19.999Z</time></trkpt><trkpt lat="46.109953650784824" lon="11.938260189189023"><ele>587.8</ele><time>2026-04-25T16:03:20.999Z</time></trkpt><trkpt lat="46.11004950777861" lon="11.9382074578351"><ele>589.4</ele><time>2026-04-25T16:03:21.999Z</time></trkpt><trkpt lat="46.110134793004576" lon="11.938157280711222"><ele>591.0</ele><time>2026-04-25T16:03:22.999Z</time></trkpt><trkpt lat="46.11022468626986" lon="11.938129972261383"><ele>591.6</ele><time>2026-04-25T16:03:23.999Z</time></trkpt><trkpt lat="46.11032220713857" lon="11.938132485268898"><ele>592.2</ele><time>2026-04-25T16:03:24.999Z</time></trkpt><trkpt lat="46.11040304989291" lon="11.938133822350167"><ele>592.8</ele><time>2026-04-25T16:03:25.999Z</time></trkpt><trkpt lat="46.11050226638899" lon="11.93807835915793"><ele>593.4</ele><time>2026-04-25T16:03:26.999Z</time></trkpt><trkpt lat="46.110611797241695" lon="11.9380075050078"><ele>594.0</ele><time>2026-04-25T16:03:27.999Z</time></trkpt><trkpt lat="46.11071827177415" lon="11.93794338103964"><ele>593.8</ele><time>2026-04-25T16:03:28.999Z</time></trkpt><trkpt lat="46.11081256903068" lon="11.937893418512862"><ele>593.5999999999999</ele><time>2026-04-25T16:03:29.999Z</time></trkpt><trkpt lat="46.110912366502205" lon="11.937832371898407"><ele>593.4</ele><time>2026-04-25T16:03:30.999Z</time></trkpt><trkpt lat="46.11101259098392" lon="11.937781372280249"><ele>593.1999999999999</ele><time>2026-04-25T16:03:31.999Z</time></trkpt><trkpt lat="46.11108398005991" lon="11.937756834623933"><ele>593.0</ele><time>2026-04-25T16:03:32.999Z</time></trkpt><trkpt lat="46.111181340479746" lon="11.937773508357317"><ele>593.0</ele><time>2026-04-25T16:03:34.999Z</time></trkpt><trkpt lat="46.11124846490799" lon="11.937852832773075"><ele>593.0</ele><time>2026-04-25T16:03:37Z</time></trkpt><trkpt lat="46.11126136804658" lon="11.937961905518877"><ele>593.0</ele><time>2026-04-25T16:03:38Z</time></trkpt><trkpt lat="46.11130163937113" lon="11.938051744170753"><ele>593.0</ele><time>2026-04-25T16:03:39Z</time></trkpt><trkpt lat="46.111346866281444" lon="11.938115034936942"><ele>593.0</ele><time>2026-04-25T16:03:40Z</time></trkpt><trkpt lat="46.11142133706895" lon="11.93816109284856"><ele>593.0</ele><time>2026-04-25T16:03:41Z</time></trkpt><trkpt lat="46.11154450778426" lon="11.938188237489804"><ele>593.25</ele><time>2026-04-25T16:03:42Z</time></trkpt><trkpt lat="46.111675090505805" lon="11.938211050765958"><ele>593.5</ele><time>2026-04-25T16:03:43Z</time></trkpt><trkpt lat="46.111783165952005" lon="11.938206852275359"><ele>593.75</ele><time>2026-04-25T16:03:44Z</time></trkpt><trkpt lat="46.11192079952979" lon="11.938181062094777"><ele>594.0</ele><time>2026-04-25T16:03:45Z</time></trkpt><trkpt lat="46.11209960464013" lon="11.938171810860975"><ele>594.0</ele><time>2026-04-25T16:03:46Z</time></trkpt><trkpt lat="46.11227053812143" lon="11.938145404047795"><ele>594.0</ele><time>2026-04-25T16:03:47Z</time></trkpt><trkpt lat="46.11243898529471" lon="11.938119141223401"><ele>594.0</ele><time>2026-04-25T16:03:48Z</time></trkpt><trkpt lat="46.11259732057077" lon="11.938093386217721"><ele>594.5</ele><time>2026-04-25T16:03:49Z</time></trkpt><trkpt lat="46.112738114058025" lon="11.938070484653885"><ele>595.0</ele><time>2026-04-25T16:03:50Z</time></trkpt><trkpt lat="46.11286683655154" lon="11.938050178564568"><ele>595.5</ele><time>2026-04-25T16:03:51Z</time></trkpt><trkpt lat="46.1129845571929" lon="11.938032678088812"><ele>596.0</ele><time>2026-04-25T16:03:52Z</time></trkpt><trkpt lat="46.11311363026894" lon="11.938011110118135"><ele>597.6666666666666</ele><time>2026-04-25T16:03:53Z</time></trkpt><trkpt lat="46.113256345640806" lon="11.93795903418834"><ele>599.3333333333334</ele><time>2026-04-25T16:03:54Z</time></trkpt><trkpt lat="46.113400294927786" lon="11.937908516580892"><ele>601.0</ele><time>2026-04-25T16:03:55Z</time></trkpt><trkpt lat="46.113559077036506" lon="11.937829222873544"><ele>601.0</ele><time>2026-04-25T16:03:56Z</time></trkpt><trkpt lat="46.11367999030014" lon="11.937778247475608"><ele>601.0</ele><time>2026-04-25T16:03:57Z</time></trkpt><trkpt lat="46.113800754751864" lon="11.937751384082672"><ele>601.0</ele><time>2026-04-25T16:03:58Z</time></trkpt><trkpt lat="46.11390440944949" lon="11.93771001992581"><ele>601.0</ele><time>2026-04-25T16:03:59Z</time></trkpt><trkpt lat="46.114004064352834" lon="11.937660374174062"><ele>600.4</ele><time>2026-04-25T16:04:00Z</time></trkpt><trkpt lat="46.11409316890776" lon="11.937617530775338"><ele>599.8</ele><time>2026-04-25T16:04:01Z</time></trkpt><trkpt lat="46.114191277479684" lon="11.937568067990227"><ele>599.1999999999999</ele><time>2026-04-25T16:04:03Z</time></trkpt><trkpt lat="46.11428491735294" lon="11.93751460381349"><ele>598.6</ele><time>2026-04-25T16:04:04Z</time></trkpt><trkpt lat="46.11435760936779" lon="11.937446294389215"><ele>598.0</ele><time>2026-04-25T16:04:05Z</time></trkpt><trkpt lat="46.114401831656764" lon="11.937330332175456"><ele>598.0</ele><time>2026-04-25T16:04:06Z</time></trkpt><trkpt lat="46.1144578340218" lon="11.937182427965626"><ele>598.0</ele><time>2026-04-25T16:04:07Z</time></trkpt><trkpt lat="46.11449471196004" lon="11.93701901696541"><ele>598.0</ele><time>2026-04-25T16:04:08Z</time></trkpt><trkpt lat="46.11453175022843" lon="11.936900171031706"><ele>598.0</ele><time>2026-04-25T16:04:09Z</time></trkpt><trkpt lat="46.11456583338293" lon="11.936805616088343"><ele>598.0</ele><time>2026-04-25T16:04:10Z</time></trkpt><trkpt lat="46.114632834200215" lon="11.936678001601258"><ele>598.1999999999999</ele><time>2026-04-25T16:04:12Z</time></trkpt><trkpt lat="46.1146884140137" lon="11.936607681761751"><ele>598.4</ele><time>2026-04-25T16:04:13Z</time></trkpt><trkpt lat="46.11474684349917" lon="11.936549392726782"><ele>598.5999999999999</ele><time>2026-04-25T16:04:14Z</time></trkpt><trkpt lat="46.11484244754498" lon="11.936490097544175"><ele>598.8</ele><time>2026-04-25T16:04:15Z</time></trkpt><trkpt lat="46.11495959753333" lon="11.936442260112344"><ele>599.0</ele><time>2026-04-25T16:04:16Z</time></trkpt><trkpt lat="46.1150823616259" lon="11.936399040932082"><ele>599.0</ele><time>2026-04-25T16:04:17Z</time></trkpt><trkpt lat="46.115212060519916" lon="11.936397867806685"><ele>599.0</ele><time>2026-04-25T16:04:18Z</time></trkpt><trkpt lat="46.115346574907036" lon="11.93637553437053"><ele>599.0</ele><time>2026-04-25T16:04:19Z</time></trkpt><trkpt lat="46.115473691828264" lon="11.93634957327712"><ele>599.0</ele><time>2026-04-25T16:04:20Z</time></trkpt><trkpt lat="46.115601632153506" lon="11.936330005239826"><ele>600.0</ele><time>2026-04-25T16:04:21Z</time></trkpt><trkpt lat="46.11574731881771" lon="11.936349845952806"><ele>601.0</ele><time>2026-04-25T16:04:22Z</time></trkpt><trkpt lat="46.115879407326325" lon="11.936352028735863"><ele>602.0</ele><time>2026-04-25T16:04:23Z</time></trkpt><trkpt lat="46.115995273333" lon="11.936320377538607"><ele>603.0</ele><time>2026-04-25T16:04:24Z</time></trkpt><trkpt lat="46.116128202079594" lon="11.936288153570421"><ele>603.0</ele><time>2026-04-25T16:04:25Z</time></trkpt><trkpt lat="46.11629353445254" lon="11.936337265414258"><ele>603.0</ele><time>2026-04-25T16:04:26Z</time></trkpt><trkpt lat="46.11643886759" lon="11.936352553861848"><ele>603.0</ele><time>2026-04-25T16:04:27Z</time></trkpt><trkpt lat="46.1165684910187" lon="11.936356503442054"><ele>603.0</ele><time>2026-04-25T16:04:28Z</time></trkpt><trkpt lat="46.116705065706945" lon="11.93637048032748"><ele>604.5</ele><time>2026-04-25T16:04:29Z</time></trkpt><trkpt lat="46.11685184512473" lon="11.936387317030919"><ele>606.0</ele><time>2026-04-25T16:04:30Z</time></trkpt><trkpt lat="46.11698678690398" lon="11.936405162741801"><ele>607.5</ele><time>2026-04-25T16:04:31Z</time></trkpt><trkpt lat="46.11710606771364" lon="11.93641900451506"><ele>609.0</ele><time>2026-04-25T16:04:32Z</time></trkpt><trkpt lat="46.11722234526563" lon="11.936449892919343"><ele>609.0</ele><time>2026-04-25T16:04:33Z</time></trkpt><trkpt lat="46.11735777276661" lon="11.93650939855897"><ele>609.0</ele><time>2026-04-25T16:04:34Z</time></trkpt><trkpt lat="46.11750976480469" lon="11.936576481849954"><ele>609.0</ele><time>2026-04-25T16:04:35Z</time></trkpt><trkpt lat="46.11768898980006" lon="11.936683394814045"><ele>609.5</ele><time>2026-04-25T16:04:36Z</time></trkpt><trkpt lat="46.11782765847174" lon="11.93674024729388"><ele>610.0</ele><time>2026-04-25T16:04:37Z</time></trkpt><trkpt lat="46.11797788625669" lon="11.936835185575209"><ele>610.5</ele><time>2026-04-25T16:04:38Z</time></trkpt><trkpt lat="46.118106086507844" lon="11.936881982204504"><ele>611.0</ele><time>2026-04-25T16:04:39Z</time></trkpt><trkpt lat="46.11822829939212" lon="11.936946399578378"><ele>612.75</ele><time>2026-04-25T16:04:40Z</time></trkpt><trkpt lat="46.118357382696715" lon="11.937011201268874"><ele>614.5</ele><time>2026-04-25T16:04:41Z</time></trkpt><trkpt lat="46.11847562646729" lon="11.937073183227382"><ele>616.25</ele><time>2026-04-25T16:04:42Z</time></trkpt><trkpt lat="46.118590147245605" lon="11.937135030104148"><ele>618.0</ele><time>2026-04-25T16:04:43Z</time></trkpt><trkpt lat="46.118707743063986" lon="11.937204522036144"><ele>618.0</ele><time>2026-04-25T16:04:44Z</time></trkpt><trkpt lat="46.11882594917905" lon="11.937269044906145"><ele>618.0</ele><time>2026-04-25T16:04:45Z</time></trkpt><trkpt lat="46.1189302275837" lon="11.937325548712684"><ele>618.0</ele><time>2026-04-25T16:04:46Z</time></trkpt><trkpt lat="46.119016713781626" lon="11.937371299972074"><ele>618.0</ele><time>2026-04-25T16:04:47Z</time></trkpt><trkpt lat="46.1190988707731" lon="11.937407206015077"><ele>618.0</ele><time>2026-04-25T16:04:48Z</time></trkpt><trkpt lat="46.11917594475236" lon="11.93747148667547"><ele>619.25</ele><time>2026-04-25T16:04:49Z</time></trkpt><trkpt lat="46.119280416520176" lon="11.937455611929893"><ele>620.5</ele><time>2026-04-25T16:04:50Z</time></trkpt><trkpt lat="46.11939292033097" lon="11.937417694443658"><ele>621.75</ele><time>2026-04-25T16:04:50.999Z</time></trkpt><trkpt lat="46.11950788789921" lon="11.937358070450223"><ele>623.0</ele><time>2026-04-25T16:04:51.999Z</time></trkpt><trkpt lat="46.11960898151412" lon="11.937294859237126"><ele>623.0</ele><time>2026-04-25T16:04:52.999Z</time></trkpt><trkpt lat="46.11969040639748" lon="11.93724001572298"><ele>623.0</ele><time>2026-04-25T16:04:53.999Z</time></trkpt><trkpt lat="46.11976389295066" lon="11.93719307089597"><ele>623.0</ele><time>2026-04-25T16:04:54.999Z</time></trkpt><trkpt lat="46.11984049353394" lon="11.93718799318736"><ele>623.0</ele><time>2026-04-25T16:04:55.999Z</time></trkpt><trkpt lat="46.119919830872696" lon="11.937200259882337"><ele>623.0</ele><time>2026-04-25T16:04:56.999Z</time></trkpt><trkpt lat="46.12001755891133" lon="11.93724815094627"><ele>623.0</ele><time>2026-04-25T16:04:57.999Z</time></trkpt><trkpt lat="46.12012087349927" lon="11.937276476022467"><ele>623.0</ele><time>2026-04-25T16:04:58.999Z</time></trkpt><trkpt lat="46.120212407314234" lon="11.93737743310632"><ele>623.0</ele><time>2026-04-25T16:04:59.999Z</time></trkpt><trkpt lat="46.12031089231894" lon="11.93748299407953"><ele>623.0</ele><time>2026-04-25T16:05:00.999Z</time></trkpt><trkpt lat="46.12039712945462" lon="11.937572077928687"><ele>623.0</ele><time>2026-04-25T16:05:01.999Z</time></trkpt><trkpt lat="46.1204615518666" lon="11.93764692324125"><ele>623.0</ele><time>2026-04-25T16:05:02.999Z</time></trkpt><trkpt lat="46.12051794588579" lon="11.937707812598795"><ele>623.6</ele><time>2026-04-25T16:05:03.999Z</time></trkpt><trkpt lat="46.120580845309206" lon="11.937763768002396"><ele>624.1999999999999</ele><time>2026-04-25T16:05:04.999Z</time></trkpt><trkpt lat="46.12066352152057" lon="11.937814775868167"><ele>624.8</ele><time>2026-04-25T16:05:05.999Z</time></trkpt><trkpt lat="46.120764689448684" lon="11.937857489031048"><ele>625.4</ele><time>2026-04-25T16:05:06.999Z</time></trkpt><trkpt lat="46.12088518846408" lon="11.937904492584034"><ele>626.0</ele><time>2026-04-25T16:05:07.999Z</time></trkpt><trkpt lat="46.1209800754349" lon="11.937911500803882"><ele>626.0</ele><time>2026-04-25T16:05:08.999Z</time></trkpt><trkpt lat="46.12107228760596" lon="11.937933793229169"><ele>626.0</ele><time>2026-04-25T16:05:09.999Z</time></trkpt><trkpt lat="46.12117906985844" lon="11.937931038846978"><ele>626.0</ele><time>2026-04-25T16:05:10.999Z</time></trkpt><trkpt lat="46.12128522242972" lon="11.9379006030277"><ele>626.0</ele><time>2026-04-25T16:05:11.999Z</time></trkpt><trkpt lat="46.121370018943594" lon="11.93790405158218"><ele>626.0</ele><time>2026-04-25T16:05:12.999Z</time></trkpt><trkpt lat="46.12146631464003" lon="11.937929395653759"><ele>625.75</ele><time>2026-04-25T16:05:13.999Z</time></trkpt><trkpt lat="46.12157253515557" lon="11.93799110349292"><ele>625.5</ele><time>2026-04-25T16:05:14.999Z</time></trkpt><trkpt lat="46.121689207407236" lon="11.93805386716208"><ele>625.25</ele><time>2026-04-25T16:05:15.999Z</time></trkpt><trkpt lat="46.12181543979747" lon="11.938092202288747"><ele>625.0</ele><time>2026-04-25T16:05:16.999Z</time></trkpt><trkpt lat="46.1219676070138" lon="11.938110626697574"><ele>625.0</ele><time>2026-04-25T16:05:17.999Z</time></trkpt><trkpt lat="46.12212229587792" lon="11.938128082123443"><ele>625.0</ele><time>2026-04-25T16:05:18.999Z</time></trkpt><trkpt lat="46.122261064026574" lon="11.938167040896968"><ele>625.0</ele><time>2026-04-25T16:05:19.999Z</time></trkpt><trkpt lat="46.122403604327495" lon="11.938180226533945"><ele>625.0</ele><time>2026-04-25T16:05:20.999Z</time></trkpt><trkpt lat="46.12252772373956" lon="11.93819227327661"><ele>626.2</ele><time>2026-04-25T16:05:21.999Z</time></trkpt><trkpt lat="46.12263830987641" lon="11.938204334372724"><ele>627.4</ele><time>2026-04-25T16:05:22.999Z</time></trkpt><trkpt lat="46.12273358792465" lon="11.938232723929353"><ele>628.6</ele><time>2026-04-25T16:05:23.999Z</time></trkpt><trkpt lat="46.12281876513844" lon="11.938275567449503"><ele>629.8</ele><time>2026-04-25T16:05:24.999Z</time></trkpt><trkpt lat="46.12292673189971" lon="11.938360584619986"><ele>631.0</ele><time>2026-04-25T16:05:25.999Z</time></trkpt><trkpt lat="46.12302974251305" lon="11.938450190764879"><ele>631.0</ele><time>2026-04-25T16:05:26.999Z</time></trkpt><trkpt lat="46.12311445564234" lon="11.93855935972192"><ele>631.0</ele><time>2026-04-25T16:05:27.999Z</time></trkpt><trkpt lat="46.123222118634345" lon="11.938625602585548"><ele>631.0</ele><time>2026-04-25T16:05:28.999Z</time></trkpt><trkpt lat="46.12333491684054" lon="11.938694093693847"><ele>631.0</ele><time>2026-04-25T16:05:29.999Z</time></trkpt><trkpt lat="46.123482059029946" lon="11.938770010235235"><ele>631.0</ele><time>2026-04-25T16:05:30.999Z</time></trkpt><trkpt lat="46.123631666605455" lon="11.938843417860932"><ele>631.0</ele><time>2026-04-25T16:05:31.999Z</time></trkpt><trkpt lat="46.1237614248439" lon="11.938919872538207"><ele>631.0</ele><time>2026-04-25T16:05:32.999Z</time></trkpt><trkpt lat="46.123895863625414" lon="11.938986404935724"><ele>631.0</ele><time>2026-04-25T16:05:33.999Z</time></trkpt><trkpt lat="46.12401795020836" lon="11.939049859997763"><ele>633.0</ele><time>2026-04-25T16:05:34.999Z</time></trkpt><trkpt lat="46.12412948507225" lon="11.93911239416385"><ele>635.0</ele><time>2026-04-25T16:05:35.999Z</time></trkpt><trkpt lat="46.12424516400045" lon="11.939181458818377"><ele>637.0</ele><time>2026-04-25T16:05:36.999Z</time></trkpt><trkpt lat="46.12435304252852" lon="11.93923295127995"><ele>639.0</ele><time>2026-04-25T16:05:37.999Z</time></trkpt><trkpt lat="46.12445427634656" lon="11.939279368202111"><ele>639.0</ele><time>2026-04-25T16:05:38.999Z</time></trkpt><trkpt lat="46.12454277109511" lon="11.939340102498107"><ele>639.0</ele><time>2026-04-25T16:05:39.999Z</time></trkpt><trkpt lat="46.12463844058227" lon="11.939406479996755"><ele>639.0</ele><time>2026-04-25T16:05:40.999Z</time></trkpt><trkpt lat="46.124725815743524" lon="11.939493824368471"><ele>639.0</ele><time>2026-04-25T16:05:42Z</time></trkpt><trkpt lat="46.12481274496408" lon="11.939603695279656"><ele>639.0</ele><time>2026-04-25T16:05:43Z</time></trkpt><trkpt lat="46.124898451149" lon="11.939727342654514"><ele>639.0</ele><time>2026-04-25T16:05:44Z</time></trkpt><trkpt lat="46.12499224114659" lon="11.939867671957556"><ele>639.0</ele><time>2026-04-25T16:05:45Z</time></trkpt><trkpt lat="46.1250774097932" lon="11.93999832588175"><ele>639.0</ele><time>2026-04-25T16:05:46Z</time></trkpt><trkpt lat="46.12516732773812" lon="11.940111076263507"><ele>639.0</ele><time>2026-04-25T16:05:47Z</time></trkpt><trkpt lat="46.125259513300094" lon="11.94022501129497"><ele>639.0</ele><time>2026-04-25T16:05:48Z</time></trkpt><trkpt lat="46.12534629432226" lon="11.940370134613772"><ele>639.0</ele><time>2026-04-25T16:05:49Z</time></trkpt><trkpt lat="46.125413161015665" lon="11.940559002592508"><ele>639.0</ele><time>2026-04-25T16:05:50Z</time></trkpt><trkpt lat="46.12547891745736" lon="11.940768841806836"><ele>639.0</ele><time>2026-04-25T16:05:51Z</time></trkpt><trkpt lat="46.125545144980556" lon="11.940970809270015"><ele>640.75</ele><time>2026-04-25T16:05:52Z</time></trkpt><trkpt lat="46.12561511292725" lon="11.941136861769044"><ele>642.5</ele><time>2026-04-25T16:05:53Z</time></trkpt><trkpt lat="46.12567942142478" lon="11.941286771861257"><ele>644.25</ele><time>2026-04-25T16:05:54Z</time></trkpt><trkpt lat="46.12573451654713" lon="11.941434369011967"><ele>646.0</ele><time>2026-04-25T16:05:55Z</time></trkpt><trkpt lat="46.125768213260805" lon="11.941544547675472"><ele>646.0</ele><time>2026-04-25T16:05:56Z</time></trkpt><trkpt lat="46.1258174679443" lon="11.941640112048548"><ele>646.0</ele><time>2026-04-25T16:05:57Z</time></trkpt><trkpt lat="46.125882105219226" lon="11.941735218557016"><ele>646.0</ele><time>2026-04-25T16:05:58Z</time></trkpt><trkpt lat="46.125984558465056" lon="11.9418475170275"><ele>646.0</ele><time>2026-04-25T16:05:59Z</time></trkpt><trkpt lat="46.12608934746932" lon="11.941952870964005"><ele>646.0</ele><time>2026-04-25T16:06:00Z</time></trkpt><trkpt lat="46.12619947158122" lon="11.942074811912857"><ele>645.25</ele><time>2026-04-25T16:06:01Z</time></trkpt><trkpt lat="46.1263180877853" lon="11.942197572661998"><ele>644.5</ele><time>2026-04-25T16:06:02Z</time></trkpt><trkpt lat="46.12643478540826" lon="11.942319013025052"><ele>643.75</ele><time>2026-04-25T16:06:03Z</time></trkpt><trkpt lat="46.12656025823096" lon="11.942441429254758"><ele>643.0</ele><time>2026-04-25T16:06:04Z</time></trkpt><trkpt lat="46.12668653254633" lon="11.942557476581966"><ele>646.0</ele><time>2026-04-25T16:06:05Z</time></trkpt><trkpt lat="46.126798802963414" lon="11.942683672398857"><ele>649.0</ele><time>2026-04-25T16:06:06Z</time></trkpt><trkpt lat="46.12692772503673" lon="11.942800383406883"><ele>652.0</ele><time>2026-04-25T16:06:07Z</time></trkpt><trkpt lat="46.12704693588453" lon="11.94292013358508"><ele>655.0</ele><time>2026-04-25T16:06:08Z</time></trkpt><trkpt lat="46.127163185393435" lon="11.943025378961307"><ele>655.0</ele><time>2026-04-25T16:06:09Z</time></trkpt><trkpt lat="46.12728012578386" lon="11.943146637948926"><ele>655.0</ele><time>2026-04-25T16:06:10Z</time></trkpt><trkpt lat="46.127397042078506" lon="11.943264615531985"><ele>655.0</ele><time>2026-04-25T16:06:11Z</time></trkpt><trkpt lat="46.127498152601596" lon="11.943369948986566"><ele>655.0</ele><time>2026-04-25T16:06:12Z</time></trkpt><trkpt lat="46.127585710110914" lon="11.94345824866026"><ele>655.0</ele><time>2026-04-25T16:06:13Z</time></trkpt><trkpt lat="46.12766818655075" lon="11.943538966697375"><ele>655.0</ele><time>2026-04-25T16:06:14Z</time></trkpt><trkpt lat="46.127759583316525" lon="11.943632765191472"><ele>655.0</ele><time>2026-04-25T16:06:15Z</time></trkpt><trkpt lat="46.12785512406265" lon="11.943729242182412"><ele>655.0</ele><time>2026-04-25T16:06:16Z</time></trkpt><trkpt lat="46.127916596230314" lon="11.94381918285023"><ele>655.0</ele><time>2026-04-25T16:06:17Z</time></trkpt><trkpt lat="46.12796753984395" lon="11.943920938713378"><ele>655.0</ele><time>2026-04-25T16:06:18Z</time></trkpt><trkpt lat="46.128017235997405" lon="11.944043572822356"><ele>655.0</ele><time>2026-04-25T16:06:19Z</time></trkpt><trkpt lat="46.128062685493184" lon="11.944172403295282"><ele>655.0</ele><time>2026-04-25T16:06:20Z</time></trkpt><trkpt lat="46.12810173426415" lon="11.944275674190013"><ele>655.0</ele><time>2026-04-25T16:06:21Z</time></trkpt><trkpt lat="46.12812960487553" lon="11.944364231604926"><ele>655.0</ele><time>2026-04-25T16:06:22Z</time></trkpt><trkpt lat="46.128163313223894" lon="11.94445301097873"><ele>655.0</ele><time>2026-04-25T16:06:23Z</time></trkpt><trkpt lat="46.12820774005865" lon="11.944532663129861"><ele>655.4285714285714</ele><time>2026-04-25T16:06:24Z</time></trkpt><trkpt lat="46.12825401002173" lon="11.94460769906556"><ele>655.8571428571429</ele><time>2026-04-25T16:06:25Z</time></trkpt><trkpt lat="46.12831766352963" lon="11.944637837739293"><ele>656.2857142857142</ele><time>2026-04-25T16:06:26Z</time></trkpt><trkpt lat="46.12839377061857" lon="11.944620348841596"><ele>656.7142857142858</ele><time>2026-04-25T16:06:27Z</time></trkpt><trkpt lat="46.12845593047879" lon="11.94457706468824"><ele>657.1428571428571</ele><time>2026-04-25T16:06:28Z</time></trkpt><trkpt lat="46.12850930325238" lon="11.944499821833988"><ele>657.5714285714286</ele><time>2026-04-25T16:06:30Z</time></trkpt><trkpt lat="46.12844206429561" lon="11.94443850110963"><ele>658.0</ele><time>2026-04-25T16:07:09.999Z</time></trkpt><trkpt lat="46.12839449317528" lon="11.944510374279806"><ele>658.0</ele><time>2026-04-25T16:07:13.999Z</time></trkpt><trkpt lat="46.128328802531676" lon="11.94457544909809"><ele>658.0</ele><time>2026-04-25T16:07:16.999Z</time></trkpt><trkpt lat="46.128203742488935" lon="11.944543207978493"><ele>658.0</ele><time>2026-04-25T16:07:18.999Z</time></trkpt><trkpt lat="46.128160780942956" lon="11.944465492695176"><ele>658.0</ele><time>2026-04-25T16:07:19.999Z</time></trkpt><trkpt lat="46.128111838110655" lon="11.944335222569668"><ele>658.0</ele><time>2026-04-25T16:07:21.999Z</time></trkpt><trkpt lat="46.12805677015787" lon="11.944173648071118"><ele>657.4</ele><time>2026-04-25T16:07:23.999Z</time></trkpt><trkpt lat="46.12800794681425" lon="11.944025881475639"><ele>656.8</ele><time>2026-04-25T16:07:25.999Z</time></trkpt><trkpt lat="46.127951859659944" lon="11.943901213921198"><ele>656.2</ele><time>2026-04-25T16:07:27.999Z</time></trkpt><trkpt lat="46.12787797598698" lon="11.94378931121304"><ele>655.6</ele><time>2026-04-25T16:07:29.999Z</time></trkpt><trkpt lat="46.12780010052064" lon="11.943723124690358"><ele>655.0</ele><time>2026-04-25T16:07:31.999Z</time></trkpt><trkpt lat="46.1277231422855" lon="11.943659680510788"><ele>655.0</ele><time>2026-04-25T16:07:33.999Z</time></trkpt><trkpt lat="46.127641853439584" lon="11.943631174466747"><ele>655.0</ele><time>2026-04-25T16:07:35.999Z</time></trkpt><trkpt lat="46.12755294397901" lon="11.943601294603292"><ele>655.0</ele><time>2026-04-25T16:07:37.999Z</time></trkpt><trkpt lat="46.12755281168351" lon="11.943472937105277"><ele>655.0</ele><time>2026-04-25T16:07:38.999Z</time></trkpt><trkpt lat="46.12748821172755" lon="11.943388060404095"><ele>655.0</ele><time>2026-04-25T16:07:40.999Z</time></trkpt><trkpt lat="46.12743784388173" lon="11.943319952552775"><ele>655.0</ele><time>2026-04-25T16:07:42.999Z</time></trkpt><trkpt lat="46.12736035966978" lon="11.943223540148404"><ele>655.0</ele><time>2026-04-25T16:08:44Z</time></trkpt><trkpt lat="46.12728420209954" lon="11.943153874738723"><ele>655.0</ele><time>2026-04-25T16:08:45Z</time></trkpt><trkpt lat="46.12721200831" lon="11.943079853658098"><ele>655.0</ele><time>2026-04-25T16:08:46Z</time></trkpt><trkpt lat="46.127131382931424" lon="11.94300197815598"><ele>655.0</ele><time>2026-04-25T16:08:47Z</time></trkpt><trkpt lat="46.127037995244095" lon="11.942904256004995"><ele>655.0</ele><time>2026-04-25T16:08:48Z</time></trkpt><trkpt lat="46.12691795867098" lon="11.942785035555001"><ele>655.0</ele><time>2026-04-25T16:08:49Z</time></trkpt><trkpt lat="46.12681704995106" lon="11.942686764243096"><ele>655.0</ele><time>2026-04-25T16:08:50Z</time></trkpt><trkpt lat="46.126696247969626" lon="11.942565422545293"><ele>655.0</ele><time>2026-04-25T16:08:51Z</time></trkpt><trkpt lat="46.126572712838666" lon="11.942442121038482"><ele>655.0</ele><time>2026-04-25T16:08:52Z</time></trkpt><trkpt lat="46.12644965735103" lon="11.942323944026203"><ele>652.0</ele><time>2026-04-25T16:08:53Z</time></trkpt><trkpt lat="46.12633963271424" lon="11.942213931123389"><ele>649.0</ele><time>2026-04-25T16:08:54Z</time></trkpt><trkpt lat="46.12624821074889" lon="11.942123088538617"><ele>646.0</ele><time>2026-04-25T16:08:55Z</time></trkpt><trkpt lat="46.12614883474336" lon="11.94200570605642"><ele>643.0</ele><time>2026-04-25T16:08:56Z</time></trkpt><trkpt lat="46.126061195307464" lon="11.941904895460944"><ele>643.0</ele><time>2026-04-25T16:08:57Z</time></trkpt><trkpt lat="46.12597566176461" lon="11.94181673570292"><ele>643.0</ele><time>2026-04-25T16:08:58Z</time></trkpt><trkpt lat="46.12590500532985" lon="11.941729306469474"><ele>643.0</ele><time>2026-04-25T16:08:59Z</time></trkpt><trkpt lat="46.12584963818882" lon="11.941648151759518"><ele>643.0</ele><time>2026-04-25T16:09:00Z</time></trkpt><trkpt lat="46.12580584076177" lon="11.941565601146285"><ele>643.0</ele><time>2026-04-25T16:09:01Z</time></trkpt><trkpt lat="46.125757437452066" lon="11.941469434930903"><ele>643.0</ele><time>2026-04-25T16:09:02Z</time></trkpt><trkpt lat="46.12570184424984" lon="11.94133270061131"><ele>642.1999999999999</ele><time>2026-04-25T16:09:02.999Z</time></trkpt><trkpt lat="46.125644704507614" lon="11.941196327859315"><ele>641.4</ele><time>2026-04-25T16:09:03.999Z</time></trkpt><trkpt lat="46.12559551493158" lon="11.94107254685932"><ele>640.5999999999999</ele><time>2026-04-25T16:09:04.999Z</time></trkpt><trkpt lat="46.125559262866446" lon="11.94094402607953"><ele>639.8</ele><time>2026-04-25T16:09:05.999Z</time></trkpt><trkpt lat="46.12550793641715" lon="11.940840440884227"><ele>639.0</ele><time>2026-04-25T16:09:06.999Z</time></trkpt><trkpt lat="46.12547874921029" lon="11.940719821973783"><ele>639.0</ele><time>2026-04-25T16:09:07.999Z</time></trkpt><trkpt lat="46.125440182466576" lon="11.94060362388761"><ele>639.0</ele><time>2026-04-25T16:09:08.999Z</time></trkpt><trkpt lat="46.125372022648826" lon="11.940462187942117"><ele>639.0</ele><time>2026-04-25T16:09:09.999Z</time></trkpt><trkpt lat="46.125341099972566" lon="11.940372224853263"><ele>639.0</ele><time>2026-04-25T16:09:10.999Z</time></trkpt><trkpt lat="46.12530235990043" lon="11.940287205905962"><ele>639.0</ele><time>2026-04-25T16:09:11.999Z</time></trkpt><trkpt lat="46.125237826650725" lon="11.940166110753637"><ele>639.0</ele><time>2026-04-25T16:09:12.999Z</time></trkpt><trkpt lat="46.125148347609645" lon="11.940047725096894"><ele>639.0</ele><time>2026-04-25T16:09:13.999Z</time></trkpt><trkpt lat="46.12506936888575" lon="11.939952020456452"><ele>639.0</ele><time>2026-04-25T16:09:14.999Z</time></trkpt><trkpt lat="46.12500275166091" lon="11.939874024652896"><ele>639.0</ele><time>2026-04-25T16:09:15.999Z</time></trkpt><trkpt lat="46.12494265064632" lon="11.939784199093713"><ele>639.0</ele><time>2026-04-25T16:09:16.999Z</time></trkpt><trkpt lat="46.124865823436664" lon="11.93967344263168"><ele>639.0</ele><time>2026-04-25T16:09:17.999Z</time></trkpt><trkpt lat="46.124786570414564" lon="11.939559166617126"><ele>639.0</ele><time>2026-04-25T16:09:18.999Z</time></trkpt><trkpt lat="46.12470520101987" lon="11.939456514937254"><ele>639.0</ele><time>2026-04-25T16:09:19.999Z</time></trkpt><trkpt lat="46.12460760339304" lon="11.939368258245477"><ele>639.0</ele><time>2026-04-25T16:09:20.999Z</time></trkpt><trkpt lat="46.12450641541058" lon="11.939291925830208"><ele>639.0</ele><time>2026-04-25T16:09:21.999Z</time></trkpt><trkpt lat="46.124374822694676" lon="11.939228937521456"><ele>639.75</ele><time>2026-04-25T16:09:22.999Z</time></trkpt><trkpt lat="46.124234382599084" lon="11.939167858398962"><ele>640.5</ele><time>2026-04-25T16:09:23.999Z</time></trkpt><trkpt lat="46.124125144415565" lon="11.939101559157365"><ele>641.25</ele><time>2026-04-25T16:09:24.999Z</time></trkpt><trkpt lat="46.124023973773525" lon="11.939059252067668"><ele>642.0</ele><time>2026-04-25T16:09:25.999Z</time></trkpt><trkpt lat="46.123903495722764" lon="11.93899983103801"><ele>639.8000000000001</ele><time>2026-04-25T16:09:26.999Z</time></trkpt><trkpt lat="46.12379503120093" lon="11.938935823559945"><ele>637.6</ele><time>2026-04-25T16:09:27.999Z</time></trkpt><trkpt lat="46.12369688211423" lon="11.938878409570918"><ele>635.4000000000001</ele><time>2026-04-25T16:09:28.999Z</time></trkpt><trkpt lat="46.12358853039432" lon="11.938822315577298"><ele>633.2</ele><time>2026-04-25T16:09:29.999Z</time></trkpt><trkpt lat="46.12348636095092" lon="11.93876959982758"><ele>631.0</ele><time>2026-04-25T16:09:30.999Z</time></trkpt><trkpt lat="46.12339341229182" lon="11.938719082923393"><ele>631.0</ele><time>2026-04-25T16:09:31.999Z</time></trkpt><trkpt lat="46.12329725135189" lon="11.938674895032515"><ele>631.0</ele><time>2026-04-25T16:09:32.999Z</time></trkpt><trkpt lat="46.12318404574112" lon="11.938611157178972"><ele>631.0</ele><time>2026-04-25T16:09:33.999Z</time></trkpt><trkpt lat="46.123067148205116" lon="11.938532662025642"><ele>631.0</ele><time>2026-04-25T16:09:34.999Z</time></trkpt><trkpt lat="46.12296729964197" lon="11.93844453193484"><ele>631.0</ele><time>2026-04-25T16:09:35.999Z</time></trkpt><trkpt lat="46.12286687703586" lon="11.938340213203002"><ele>631.0</ele><time>2026-04-25T16:09:36.999Z</time></trkpt><trkpt lat="46.122795322718616" lon="11.938261842884826"><ele>631.0</ele><time>2026-04-25T16:09:37.999Z</time></trkpt><trkpt lat="46.12269586490946" lon="11.938182371793262"><ele>631.0</ele><time>2026-04-25T16:09:38.999Z</time></trkpt><trkpt lat="46.12256178309302" lon="11.938163682478278"><ele>629.0</ele><time>2026-04-25T16:09:39.999Z</time></trkpt><trkpt lat="46.12239469786492" lon="11.938163901425133"><ele>627.0</ele><time>2026-04-25T16:09:40.999Z</time></trkpt><trkpt lat="46.12222427595506" lon="11.938148898811196"><ele>625.0</ele><time>2026-04-25T16:09:41.999Z</time></trkpt><trkpt lat="46.12207374779125" lon="11.938133877639938"><ele>625.0</ele><time>2026-04-25T16:09:42.999Z</time></trkpt><trkpt lat="46.12194251839569" lon="11.938112078871914"><ele>625.0</ele><time>2026-04-25T16:09:43.999Z</time></trkpt><trkpt lat="46.121829638952065" lon="11.93809045906591"><ele>625.0</ele><time>2026-04-25T16:09:44.999Z</time></trkpt><trkpt lat="46.12172035625973" lon="11.938064171837738"><ele>625.0</ele><time>2026-04-25T16:09:45.999Z</time></trkpt><trkpt lat="46.121623526823676" lon="11.9380112241494"><ele>625.2</ele><time>2026-04-25T16:09:46.999Z</time></trkpt><trkpt lat="46.12152444100742" lon="11.937976496552006"><ele>625.4</ele><time>2026-04-25T16:09:47.999Z</time></trkpt><trkpt lat="46.12142376214964" lon="11.937921316411224"><ele>625.6</ele><time>2026-04-25T16:09:48.999Z</time></trkpt><trkpt lat="46.12132955610847" lon="11.937886970043198"><ele>625.8</ele><time>2026-04-25T16:09:49.999Z</time></trkpt><trkpt lat="46.121233293606224" lon="11.937883394875778"><ele>626.0</ele><time>2026-04-25T16:09:50.999Z</time></trkpt><trkpt lat="46.12113388121302" lon="11.937910890474098"><ele>626.0</ele><time>2026-04-25T16:09:51.999Z</time></trkpt><trkpt lat="46.121036086517" lon="11.937927194730628"><ele>626.0</ele><time>2026-04-25T16:09:52.999Z</time></trkpt><trkpt lat="46.120944125366975" lon="11.93791675029267"><ele>626.0</ele><time>2026-04-25T16:09:54Z</time></trkpt><trkpt lat="46.12085222621258" lon="11.937896369656773"><ele>626.0</ele><time>2026-04-25T16:09:55Z</time></trkpt><trkpt lat="46.120753879043455" lon="11.937864368440142"><ele>626.0</ele><time>2026-04-25T16:09:56Z</time></trkpt><trkpt lat="46.12067342776751" lon="11.937832389249943"><ele>626.4</ele><time>2026-04-25T16:09:57Z</time></trkpt><trkpt lat="46.12060021674952" lon="11.937788004170473"><ele>626.8</ele><time>2026-04-25T16:09:58Z</time></trkpt><trkpt lat="46.1205080026796" lon="11.93770538776507"><ele>627.1999999999999</ele><time>2026-04-25T16:09:59Z</time></trkpt><trkpt lat="46.120402098393306" lon="11.9375865924839"><ele>627.6</ele><time>2026-04-25T16:10:00Z</time></trkpt><trkpt lat="46.12030607161367" lon="11.937486495721458"><ele>628.0</ele><time>2026-04-25T16:10:01Z</time></trkpt><trkpt lat="46.12021947739456" lon="11.937390861040404"><ele>627.0</ele><time>2026-04-25T16:10:02Z</time></trkpt><trkpt lat="46.12011929119893" lon="11.93730314325747"><ele>626.0</ele><time>2026-04-25T16:10:03Z</time></trkpt><trkpt lat="46.120031752186016" lon="11.937241046016728"><ele>625.0</ele><time>2026-04-25T16:10:04Z</time></trkpt><trkpt lat="46.11994311463303" lon="11.937202013330074"><ele>624.0</ele><time>2026-04-25T16:10:05Z</time></trkpt><trkpt lat="46.11985052118919" lon="11.937180885010129"><ele>623.0</ele><time>2026-04-25T16:10:06Z</time></trkpt><trkpt lat="46.11975556456573" lon="11.937175062042801"><ele>623.0</ele><time>2026-04-25T16:10:07Z</time></trkpt><trkpt lat="46.11964609170304" lon="11.93722456766628"><ele>623.0</ele><time>2026-04-25T16:10:08Z</time></trkpt><trkpt lat="46.11953554529975" lon="11.937297146131606"><ele>623.0</ele><time>2026-04-25T16:10:09Z</time></trkpt><trkpt lat="46.119425828855334" lon="11.937381132749126"><ele>623.0</ele><time>2026-04-25T16:10:10Z</time></trkpt><trkpt lat="46.119326623160426" lon="11.937426676146412"><ele>623.0</ele><time>2026-04-25T16:10:11Z</time></trkpt><trkpt lat="46.119238524931326" lon="11.937446101822838"><ele>623.0</ele><time>2026-04-25T16:10:12Z</time></trkpt><trkpt lat="46.11913644005774" lon="11.937433002628511"><ele>623.0</ele><time>2026-04-25T16:10:13Z</time></trkpt><trkpt lat="46.119020346094054" lon="11.937378733376743"><ele>623.0</ele><time>2026-04-25T16:10:14Z</time></trkpt><trkpt lat="46.11891413130492" lon="11.937277702360909"><ele>623.0</ele><time>2026-04-25T16:10:15Z</time></trkpt><trkpt lat="46.11877290120899" lon="11.93720077643263"><ele>621.3333333333333</ele><time>2026-04-25T16:10:16Z</time></trkpt><trkpt lat="46.11861284111698" lon="11.93711359358414"><ele>619.6666666666666</ele><time>2026-04-25T16:10:17Z</time></trkpt><trkpt lat="46.11846460976742" lon="11.93704971050588"><ele>618.0</ele><time>2026-04-25T16:10:18Z</time></trkpt><trkpt lat="46.11831025090872" lon="11.936970253878298"><ele>617.0</ele><time>2026-04-25T16:10:19Z</time></trkpt><trkpt lat="46.118164421695575" lon="11.93689300305295"><ele>616.0</ele><time>2026-04-25T16:10:20Z</time></trkpt><trkpt lat="46.118032456337616" lon="11.936829045765759"><ele>615.0</ele><time>2026-04-25T16:10:21Z</time></trkpt><trkpt lat="46.11791572535028" lon="11.936767045321112"><ele>614.0</ele><time>2026-04-25T16:10:22Z</time></trkpt><trkpt lat="46.117795056317135" lon="11.936716261204108"><ele>614.0</ele><time>2026-04-25T16:10:23Z</time></trkpt><trkpt lat="46.117659383491834" lon="11.936638152749266"><ele>614.0</ele><time>2026-04-25T16:10:24Z</time></trkpt><trkpt lat="46.117539844145334" lon="11.936564099825759"><ele>614.0</ele><time>2026-04-25T16:10:25Z</time></trkpt><trkpt lat="46.11742885491098" lon="11.936500499843644"><ele>614.0</ele><time>2026-04-25T16:10:26Z</time></trkpt><trkpt lat="46.117308565128226" lon="11.936431076283663"><ele>612.3333333333333</ele><time>2026-04-25T16:10:27Z</time></trkpt><trkpt lat="46.117170253785474" lon="11.93637804734034"><ele>610.6666666666666</ele><time>2026-04-25T16:10:28Z</time></trkpt><trkpt lat="46.11703204859273" lon="11.936321477255666"><ele>609.0</ele><time>2026-04-25T16:10:29Z</time></trkpt><trkpt lat="46.11683678438678" lon="11.936313770673763"><ele>609.0</ele><time>2026-04-25T16:10:30Z</time></trkpt><trkpt lat="46.11668704451289" lon="11.936299559403277"><ele>609.0</ele><time>2026-04-25T16:10:31Z</time></trkpt><trkpt lat="46.116562571854075" lon="11.936310537123333"><ele>609.0</ele><time>2026-04-25T16:10:32Z</time></trkpt><trkpt lat="46.116424230936246" lon="11.936272061520501"><ele>609.0</ele><time>2026-04-25T16:10:33Z</time></trkpt><trkpt lat="46.11628381765402" lon="11.936253259145872"><ele>607.5</ele><time>2026-04-25T16:10:34Z</time></trkpt><trkpt lat="46.11614987986211" lon="11.936258396904432"><ele>606.0</ele><time>2026-04-25T16:10:35Z</time></trkpt><trkpt lat="46.11602011263467" lon="11.936243642616695"><ele>604.5</ele><time>2026-04-25T16:10:36Z</time></trkpt><trkpt lat="46.115877533715114" lon="11.93624698154563"><ele>603.0</ele><time>2026-04-25T16:10:37Z</time></trkpt><trkpt lat="46.115736355877324" lon="11.936277122776835"><ele>602.0</ele><time>2026-04-25T16:10:38Z</time></trkpt><trkpt lat="46.11561560744374" lon="11.9362949702017"><ele>601.0</ele><time>2026-04-25T16:10:39Z</time></trkpt><trkpt lat="46.115502884589965" lon="11.936302868328578"><ele>600.0</ele><time>2026-04-25T16:10:40Z</time></trkpt><trkpt lat="46.115391149396814" lon="11.936303514184589"><ele>599.0</ele><time>2026-04-25T16:10:41Z</time></trkpt><trkpt lat="46.115286825110246" lon="11.936308471344669"><ele>599.0</ele><time>2026-04-25T16:10:42Z</time></trkpt><trkpt lat="46.11518778550637" lon="11.936331994338676"><ele>599.0</ele><time>2026-04-25T16:10:43Z</time></trkpt><trkpt lat="46.115053441249245" lon="11.936368417896059"><ele>599.0</ele><time>2026-04-25T16:10:44Z</time></trkpt><trkpt lat="46.11494553365306" lon="11.936403013015797"><ele>599.0</ele><time>2026-04-25T16:10:45Z</time></trkpt><trkpt lat="46.11487631212691" lon="11.936411950327294"><ele>599.0</ele><time>2026-04-25T16:10:46Z</time></trkpt><trkpt lat="46.11477269403475" lon="11.936480351074383"><ele>598.8</ele><time>2026-04-25T16:10:48Z</time></trkpt><trkpt lat="46.11466954646957" lon="11.93658317355858"><ele>598.5999999999999</ele><time>2026-04-25T16:10:49.999Z</time></trkpt><trkpt lat="46.11461352373664" lon="11.936654383747985"><ele>598.4</ele><time>2026-04-25T16:10:50.999Z</time></trkpt><trkpt lat="46.11454371986071" lon="11.936812052998718"><ele>598.1999999999999</ele><time>2026-04-25T16:10:52.999Z</time></trkpt><trkpt lat="46.11451072605994" lon="11.93690641691481"><ele>598.0</ele><time>2026-04-25T16:10:53.999Z</time></trkpt><trkpt lat="46.11445329154669" lon="11.937038358239462"><ele>598.0</ele><time>2026-04-25T16:10:54.999Z</time></trkpt><trkpt lat="46.114420615355776" lon="11.937163714285978"><ele>598.0</ele><time>2026-04-25T16:10:55.999Z</time></trkpt><trkpt lat="46.114395467298465" lon="11.937261213294432"><ele>598.0</ele><time>2026-04-25T16:10:56.999Z</time></trkpt><trkpt lat="46.11437007712115" lon="11.93735574139588"><ele>598.0</ele><time>2026-04-25T16:10:57.999Z</time></trkpt><trkpt lat="46.114316965796206" lon="11.93742320808795"><ele>598.0</ele><time>2026-04-25T16:10:58.999Z</time></trkpt><trkpt lat="46.114246127410375" lon="11.937488269693988"><ele>598.0</ele><time>2026-04-25T16:10:59.999Z</time></trkpt><trkpt lat="46.114120812946425" lon="11.937547836713074"><ele>598.75</ele><time>2026-04-25T16:11:00.999Z</time></trkpt><trkpt lat="46.1140285281894" lon="11.93759935014329"><ele>599.5</ele><time>2026-04-25T16:11:01.999Z</time></trkpt><trkpt lat="46.11390953297704" lon="11.937645764993023"><ele>600.25</ele><time>2026-04-25T16:11:02.999Z</time></trkpt><trkpt lat="46.11375004628617" lon="11.937689178098427"><ele>601.0</ele><time>2026-04-25T16:11:03.999Z</time></trkpt><trkpt lat="46.11362573997022" lon="11.937763631362195"><ele>601.0</ele><time>2026-04-25T16:11:04.999Z</time></trkpt><trkpt lat="46.1135077223928" lon="11.937807242418318"><ele>601.0</ele><time>2026-04-25T16:11:05.999Z</time></trkpt><trkpt lat="46.113396639082836" lon="11.937859315959201"><ele>601.0</ele><time>2026-04-25T16:11:06.999Z</time></trkpt><trkpt lat="46.11328915579952" lon="11.937905776299537"><ele>601.0</ele><time>2026-04-25T16:11:07.999Z</time></trkpt><trkpt lat="46.11317738218315" lon="11.937944862115492"><ele>599.75</ele><time>2026-04-25T16:11:08.999Z</time></trkpt><trkpt lat="46.113054282365276" lon="11.9379657797324"><ele>598.5</ele><time>2026-04-25T16:11:09.999Z</time></trkpt><trkpt lat="46.11291227916324" lon="11.937986667927953"><ele>597.25</ele><time>2026-04-25T16:11:10.999Z</time></trkpt><trkpt lat="46.112775548653815" lon="11.9380155304771"><ele>596.0</ele><time>2026-04-25T16:11:11.999Z</time></trkpt><trkpt lat="46.11263303943842" lon="11.938049053630394"><ele>596.0</ele><time>2026-04-25T16:11:12.999Z</time></trkpt><trkpt lat="46.11249476190932" lon="11.938070101824707"><ele>596.0</ele><time>2026-04-25T16:11:13.999Z</time></trkpt><trkpt lat="46.11237074472872" lon="11.938094358883745"><ele>596.0</ele><time>2026-04-25T16:11:14.999Z</time></trkpt><trkpt lat="46.112258351350945" lon="11.93811665407606"><ele>596.0</ele><time>2026-04-25T16:11:15.999Z</time></trkpt><trkpt lat="46.11213699055148" lon="11.938117904171808"><ele>595.6</ele><time>2026-04-25T16:11:16.999Z</time></trkpt><trkpt lat="46.11202863671271" lon="11.9381339521775"><ele>595.2</ele><time>2026-04-25T16:11:17.999Z</time></trkpt><trkpt lat="46.11192279343057" lon="11.938148763907769"><ele>594.8</ele><time>2026-04-25T16:11:18.999Z</time></trkpt><trkpt lat="46.11183165411071" lon="11.938160782484019"><ele>594.4</ele><time>2026-04-25T16:11:19.999Z</time></trkpt><trkpt lat="46.11174489039098" lon="11.938166026812219"><ele>594.0</ele><time>2026-04-25T16:11:20.999Z</time></trkpt><trkpt lat="46.111671905543695" lon="11.938167800737952"><ele>594.0</ele><time>2026-04-25T16:11:21.999Z</time></trkpt><trkpt lat="46.11157897920534" lon="11.938145735393743"><ele>594.0</ele><time>2026-04-25T16:11:22.999Z</time></trkpt><trkpt lat="46.11147947068057" lon="11.938136637467824"><ele>594.0</ele><time>2026-04-25T16:11:23.999Z</time></trkpt><trkpt lat="46.11141215573264" lon="11.938107450745768"><ele>594.0</ele><time>2026-04-25T16:11:24.999Z</time></trkpt><trkpt lat="46.111353110277186" lon="11.938065542203775"><ele>594.0</ele><time>2026-04-25T16:11:25.999Z</time></trkpt><trkpt lat="46.11129051019915" lon="11.938004281431322"><ele>594.0</ele><time>2026-04-25T16:11:26.999Z</time></trkpt><trkpt lat="46.11124604920527" lon="11.937904525620766"><ele>593.8</ele><time>2026-04-25T16:11:27.999Z</time></trkpt><trkpt lat="46.11121760647565" lon="11.937818224411444"><ele>593.5999999999999</ele><time>2026-04-25T16:11:28.999Z</time></trkpt><trkpt lat="46.11115415640829" lon="11.937727828955623"><ele>593.4</ele><time>2026-04-25T16:11:30.999Z</time></trkpt><trkpt lat="46.11108865479798" lon="11.937719258891867"><ele>593.1999999999999</ele><time>2026-04-25T16:11:31.999Z</time></trkpt><trkpt lat="46.110982896985796" lon="11.937752126731487"><ele>593.0</ele><time>2026-04-25T16:11:32.999Z</time></trkpt><trkpt lat="46.11085515340052" lon="11.937809040102033"><ele>593.0</ele><time>2026-04-25T16:11:33.999Z</time></trkpt><trkpt lat="46.11074702893" lon="11.937866063859026"><ele>593.0</ele><time>2026-04-25T16:11:34.999Z</time></trkpt><trkpt lat="46.110624116738514" lon="11.937932081678442"><ele>593.0</ele><time>2026-04-25T16:11:35.999Z</time></trkpt><trkpt lat="46.110540359093484" lon="11.937986117203371"><ele>593.0</ele><time>2026-04-25T16:11:36.999Z</time></trkpt><trkpt lat="46.11044805236985" lon="11.93806080178624"><ele>593.0</ele><time>2026-04-25T16:11:37.999Z</time></trkpt><trkpt lat="46.11036686603839" lon="11.938118551521141"><ele>593.1999999999999</ele><time>2026-04-25T16:11:38.999Z</time></trkpt><trkpt lat="46.11027036998177" lon="11.938096271332455"><ele>593.4</ele><time>2026-04-25T16:11:39.999Z</time></trkpt><trkpt lat="46.11017843846415" lon="11.938122723941833"><ele>593.5999999999999</ele><time>2026-04-25T16:11:40.999Z</time></trkpt><trkpt lat="46.11008180597202" lon="11.938150580702079"><ele>593.8</ele><time>2026-04-25T16:11:41.999Z</time></trkpt><trkpt lat="46.10996445347837" lon="11.938201392902322"><ele>594.0</ele><time>2026-04-25T16:11:42.999Z</time></trkpt><trkpt lat="46.10985075737621" lon="11.938282653226219"><ele>593.5</ele><time>2026-04-25T16:11:43.999Z</time></trkpt><trkpt lat="46.10976025314921" lon="11.938347965564246"><ele>593.0</ele><time>2026-04-25T16:11:44.999Z</time></trkpt><trkpt lat="46.10968859606033" lon="11.938425475587437"><ele>592.5</ele><time>2026-04-25T16:11:45.999Z</time></trkpt><trkpt lat="46.10960979364032" lon="11.93846073755359"><ele>592.0</ele><time>2026-04-25T16:11:46.999Z</time></trkpt><trkpt lat="46.10954546372931" lon="11.938509517114701"><ele>591.5</ele><time>2026-04-25T16:11:47.999Z</time></trkpt><trkpt lat="46.10948681178462" lon="11.938550945202154"><ele>591.0</ele><time>2026-04-25T16:11:48.999Z</time></trkpt><trkpt lat="46.10942200408153" lon="11.938583993705755"><ele>589.4</ele><time>2026-04-25T16:11:49.999Z</time></trkpt><trkpt lat="46.109356315100115" lon="11.938593107508373"><ele>587.8</ele><time>2026-04-25T16:11:50.999Z</time></trkpt><trkpt lat="46.10927728149527" lon="11.938549968830108"><ele>586.1999999999999</ele><time>2026-04-25T16:11:51.999Z</time></trkpt><trkpt lat="46.1091851569732" lon="11.938483612077832"><ele>584.6</ele><time>2026-04-25T16:11:52.999Z</time></trkpt><trkpt lat="46.10909260623712" lon="11.938427171241084"><ele>583.0</ele><time>2026-04-25T16:11:53.999Z</time></trkpt><trkpt lat="46.10899768854419" lon="11.938401807965558"><ele>584.6</ele><time>2026-04-25T16:11:54.999Z</time></trkpt><trkpt lat="46.108914708724456" lon="11.938355968907288"><ele>586.1999999999999</ele><time>2026-04-25T16:11:55.999Z</time></trkpt><trkpt lat="46.108815625734906" lon="11.938340767444796"><ele>587.8</ele><time>2026-04-25T16:11:56.999Z</time></trkpt><trkpt lat="46.108711258376964" lon="11.93835724767249"><ele>589.4</ele><time>2026-04-25T16:11:57.999Z</time></trkpt><trkpt lat="46.10858023146694" lon="11.938364500647713"><ele>591.0</ele><time>2026-04-25T16:11:58.999Z</time></trkpt><trkpt lat="46.10846961882241" lon="11.938365427912537"><ele>587.5</ele><time>2026-04-25T16:12:00Z</time></trkpt><trkpt lat="46.10836409896598" lon="11.938389707919729"><ele>584.0</ele><time>2026-04-25T16:12:01Z</time></trkpt><trkpt lat="46.10824686456702" lon="11.938385580267836"><ele>580.5</ele><time>2026-04-25T16:12:02Z</time></trkpt><trkpt lat="46.108120061705314" lon="11.938432695185487"><ele>577.0</ele><time>2026-04-25T16:12:03Z</time></trkpt><trkpt lat="46.108032095608635" lon="11.938503552036064"><ele>576.6</ele><time>2026-04-25T16:12:04Z</time></trkpt><trkpt lat="46.10798296879128" lon="11.938629950292828"><ele>576.2</ele><time>2026-04-25T16:12:05Z</time></trkpt><trkpt lat="46.107927708410415" lon="11.938720799194604"><ele>575.8</ele><time>2026-04-25T16:12:06Z</time></trkpt><trkpt lat="46.10786754964339" lon="11.938803875980481"><ele>575.4</ele><time>2026-04-25T16:12:07Z</time></trkpt><trkpt lat="46.10779232292478" lon="11.938893328849598"><ele>575.0</ele><time>2026-04-25T16:12:08Z</time></trkpt><trkpt lat="46.1077037865201" lon="11.938935705548822"><ele>575.0</ele><time>2026-04-25T16:12:09Z</time></trkpt><trkpt lat="46.10762042568476" lon="11.93894694573253"><ele>575.0</ele><time>2026-04-25T16:12:10Z</time></trkpt><trkpt lat="46.10752541675486" lon="11.938930356790653"><ele>575.0</ele><time>2026-04-25T16:12:11Z</time></trkpt><trkpt lat="46.10740318003108" lon="11.938913421580775"><ele>575.0</ele><time>2026-04-25T16:12:12Z</time></trkpt><trkpt lat="46.10728852606662" lon="11.938894833698074"><ele>575.0</ele><time>2026-04-25T16:12:13Z</time></trkpt><trkpt lat="46.10718055945123" lon="11.938885188543493"><ele>573.75</ele><time>2026-04-25T16:12:14Z</time></trkpt><trkpt lat="46.107048223950414" lon="11.938869546180836"><ele>572.5</ele><time>2026-04-25T16:12:15Z</time></trkpt><trkpt lat="46.10690556986424" lon="11.938888401613596"><ele>571.25</ele><time>2026-04-25T16:12:16Z</time></trkpt><trkpt lat="46.10674772992835" lon="11.938940566542342"><ele>570.0</ele><time>2026-04-25T16:12:17Z</time></trkpt><trkpt lat="46.106627988587945" lon="11.938980107392661"><ele>569.6</ele><time>2026-04-25T16:12:18Z</time></trkpt><trkpt lat="46.10650243614592" lon="11.93896762815003"><ele>569.2</ele><time>2026-04-25T16:12:19Z</time></trkpt><trkpt lat="46.10638583163769" lon="11.939003156992735"><ele>568.8</ele><time>2026-04-25T16:12:20Z</time></trkpt><trkpt lat="46.10628101838337" lon="11.93901640829267"><ele>568.4</ele><time>2026-04-25T16:12:21Z</time></trkpt><trkpt lat="46.10618900365479" lon="11.939034281042973"><ele>568.0</ele><time>2026-04-25T16:12:22Z</time></trkpt><trkpt lat="46.10610257973494" lon="11.939036145556546"><ele>568.0</ele><time>2026-04-25T16:12:23Z</time></trkpt><trkpt lat="46.10602489555315" lon="11.93904057630681"><ele>568.0</ele><time>2026-04-25T16:12:24Z</time></trkpt><trkpt lat="46.105947079105114" lon="11.93905705611407"><ele>568.0</ele><time>2026-04-25T16:12:25Z</time></trkpt><trkpt lat="46.105860046270095" lon="11.939066470447994"><ele>568.0</ele><time>2026-04-25T16:12:26Z</time></trkpt><trkpt lat="46.1057583877434" lon="11.939142760311073"><ele>568.0</ele><time>2026-04-25T16:12:27Z</time></trkpt><trkpt lat="46.105657871071344" lon="11.939226809530545"><ele>571.25</ele><time>2026-04-25T16:12:28Z</time></trkpt><trkpt lat="46.105561029514696" lon="11.939343384137537"><ele>574.5</ele><time>2026-04-25T16:12:29Z</time></trkpt><trkpt lat="46.105464127788245" lon="11.939474204510933"><ele>577.75</ele><time>2026-04-25T16:12:30Z</time></trkpt><trkpt lat="46.10537840064809" lon="11.939564784570319"><ele>581.0</ele><time>2026-04-25T16:12:31Z</time></trkpt><trkpt lat="46.1052998759245" lon="11.939656416839147"><ele>581.0</ele><time>2026-04-25T16:12:32Z</time></trkpt><trkpt lat="46.10520693816911" lon="11.939748631076066"><ele>581.0</ele><time>2026-04-25T16:12:33Z</time></trkpt><trkpt lat="46.105128554014556" lon="11.9398481982499"><ele>581.0</ele><time>2026-04-25T16:12:34Z</time></trkpt><trkpt lat="46.10504561285346" lon="11.939937322316696"><ele>581.0</ele><time>2026-04-25T16:12:35Z</time></trkpt><trkpt lat="46.10496074867469" lon="11.940028437445214"><ele>581.0</ele><time>2026-04-25T16:12:36Z</time></trkpt><trkpt lat="46.104888741322604" lon="11.940133199783538"><ele>584.0</ele><time>2026-04-25T16:12:37Z</time></trkpt><trkpt lat="46.104826476328455" lon="11.940266127849466"><ele>587.0</ele><time>2026-04-25T16:12:38Z</time></trkpt><trkpt lat="46.10477394078999" lon="11.940418700067882"><ele>590.0</ele><time>2026-04-25T16:12:39Z</time></trkpt><trkpt lat="46.104736285171384" lon="11.940595724195054"><ele>593.0</ele><time>2026-04-25T16:12:40Z</time></trkpt><trkpt lat="46.104719336626324" lon="11.94079037626927"><ele>588.5</ele><time>2026-04-25T16:12:41Z</time></trkpt><trkpt lat="46.10471182748468" lon="11.940990549362896"><ele>584.0</ele><time>2026-04-25T16:12:42Z</time></trkpt><trkpt lat="46.104688111603444" lon="11.941165114631946"><ele>579.5</ele><time>2026-04-25T16:12:43Z</time></trkpt><trkpt lat="46.10467890060251" lon="11.941317443744193"><ele>575.0</ele><time>2026-04-25T16:12:44Z</time></trkpt><trkpt lat="46.104640247321484" lon="11.941442764920144"><ele>575.0</ele><time>2026-04-25T16:12:45Z</time></trkpt><trkpt lat="46.104594033364286" lon="11.941583557429485"><ele>575.0</ele><time>2026-04-25T16:12:46Z</time></trkpt><trkpt lat="46.10452772351074" lon="11.941753455188511"><ele>575.0</ele><time>2026-04-25T16:12:47Z</time></trkpt><trkpt lat="46.10447683190783" lon="11.941932481880903"><ele>575.0</ele><time>2026-04-25T16:12:48Z</time></trkpt><trkpt lat="46.10442309818359" lon="11.942048810574885"><ele>574.8</ele><time>2026-04-25T16:12:49Z</time></trkpt><trkpt lat="46.10437991519106" lon="11.942150645023696"><ele>574.6</ele><time>2026-04-25T16:12:50Z</time></trkpt><trkpt lat="46.10432873911794" lon="11.942233267411346"><ele>574.4</ele><time>2026-04-25T16:12:51Z</time></trkpt><trkpt lat="46.10428915377673" lon="11.942306059636834"><ele>574.2</ele><time>2026-04-25T16:12:52Z</time></trkpt><trkpt lat="46.10417648226172" lon="11.942398847628548"><ele>574.0</ele><time>2026-04-25T16:12:54Z</time></trkpt><trkpt lat="46.10407494790219" lon="11.942481150616645"><ele>574.0</ele><time>2026-04-25T16:12:55Z</time></trkpt><trkpt lat="46.10397378904383" lon="11.942516080487355"><ele>574.0</ele><time>2026-04-25T16:12:56Z</time></trkpt><trkpt lat="46.10390035674251" lon="11.942596077673468"><ele>574.0</ele><time>2026-04-25T16:12:57Z</time></trkpt><trkpt lat="46.10382592057762" lon="11.942649908386477"><ele>574.0</ele><time>2026-04-25T16:12:58Z</time></trkpt><trkpt lat="46.10375733346263" lon="11.942693316872528"><ele>574.0</ele><time>2026-04-25T16:12:59Z</time></trkpt><trkpt lat="46.10370830579299" lon="11.942766416854376"><ele>574.0</ele><time>2026-04-25T16:13:00Z</time></trkpt><trkpt lat="46.10366989636405" lon="11.942870041732396"><ele>573.0</ele><time>2026-04-25T16:13:01Z</time></trkpt><trkpt lat="46.103646508914444" lon="11.943021151505086"><ele>572.0</ele><time>2026-04-25T16:13:02Z</time></trkpt><trkpt lat="46.10363088685746" lon="11.943183053952337"><ele>571.0</ele><time>2026-04-25T16:13:03Z</time></trkpt><trkpt lat="46.10362575779171" lon="11.94332536819132"><ele>570.0</ele><time>2026-04-25T16:13:04Z</time></trkpt><trkpt lat="46.103601638138905" lon="11.943468341769027"><ele>569.0</ele><time>2026-04-25T16:13:05Z</time></trkpt><trkpt lat="46.10358750793868" lon="11.94362674198112"><ele>568.8</ele><time>2026-04-25T16:13:06Z</time></trkpt><trkpt lat="46.10358071964332" lon="11.943774380881234"><ele>568.5999999999999</ele><time>2026-04-25T16:13:07Z</time></trkpt><trkpt lat="46.10357102430907" lon="11.943901827026794"><ele>568.4</ele><time>2026-04-25T16:13:08Z</time></trkpt><trkpt lat="46.10356786466396" lon="11.944028290162215"><ele>568.1999999999999</ele><time>2026-04-25T16:13:09Z</time></trkpt><trkpt lat="46.10357982827598" lon="11.944149531095617"><ele>568.0</ele><time>2026-04-25T16:13:10Z</time></trkpt><trkpt lat="46.103575712842705" lon="11.944286532002382"><ele>566.6</ele><time>2026-04-25T16:13:11Z</time></trkpt><trkpt lat="46.10355878605377" lon="11.944407779564695"><ele>565.1999999999999</ele><time>2026-04-25T16:13:12Z</time></trkpt><trkpt lat="46.10353327994373" lon="11.944515126853874"><ele>563.8</ele><time>2026-04-25T16:13:13Z</time></trkpt><trkpt lat="46.10348980207939" lon="11.94461520554682"><ele>562.4</ele><time>2026-04-25T16:13:13.999Z</time></trkpt><trkpt lat="46.10341696815812" lon="11.944721261442899"><ele>561.0</ele><time>2026-04-25T16:13:14.999Z</time></trkpt><trkpt lat="46.10333385531946" lon="11.944837017057917"><ele>561.0</ele><time>2026-04-25T16:13:15.999Z</time></trkpt><trkpt lat="46.103260793059256" lon="11.944955385540036"><ele>561.0</ele><time>2026-04-25T16:13:16.999Z</time></trkpt><trkpt lat="46.103165762086014" lon="11.945071150495854"><ele>561.0</ele><time>2026-04-25T16:13:17.999Z</time></trkpt><trkpt lat="46.10308428592888" lon="11.945177581352388"><ele>561.0</ele><time>2026-04-25T16:13:18.999Z</time></trkpt><trkpt lat="46.10300901496975" lon="11.945267038584422"><ele>561.0</ele><time>2026-04-25T16:13:19.999Z</time></trkpt><trkpt lat="46.10293562256511" lon="11.945356245909444"><ele>560.0</ele><time>2026-04-25T16:13:20.999Z</time></trkpt><trkpt lat="46.10284296770711" lon="11.945418340071686"><ele>559.0</ele><time>2026-04-25T16:13:21.999Z</time></trkpt><trkpt lat="46.10274867633541" lon="11.94550690976949"><ele>558.0</ele><time>2026-04-25T16:13:22.999Z</time></trkpt><trkpt lat="46.10265808665008" lon="11.945595033751086"><ele>557.0</ele><time>2026-04-25T16:13:23.999Z</time></trkpt><trkpt lat="46.10258300793823" lon="11.945696882797723"><ele>556.0</ele><time>2026-04-25T16:13:24.999Z</time></trkpt><trkpt lat="46.102494182523856" lon="11.94574406173847"><ele>554.6</ele><time>2026-04-25T16:13:25.999Z</time></trkpt><trkpt lat="46.10240688361643" lon="11.945788939222977"><ele>553.2</ele><time>2026-04-25T16:13:26.999Z</time></trkpt><trkpt lat="46.102318200332185" lon="11.94583432813373"><ele>551.8</ele><time>2026-04-25T16:13:27.999Z</time></trkpt><trkpt lat="46.102235882557075" lon="11.945902755049367"><ele>550.4</ele><time>2026-04-25T16:13:28.999Z</time></trkpt><trkpt lat="46.10215238351217" lon="11.945968070406185"><ele>549.0</ele><time>2026-04-25T16:13:29.999Z</time></trkpt><trkpt lat="46.102064187968764" lon="11.94607513152189"><ele>549.0</ele><time>2026-04-25T16:13:30.999Z</time></trkpt><trkpt lat="46.10196245087688" lon="11.946175786413876"><ele>549.0</ele><time>2026-04-25T16:13:31.999Z</time></trkpt><trkpt lat="46.101897064229654" lon="11.946298533156629"><ele>549.0</ele><time>2026-04-25T16:13:32.999Z</time></trkpt><trkpt lat="46.10182844775122" lon="11.946396323156748"><ele>549.0</ele><time>2026-04-25T16:13:33.999Z</time></trkpt><trkpt lat="46.10177540916047" lon="11.946502935858677"><ele>549.0</ele><time>2026-04-25T16:13:34.999Z</time></trkpt><trkpt lat="46.10173317476137" lon="11.946601753224124"><ele>549.0</ele><time>2026-04-25T16:13:35.999Z</time></trkpt><trkpt lat="46.10171142341686" lon="11.94670237523002"><ele>549.0</ele><time>2026-04-25T16:13:36.999Z</time></trkpt><trkpt lat="46.101710771630536" lon="11.946822429118058"><ele>549.0</ele><time>2026-04-25T16:13:37.999Z</time></trkpt><trkpt lat="46.10171346511995" lon="11.94694886202678"><ele>549.0</ele><time>2026-04-25T16:13:38.999Z</time></trkpt><trkpt lat="46.10169128545512" lon="11.947064062973586"><ele>549.0</ele><time>2026-04-25T16:13:39.999Z</time></trkpt><trkpt lat="46.10167678963268" lon="11.947181654124828"><ele>549.0</ele><time>2026-04-25T16:13:40.999Z</time></trkpt><trkpt lat="46.1016567470511" lon="11.947285352275971"><ele>547.2</ele><time>2026-04-25T16:13:41.999Z</time></trkpt><trkpt lat="46.101630814961524" lon="11.947435353072535"><ele>545.4</ele><time>2026-04-25T16:13:43.999Z</time></trkpt><trkpt lat="46.101553380390804" lon="11.947497522049225"><ele>543.6</ele><time>2026-04-25T16:13:45.999Z</time></trkpt><trkpt lat="46.10145147370723" lon="11.947452384149617"><ele>541.8</ele><time>2026-04-25T16:13:47.999Z</time></trkpt><trkpt lat="46.101350855036024" lon="11.947318313575096"><ele>540.0</ele><time>2026-04-25T16:13:49.999Z</time></trkpt><trkpt lat="46.10128452547515" lon="11.947246226693828"><ele>538.3333333333334</ele><time>2026-04-25T16:13:50.999Z</time></trkpt><trkpt lat="46.10123130850956" lon="11.947173858362753"><ele>536.6666666666666</ele><time>2026-04-25T16:13:51.999Z</time></trkpt><trkpt lat="46.10118360787703" lon="11.947106000557175"><ele>535.0</ele><time>2026-04-25T16:13:52.999Z</time></trkpt><trkpt lat="46.101078503357165" lon="11.947022037051783"><ele>533.3333333333333</ele><time>2026-04-25T16:13:54.999Z</time></trkpt><trkpt lat="46.10100453965663" lon="11.946995461761015"><ele>531.6666666666666</ele><time>2026-04-25T16:13:55.999Z</time></trkpt><trkpt lat="46.100919464279194" lon="11.947018362125197"><ele>530.0</ele><time>2026-04-25T16:13:56.999Z</time></trkpt><trkpt lat="46.100847653534316" lon="11.947063113041342"><ele>530.0</ele><time>2026-04-25T16:13:57.999Z</time></trkpt><trkpt lat="46.10078409855846" lon="11.947084227047219"><ele>530.0</ele><time>2026-04-25T16:13:58.999Z</time></trkpt><trkpt lat="46.10067593278036" lon="11.947140793578656"><ele>530.0</ele><time>2026-04-25T16:14:00.999Z</time></trkpt><trkpt lat="46.100586385265814" lon="11.947263516772868"><ele>530.0</ele><time>2026-04-25T16:14:02.999Z</time></trkpt><trkpt lat="46.100541597903366" lon="11.947333912806577"><ele>530.0</ele><time>2026-04-25T16:14:03.999Z</time></trkpt><trkpt lat="46.100530762168695" lon="11.947455114717316"><ele>526.5</ele><time>2026-04-25T16:14:04.999Z</time></trkpt><trkpt lat="46.10054778648186" lon="11.947564168172205"><ele>523.0</ele><time>2026-04-25T16:14:06Z</time></trkpt><trkpt lat="46.100579017742824" lon="11.947678533795772"><ele>519.5</ele><time>2026-04-25T16:14:07Z</time></trkpt><trkpt lat="46.10060724353823" lon="11.947782070565621"><ele>516.0</ele><time>2026-04-25T16:14:08Z</time></trkpt><trkpt lat="46.10063551529189" lon="11.947884022887974"><ele>512.5</ele><time>2026-04-25T16:14:09Z</time></trkpt><trkpt lat="46.1006707601217" lon="11.948006117835018"><ele>509.0</ele><time>2026-04-25T16:14:10Z</time></trkpt><trkpt lat="46.10070431487582" lon="11.94812235803298"><ele>511.3333333333333</ele><time>2026-04-25T16:14:11Z</time></trkpt><trkpt lat="46.100750548311815" lon="11.948227749176365"><ele>513.6666666666666</ele><time>2026-04-25T16:14:12Z</time></trkpt><trkpt lat="46.100775404703" lon="11.948333064967137"><ele>516.0</ele><time>2026-04-25T16:14:13Z</time></trkpt><trkpt lat="46.10081347055339" lon="11.948508251270855"><ele>518.3333333333334</ele><time>2026-04-25T16:14:15Z</time></trkpt><trkpt lat="46.10082119722255" lon="11.948602187495068"><ele>520.6666666666667</ele><time>2026-04-25T16:14:16Z</time></trkpt><trkpt lat="46.1008097539904" lon="11.948696817934279"><ele>523.0</ele><time>2026-04-25T16:14:17Z</time></trkpt><trkpt lat="46.10078083971695" lon="11.948786650330891"><ele>521.3333333333334</ele><time>2026-04-25T16:14:18Z</time></trkpt><trkpt lat="46.10074184481676" lon="11.948878675514765"><ele>519.6666666666667</ele><time>2026-04-25T16:14:19Z</time></trkpt><trkpt lat="46.100704356384405" lon="11.94897108617074"><ele>518.0</ele><time>2026-04-25T16:14:20Z</time></trkpt><trkpt lat="46.100676000792795" lon="11.949079495090649"><ele>516.3333333333334</ele><time>2026-04-25T16:14:21Z</time></trkpt><trkpt lat="46.10063608125335" lon="11.949214542289765"><ele>514.6666666666666</ele><time>2026-04-25T16:14:22Z</time></trkpt><trkpt lat="46.10057898556477" lon="11.949321094565981"><ele>513.0</ele><time>2026-04-25T16:14:23Z</time></trkpt><trkpt lat="46.10053639163766" lon="11.949421773626401"><ele>513.0</ele><time>2026-04-25T16:14:24Z</time></trkpt><trkpt lat="46.100495039532134" lon="11.949520929749461"><ele>513.0</ele><time>2026-04-25T16:14:25Z</time></trkpt><trkpt lat="46.10045724711012" lon="11.949609456280967"><ele>513.0</ele><time>2026-04-25T16:14:26Z</time></trkpt><trkpt lat="46.10038518305245" lon="11.949741293225369"><ele>513.0</ele><time>2026-04-25T16:14:28Z</time></trkpt><trkpt lat="46.10026576500953" lon="11.949818837916348"><ele>513.0</ele><time>2026-04-25T16:14:30Z</time></trkpt><trkpt lat="46.1001861742664" lon="11.949819674415961"><ele>513.0</ele><time>2026-04-25T16:14:31Z</time></trkpt><trkpt lat="46.10011527344089" lon="11.949772512635848"><ele>513.0</ele><time>2026-04-25T16:14:32Z</time></trkpt><trkpt lat="46.10003398158604" lon="11.949762584822032"><ele>513.0</ele><time>2026-04-25T16:14:33Z</time></trkpt><trkpt lat="46.099956780113445" lon="11.949739771173515"><ele>513.0</ele><time>2026-04-25T16:14:34Z</time></trkpt><trkpt lat="46.09988459594461" lon="11.949714735789197"><ele>513.0</ele><time>2026-04-25T16:14:35Z</time></trkpt><trkpt lat="46.099777694514934" lon="11.94972973372933"><ele>513.0</ele><time>2026-04-25T16:14:36Z</time></trkpt><trkpt lat="46.09966649892799" lon="11.949786395024734"><ele>510.59999999999997</ele><time>2026-04-25T16:14:37Z</time></trkpt><trkpt lat="46.09957141145752" lon="11.949827214359475"><ele>508.19999999999993</ele><time>2026-04-25T16:14:38Z</time></trkpt><trkpt lat="46.09948132000192" lon="11.949853698889283"><ele>505.8</ele><time>2026-04-25T16:14:39Z</time></trkpt><trkpt lat="46.09940251265346" lon="11.949872909486455"><ele>503.4</ele><time>2026-04-25T16:14:40Z</time></trkpt><trkpt lat="46.09932136646008" lon="11.949942574073821"><ele>501.0</ele><time>2026-04-25T16:14:41Z</time></trkpt><trkpt lat="46.09920871422796" lon="11.950023857863558"><ele>501.6</ele><time>2026-04-25T16:14:42Z</time></trkpt><trkpt lat="46.09910932096414" lon="11.950112061415739"><ele>502.20000000000005</ele><time>2026-04-25T16:14:43Z</time></trkpt><trkpt lat="46.099020658480015" lon="11.950190197763225"><ele>502.79999999999995</ele><time>2026-04-25T16:14:44Z</time></trkpt><trkpt lat="46.09894025270281" lon="11.950260817488424"><ele>503.4</ele><time>2026-04-25T16:14:45Z</time></trkpt><trkpt lat="46.09886482073653" lon="11.950324462054779"><ele>504.0</ele><time>2026-04-25T16:14:46Z</time></trkpt><trkpt lat="46.09880497366217" lon="11.950375033463017"><ele>501.5</ele><time>2026-04-25T16:14:47Z</time></trkpt><trkpt lat="46.09874683284631" lon="11.950427948252324"><ele>499.0</ele><time>2026-04-25T16:14:48Z</time></trkpt><trkpt lat="46.09869089154652" lon="11.95048591481338"><ele>496.5</ele><time>2026-04-25T16:14:49Z</time></trkpt><trkpt lat="46.098640269458976" lon="11.950559792231688"><ele>494.0</ele><time>2026-04-25T16:14:50Z</time></trkpt><trkpt lat="46.098601359440025" lon="11.950667956941777"><ele>491.5</ele><time>2026-04-25T16:14:51Z</time></trkpt><trkpt lat="46.09859591369302" lon="11.950804337008975"><ele>489.0</ele><time>2026-04-25T16:14:52Z</time></trkpt><trkpt lat="46.09855837956501" lon="11.950910141274857"><ele>489.0</ele><time>2026-04-25T16:14:53Z</time></trkpt><trkpt lat="46.098533656048694" lon="11.951020767908707"><ele>489.00000000000006</ele><time>2026-04-25T16:14:54Z</time></trkpt><trkpt lat="46.098502005076014" lon="11.951120100671947"><ele>489.0</ele><time>2026-04-25T16:14:55Z</time></trkpt><trkpt lat="46.098472474827254" lon="11.95121652293513"><ele>489.0</ele><time>2026-04-25T16:14:56Z</time></trkpt><trkpt lat="46.09840695534116" lon="11.951271015914207"><ele>489.00000000000006</ele><time>2026-04-25T16:14:57Z</time></trkpt><trkpt lat="46.098347277242" lon="11.951320229514916"><ele>489.0</ele><time>2026-04-25T16:14:58Z</time></trkpt><trkpt lat="46.09828759082843" lon="11.951355106179344"><ele>489.0</ele><time>2026-04-25T16:14:59Z</time></trkpt><trkpt lat="46.09817387849649" lon="11.95138576095831"><ele>486.6666666666667</ele><time>2026-04-25T16:15:01Z</time></trkpt><trkpt lat="46.09809507369372" lon="11.951395021659001"><ele>484.33333333333337</ele><time>2026-04-25T16:15:03Z</time></trkpt><trkpt lat="46.09801989900977" lon="11.951410468554023"><ele>482.0</ele><time>2026-04-25T16:15:07Z</time></trkpt><trkpt lat="46.09794911155" lon="11.95140999213549"><ele>479.6666666666667</ele><time>2026-04-25T16:16:41Z</time></trkpt><trkpt lat="46.097850875714805" lon="11.951421726577845"><ele>477.33333333333337</ele><time>2026-04-25T16:16:44Z</time></trkpt><trkpt lat="46.09774299196532" lon="11.951434052564794"><ele>475.0</ele><time>2026-04-25T16:16:46Z</time></trkpt><trkpt lat="46.09762142236626" lon="11.951445043514365"><ele>475.0</ele><time>2026-04-25T16:16:48Z</time></trkpt><trkpt lat="46.09751813141425" lon="11.95141574094238"><ele>475.0</ele><time>2026-04-25T16:16:50Z</time></trkpt><trkpt lat="46.09742852287137" lon="11.951391346997275"><ele>475.0</ele><time>2026-04-25T16:16:52Z</time></trkpt><trkpt lat="46.097343749105306" lon="11.95135767643512"><ele>475.0</ele><time>2026-04-25T16:16:54Z</time></trkpt><trkpt lat="46.09725325823161" lon="11.95142816211826"><ele>475.0</ele><time>2026-04-25T16:16:56Z</time></trkpt><trkpt lat="46.09720782989296" lon="11.951552026950585"><ele>473.8</ele><time>2026-04-25T16:16:58Z</time></trkpt><trkpt lat="46.09718119204838" lon="11.951656810445074"><ele>472.6</ele><time>2026-04-25T16:16:59Z</time></trkpt><trkpt lat="46.09715817676977" lon="11.951774640650058"><ele>471.4</ele><time>2026-04-25T16:17:00Z</time></trkpt><trkpt lat="46.09714091332806" lon="11.95187410934544"><ele>470.2</ele><time>2026-04-25T16:17:01Z</time></trkpt><trkpt lat="46.09713053343279" lon="11.952055225358583"><ele>469.0</ele><time>2026-04-25T16:17:03Z</time></trkpt><trkpt lat="46.09710738889627" lon="11.952180982560906"><ele>469.00000000000006</ele><time>2026-04-25T16:17:04Z</time></trkpt><trkpt lat="46.09710832713727" lon="11.952316187806845"><ele>469.0</ele><time>2026-04-25T16:17:05Z</time></trkpt><trkpt lat="46.09711541513507" lon="11.952440696581448"><ele>469.0</ele><time>2026-04-25T16:17:06Z</time></trkpt><trkpt lat="46.097123915929544" lon="11.952544931689603"><ele>469.0</ele><time>2026-04-25T16:17:07Z</time></trkpt><trkpt lat="46.097138265525025" lon="11.95271429302626"><ele>469.00000000000006</ele><time>2026-04-25T16:17:09Z</time></trkpt><trkpt lat="46.09714713829924" lon="11.952804419805068"><ele>469.0</ele><time>2026-04-25T16:17:10Z</time></trkpt><trkpt lat="46.0971322976605" lon="11.952892890527837"><ele>468.50000000000006</ele><time>2026-04-25T16:17:11Z</time></trkpt><trkpt lat="46.09706703799711" lon="11.953037978771846"><ele>468.0</ele><time>2026-04-25T16:17:13Z</time></trkpt><trkpt lat="46.09702309076667" lon="11.953106789544696"><ele>467.5</ele><time>2026-04-25T16:17:14Z</time></trkpt><trkpt lat="46.096966629278946" lon="11.953189745953914"><ele>467.0</ele><time>2026-04-25T16:17:15Z</time></trkpt><trkpt lat="46.09691424848185" lon="11.95330712404942"><ele>466.50000000000006</ele><time>2026-04-25T16:17:16Z</time></trkpt><trkpt lat="46.09688619103845" lon="11.953419856626578"><ele>466.0</ele><time>2026-04-25T16:17:17Z</time></trkpt><trkpt lat="46.09683475877887" lon="11.953516070137528"><ele>468.1666666666667</ele><time>2026-04-25T16:17:18Z</time></trkpt><trkpt lat="46.09680215697264" lon="11.953611952922365"><ele>470.33333333333337</ele><time>2026-04-25T16:17:19Z</time></trkpt><trkpt lat="46.09676339597833" lon="11.95370709171175"><ele>472.5</ele><time>2026-04-25T16:17:20Z</time></trkpt><trkpt lat="46.096718849644" lon="11.95379403783918"><ele>474.66666666666663</ele><time>2026-04-25T16:17:21Z</time></trkpt><trkpt lat="46.09665697429622" lon="11.953851047776453"><ele>476.8333333333333</ele><time>2026-04-25T16:17:22Z</time></trkpt><trkpt lat="46.09659031708397" lon="11.953919302338601"><ele>479.0</ele><time>2026-04-25T16:17:23Z</time></trkpt><trkpt lat="46.09651120913644" lon="11.953951984808697"><ele>479.0</ele><time>2026-04-25T16:17:24Z</time></trkpt><trkpt lat="46.096402840340836" lon="11.953942305870843"><ele>479.0</ele><time>2026-04-25T16:17:25Z</time></trkpt><trkpt lat="46.096292800220624" lon="11.953937527971508"><ele>479.0</ele><time>2026-04-25T16:17:26Z</time></trkpt><trkpt lat="46.09619006083513" lon="11.953931111903547"><ele>479.0</ele><time>2026-04-25T16:17:27Z</time></trkpt><trkpt lat="46.09609550387241" lon="11.953935042326101"><ele>479.0</ele><time>2026-04-25T16:17:28Z</time></trkpt><trkpt lat="46.09600876739013" lon="11.95394730538962"><ele>479.0</ele><time>2026-04-25T16:17:29Z</time></trkpt><trkpt lat="46.095919667184724" lon="11.953944309995107"><ele>479.0</ele><time>2026-04-25T16:17:30Z</time></trkpt><trkpt lat="46.09583931838149" lon="11.95395065232971"><ele>479.0</ele><time>2026-04-25T16:17:31Z</time></trkpt><trkpt lat="46.095754249734306" lon="11.953952018806367"><ele>479.0</ele><time>2026-04-25T16:17:32Z</time></trkpt><trkpt lat="46.095658832166336" lon="11.95394413482626"><ele>479.0</ele><time>2026-04-25T16:17:33Z</time></trkpt><trkpt lat="46.095550480538904" lon="11.953897036578129"><ele>483.6</ele><time>2026-04-25T16:17:34Z</time></trkpt><trkpt lat="46.095447643179604" lon="11.953880384398893"><ele>488.2</ele><time>2026-04-25T16:17:35Z</time></trkpt><trkpt lat="46.0953534552152" lon="11.953843454540992"><ele>492.80000000000007</ele><time>2026-04-25T16:17:36Z</time></trkpt><trkpt lat="46.09526567223218" lon="11.953794622605054"><ele>497.40000000000003</ele><time>2026-04-25T16:17:37Z</time></trkpt><trkpt lat="46.09518574565554" lon="11.953719674056982"><ele>502.0</ele><time>2026-04-25T16:17:38Z</time></trkpt><trkpt lat="46.095096777035444" lon="11.953605443677533"><ele>502.0</ele><time>2026-04-25T16:17:39Z</time></trkpt><trkpt lat="46.09502754716483" lon="11.953493964378191"><ele>502.00000000000006</ele><time>2026-04-25T16:17:40Z</time></trkpt><trkpt lat="46.09495420971337" lon="11.953418740775938"><ele>502.00000000000006</ele><time>2026-04-25T16:17:41Z</time></trkpt><trkpt lat="46.094844331655956" lon="11.953366087318628"><ele>502.0</ele><time>2026-04-25T16:17:41.999Z</time></trkpt><trkpt lat="46.094732589339245" lon="11.953316551617098"><ele>502.0</ele><time>2026-04-25T16:17:42.999Z</time></trkpt><trkpt lat="46.09463772284322" lon="11.953276768959299"><ele>491.0</ele><time>2026-04-25T16:17:43.999Z</time></trkpt><trkpt lat="46.0945448049704" lon="11.953252602183477"><ele>480.00000000000006</ele><time>2026-04-25T16:17:44.999Z</time></trkpt><trkpt lat="46.0944378654435" lon="11.95324786954487"><ele>469.00000000000006</ele><time>2026-04-25T16:17:45.999Z</time></trkpt><trkpt lat="46.0943183403004" lon="11.953249021774417"><ele>458.0</ele><time>2026-04-25T16:17:46.999Z</time></trkpt><trkpt lat="46.09419889889164" lon="11.95325230045106"><ele>447.0</ele><time>2026-04-25T16:17:47.999Z</time></trkpt><trkpt lat="46.09408617903303" lon="11.953255394620676"><ele>446.8</ele><time>2026-04-25T16:17:48.999Z</time></trkpt><trkpt lat="46.09397600782697" lon="11.953258418830032"><ele>446.6</ele><time>2026-04-25T16:17:49.999Z</time></trkpt><trkpt lat="46.093872294885045" lon="11.953259645255484"><ele>446.40000000000003</ele><time>2026-04-25T16:17:50.999Z</time></trkpt><trkpt lat="46.09375931187907" lon="11.95325315871417"><ele>446.20000000000005</ele><time>2026-04-25T16:17:51.999Z</time></trkpt><trkpt lat="46.09365409916357" lon="11.953238602356842"><ele>446.0</ele><time>2026-04-25T16:17:52.999Z</time></trkpt><trkpt lat="46.093547344651476" lon="11.953211715002944"><ele>446.0</ele><time>2026-04-25T16:17:53.999Z</time></trkpt><trkpt lat="46.093437779174806" lon="11.953170814656191"><ele>446.0</ele><time>2026-04-25T16:17:54.999Z</time></trkpt><trkpt lat="46.093351682034594" lon="11.953119193397917"><ele>446.0</ele><time>2026-04-25T16:17:55.999Z</time></trkpt><trkpt lat="46.093261933177075" lon="11.953041413772128"><ele>446.0</ele><time>2026-04-25T16:17:56.999Z</time></trkpt><trkpt lat="46.09316376972193" lon="11.952954440015414"><ele>446.0</ele><time>2026-04-25T16:17:57.999Z</time></trkpt><trkpt lat="46.09305794224198" lon="11.952866812045112"><ele>445.0</ele><time>2026-04-25T16:17:58.999Z</time></trkpt><trkpt lat="46.09295985447131" lon="11.952793184033553"><ele>444.0</ele><time>2026-04-25T16:17:59.999Z</time></trkpt><trkpt lat="46.09286279486222" lon="11.95271810266046"><ele>443.0</ele><time>2026-04-25T16:18:00.999Z</time></trkpt><trkpt lat="46.092759021275235" lon="11.95262002371699"><ele>442.0</ele><time>2026-04-25T16:18:01.999Z</time></trkpt><trkpt lat="46.0926582754878" lon="11.952518777052346"><ele>442.0</ele><time>2026-04-25T16:18:02.999Z</time></trkpt><trkpt lat="46.09256074587197" lon="11.95242576109524"><ele>442.00000000000006</ele><time>2026-04-25T16:18:03.999Z</time></trkpt><trkpt lat="46.092466688842926" lon="11.952346028055397"><ele>442.00000000000006</ele><time>2026-04-25T16:18:04.999Z</time></trkpt><trkpt lat="46.092377490932144" lon="11.952278529030695"><ele>442.0</ele><time>2026-04-25T16:18:05.999Z</time></trkpt><trkpt lat="46.09229595385651" lon="11.952222665895407"><ele>442.0</ele><time>2026-04-25T16:18:06.999Z</time></trkpt><trkpt lat="46.092220855172116" lon="11.952182136166435"><ele>441.0</ele><time>2026-04-25T16:18:07.999Z</time></trkpt><trkpt lat="46.092128466554186" lon="11.95216760691091"><ele>440.00000000000006</ele><time>2026-04-25T16:18:08.999Z</time></trkpt><trkpt lat="46.092023468240015" lon="11.952193053019592"><ele>439.00000000000006</ele><time>2026-04-25T16:18:09.999Z</time></trkpt><trkpt lat="46.09189641491785" lon="11.952240398780315"><ele>438.0</ele><time>2026-04-25T16:18:10.999Z</time></trkpt><trkpt lat="46.09179151092324" lon="11.952271050489703"><ele>437.0</ele><time>2026-04-25T16:18:11.999Z</time></trkpt><trkpt lat="46.091699133840585" lon="11.95228207202701"><ele>436.99999999999994</ele><time>2026-04-25T16:18:12.999Z</time></trkpt><trkpt lat="46.091597050295505" lon="11.952275894143384"><ele>437.0</ele><time>2026-04-25T16:18:13.999Z</time></trkpt><trkpt lat="46.09150416239652" lon="11.95229427825404"><ele>437.0</ele><time>2026-04-25T16:18:14.999Z</time></trkpt><trkpt lat="46.091421398894695" lon="11.952289841116484"><ele>437.0</ele><time>2026-04-25T16:18:15.999Z</time></trkpt><trkpt lat="46.09134538659339" lon="11.952300595436574"><ele>436.99999999999994</ele><time>2026-04-25T16:18:16.999Z</time></trkpt><trkpt lat="46.091261853824925" lon="11.952339438081129"><ele>437.0</ele><time>2026-04-25T16:18:18Z</time></trkpt><trkpt lat="46.09118022100468" lon="11.952392483277729"><ele>437.6</ele><time>2026-04-25T16:18:19Z</time></trkpt><trkpt lat="46.09109298750258" lon="11.952454523921856"><ele>438.20000000000005</ele><time>2026-04-25T16:18:20Z</time></trkpt><trkpt lat="46.09101243002296" lon="11.95252829302965"><ele>438.8</ele><time>2026-04-25T16:18:21Z</time></trkpt><trkpt lat="46.09093387625227" lon="11.952600703025603"><ele>439.4</ele><time>2026-04-25T16:18:22Z</time></trkpt><trkpt lat="46.09085681968436" lon="11.952677650952042"><ele>440.0</ele><time>2026-04-25T16:18:23Z</time></trkpt><trkpt lat="46.09077911148541" lon="11.952749409438145"><ele>441.2</ele><time>2026-04-25T16:18:24Z</time></trkpt><trkpt lat="46.09069354838126" lon="11.952829075594508"><ele>442.4</ele><time>2026-04-25T16:18:25Z</time></trkpt><trkpt lat="46.090597705330936" lon="11.95292433319509"><ele>443.6</ele><time>2026-04-25T16:18:26Z</time></trkpt><trkpt lat="46.09050394839329" lon="11.952983834274336"><ele>444.8</ele><time>2026-04-25T16:18:27Z</time></trkpt><trkpt lat="46.0904004672155" lon="11.952989590127823"><ele>446.0</ele><time>2026-04-25T16:18:28Z</time></trkpt><trkpt lat="46.0902795174118" lon="11.953002518648294"><ele>446.0</ele><time>2026-04-25T16:18:29Z</time></trkpt><trkpt lat="46.09017598196788" lon="11.953009560117511"><ele>446.0</ele><time>2026-04-25T16:18:30Z</time></trkpt><trkpt lat="46.09008224273366" lon="11.953008919629953"><ele>446.0</ele><time>2026-04-25T16:18:31Z</time></trkpt><trkpt lat="46.089989266312365" lon="11.952995056891998"><ele>446.0</ele><time>2026-04-25T16:18:32Z</time></trkpt><trkpt lat="46.08988979181652" lon="11.952937973091892"><ele>446.0</ele><time>2026-04-25T16:18:33Z</time></trkpt><trkpt lat="46.089807075575486" lon="11.95286783905706"><ele>443.8333333333333</ele><time>2026-04-25T16:18:34Z</time></trkpt><trkpt lat="46.089729707839005" lon="11.952806517782012"><ele>441.66666666666663</ele><time>2026-04-25T16:18:35Z</time></trkpt><trkpt lat="46.08965654154998" lon="11.95275395938992"><ele>439.5</ele><time>2026-04-25T16:18:36Z</time></trkpt><trkpt lat="46.08958565312966" lon="11.95271257696162"><ele>437.33333333333337</ele><time>2026-04-25T16:18:37Z</time></trkpt><trkpt lat="46.089511584388156" lon="11.952716345709721"><ele>435.1666666666667</ele><time>2026-04-25T16:18:38Z</time></trkpt><trkpt lat="46.089435028160615" lon="11.952713687006634"><ele>433.0</ele><time>2026-04-25T16:18:39Z</time></trkpt><trkpt lat="46.08935656462744" lon="11.952725977014941"><ele>433.00000000000006</ele><time>2026-04-25T16:18:40Z</time></trkpt><trkpt lat="46.08925789197396" lon="11.952800034161159"><ele>433.0</ele><time>2026-04-25T16:18:41Z</time></trkpt><trkpt lat="46.08921321345476" lon="11.952923924277647"><ele>433.0</ele><time>2026-04-25T16:18:42Z</time></trkpt><trkpt lat="46.089161131971885" lon="11.95301999481381"><ele>433.0</ele><time>2026-04-25T16:18:43Z</time></trkpt><trkpt lat="46.08911931530999" lon="11.953117957737478"><ele>433.00000000000006</ele><time>2026-04-25T16:18:44Z</time></trkpt><trkpt lat="46.08904490290094" lon="11.953146900420682"><ele>433.0</ele><time>2026-04-25T16:18:45Z</time></trkpt><trkpt lat="46.08890603459685" lon="11.953099086385032"><ele>431.1666666666667</ele><time>2026-04-25T16:18:47Z</time></trkpt><trkpt lat="46.088817809270154" lon="11.953017347747535"><ele>429.33333333333337</ele><time>2026-04-25T16:18:48Z</time></trkpt><trkpt lat="46.08874125658152" lon="11.952941786580515"><ele>427.5</ele><time>2026-04-25T16:18:49Z</time></trkpt><trkpt lat="46.08867649044001" lon="11.952875864171393"><ele>425.66666666666663</ele><time>2026-04-25T16:18:50Z</time></trkpt><trkpt lat="46.088616147320664" lon="11.952814591925662"><ele>423.8333333333333</ele><time>2026-04-25T16:18:51Z</time></trkpt><trkpt lat="46.08855022780076" lon="11.952778176042457"><ele>422.0</ele><time>2026-04-25T16:18:52Z</time></trkpt><trkpt lat="46.08850463194501" lon="11.952708599457937"><ele>422.0</ele><time>2026-04-25T16:18:53Z</time></trkpt><trkpt lat="46.08843840660125" lon="11.952650925697064"><ele>422.0</ele><time>2026-04-25T16:18:54Z</time></trkpt><trkpt lat="46.08837724580969" lon="11.952607731834812"><ele>422.0</ele><time>2026-04-25T16:18:55Z</time></trkpt><trkpt lat="46.08830747475592" lon="11.952589717999883"><ele>422.0</ele><time>2026-04-25T16:18:56Z</time></trkpt><trkpt lat="46.08824180055566" lon="11.952611882915702"><ele>422.0</ele><time>2026-04-25T16:18:57Z</time></trkpt><trkpt lat="46.08816252622928" lon="11.952637288256625"><ele>422.0</ele><time>2026-04-25T16:18:58Z</time></trkpt><trkpt lat="46.0880899754424" lon="11.952650888697406"><ele>422.0</ele><time>2026-04-25T16:18:59Z</time></trkpt><trkpt lat="46.08802514964433" lon="11.95266076940974"><ele>420.8333333333333</ele><time>2026-04-25T16:19:00Z</time></trkpt><trkpt lat="46.087955119533575" lon="11.952662323532488"><ele>419.66666666666663</ele><time>2026-04-25T16:19:01Z</time></trkpt><trkpt lat="46.08787690558786" lon="11.952643277145956"><ele>418.5</ele><time>2026-04-25T16:19:02Z</time></trkpt><trkpt lat="46.08779231609834" lon="11.952619108698535"><ele>417.33333333333337</ele><time>2026-04-25T16:19:03Z</time></trkpt><trkpt lat="46.087701078637565" lon="11.952593980985803"><ele>416.1666666666667</ele><time>2026-04-25T16:19:04Z</time></trkpt><trkpt lat="46.08761662282051" lon="11.952571346288268"><ele>415.0</ele><time>2026-04-25T16:19:05Z</time></trkpt><trkpt lat="46.087531791414115" lon="11.952559088425387"><ele>415.0</ele><time>2026-04-25T16:19:06Z</time></trkpt><trkpt lat="46.08744140951521" lon="11.95257494743364"><ele>415.0</ele><time>2026-04-25T16:19:07Z</time></trkpt><trkpt lat="46.08735338353094" lon="11.952600868800218"><ele>415.0</ele><time>2026-04-25T16:19:08Z</time></trkpt><trkpt lat="46.08725178666917" lon="11.95263284343756"><ele>415.0</ele><time>2026-04-25T16:19:09Z</time></trkpt><trkpt lat="46.08716562505682" lon="11.952660164445762"><ele>415.0</ele><time>2026-04-25T16:19:10Z</time></trkpt><trkpt lat="46.08708822562984" lon="11.952684707093908"><ele>414.83333333333337</ele><time>2026-04-25T16:19:11Z</time></trkpt><trkpt lat="46.08701701018032" lon="11.952701512108892"><ele>414.6666666666667</ele><time>2026-04-25T16:19:12Z</time></trkpt><trkpt lat="46.086947902534185" lon="11.952723431151458"><ele>414.5</ele><time>2026-04-25T16:19:13Z</time></trkpt><trkpt lat="46.08685656750803" lon="11.95271001461816"><ele>414.33333333333337</ele><time>2026-04-25T16:19:14Z</time></trkpt><trkpt lat="46.08675647343292" lon="11.952701165414519"><ele>414.1666666666667</ele><time>2026-04-25T16:19:15Z</time></trkpt><trkpt lat="46.08667462098569" lon="11.952688751404061"><ele>414.0</ele><time>2026-04-25T16:19:16Z</time></trkpt><trkpt lat="46.08660544020554" lon="11.952670413712049"><ele>414.6666666666667</ele><time>2026-04-25T16:19:17Z</time></trkpt><trkpt lat="46.08653153118535" lon="11.9526697360975"><ele>415.33333333333337</ele><time>2026-04-25T16:19:18Z</time></trkpt><trkpt lat="46.086451470953754" lon="11.952679876671837"><ele>416.0</ele><time>2026-04-25T16:19:19Z</time></trkpt><trkpt lat="46.08636451699191" lon="11.952677836753345"><ele>416.6666666666667</ele><time>2026-04-25T16:19:20Z</time></trkpt><trkpt lat="46.08626729871993" lon="11.952696691726088"><ele>417.33333333333337</ele><time>2026-04-25T16:19:21Z</time></trkpt><trkpt lat="46.086163079510605" lon="11.952733820102795"><ele>418.0</ele><time>2026-04-25T16:19:22Z</time></trkpt><trkpt lat="46.08606852899334" lon="11.952751753540921"><ele>418.0</ele><time>2026-04-25T16:19:23Z</time></trkpt><trkpt lat="46.08597975984362" lon="11.952746340483404"><ele>418.0</ele><time>2026-04-25T16:19:24Z</time></trkpt><trkpt lat="46.08588771038924" lon="11.95278516026868"><ele>418.0</ele><time>2026-04-25T16:19:25Z</time></trkpt><trkpt lat="46.085792561157675" lon="11.952799247932726"><ele>418.0</ele><time>2026-04-25T16:19:26Z</time></trkpt><trkpt lat="46.08570329597099" lon="11.952827282121191"><ele>418.0</ele><time>2026-04-25T16:19:27Z</time></trkpt><trkpt lat="46.08561298533315" lon="11.952887405384782"><ele>421.59999999999997</ele><time>2026-04-25T16:19:28Z</time></trkpt><trkpt lat="46.08553025107818" lon="11.952952839929182"><ele>425.2</ele><time>2026-04-25T16:19:29Z</time></trkpt><trkpt lat="46.08543401800379" lon="11.953020260216709"><ele>428.8</ele><time>2026-04-25T16:19:30Z</time></trkpt><trkpt lat="46.0853336162301" lon="11.953092118242687"><ele>432.4</ele><time>2026-04-25T16:19:31Z</time></trkpt><trkpt lat="46.0852410196824" lon="11.953161264890964"><ele>436.0</ele><time>2026-04-25T16:19:32Z</time></trkpt><trkpt lat="46.085159106554634" lon="11.9532152766235"><ele>436.00000000000006</ele><time>2026-04-25T16:19:33Z</time></trkpt><trkpt lat="46.085083232553465" lon="11.953268318361335"><ele>436.0</ele><time>2026-04-25T16:19:33.999Z</time></trkpt><trkpt lat="46.08500590025062" lon="11.953333335527898"><ele>436.0</ele><time>2026-04-25T16:19:34.999Z</time></trkpt><trkpt lat="46.08492728059661" lon="11.953395871996989"><ele>436.0</ele><time>2026-04-25T16:19:35.999Z</time></trkpt><trkpt lat="46.08485000725512" lon="11.953447432444413"><ele>436.00000000000006</ele><time>2026-04-25T16:19:36.999Z</time></trkpt><trkpt lat="46.084783293049476" lon="11.953493427386904"><ele>436.0</ele><time>2026-04-25T16:19:37.999Z</time></trkpt><trkpt lat="46.08472552840076" lon="11.95353926578406"><ele>433.1666666666667</ele><time>2026-04-25T16:19:38.999Z</time></trkpt><trkpt lat="46.084652307209055" lon="11.953573293258186"><ele>430.33333333333337</ele><time>2026-04-25T16:19:39.999Z</time></trkpt><trkpt lat="46.084577183004406" lon="11.953574633990385"><ele>427.5</ele><time>2026-04-25T16:19:40.999Z</time></trkpt><trkpt lat="46.084510187590546" lon="11.953598056730085"><ele>424.66666666666663</ele><time>2026-04-25T16:19:41.999Z</time></trkpt><trkpt lat="46.084437712272866" lon="11.95361534636828"><ele>421.8333333333333</ele><time>2026-04-25T16:19:42.999Z</time></trkpt><trkpt lat="46.0843677999002" lon="11.953634478477047"><ele>419.0</ele><time>2026-04-25T16:19:43.999Z</time></trkpt><trkpt lat="46.08425001940477" lon="11.95366963077447"><ele>419.0</ele><time>2026-04-25T16:19:45.999Z</time></trkpt><trkpt lat="46.0841365008072" lon="11.953690914201264"><ele>419.0</ele><time>2026-04-25T16:19:47.999Z</time></trkpt><trkpt lat="46.08403733114712" lon="11.953773817370532"><ele>419.0</ele><time>2026-04-25T16:19:49.999Z</time></trkpt><trkpt lat="46.08404192349419" lon="11.953893026257226"><ele>419.0</ele><time>2026-04-25T16:19:50.999Z</time></trkpt><trkpt lat="46.08401760432219" lon="11.9539949041193"><ele>419.0</ele><time>2026-04-25T16:19:51.999Z</time></trkpt><trkpt lat="46.083998895297725" lon="11.954084200333961"><ele>418.79999999999995</ele><time>2026-04-25T16:19:52.999Z</time></trkpt><trkpt lat="46.08393655239456" lon="11.954205710593026"><ele>418.59999999999997</ele><time>2026-04-25T16:19:54.999Z</time></trkpt><trkpt lat="46.08379726481028" lon="11.95418934989093"><ele>418.4</ele><time>2026-04-25T16:19:56.999Z</time></trkpt><trkpt lat="46.083709289868445" lon="11.954177429374852"><ele>418.2</ele><time>2026-04-25T16:19:57.999Z</time></trkpt><trkpt lat="46.083604671714525" lon="11.954160195395731"><ele>418.0</ele><time>2026-04-25T16:19:58.999Z</time></trkpt><trkpt lat="46.083488235085944" lon="11.954144462340482"><ele>418.0</ele><time>2026-04-25T16:19:59.999Z</time></trkpt><trkpt lat="46.08338955414591" lon="11.954124378357294"><ele>418.0</ele><time>2026-04-25T16:20:00.999Z</time></trkpt><trkpt lat="46.083295320716864" lon="11.95410349811922"><ele>418.0</ele><time>2026-04-25T16:20:01.999Z</time></trkpt><trkpt lat="46.08320618493603" lon="11.954090903652565"><ele>418.0</ele><time>2026-04-25T16:20:02.999Z</time></trkpt><trkpt lat="46.08312070980671" lon="11.954076887902097"><ele>418.0</ele><time>2026-04-25T16:20:03.999Z</time></trkpt><trkpt lat="46.083025603535994" lon="11.954060541800846"><ele>417.00000000000006</ele><time>2026-04-25T16:20:04.999Z</time></trkpt><trkpt lat="46.08293018545838" lon="11.954042771921648"><ele>416.0</ele><time>2026-04-25T16:20:05.999Z</time></trkpt><trkpt lat="46.082844719100905" lon="11.954028088375404"><ele>415.0</ele><time>2026-04-25T16:20:06.999Z</time></trkpt><trkpt lat="46.08275949818108" lon="11.954013276104565"><ele>414.0</ele><time>2026-04-25T16:20:07.999Z</time></trkpt><trkpt lat="46.082672706758906" lon="11.953995038614513"><ele>413.00000000000006</ele><time>2026-04-25T16:20:08.999Z</time></trkpt><trkpt lat="46.08258471009094" lon="11.953979003793295"><ele>412.0</ele><time>2026-04-25T16:20:09.999Z</time></trkpt><trkpt lat="46.08249694762817" lon="11.953973140225395"><ele>412.33333333333337</ele><time>2026-04-25T16:20:10.999Z</time></trkpt><trkpt lat="46.08241887728622" lon="11.953965688361206"><ele>412.6666666666667</ele><time>2026-04-25T16:20:11.999Z</time></trkpt><trkpt lat="46.08234007502526" lon="11.95397212345564"><ele>413.0</ele><time>2026-04-25T16:20:12.999Z</time></trkpt><trkpt lat="46.082254413382614" lon="11.953989121267968"><ele>413.33333333333337</ele><time>2026-04-25T16:20:13.999Z</time></trkpt><trkpt lat="46.08216544082537" lon="11.954009550939354"><ele>413.6666666666667</ele><time>2026-04-25T16:20:14.999Z</time></trkpt><trkpt lat="46.0820873969756" lon="11.954039869430186"><ele>414.0</ele><time>2026-04-25T16:20:15.999Z</time></trkpt><trkpt lat="46.08201947740894" lon="11.954080590856135"><ele>414.00000000000006</ele><time>2026-04-25T16:20:16.999Z</time></trkpt><trkpt lat="46.08194493670682" lon="11.954103728973978"><ele>414.0</ele><time>2026-04-25T16:20:17.999Z</time></trkpt><trkpt lat="46.08187531401276" lon="11.95413832563774"><ele>414.0</ele><time>2026-04-25T16:20:18.999Z</time></trkpt><trkpt lat="46.08180808381841" lon="11.954181024883828"><ele>414.0</ele><time>2026-04-25T16:20:19.999Z</time></trkpt><trkpt lat="46.0817429403237" lon="11.954155719799237"><ele>414.0</ele><time>2026-04-25T16:20:20.999Z</time></trkpt><trkpt lat="46.08167826560358" lon="11.954095238686477"><ele>414.00000000000006</ele><time>2026-04-25T16:20:21.999Z</time></trkpt><trkpt lat="46.08161730116843" lon="11.954027347538986"><ele>414.0</ele><time>2026-04-25T16:20:22.999Z</time></trkpt><trkpt lat="46.08154138735545" lon="11.95397129229542"><ele>416.79999999999995</ele><time>2026-04-25T16:20:24Z</time></trkpt><trkpt lat="46.0814860413383" lon="11.953924479169455"><ele>419.59999999999997</ele><time>2026-04-25T16:20:25Z</time></trkpt><trkpt lat="46.08135176478276" lon="11.953946631659136"><ele>422.4</ele><time>2026-04-25T16:20:27Z</time></trkpt><trkpt lat="46.08125972256042" lon="11.953990697093005"><ele>425.2</ele><time>2026-04-25T16:20:28Z</time></trkpt><trkpt lat="46.08116556963067" lon="11.954001921340353"><ele>428.0</ele><time>2026-04-25T16:20:29Z</time></trkpt><trkpt lat="46.08108909635327" lon="11.95404237095146"><ele>427.99999999999994</ele><time>2026-04-25T16:20:30Z</time></trkpt><trkpt lat="46.081024274924175" lon="11.95402944665272"><ele>428.0</ele><time>2026-04-25T16:20:31Z</time></trkpt><trkpt lat="46.08096197999879" lon="11.953994740613155"><ele>428.0</ele><time>2026-04-25T16:20:32Z</time></trkpt><trkpt lat="46.080896957631175" lon="11.953936104291978"><ele>428.0</ele><time>2026-04-25T16:20:33Z</time></trkpt><trkpt lat="46.08083830526812" lon="11.953849647445558"><ele>427.99999999999994</ele><time>2026-04-25T16:20:34Z</time></trkpt><trkpt lat="46.08080622044098" lon="11.953737626074634"><ele>428.0</ele><time>2026-04-25T16:20:35Z</time></trkpt><trkpt lat="46.08075196724879" lon="11.9536559247317"><ele>428.49999999999994</ele><time>2026-04-25T16:20:36Z</time></trkpt><trkpt lat="46.08070362889113" lon="11.953583131383398"><ele>429.0</ele><time>2026-04-25T16:20:37Z</time></trkpt><trkpt lat="46.080639574801445" lon="11.953512782201061"><ele>429.5</ele><time>2026-04-25T16:20:38Z</time></trkpt><trkpt lat="46.08057988467679" lon="11.953427079109105"><ele>430.0</ele><time>2026-04-25T16:20:39Z</time></trkpt><trkpt lat="46.080519232414545" lon="11.953368654887631"><ele>430.49999999999994</ele><time>2026-04-25T16:20:40Z</time></trkpt><trkpt lat="46.08045422817352" lon="11.953339344907292"><ele>431.0</ele><time>2026-04-25T16:20:41Z</time></trkpt><trkpt lat="46.08036126230835" lon="11.953317403173266"><ele>431.0</ele><time>2026-04-25T16:20:42Z</time></trkpt><trkpt lat="46.08026062849187" lon="11.95329903720791"><ele>431.0</ele><time>2026-04-25T16:20:43Z</time></trkpt><trkpt lat="46.08016143053965" lon="11.953281188628539"><ele>431.0</ele><time>2026-04-25T16:20:44Z</time></trkpt><trkpt lat="46.08006825497689" lon="11.953286130135758"><ele>431.0</ele><time>2026-04-25T16:20:45Z</time></trkpt><trkpt lat="46.079985996135214" lon="11.953244221134355"><ele>431.0</ele><time>2026-04-25T16:20:46Z</time></trkpt><trkpt lat="46.07986814524632" lon="11.953231144240245"><ele>432.6</ele><time>2026-04-25T16:20:48Z</time></trkpt><trkpt lat="46.079737591848904" lon="11.953217397559927"><ele>434.20000000000005</ele><time>2026-04-25T16:20:50Z</time></trkpt><trkpt lat="46.07960320108123" lon="11.953189230823435"><ele>435.79999999999995</ele><time>2026-04-25T16:20:52Z</time></trkpt><trkpt lat="46.079522198058065" lon="11.953178093554369"><ele>437.4</ele><time>2026-04-25T16:20:53Z</time></trkpt><trkpt lat="46.079440165894134" lon="11.953162881707323"><ele>439.0</ele><time>2026-04-25T16:20:54Z</time></trkpt><trkpt lat="46.07935374868968" lon="11.9531276306081"><ele>439.0</ele><time>2026-04-25T16:20:55Z</time></trkpt><trkpt lat="46.079259108017695" lon="11.953115108824115"><ele>439.0</ele><time>2026-04-25T16:20:56Z</time></trkpt><trkpt lat="46.079164999477854" lon="11.953088619164486"><ele>439.0</ele><time>2026-04-25T16:20:57Z</time></trkpt><trkpt lat="46.07906428187943" lon="11.953061667290592"><ele>439.0</ele><time>2026-04-25T16:20:58Z</time></trkpt><trkpt lat="46.07897660117868" lon="11.953036336397375"><ele>439.0</ele><time>2026-04-25T16:20:59Z</time></trkpt><trkpt lat="46.07890916380582" lon="11.953012711334207"><ele>444.4</ele><time>2026-04-25T16:21:00Z</time></trkpt><trkpt lat="46.078840054800345" lon="11.95297525543069"><ele>449.79999999999995</ele><time>2026-04-25T16:21:01Z</time></trkpt><trkpt lat="46.078761117474116" lon="11.95294884264563"><ele>455.20000000000005</ele><time>2026-04-25T16:21:02Z</time></trkpt><trkpt lat="46.07865687877718" lon="11.952931114864692"><ele>460.6</ele><time>2026-04-25T16:21:04Z</time></trkpt><trkpt lat="46.07852974579796" lon="11.952931307985809"><ele>466.0</ele><time>2026-04-25T16:21:06Z</time></trkpt><trkpt lat="46.07845399140103" lon="11.952948200660394"><ele>466.0</ele><time>2026-04-25T16:21:07Z</time></trkpt><trkpt lat="46.07832558838792" lon="11.952935741525568"><ele>466.0</ele><time>2026-04-25T16:21:09Z</time></trkpt><trkpt lat="46.07824349077685" lon="11.952894933276909"><ele>466.0</ele><time>2026-04-25T16:21:10Z</time></trkpt><trkpt lat="46.07817854472811" lon="11.952839131174837"><ele>466.0</ele><time>2026-04-25T16:21:11Z</time></trkpt><trkpt lat="46.07809833174336" lon="11.952794289134204"><ele>466.0</ele><time>2026-04-25T16:21:12Z</time></trkpt><trkpt lat="46.078023423837905" lon="11.952769606779581"><ele>466.1666666666667</ele><time>2026-04-25T16:21:13Z</time></trkpt><trkpt lat="46.07795849727025" lon="11.95272079626357"><ele>466.33333333333337</ele><time>2026-04-25T16:21:14Z</time></trkpt><trkpt lat="46.07789496549065" lon="11.952629673973746"><ele>466.5</ele><time>2026-04-25T16:21:15Z</time></trkpt><trkpt lat="46.077833184807595" lon="11.952533977868594"><ele>466.66666666666663</ele><time>2026-04-25T16:21:16Z</time></trkpt><trkpt lat="46.07776646955543" lon="11.952449769822342"><ele>466.8333333333333</ele><time>2026-04-25T16:21:17Z</time></trkpt><trkpt lat="46.07771844566716" lon="11.952387868416373"><ele>467.0</ele><time>2026-04-25T16:21:18Z</time></trkpt><trkpt lat="46.07767656597547" lon="11.952284385002374"><ele>465.66666666666663</ele><time>2026-04-25T16:21:20Z</time></trkpt><trkpt lat="46.077632490465824" lon="11.952212770643813"><ele>464.3333333333333</ele><time>2026-04-25T16:22:07.999Z</time></trkpt><trkpt lat="46.07758133158522" lon="11.952123656519438"><ele>463.0</ele><time>2026-04-25T16:22:08.999Z</time></trkpt><trkpt lat="46.077536851244005" lon="11.95203975339693"><ele>461.66666666666663</ele><time>2026-04-25T16:22:09.999Z</time></trkpt><trkpt lat="46.07748610314595" lon="11.951944670584757"><ele>460.3333333333333</ele><time>2026-04-25T16:22:10.999Z</time></trkpt><trkpt lat="46.077433121659226" lon="11.951861521984776"><ele>459.0</ele><time>2026-04-25T16:22:11.999Z</time></trkpt><trkpt lat="46.077365123144695" lon="11.951777852853757"><ele>457.4</ele><time>2026-04-25T16:22:12.999Z</time></trkpt><trkpt lat="46.077251720474365" lon="11.951703173458096"><ele>455.79999999999995</ele><time>2026-04-25T16:22:13.999Z</time></trkpt><trkpt lat="46.077133433946166" lon="11.951631529807106"><ele>454.20000000000005</ele><time>2026-04-25T16:22:14.999Z</time></trkpt><trkpt lat="46.07704558636557" lon="11.951581003497134"><ele>452.6</ele><time>2026-04-25T16:22:15.999Z</time></trkpt><trkpt lat="46.076980128367374" lon="11.951546890753523"><ele>451.0</ele><time>2026-04-25T16:22:16.999Z</time></trkpt><trkpt lat="46.07687483211586" lon="11.9515099677106"><ele>451.0</ele><time>2026-04-25T16:22:17.999Z</time></trkpt><trkpt lat="46.07677612134131" lon="11.951510415135417"><ele>451.0</ele><time>2026-04-25T16:22:18.999Z</time></trkpt><trkpt lat="46.076685372804576" lon="11.95149811386715"><ele>451.0</ele><time>2026-04-25T16:22:19.999Z</time></trkpt><trkpt lat="46.07661111746151" lon="11.951467094307397"><ele>451.0</ele><time>2026-04-25T16:22:20.999Z</time></trkpt><trkpt lat="46.07653572120503" lon="11.95143399093884"><ele>451.0</ele><time>2026-04-25T16:22:21.999Z</time></trkpt><trkpt lat="46.076431266668585" lon="11.951376399065792"><ele>449.4</ele><time>2026-04-25T16:22:22.999Z</time></trkpt><trkpt lat="46.07634019374655" lon="11.951312387052232"><ele>447.8</ele><time>2026-04-25T16:22:23.999Z</time></trkpt><trkpt lat="46.0762654972994" lon="11.951254524052299"><ele>446.19999999999993</ele><time>2026-04-25T16:22:24.999Z</time></trkpt><trkpt lat="46.07618140533081" lon="11.951184418246575"><ele>444.59999999999997</ele><time>2026-04-25T16:22:25.999Z</time></trkpt><trkpt lat="46.07609292120339" lon="11.951097311879872"><ele>443.0</ele><time>2026-04-25T16:22:26.999Z</time></trkpt><trkpt lat="46.07602677167325" lon="11.951023225894037"><ele>443.0</ele><time>2026-04-25T16:22:27.999Z</time></trkpt><trkpt lat="46.075965143089476" lon="11.950947595004095"><ele>442.99999999999994</ele><time>2026-04-25T16:22:30Z</time></trkpt><trkpt lat="46.075839411457984" lon="11.9510680977"><ele>442.99999999999994</ele><time>2026-04-25T16:22:33Z</time></trkpt><trkpt lat="46.07580621474604" lon="11.951164613776646"><ele>443.0</ele><time>2026-04-25T16:22:34Z</time></trkpt><trkpt lat="46.075762509601184" lon="11.95125701119631"><ele>443.0</ele><time>2026-04-25T16:22:35Z</time></trkpt><trkpt lat="46.07570953110621" lon="11.951317970145807"><ele>441.66666666666663</ele><time>2026-04-25T16:22:36Z</time></trkpt><trkpt lat="46.075651407584594" lon="11.95136524985363"><ele>440.3333333333333</ele><time>2026-04-25T16:22:37Z</time></trkpt><trkpt lat="46.07556475153732" lon="11.95140533465614"><ele>439.0</ele><time>2026-04-25T16:22:38Z</time></trkpt><trkpt lat="46.075458130972535" lon="11.951440687208294"><ele>437.66666666666663</ele><time>2026-04-25T16:22:39Z</time></trkpt><trkpt lat="46.07535982433406" lon="11.95146396663018"><ele>436.3333333333333</ele><time>2026-04-25T16:22:40Z</time></trkpt><trkpt lat="46.075281727659984" lon="11.951475490599385"><ele>435.0</ele><time>2026-04-25T16:22:41Z</time></trkpt><trkpt lat="46.075194419469724" lon="11.951500944817374"><ele>435.0</ele><time>2026-04-25T16:22:42Z</time></trkpt><trkpt lat="46.07511278250198" lon="11.951524745597071"><ele>435.0</ele><time>2026-04-25T16:22:43Z</time></trkpt><trkpt lat="46.075029116718326" lon="11.951549137879882"><ele>435.0</ele><time>2026-04-25T16:22:44Z</time></trkpt><trkpt lat="46.07495168839648" lon="11.951571779090544"><ele>435.0</ele><time>2026-04-25T16:22:45Z</time></trkpt><trkpt lat="46.074873797270925" lon="11.951594824941083"><ele>435.0</ele><time>2026-04-25T16:22:46Z</time></trkpt><trkpt lat="46.074798759681144" lon="11.951617026491395"><ele>435.0</ele><time>2026-04-25T16:22:47Z</time></trkpt><trkpt lat="46.07472946422099" lon="11.951637529099886"><ele>433.1666666666667</ele><time>2026-04-25T16:22:48Z</time></trkpt><trkpt lat="46.074627151968365" lon="11.951690631471509"><ele>431.33333333333337</ele><time>2026-04-25T16:22:50Z</time></trkpt><trkpt lat="46.07455611855928" lon="11.951710294049969"><ele>429.5</ele><time>2026-04-25T16:22:52Z</time></trkpt><trkpt lat="46.07447446666463" lon="11.951664947490663"><ele>427.6666666666667</ele><time>2026-04-25T16:22:56Z</time></trkpt><trkpt lat="46.074436418826004" lon="11.951574342389655"><ele>425.83333333333337</ele><time>2026-04-25T16:22:57Z</time></trkpt><trkpt lat="46.07441931145362" lon="11.95143589134803"><ele>424.0</ele><time>2026-04-25T16:22:58Z</time></trkpt><trkpt lat="46.07438232919213" lon="11.951310247907152"><ele>424.0</ele><time>2026-04-25T16:22:59Z</time></trkpt><trkpt lat="46.074333506862004" lon="11.951132574041758"><ele>424.0</ele><time>2026-04-25T16:23:00Z</time></trkpt><trkpt lat="46.07429365779518" lon="11.950968225630605"><ele>424.0</ele><time>2026-04-25T16:23:01Z</time></trkpt><trkpt lat="46.074250017442274" lon="11.950817568605606"><ele>424.0</ele><time>2026-04-25T16:23:02Z</time></trkpt><trkpt lat="46.0742161863668" lon="11.950666641095038"><ele>424.2</ele><time>2026-04-25T16:23:03Z</time></trkpt><trkpt lat="46.07419022050905" lon="11.950517800920935"><ele>424.4</ele><time>2026-04-25T16:23:04Z</time></trkpt><trkpt lat="46.0741366383082" lon="11.95038168860397"><ele>424.6</ele><time>2026-04-25T16:23:05Z</time></trkpt><trkpt lat="46.074092392698994" lon="11.950219993656404"><ele>424.8</ele><time>2026-04-25T16:23:06Z</time></trkpt><trkpt lat="46.07405411914697" lon="11.950078073972056"><ele>425.0</ele><time>2026-04-25T16:23:07Z</time></trkpt><trkpt lat="46.07399896804129" lon="11.949887921746368"><ele>424.0</ele><time>2026-04-25T16:23:08Z</time></trkpt><trkpt lat="46.07395413676436" lon="11.949760230249211"><ele>423.0</ele><time>2026-04-25T16:23:09Z</time></trkpt><trkpt lat="46.07391223799602" lon="11.949604460383675"><ele>422.0</ele><time>2026-04-25T16:23:10Z</time></trkpt><trkpt lat="46.07387619706081" lon="11.949455752916354"><ele>421.0</ele><time>2026-04-25T16:23:11Z</time></trkpt><trkpt lat="46.073841210717966" lon="11.949310128255467"><ele>420.0</ele><time>2026-04-25T16:23:12Z</time></trkpt><trkpt lat="46.07379856260163" lon="11.949141229354199"><ele>420.0</ele><time>2026-04-25T16:23:13Z</time></trkpt><trkpt lat="46.07375439845142" lon="11.94896000155852"><ele>420.0</ele><time>2026-04-25T16:23:14Z</time></trkpt><trkpt lat="46.07370870164289" lon="11.94880312201698"><ele>420.0</ele><time>2026-04-25T16:23:15Z</time></trkpt><trkpt lat="46.073670159106925" lon="11.948656549467982"><ele>420.0</ele><time>2026-04-25T16:23:16Z</time></trkpt><trkpt lat="46.07363631663025" lon="11.948518149208546"><ele>420.0</ele><time>2026-04-25T16:23:17Z</time></trkpt><trkpt lat="46.0735801636984" lon="11.948391627856164"><ele>420.0</ele><time>2026-04-25T16:23:18Z</time></trkpt><trkpt lat="46.07353168380156" lon="11.948258188928055"><ele>420.0</ele><time>2026-04-25T16:23:19Z</time></trkpt><trkpt lat="46.07345852558492" lon="11.948134028410118"><ele>420.0</ele><time>2026-04-25T16:23:20Z</time></trkpt><trkpt lat="46.07336128545124" lon="11.948012004901319"><ele>418.75</ele><time>2026-04-25T16:23:21Z</time></trkpt><trkpt lat="46.0732578631697" lon="11.947918585278742"><ele>417.5</ele><time>2026-04-25T16:23:22Z</time></trkpt><trkpt lat="46.07313792825985" lon="11.947846581548678"><ele>416.25</ele><time>2026-04-25T16:23:23Z</time></trkpt><trkpt lat="46.07300121538901" lon="11.947785237452253"><ele>415.0</ele><time>2026-04-25T16:23:24Z</time></trkpt><trkpt lat="46.07284979014465" lon="11.94776827663903"><ele>415.0</ele><time>2026-04-25T16:23:25Z</time></trkpt><trkpt lat="46.072700046380675" lon="11.947731362955638"><ele>415.0</ele><time>2026-04-25T16:23:26Z</time></trkpt><trkpt lat="46.072560126648185" lon="11.947694227215205"><ele>415.0</ele><time>2026-04-25T16:23:27Z</time></trkpt><trkpt lat="46.0724298763583" lon="11.947673001466317"><ele>415.0</ele><time>2026-04-25T16:23:28Z</time></trkpt><trkpt lat="46.0723118488914" lon="11.947637872504103"><ele>414.75</ele><time>2026-04-25T16:23:29Z</time></trkpt><trkpt lat="46.07219088611214" lon="11.947602894721397"><ele>414.5</ele><time>2026-04-25T16:23:30Z</time></trkpt><trkpt lat="46.07207752566065" lon="11.947573300466493"><ele>414.25</ele><time>2026-04-25T16:23:31Z</time></trkpt><trkpt lat="46.07196896010829" lon="11.947533122731539"><ele>414.0</ele><time>2026-04-25T16:23:32Z</time></trkpt><trkpt lat="46.07185013615009" lon="11.947466533673913"><ele>414.0</ele><time>2026-04-25T16:23:33Z</time></trkpt><trkpt lat="46.0717321720764" lon="11.947379277922828"><ele>414.0</ele><time>2026-04-25T16:23:34Z</time></trkpt><trkpt lat="46.071623065276206" lon="11.947258299608249"><ele>414.0</ele><time>2026-04-25T16:23:35Z</time></trkpt><trkpt lat="46.071538405753024" lon="11.94712809474378"><ele>414.0</ele><time>2026-04-25T16:23:36Z</time></trkpt><trkpt lat="46.0714571228348" lon="11.946984369950545"><ele>412.0</ele><time>2026-04-25T16:23:37Z</time></trkpt><trkpt lat="46.07139975143581" lon="11.946788740592252"><ele>410.0</ele><time>2026-04-25T16:23:38Z</time></trkpt><trkpt lat="46.07132939066855" lon="11.94660311911639"><ele>408.0</ele><time>2026-04-25T16:23:39Z</time></trkpt><trkpt lat="46.0712729934325" lon="11.946423057326538"><ele>406.0</ele><time>2026-04-25T16:23:40Z</time></trkpt><trkpt lat="46.071215268827466" lon="11.946263771167116"><ele>406.0</ele><time>2026-04-25T16:23:41Z</time></trkpt><trkpt lat="46.07115889746874" lon="11.946095609206933"><ele>406.0</ele><time>2026-04-25T16:23:42Z</time></trkpt><trkpt lat="46.07109877295452" lon="11.94593362434034"><ele>406.0</ele><time>2026-04-25T16:23:43Z</time></trkpt><trkpt lat="46.07104140702658" lon="11.94576876184798"><ele>406.0</ele><time>2026-04-25T16:23:44Z</time></trkpt><trkpt lat="46.07098529566528" lon="11.945594543547688"><ele>406.5</ele><time>2026-04-25T16:23:45Z</time></trkpt><trkpt lat="46.07092105474283" lon="11.94541595878862"><ele>407.0</ele><time>2026-04-25T16:23:46Z</time></trkpt><trkpt lat="46.070856894603175" lon="11.94523254555585"><ele>407.5</ele><time>2026-04-25T16:23:47Z</time></trkpt><trkpt lat="46.07078628957108" lon="11.945039220328843"><ele>408.0</ele><time>2026-04-25T16:23:48Z</time></trkpt><trkpt lat="46.070718588552026" lon="11.944876777012336"><ele>406.5</ele><time>2026-04-25T16:23:49Z</time></trkpt><trkpt lat="46.070642312623384" lon="11.944707759490042"><ele>405.0</ele><time>2026-04-25T16:23:50Z</time></trkpt><trkpt lat="46.07055197451961" lon="11.944531007674202"><ele>403.5</ele><time>2026-04-25T16:23:51Z</time></trkpt><trkpt lat="46.07045828386133" lon="11.944352688281297"><ele>402.0</ele><time>2026-04-25T16:23:52Z</time></trkpt><trkpt lat="46.07036436563128" lon="11.944189146259927"><ele>401.75</ele><time>2026-04-25T16:23:53Z</time></trkpt><trkpt lat="46.07026408309524" lon="11.94403521533336"><ele>401.5</ele><time>2026-04-25T16:23:54Z</time></trkpt><trkpt lat="46.07016292314339" lon="11.943876095935428"><ele>401.25</ele><time>2026-04-25T16:23:54.999Z</time></trkpt><trkpt lat="46.070066376335504" lon="11.94371921909129"><ele>401.0</ele><time>2026-04-25T16:23:55.999Z</time></trkpt><trkpt lat="46.06997895897264" lon="11.9435802893595"><ele>400.3333333333333</ele><time>2026-04-25T16:23:56.999Z</time></trkpt><trkpt lat="46.06985336973302" lon="11.943431920709145"><ele>399.66666666666663</ele><time>2026-04-25T16:23:57.999Z</time></trkpt><trkpt lat="46.069729314949655" lon="11.9432910621359"><ele>399.0</ele><time>2026-04-25T16:23:58.999Z</time></trkpt><trkpt lat="46.06960730532551" lon="11.943158338162462"><ele>399.0</ele><time>2026-04-25T16:23:59.999Z</time></trkpt><trkpt lat="46.069475438692955" lon="11.943041354263043"><ele>399.0</ele><time>2026-04-25T16:24:00.999Z</time></trkpt><trkpt lat="46.06934064631123" lon="11.942919713441935"><ele>399.0</ele><time>2026-04-25T16:24:01.999Z</time></trkpt><trkpt lat="46.06921133984366" lon="11.942801139826933"><ele>397.0</ele><time>2026-04-25T16:24:02.999Z</time></trkpt><trkpt lat="46.06907362978788" lon="11.94268285631472"><ele>395.0</ele><time>2026-04-25T16:24:03.999Z</time></trkpt><trkpt lat="46.06891900054916" lon="11.94258924146788"><ele>393.0</ele><time>2026-04-25T16:24:04.999Z</time></trkpt><trkpt lat="46.06877703991831" lon="11.94249576084542"><ele>393.0</ele><time>2026-04-25T16:24:05.999Z</time></trkpt><trkpt lat="46.06864098607369" lon="11.942404642980689"><ele>393.0</ele><time>2026-04-25T16:24:06.999Z</time></trkpt><trkpt lat="46.06849039240997" lon="11.942318163270377"><ele>393.0</ele><time>2026-04-25T16:24:07.999Z</time></trkpt><trkpt lat="46.06833274856143" lon="11.942252957137539"><ele>391.33333333333337</ele><time>2026-04-25T16:24:08.999Z</time></trkpt><trkpt lat="46.06817092724322" lon="11.942188272899925"><ele>389.6666666666667</ele><time>2026-04-25T16:24:09.999Z</time></trkpt><trkpt lat="46.06800451422241" lon="11.942116285604886"><ele>388.0</ele><time>2026-04-25T16:24:10.999Z</time></trkpt><trkpt lat="46.067852718041124" lon="11.94205495319062"><ele>388.0</ele><time>2026-04-25T16:24:11.999Z</time></trkpt><trkpt lat="46.067714798826195" lon="11.941980439332582"><ele>388.0</ele><time>2026-04-25T16:24:12.999Z</time></trkpt><trkpt lat="46.067550930286814" lon="11.941929213870221"><ele>388.0</ele><time>2026-04-25T16:24:13.999Z</time></trkpt><trkpt lat="46.067398164310575" lon="11.94186179860344"><ele>387.75</ele><time>2026-04-25T16:24:14.999Z</time></trkpt><trkpt lat="46.0672640473555" lon="11.941803324872915"><ele>387.5</ele><time>2026-04-25T16:24:15.999Z</time></trkpt><trkpt lat="46.06714593887874" lon="11.941747314205735"><ele>387.25</ele><time>2026-04-25T16:24:16.999Z</time></trkpt><trkpt lat="46.06701516829331" lon="11.941697434645283"><ele>387.0</ele><time>2026-04-25T16:24:17.999Z</time></trkpt><trkpt lat="46.06687423280468" lon="11.941645375560109"><ele>387.0</ele><time>2026-04-25T16:24:18.999Z</time></trkpt><trkpt lat="46.06672291135413" lon="11.941609696456535"><ele>387.0</ele><time>2026-04-25T16:24:19.999Z</time></trkpt><trkpt lat="46.066582788294234" lon="11.941574890329717"><ele>387.0</ele><time>2026-04-25T16:24:20.999Z</time></trkpt><trkpt lat="46.06643632128931" lon="11.941553714245316"><ele>387.0</ele><time>2026-04-25T16:24:21.999Z</time></trkpt><trkpt lat="46.06627987497105" lon="11.941520761272677"><ele>385.0</ele><time>2026-04-25T16:24:22.999Z</time></trkpt><trkpt lat="46.066129359754875" lon="11.941518128647116"><ele>383.0</ele><time>2026-04-25T16:24:23.999Z</time></trkpt><trkpt lat="46.065985054318844" lon="11.94149728057876"><ele>381.0</ele><time>2026-04-25T16:24:24.999Z</time></trkpt><trkpt lat="46.06584871962072" lon="11.941481669622508"><ele>379.0</ele><time>2026-04-25T16:24:25.999Z</time></trkpt><trkpt lat="46.06571495026098" lon="11.941462157730626"><ele>376.25</ele><time>2026-04-25T16:24:26.999Z</time></trkpt><trkpt lat="46.06557274851684" lon="11.941444715855564"><ele>373.5</ele><time>2026-04-25T16:24:27.999Z</time></trkpt><trkpt lat="46.065421762891766" lon="11.941433237644436"><ele>370.75</ele><time>2026-04-25T16:24:28.999Z</time></trkpt><trkpt lat="46.06527163392665" lon="11.94141173472057"><ele>368.0</ele><time>2026-04-25T16:24:29.999Z</time></trkpt><trkpt lat="46.065142528988865" lon="11.941397651384216"><ele>368.0</ele><time>2026-04-25T16:24:30.999Z</time></trkpt><trkpt lat="46.065004248673915" lon="11.94138500226405"><ele>368.0</ele><time>2026-04-25T16:24:31.999Z</time></trkpt><trkpt lat="46.06485704772885" lon="11.941369438140178"><ele>368.0</ele><time>2026-04-25T16:24:32.999Z</time></trkpt><trkpt lat="46.06472772560021" lon="11.941354845771272"><ele>368.0</ele><time>2026-04-25T16:24:33.999Z</time></trkpt><trkpt lat="46.06459989612916" lon="11.941332752518216"><ele>366.5</ele><time>2026-04-25T16:24:34.999Z</time></trkpt><trkpt lat="46.06447529567378" lon="11.94131904207318"><ele>365.0</ele><time>2026-04-25T16:24:36Z</time></trkpt><trkpt lat="46.06434283355963" lon="11.941304587595354"><ele>363.5</ele><time>2026-04-25T16:24:37Z</time></trkpt><trkpt lat="46.064210395602316" lon="11.941273834792309"><ele>362.0</ele><time>2026-04-25T16:24:38Z</time></trkpt><trkpt lat="46.06407882024667" lon="11.941230631389944"><ele>360.75</ele><time>2026-04-25T16:24:39Z</time></trkpt><trkpt lat="46.0639559180822" lon="11.941173443261972"><ele>359.5</ele><time>2026-04-25T16:24:40Z</time></trkpt><trkpt lat="46.06382000809609" lon="11.941091637782433"><ele>358.25</ele><time>2026-04-25T16:24:41Z</time></trkpt><trkpt lat="46.06370684670725" lon="11.940986985693716"><ele>357.0</ele><time>2026-04-25T16:24:42Z</time></trkpt><trkpt lat="46.06359777237902" lon="11.940888734459106"><ele>357.25</ele><time>2026-04-25T16:24:43Z</time></trkpt><trkpt lat="46.06349008035813" lon="11.940762420183592"><ele>357.5</ele><time>2026-04-25T16:24:44Z</time></trkpt><trkpt lat="46.063394254215304" lon="11.940582283976283"><ele>357.75</ele><time>2026-04-25T16:24:45Z</time></trkpt><trkpt lat="46.06330398965473" lon="11.940428044118741"><ele>358.0</ele><time>2026-04-25T16:24:46Z</time></trkpt><trkpt lat="46.06325141460671" lon="11.940283179349992"><ele>357.0</ele><time>2026-04-25T16:24:47Z</time></trkpt><trkpt lat="46.06317674014179" lon="11.940118898350411"><ele>356.0</ele><time>2026-04-25T16:24:48Z</time></trkpt><trkpt lat="46.06313318422148" lon="11.939935520124271"><ele>355.0</ele><time>2026-04-25T16:24:49Z</time></trkpt><trkpt lat="46.063112639650484" lon="11.939750622663684"><ele>354.0</ele><time>2026-04-25T16:24:50Z</time></trkpt><trkpt lat="46.0630923771448" lon="11.939561213050624"><ele>352.5</ele><time>2026-04-25T16:24:51Z</time></trkpt><trkpt lat="46.06307995267579" lon="11.939371832808206"><ele>351.0</ele><time>2026-04-25T16:24:52Z</time></trkpt><trkpt lat="46.06308434087335" lon="11.939187055478698"><ele>349.5</ele><time>2026-04-25T16:24:53Z</time></trkpt><trkpt lat="46.06310536382118" lon="11.938985758893278"><ele>348.0</ele><time>2026-04-25T16:24:54Z</time></trkpt><trkpt lat="46.063136562773124" lon="11.938816477035548"><ele>348.25</ele><time>2026-04-25T16:24:55Z</time></trkpt><trkpt lat="46.06318053625842" lon="11.938635566274826"><ele>348.5</ele><time>2026-04-25T16:24:56Z</time></trkpt><trkpt lat="46.063239071890585" lon="11.938452519631772"><ele>348.75</ele><time>2026-04-25T16:24:57Z</time></trkpt><trkpt lat="46.06332295951955" lon="11.938248841565938"><ele>349.0</ele><time>2026-04-25T16:24:58Z</time></trkpt><trkpt lat="46.06338871095491" lon="11.938088221402385"><ele>349.0</ele><time>2026-04-25T16:24:59Z</time></trkpt><trkpt lat="46.06344809026771" lon="11.937912482077346"><ele>349.0</ele><time>2026-04-25T16:25:00Z</time></trkpt><trkpt lat="46.063549105238046" lon="11.93771478350251"><ele>349.0</ele><time>2026-04-25T16:25:01Z</time></trkpt><trkpt lat="46.06362657284121" lon="11.937509083774296"><ele>346.25</ele><time>2026-04-25T16:25:02Z</time></trkpt><trkpt lat="46.06371247587758" lon="11.93731286556481"><ele>343.5</ele><time>2026-04-25T16:25:03Z</time></trkpt><trkpt lat="46.06379973219071" lon="11.937131991653908"><ele>340.75</ele><time>2026-04-25T16:25:04Z</time></trkpt><trkpt lat="46.06383825578128" lon="11.93694858621255"><ele>338.0</ele><time>2026-04-25T16:25:05Z</time></trkpt><trkpt lat="46.06392172238463" lon="11.936740281396153"><ele>336.33333333333337</ele><time>2026-04-25T16:25:06Z</time></trkpt><trkpt lat="46.06397183556713" lon="11.936523742457943"><ele>334.6666666666667</ele><time>2026-04-25T16:25:07Z</time></trkpt><trkpt lat="46.064044947920486" lon="11.93627017523832"><ele>333.0</ele><time>2026-04-25T16:25:08Z</time></trkpt><trkpt lat="46.064068623021434" lon="11.93609927678449"><ele>337.6666666666667</ele><time>2026-04-25T16:25:09Z</time></trkpt><trkpt lat="46.06412767842945" lon="11.935893833289816"><ele>342.33333333333337</ele><time>2026-04-25T16:25:10Z</time></trkpt><trkpt lat="46.06416652623491" lon="11.935676082890254"><ele>347.0</ele><time>2026-04-25T16:25:11Z</time></trkpt><trkpt lat="46.06421135937806" lon="11.935462209561225"><ele>347.0</ele><time>2026-04-25T16:25:12Z</time></trkpt><trkpt lat="46.06424858417309" lon="11.935259147519991"><ele>347.0</ele><time>2026-04-25T16:25:13Z</time></trkpt><trkpt lat="46.064282608334196" lon="11.935051547359455"><ele>347.0</ele><time>2026-04-25T16:25:14Z</time></trkpt><trkpt lat="46.064317094980424" lon="11.934857294659253"><ele>347.0</ele><time>2026-04-25T16:25:15Z</time></trkpt><trkpt lat="46.06435591368101" lon="11.934670570373115"><ele>345.0</ele><time>2026-04-25T16:25:16Z</time></trkpt><trkpt lat="46.06439176480571" lon="11.934491316123115"><ele>343.0</ele><time>2026-04-25T16:25:17Z</time></trkpt><trkpt lat="46.06442413454229" lon="11.934321969757168"><ele>341.0</ele><time>2026-04-25T16:25:18Z</time></trkpt><trkpt lat="46.064448767366066" lon="11.934148591397163"><ele>339.0</ele><time>2026-04-25T16:25:19Z</time></trkpt><trkpt lat="46.06446733237953" lon="11.933982212318732"><ele>337.75</ele><time>2026-04-25T16:25:20Z</time></trkpt><trkpt lat="46.0644703459904" lon="11.933811457429428"><ele>336.5</ele><time>2026-04-25T16:25:21Z</time></trkpt><trkpt lat="46.064459916346905" lon="11.933634752769013"><ele>335.25</ele><time>2026-04-25T16:25:22Z</time></trkpt><trkpt lat="46.06443076590137" lon="11.933460077733617"><ele>334.0</ele><time>2026-04-25T16:25:23Z</time></trkpt><trkpt lat="46.06438114464968" lon="11.93328473175021"><ele>334.0</ele><time>2026-04-25T16:25:24Z</time></trkpt><trkpt lat="46.06430932866958" lon="11.933108657089255"><ele>334.0</ele><time>2026-04-25T16:25:25Z</time></trkpt><trkpt lat="46.06421518350577" lon="11.932907665804946"><ele>334.0</ele><time>2026-04-25T16:25:26Z</time></trkpt><trkpt lat="46.06411069442959" lon="11.932681902955208"><ele>335.0</ele><time>2026-04-25T16:25:27Z</time></trkpt><trkpt lat="46.06402578820733" lon="11.932483960041234"><ele>336.0</ele><time>2026-04-25T16:25:28Z</time></trkpt><trkpt lat="46.063954303101205" lon="11.932318836759869"><ele>337.0</ele><time>2026-04-25T16:25:29Z</time></trkpt><trkpt lat="46.06387429741211" lon="11.93218703306991"><ele>338.0</ele><time>2026-04-25T16:25:30Z</time></trkpt><trkpt lat="46.06377155422745" lon="11.932057296709552"><ele>338.0</ele><time>2026-04-25T16:25:31Z</time></trkpt><trkpt lat="46.06364612551642" lon="11.931961335806756"><ele>338.0</ele><time>2026-04-25T16:25:32Z</time></trkpt><trkpt lat="46.06350974545503" lon="11.931890405848609"><ele>338.0</ele><time>2026-04-25T16:25:33Z</time></trkpt><trkpt lat="46.063364766616" lon="11.931853957257095"><ele>338.0</ele><time>2026-04-25T16:25:34Z</time></trkpt><trkpt lat="46.06321490584571" lon="11.931843232782958"><ele>339.0</ele><time>2026-04-25T16:25:35Z</time></trkpt><trkpt lat="46.06305076383334" lon="11.931868524448587"><ele>340.0</ele><time>2026-04-25T16:25:36Z</time></trkpt><trkpt lat="46.062881108910155" lon="11.931899788835498"><ele>341.0</ele><time>2026-04-25T16:25:37Z</time></trkpt><trkpt lat="46.062726254874825" lon="11.931935277644884"><ele>341.0</ele><time>2026-04-25T16:25:38Z</time></trkpt><trkpt lat="46.062596182596145" lon="11.931962727267612"><ele>341.0</ele><time>2026-04-25T16:25:39Z</time></trkpt><trkpt lat="46.06246890455458" lon="11.931971468624061"><ele>341.0</ele><time>2026-04-25T16:25:40Z</time></trkpt><trkpt lat="46.06232949279124" lon="11.932056399130072"><ele>341.0</ele><time>2026-04-25T16:25:41Z</time></trkpt><trkpt lat="46.062189631624854" lon="11.932168783200607"><ele>343.33333333333337</ele><time>2026-04-25T16:25:42Z</time></trkpt><trkpt lat="46.06206163234407" lon="11.932299912775818"><ele>345.6666666666667</ele><time>2026-04-25T16:25:43Z</time></trkpt><trkpt lat="46.061951248474955" lon="11.932475482084145"><ele>348.0</ele><time>2026-04-25T16:25:44Z</time></trkpt><trkpt lat="46.061842863140924" lon="11.93266816941496"><ele>348.0</ele><time>2026-04-25T16:25:45Z</time></trkpt><trkpt lat="46.06173866758205" lon="11.932847966341019"><ele>348.0</ele><time>2026-04-25T16:25:46Z</time></trkpt><trkpt lat="46.06165022648074" lon="11.932971908427692"><ele>348.0</ele><time>2026-04-25T16:25:47Z</time></trkpt><trkpt lat="46.06153881211055" lon="11.933124705698882"><ele>348.0</ele><time>2026-04-25T16:25:48Z</time></trkpt><trkpt lat="46.06143063960984" lon="11.933279989223582"><ele>351.0</ele><time>2026-04-25T16:25:49Z</time></trkpt><trkpt lat="46.06134096457035" lon="11.93342959542664"><ele>354.0</ele><time>2026-04-25T16:25:50Z</time></trkpt><trkpt lat="46.061263660586064" lon="11.93358999881921"><ele>357.0</ele><time>2026-04-25T16:25:51Z</time></trkpt><trkpt lat="46.061210400638366" lon="11.933777472632993"><ele>360.0</ele><time>2026-04-25T16:25:52Z</time></trkpt><trkpt lat="46.06117306854541" lon="11.933945054589106"><ele>360.0</ele><time>2026-04-25T16:25:53Z</time></trkpt><trkpt lat="46.06114466637396" lon="11.934094307249117"><ele>360.0</ele><time>2026-04-25T16:25:54Z</time></trkpt><trkpt lat="46.06113686773988" lon="11.93425388333491"><ele>360.0</ele><time>2026-04-25T16:25:55Z</time></trkpt><trkpt lat="46.061139119400615" lon="11.934413285550953"><ele>360.0</ele><time>2026-04-25T16:25:56Z</time></trkpt><trkpt lat="46.06111987491498" lon="11.934541228886786"><ele>360.0</ele><time>2026-04-25T16:25:57Z</time></trkpt><trkpt lat="46.06107622419915" lon="11.934680620306041"><ele>359.8</ele><time>2026-04-25T16:25:58Z</time></trkpt><trkpt lat="46.06100421161856" lon="11.93478365640262"><ele>359.6</ele><time>2026-04-25T16:25:59Z</time></trkpt><trkpt lat="46.060919060260865" lon="11.934854547782672"><ele>359.4</ele><time>2026-04-25T16:26:00Z</time></trkpt><trkpt lat="46.060820455111966" lon="11.934859280317848"><ele>359.2</ele><time>2026-04-25T16:26:01Z</time></trkpt><trkpt lat="46.060744612590675" lon="11.934836381449278"><ele>359.0</ele><time>2026-04-25T16:26:01.999Z</time></trkpt><trkpt lat="46.0606721007999" lon="11.93478669775805"><ele>359.0</ele><time>2026-04-25T16:26:02.999Z</time></trkpt><trkpt lat="46.06061092928342" lon="11.934687719794066"><ele>359.0</ele><time>2026-04-25T16:26:03.999Z</time></trkpt><trkpt lat="46.0605731709242" lon="11.934541425835336"><ele>359.0</ele><time>2026-04-25T16:26:04.999Z</time></trkpt><trkpt lat="46.06051599010049" lon="11.934374287029371"><ele>359.0</ele><time>2026-04-25T16:26:05.999Z</time></trkpt><trkpt lat="46.06041136685948" lon="11.934208250620399"><ele>359.33333333333337</ele><time>2026-04-25T16:26:06.999Z</time></trkpt><trkpt lat="46.060321878053834" lon="11.934007579512437"><ele>359.6666666666667</ele><time>2026-04-25T16:26:07.999Z</time></trkpt><trkpt lat="46.06022472078111" lon="11.933811144732074"><ele>360.0</ele><time>2026-04-25T16:26:08.999Z</time></trkpt><trkpt lat="46.06013926945423" lon="11.933644647788581"><ele>360.0</ele><time>2026-04-25T16:26:09.999Z</time></trkpt><trkpt lat="46.06007120279226" lon="11.933480966469457"><ele>360.0</ele><time>2026-04-25T16:26:10.999Z</time></trkpt><trkpt lat="46.0600203782127" lon="11.933292092933812"><ele>360.0</ele><time>2026-04-25T16:26:11.999Z</time></trkpt><trkpt lat="46.0599889788401" lon="11.933075877454733"><ele>360.0</ele><time>2026-04-25T16:26:12.999Z</time></trkpt><trkpt lat="46.05995863591455" lon="11.932859525708592"><ele>361.0</ele><time>2026-04-25T16:26:13.999Z</time></trkpt><trkpt lat="46.05995008216388" lon="11.93266363810777"><ele>362.0</ele><time>2026-04-25T16:26:14.999Z</time></trkpt><trkpt lat="46.059931074706995" lon="11.932486508633268"><ele>363.0</ele><time>2026-04-25T16:26:15.999Z</time></trkpt><trkpt lat="46.05990907287167" lon="11.932311789895525"><ele>364.0</ele><time>2026-04-25T16:26:16.999Z</time></trkpt><trkpt lat="46.05988787780459" lon="11.932176139934853"><ele>364.0</ele><time>2026-04-25T16:26:17.999Z</time></trkpt><trkpt lat="46.059890462506594" lon="11.932076944209857"><ele>364.0</ele><time>2026-04-25T16:26:18.999Z</time></trkpt><trkpt lat="46.05989773570269" lon="11.931965070211774"><ele>364.0</ele><time>2026-04-25T16:26:21.999Z</time></trkpt><trkpt lat="46.059853390229776" lon="11.931888297757158"><ele>364.0</ele><time>2026-04-25T16:26:26.999Z</time></trkpt><trkpt lat="46.059796293111354" lon="11.93183173268642"><ele>364.0</ele><time>2026-04-25T16:26:28.999Z</time></trkpt><trkpt lat="46.05970586911306" lon="11.93169618179293"><ele>364.0</ele><time>2026-04-25T16:26:30.999Z</time></trkpt><trkpt lat="46.059664093510975" lon="11.931575616894307"><ele>364.0</ele><time>2026-04-25T16:26:31.999Z</time></trkpt><trkpt lat="46.059590337566156" lon="11.931431862373636"><ele>364.0</ele><time>2026-04-25T16:26:32.999Z</time></trkpt><trkpt lat="46.05952355353285" lon="11.931267102946451"><ele>364.0</ele><time>2026-04-25T16:26:33.999Z</time></trkpt><trkpt lat="46.05946378842629" lon="11.931111644263202"><ele>364.0</ele><time>2026-04-25T16:26:34.999Z</time></trkpt><trkpt lat="46.059399046516226" lon="11.930994993981658"><ele>364.0</ele><time>2026-04-25T16:26:35.999Z</time></trkpt><trkpt lat="46.05934948668043" lon="11.93086259094125"><ele>364.0</ele><time>2026-04-25T16:26:36.999Z</time></trkpt><trkpt lat="46.059301713068514" lon="11.930778429033293"><ele>364.0</ele><time>2026-04-25T16:26:37.999Z</time></trkpt><trkpt lat="46.05925247899212" lon="11.93068721581913"><ele>364.0</ele><time>2026-04-25T16:26:38.999Z</time></trkpt><trkpt lat="46.059169672404934" lon="11.930545859351458"><ele>364.0</ele><time>2026-04-25T16:26:40.999Z</time></trkpt><trkpt lat="46.05911306747345" lon="11.930472947068544"><ele>363.5</ele><time>2026-04-25T16:26:42Z</time></trkpt><trkpt lat="46.059041920261656" lon="11.930372111892236"><ele>363.0</ele><time>2026-04-25T16:26:43Z</time></trkpt><trkpt lat="46.05896116681194" lon="11.930244633463731"><ele>362.5</ele><time>2026-04-25T16:26:44Z</time></trkpt><trkpt lat="46.0588738426334" lon="11.930112249790932"><ele>362.0</ele><time>2026-04-25T16:26:45Z</time></trkpt><trkpt lat="46.058775352595426" lon="11.929966304501166"><ele>361.6666666666667</ele><time>2026-04-25T16:26:46Z</time></trkpt><trkpt lat="46.058663423664896" lon="11.929803494617042"><ele>361.3333333333333</ele><time>2026-04-25T16:26:47Z</time></trkpt><trkpt lat="46.05854938727921" lon="11.929639605134415"><ele>361.0</ele><time>2026-04-25T16:26:48Z</time></trkpt><trkpt lat="46.05844201155937" lon="11.929483376632708"><ele>361.0</ele><time>2026-04-25T16:26:49Z</time></trkpt><trkpt lat="46.05834065239091" lon="11.929335840528122"><ele>361.0</ele><time>2026-04-25T16:26:50Z</time></trkpt><trkpt lat="46.058239387518775" lon="11.92919832233955"><ele>361.0</ele><time>2026-04-25T16:26:51Z</time></trkpt><trkpt lat="46.058141247692156" lon="11.929063874821136"><ele>361.0</ele><time>2026-04-25T16:26:52Z</time></trkpt><trkpt lat="46.05803296879137" lon="11.928901401944248"><ele>360.3333333333333</ele><time>2026-04-25T16:26:53Z</time></trkpt><trkpt lat="46.05793352550759" lon="11.928762066229961"><ele>359.6666666666667</ele><time>2026-04-25T16:26:54Z</time></trkpt><trkpt lat="46.057769629007964" lon="11.928658583660278"><ele>359.0</ele><time>2026-04-25T16:26:55Z</time></trkpt><trkpt lat="46.057636712007685" lon="11.928530229605549"><ele>359.0</ele><time>2026-04-25T16:26:56Z</time></trkpt><trkpt lat="46.05749455404384" lon="11.928399006638847"><ele>359.0</ele><time>2026-04-25T16:26:57Z</time></trkpt><trkpt lat="46.05736077580481" lon="11.928266465282341"><ele>359.0</ele><time>2026-04-25T16:26:58Z</time></trkpt><trkpt lat="46.05722856390382" lon="11.928154327294617"><ele>359.0</ele><time>2026-04-25T16:26:59Z</time></trkpt><trkpt lat="46.05711555787566" lon="11.928023954432764"><ele>359.0</ele><time>2026-04-25T16:27:00Z</time></trkpt><trkpt lat="46.05698114592958" lon="11.927924497007988"><ele>359.0</ele><time>2026-04-25T16:27:01Z</time></trkpt><trkpt lat="46.056845323679646" lon="11.927807646187599"><ele>359.0</ele><time>2026-04-25T16:27:02Z</time></trkpt><trkpt lat="46.05671919817767" lon="11.927681340961252"><ele>359.0</ele><time>2026-04-25T16:27:03Z</time></trkpt><trkpt lat="46.05658561936586" lon="11.927556880739981"><ele>359.0</ele><time>2026-04-25T16:27:04Z</time></trkpt><trkpt lat="46.05644700026847" lon="11.927425687007677"><ele>358.0</ele><time>2026-04-25T16:27:05Z</time></trkpt><trkpt lat="46.05633918518656" lon="11.927307858587158"><ele>357.0</ele><time>2026-04-25T16:27:06Z</time></trkpt><trkpt lat="46.05620289413666" lon="11.927194643281698"><ele>356.0</ele><time>2026-04-25T16:27:07Z</time></trkpt><trkpt lat="46.056073043730095" lon="11.927087549992393"><ele>355.0</ele><time>2026-04-25T16:27:08Z</time></trkpt><trkpt lat="46.05595537988345" lon="11.926999328932254"><ele>355.0</ele><time>2026-04-25T16:27:09Z</time></trkpt><trkpt lat="46.055841353286326" lon="11.926877361120338"><ele>355.0</ele><time>2026-04-25T16:27:10Z</time></trkpt><trkpt lat="46.05571304179273" lon="11.92676342481958"><ele>355.0</ele><time>2026-04-25T16:27:11Z</time></trkpt><trkpt lat="46.055593056267654" lon="11.926616614138634"><ele>354.0</ele><time>2026-04-25T16:27:12Z</time></trkpt><trkpt lat="46.05546658571491" lon="11.926465283615006"><ele>353.0</ele><time>2026-04-25T16:27:13Z</time></trkpt><trkpt lat="46.05534030568873" lon="11.926322935088246"><ele>352.0</ele><time>2026-04-25T16:27:14Z</time></trkpt><trkpt lat="46.05523072066187" lon="11.92616989091031"><ele>352.0</ele><time>2026-04-25T16:27:15Z</time></trkpt><trkpt lat="46.05512989030811" lon="11.926053629150902"><ele>352.0</ele><time>2026-04-25T16:27:16Z</time></trkpt><trkpt lat="46.05499736325802" lon="11.925905924687793"><ele>352.0</ele><time>2026-04-25T16:27:17Z</time></trkpt><trkpt lat="46.05488171827346" lon="11.92573414180851"><ele>351.0</ele><time>2026-04-25T16:27:18Z</time></trkpt><trkpt lat="46.054780553929305" lon="11.925531000267895"><ele>350.0</ele><time>2026-04-25T16:27:19Z</time></trkpt><trkpt lat="46.05466490189949" lon="11.92532486671753"><ele>349.0</ele><time>2026-04-25T16:27:20Z</time></trkpt><trkpt lat="46.054577267337066" lon="11.925141510329963"><ele>349.0</ele><time>2026-04-25T16:27:21Z</time></trkpt><trkpt lat="46.054469316674755" lon="11.924964385712604"><ele>349.0</ele><time>2026-04-25T16:27:22Z</time></trkpt><trkpt lat="46.05434207326175" lon="11.924768878886526"><ele>349.0</ele><time>2026-04-25T16:27:23Z</time></trkpt><trkpt lat="46.05424822872856" lon="11.924575410317694"><ele>349.0</ele><time>2026-04-25T16:27:24Z</time></trkpt><trkpt lat="46.054139288851836" lon="11.924380078327191"><ele>349.0</ele><time>2026-04-25T16:27:25Z</time></trkpt><trkpt lat="46.054017567270456" lon="11.924188182906601"><ele>349.0</ele><time>2026-04-25T16:27:26Z</time></trkpt><trkpt lat="46.053906735379755" lon="11.923971363390363"><ele>347.3333333333333</ele><time>2026-04-25T16:27:27Z</time></trkpt><trkpt lat="46.05380159651395" lon="11.923795688763017"><ele>345.6666666666667</ele><time>2026-04-25T16:27:28Z</time></trkpt><trkpt lat="46.05369463046906" lon="11.923610189765029"><ele>344.0</ele><time>2026-04-25T16:27:29Z</time></trkpt><trkpt lat="46.05360098858587" lon="11.923432912459615"><ele>343.6666666666667</ele><time>2026-04-25T16:27:30Z</time></trkpt><trkpt lat="46.05350084456987" lon="11.92322676378626"><ele>343.3333333333333</ele><time>2026-04-25T16:27:31Z</time></trkpt><trkpt lat="46.05339647311193" lon="11.92303732535585"><ele>343.0</ele><time>2026-04-25T16:27:32Z</time></trkpt><trkpt lat="46.05328786095607" lon="11.922865696795961"><ele>342.3333333333333</ele><time>2026-04-25T16:27:33Z</time></trkpt><trkpt lat="46.053188996517655" lon="11.922676686538349"><ele>341.6666666666667</ele><time>2026-04-25T16:27:34Z</time></trkpt><trkpt lat="46.05308117522789" lon="11.922462138445068"><ele>341.0</ele><time>2026-04-25T16:27:35Z</time></trkpt><trkpt lat="46.05297679965732" lon="11.92223528615138"><ele>341.0</ele><time>2026-04-25T16:27:36Z</time></trkpt><trkpt lat="46.05288118816606" lon="11.92201341180145"><ele>341.0</ele><time>2026-04-25T16:27:37Z</time></trkpt><trkpt lat="46.05279238757963" lon="11.921809816003174"><ele>341.0</ele><time>2026-04-25T16:27:38Z</time></trkpt><trkpt lat="46.05269157370835" lon="11.92159359211001"><ele>341.0</ele><time>2026-04-25T16:27:39Z</time></trkpt><trkpt lat="46.052598830113986" lon="11.921378708946845"><ele>341.0</ele><time>2026-04-25T16:27:40Z</time></trkpt><trkpt lat="46.0525107364631" lon="11.921180905719948"><ele>341.0</ele><time>2026-04-25T16:27:41Z</time></trkpt><trkpt lat="46.05243322059778" lon="11.920996125415224"><ele>340.0</ele><time>2026-04-25T16:27:42Z</time></trkpt><trkpt lat="46.05235009930655" lon="11.9208113598339"><ele>339.0</ele><time>2026-04-25T16:27:43Z</time></trkpt><trkpt lat="46.052269012238064" lon="11.920643748934838"><ele>338.0</ele><time>2026-04-25T16:27:44Z</time></trkpt><trkpt lat="46.052185836742744" lon="11.920491508386403"><ele>337.0</ele><time>2026-04-25T16:27:45Z</time></trkpt><trkpt lat="46.05211298665389" lon="11.920355087514519"><ele>337.0</ele><time>2026-04-25T16:27:46Z</time></trkpt><trkpt lat="46.05203547869588" lon="11.92023768482948"><ele>337.0</ele><time>2026-04-25T16:27:47Z</time></trkpt><trkpt lat="46.05195087549004" lon="11.92013798448131"><ele>337.0</ele><time>2026-04-25T16:27:48Z</time></trkpt><trkpt lat="46.051872003550905" lon="11.920047924476899"><ele>337.0</ele><time>2026-04-25T16:27:49Z</time></trkpt><trkpt lat="46.05179317590896" lon="11.919975545234058"><ele>337.0</ele><time>2026-04-25T16:27:50Z</time></trkpt><trkpt lat="46.05172916663966" lon="11.919910879845533"><ele>337.20000000000005</ele><time>2026-04-25T16:27:51Z</time></trkpt><trkpt lat="46.051652509185615" lon="11.919837246421167"><ele>337.4</ele><time>2026-04-25T16:27:52Z</time></trkpt><trkpt lat="46.051573408712656" lon="11.919738792820686"><ele>337.6</ele><time>2026-04-25T16:27:53Z</time></trkpt><trkpt lat="46.05148155193694" lon="11.919652036370353"><ele>337.79999999999995</ele><time>2026-04-25T16:27:54Z</time></trkpt><trkpt lat="46.05138313933782" lon="11.91956580596983"><ele>338.0</ele><time>2026-04-25T16:27:55Z</time></trkpt><trkpt lat="46.05129360236906" lon="11.919490473178973"><ele>337.5</ele><time>2026-04-25T16:27:56Z</time></trkpt><trkpt lat="46.05120368411915" lon="11.91939988797525"><ele>337.0</ele><time>2026-04-25T16:27:57Z</time></trkpt><trkpt lat="46.051098150159525" lon="11.919302175593"><ele>336.5</ele><time>2026-04-25T16:27:58Z</time></trkpt><trkpt lat="46.050968679305726" lon="11.919180990988286"><ele>336.0</ele><time>2026-04-25T16:27:59Z</time></trkpt><trkpt lat="46.050828010935135" lon="11.91905797001073"><ele>335.3333333333333</ele><time>2026-04-25T16:28:00Z</time></trkpt><trkpt lat="46.05068960083048" lon="11.918928783155845"><ele>334.66666666666663</ele><time>2026-04-25T16:28:01Z</time></trkpt><trkpt lat="46.050537564752176" lon="11.918789016369864"><ele>334.0</ele><time>2026-04-25T16:28:02Z</time></trkpt><trkpt lat="46.05037955130549" lon="11.91863320440795"><ele>334.0</ele><time>2026-04-25T16:28:03Z</time></trkpt><trkpt lat="46.050233285660234" lon="11.918492054787524"><ele>334.0</ele><time>2026-04-25T16:28:04Z</time></trkpt><trkpt lat="46.0500889572062" lon="11.91835442500851"><ele>334.0</ele><time>2026-04-25T16:28:05Z</time></trkpt><trkpt lat="46.04993458347777" lon="11.918209841500873"><ele>334.0</ele><time>2026-04-25T16:28:06Z</time></trkpt><trkpt lat="46.049780414425946" lon="11.918062043517056"><ele>334.0</ele><time>2026-04-25T16:28:07Z</time></trkpt><trkpt lat="46.049605638190435" lon="11.917905840102579"><ele>334.0</ele><time>2026-04-25T16:28:08Z</time></trkpt><trkpt lat="46.049438510080485" lon="11.917753317407582"><ele>334.0</ele><time>2026-04-25T16:28:09Z</time></trkpt><trkpt lat="46.04926653320414" lon="11.917588834262268"><ele>334.0</ele><time>2026-04-25T16:28:10Z</time></trkpt><trkpt lat="46.04909463793668" lon="11.917424088799754"><ele>334.0</ele><time>2026-04-25T16:28:11Z</time></trkpt><trkpt lat="46.04892570979212" lon="11.917262150394729"><ele>332.66666666666663</ele><time>2026-04-25T16:28:12Z</time></trkpt><trkpt lat="46.04877493679385" lon="11.917114288777428"><ele>331.3333333333333</ele><time>2026-04-25T16:28:12.999Z</time></trkpt><trkpt lat="46.04862896577998" lon="11.916979353987132"><ele>330.0</ele><time>2026-04-25T16:28:13.999Z</time></trkpt><trkpt lat="46.048478294918624" lon="11.916837908558081"><ele>330.0</ele><time>2026-04-25T16:28:14.999Z</time></trkpt><trkpt lat="46.0483263614389" lon="11.916694717783724"><ele>330.0</ele><time>2026-04-25T16:28:15.999Z</time></trkpt><trkpt lat="46.04818730804512" lon="11.91656238363356"><ele>330.0</ele><time>2026-04-25T16:28:16.999Z</time></trkpt><trkpt lat="46.04805345290452" lon="11.916435942170185"><ele>330.0</ele><time>2026-04-25T16:28:17.999Z</time></trkpt><trkpt lat="46.04793342379631" lon="11.916324200442611"><ele>330.0</ele><time>2026-04-25T16:28:18.999Z</time></trkpt><trkpt lat="46.04781995831726" lon="11.916216038998915"><ele>330.0</ele><time>2026-04-25T16:28:19.999Z</time></trkpt><trkpt lat="46.04770530152438" lon="11.91607929717526"><ele>330.0</ele><time>2026-04-25T16:28:20.999Z</time></trkpt><trkpt lat="46.047580497517245" lon="11.915949041826286"><ele>330.3333333333333</ele><time>2026-04-25T16:28:21.999Z</time></trkpt><trkpt lat="46.047473778317084" lon="11.915791435706222"><ele>330.66666666666663</ele><time>2026-04-25T16:28:22.999Z</time></trkpt><trkpt lat="46.047352431782315" lon="11.915625330771057"><ele>331.0</ele><time>2026-04-25T16:28:23.999Z</time></trkpt><trkpt lat="46.04724490390392" lon="11.915442352219902"><ele>330.3333333333333</ele><time>2026-04-25T16:28:24.999Z</time></trkpt><trkpt lat="46.047148394323656" lon="11.91526267531738"><ele>329.6666666666667</ele><time>2026-04-25T16:28:25.999Z</time></trkpt><trkpt lat="46.04705991054834" lon="11.91507468349805"><ele>329.0</ele><time>2026-04-25T16:28:26.999Z</time></trkpt><trkpt lat="46.04695984383818" lon="11.91487044163444"><ele>330.33333333333337</ele><time>2026-04-25T16:28:27.999Z</time></trkpt><trkpt lat="46.04685980272651" lon="11.914665655209712"><ele>331.6666666666667</ele><time>2026-04-25T16:28:28.999Z</time></trkpt><trkpt lat="46.04676188538401" lon="11.914475178951246"><ele>333.0</ele><time>2026-04-25T16:28:29.999Z</time></trkpt><trkpt lat="46.046680780991906" lon="11.91430367454941"><ele>332.0</ele><time>2026-04-25T16:28:30.999Z</time></trkpt><trkpt lat="46.04659869080962" lon="11.914130993160013"><ele>331.0</ele><time>2026-04-25T16:28:31.999Z</time></trkpt><trkpt lat="46.04651180986314" lon="11.913964027014574"><ele>330.0</ele><time>2026-04-25T16:28:32.999Z</time></trkpt><trkpt lat="46.04642422298511" lon="11.913807397980879"><ele>329.0</ele><time>2026-04-25T16:28:33.999Z</time></trkpt><trkpt lat="46.04633668265627" lon="11.9136440453588"><ele>329.0</ele><time>2026-04-25T16:28:34.999Z</time></trkpt><trkpt lat="46.04624451496495" lon="11.91348106402586"><ele>329.0</ele><time>2026-04-25T16:28:35.999Z</time></trkpt><trkpt lat="46.04615322327766" lon="11.91332086284563"><ele>329.0</ele><time>2026-04-25T16:28:36.999Z</time></trkpt><trkpt lat="46.04605070155536" lon="11.913158883046428"><ele>329.0</ele><time>2026-04-25T16:28:37.999Z</time></trkpt><trkpt lat="46.04594230501975" lon="11.912992820416557"><ele>329.0</ele><time>2026-04-25T16:28:38.999Z</time></trkpt><trkpt lat="46.04584069263026" lon="11.912837441331824"><ele>329.0</ele><time>2026-04-25T16:28:39.999Z</time></trkpt><trkpt lat="46.04574490329536" lon="11.912699860885498"><ele>329.0</ele><time>2026-04-25T16:28:40.999Z</time></trkpt><trkpt lat="46.04565996955711" lon="11.912567749326135"><ele>329.0</ele><time>2026-04-25T16:28:41.999Z</time></trkpt><trkpt lat="46.0455847645863" lon="11.912422681474656"><ele>328.75</ele><time>2026-04-25T16:28:42.999Z</time></trkpt><trkpt lat="46.0455173195177" lon="11.912298104208508"><ele>328.5</ele><time>2026-04-25T16:28:43.999Z</time></trkpt><trkpt lat="46.04543794617339" lon="11.91215841213175"><ele>328.25</ele><time>2026-04-25T16:28:44.999Z</time></trkpt><trkpt lat="46.04537240049479" lon="11.912029944499979"><ele>328.0</ele><time>2026-04-25T16:28:45.999Z</time></trkpt><trkpt lat="46.04529876016683" lon="11.911920544451544"><ele>328.0</ele><time>2026-04-25T16:28:46.999Z</time></trkpt><trkpt lat="46.045245758464496" lon="11.911839129566756"><ele>328.0</ele><time>2026-04-25T16:28:48Z</time></trkpt><trkpt lat="46.04517852645994" lon="11.911677769551419"><ele>328.0</ele><time>2026-04-25T16:28:49Z</time></trkpt><trkpt lat="46.045109794933595" lon="11.911540465361847"><ele>328.0</ele><time>2026-04-25T16:28:50Z</time></trkpt><trkpt lat="46.045035733137375" lon="11.911450818922367"><ele>328.0</ele><time>2026-04-25T16:28:51Z</time></trkpt><trkpt lat="46.04496445408868" lon="11.911342175759135"><ele>328.0</ele><time>2026-04-25T16:28:52Z</time></trkpt><trkpt lat="46.04490897279551" lon="11.911232680227387"><ele>328.0</ele><time>2026-04-25T16:28:53Z</time></trkpt><trkpt lat="46.04484847420496" lon="11.911127536760727"><ele>328.0</ele><time>2026-04-25T16:28:54Z</time></trkpt><trkpt lat="46.04479485235832" lon="11.911036368955392"><ele>328.0</ele><time>2026-04-25T16:28:55Z</time></trkpt><trkpt lat="46.0447318224932" lon="11.910923057866643"><ele>328.0</ele><time>2026-04-25T16:28:56Z</time></trkpt><trkpt lat="46.04462321217917" lon="11.91083217664935"><ele>328.0</ele><time>2026-04-25T16:28:57Z</time></trkpt><trkpt lat="46.04451034999143" lon="11.910717439361138"><ele>328.0</ele><time>2026-04-25T16:28:58Z</time></trkpt><trkpt lat="46.044412978795" lon="11.910635422240247"><ele>328.0</ele><time>2026-04-25T16:28:59Z</time></trkpt><trkpt lat="46.04432464795381" lon="11.910557319880436"><ele>328.0</ele><time>2026-04-25T16:29:00Z</time></trkpt><trkpt lat="46.044239077492804" lon="11.910477819085461"><ele>328.0</ele><time>2026-04-25T16:29:01Z</time></trkpt><trkpt lat="46.04414396938543" lon="11.910400352346716"><ele>328.0</ele><time>2026-04-25T16:29:02Z</time></trkpt><trkpt lat="46.04405166778584" lon="11.91029748181002"><ele>328.0</ele><time>2026-04-25T16:29:03Z</time></trkpt><trkpt lat="46.04395554006988" lon="11.91017642319965"><ele>328.0</ele><time>2026-04-25T16:29:04Z</time></trkpt><trkpt lat="46.04386216432449" lon="11.910053838866318"><ele>327.0</ele><time>2026-04-25T16:29:05Z</time></trkpt><trkpt lat="46.04377488322636" lon="11.90994924485989"><ele>326.0</ele><time>2026-04-25T16:29:06Z</time></trkpt><trkpt lat="46.043681796877884" lon="11.90983612982613"><ele>325.0</ele><time>2026-04-25T16:29:07Z</time></trkpt><trkpt lat="46.04357114463108" lon="11.909723456710532"><ele>324.0</ele><time>2026-04-25T16:29:08Z</time></trkpt><trkpt lat="46.04345790922451" lon="11.90961967027229"><ele>324.0</ele><time>2026-04-25T16:29:09Z</time></trkpt><trkpt lat="46.043358304227375" lon="11.909529852398766"><ele>324.0</ele><time>2026-04-25T16:29:10Z</time></trkpt><trkpt lat="46.04326868270728" lon="11.909440976152634"><ele>324.0</ele><time>2026-04-25T16:29:11Z</time></trkpt><trkpt lat="46.04317643479459" lon="11.909353978400139"><ele>324.0</ele><time>2026-04-25T16:29:12Z</time></trkpt><trkpt lat="46.04308111675682" lon="11.909271689136103"><ele>324.0</ele><time>2026-04-25T16:29:13Z</time></trkpt><trkpt lat="46.04297595993655" lon="11.909190142440696"><ele>323.5</ele><time>2026-04-25T16:29:14Z</time></trkpt><trkpt lat="46.042862230824696" lon="11.909107731091192"><ele>323.0</ele><time>2026-04-25T16:29:15Z</time></trkpt><trkpt lat="46.04274826190707" lon="11.909043823438825"><ele>322.5</ele><time>2026-04-25T16:29:16Z</time></trkpt><trkpt lat="46.04263006767363" lon="11.908969840588083"><ele>322.0</ele><time>2026-04-25T16:29:17Z</time></trkpt><trkpt lat="46.042547380813986" lon="11.908901883951934"><ele>321.16666666666663</ele><time>2026-04-25T16:29:18Z</time></trkpt><trkpt lat="46.042452795166724" lon="11.908844748417465"><ele>320.3333333333333</ele><time>2026-04-25T16:29:19Z</time></trkpt><trkpt lat="46.04237441790548" lon="11.908805647052032"><ele>319.5</ele><time>2026-04-25T16:29:20Z</time></trkpt><trkpt lat="46.042294433649325" lon="11.908768383788438"><ele>318.6666666666667</ele><time>2026-04-25T16:29:21Z</time></trkpt><trkpt lat="46.042214427826295" lon="11.908713227394278"><ele>317.83333333333337</ele><time>2026-04-25T16:29:22Z</time></trkpt><trkpt lat="46.04214071084389" lon="11.908652048386031"><ele>317.0</ele><time>2026-04-25T16:29:23Z</time></trkpt><trkpt lat="46.04205275321345" lon="11.908580990535583"><ele>317.0</ele><time>2026-04-25T16:29:24Z</time></trkpt><trkpt lat="46.04195042910522" lon="11.908488560156405"><ele>317.0</ele><time>2026-04-25T16:29:26Z</time></trkpt><trkpt lat="46.04187545690347" lon="11.908433798420647"><ele>317.0</ele><time>2026-04-25T16:29:27Z</time></trkpt><trkpt lat="46.04182647476176" lon="11.908347878798091"><ele>317.0</ele><time>2026-04-25T16:29:28Z</time></trkpt><trkpt lat="46.04177393751567" lon="11.908286925000818"><ele>317.0</ele><time>2026-04-25T16:29:29Z</time></trkpt><trkpt lat="46.04171602042066" lon="11.908249480513447"><ele>317.0</ele><time>2026-04-25T16:29:30Z</time></trkpt><trkpt lat="46.041652888836914" lon="11.908205370499942"><ele>316.6666666666667</ele><time>2026-04-25T16:29:31Z</time></trkpt><trkpt lat="46.04158188549255" lon="11.908064973365581"><ele>316.33333333333337</ele><time>2026-04-25T16:29:33Z</time></trkpt><trkpt lat="46.04152648793643" lon="11.907980523892826"><ele>316.0</ele><time>2026-04-25T16:29:34Z</time></trkpt><trkpt lat="46.041465477240806" lon="11.90790033846519"><ele>315.6666666666667</ele><time>2026-04-25T16:29:35Z</time></trkpt><trkpt lat="46.04140893632949" lon="11.907854507058032"><ele>315.3333333333333</ele><time>2026-04-25T16:29:36Z</time></trkpt><trkpt lat="46.04134689124904" lon="11.907793751647317"><ele>315.0</ele><time>2026-04-25T16:29:37Z</time></trkpt><trkpt lat="46.041281778727715" lon="11.907753621076262"><ele>315.0</ele><time>2026-04-25T16:29:38Z</time></trkpt><trkpt lat="46.041220722497584" lon="11.90772474938348"><ele>315.0</ele><time>2026-04-25T16:29:39Z</time></trkpt><trkpt lat="46.04110302621341" lon="11.907676904202614"><ele>315.0</ele><time>2026-04-25T16:29:41Z</time></trkpt><trkpt lat="46.041046468175466" lon="11.907633957662542"><ele>315.0</ele><time>2026-04-25T16:29:42Z</time></trkpt><trkpt lat="46.04097757544603" lon="11.907516116177414"><ele>315.0</ele><time>2026-04-25T16:29:44Z</time></trkpt><trkpt lat="46.04097936587852" lon="11.907408427606535"><ele>315.0</ele><time>2026-04-25T16:29:45Z</time></trkpt><trkpt lat="46.04097873361666" lon="11.907303609146965"><ele>315.3333333333333</ele><time>2026-04-25T16:29:46Z</time></trkpt><trkpt lat="46.04097683464959" lon="11.907195893314048"><ele>315.6666666666667</ele><time>2026-04-25T16:29:47Z</time></trkpt><trkpt lat="46.04096992777874" lon="11.90709485806459"><ele>316.0</ele><time>2026-04-25T16:29:48Z</time></trkpt><trkpt lat="46.04095180877681" lon="11.906982809663434"><ele>316.33333333333337</ele><time>2026-04-25T16:29:49Z</time></trkpt><trkpt lat="46.040892376227525" lon="11.90686426809039"><ele>316.6666666666667</ele><time>2026-04-25T16:29:50Z</time></trkpt><trkpt lat="46.04083783198127" lon="11.906745572475627"><ele>317.0</ele><time>2026-04-25T16:29:51Z</time></trkpt><trkpt lat="46.040792274147876" lon="11.906630825285124"><ele>315.6666666666667</ele><time>2026-04-25T16:29:52Z</time></trkpt><trkpt lat="46.04076992453263" lon="11.906528576362877"><ele>314.33333333333337</ele><time>2026-04-25T16:29:53Z</time></trkpt><trkpt lat="46.04075110008892" lon="11.906441469324639"><ele>313.0</ele><time>2026-04-25T16:29:54Z</time></trkpt><trkpt lat="46.040739792260986" lon="11.906334608222085"><ele>311.6666666666667</ele><time>2026-04-25T16:29:55Z</time></trkpt><trkpt lat="46.04072014896686" lon="11.906237661995966"><ele>310.3333333333333</ele><time>2026-04-25T16:29:56Z</time></trkpt><trkpt lat="46.04068575776213" lon="11.906087774099614"><ele>309.0</ele><time>2026-04-25T16:29:58Z</time></trkpt><trkpt lat="46.040649100001566" lon="11.905999260380185"><ele>310.1666666666667</ele><time>2026-04-25T16:30:00Z</time></trkpt><trkpt lat="46.04062523657078" lon="11.905878444794912"><ele>311.3333333333333</ele><time>2026-04-25T16:30:02Z</time></trkpt><trkpt lat="46.04058948988227" lon="11.90579743433471"><ele>312.5</ele><time>2026-04-25T16:30:04Z</time></trkpt><trkpt lat="46.04064461199323" lon="11.905643720493503"><ele>313.66666666666663</ele><time>2026-04-25T16:30:06Z</time></trkpt><trkpt lat="46.04067249194137" lon="11.905531354143536"><ele>314.8333333333333</ele><time>2026-04-25T16:30:07Z</time></trkpt><trkpt lat="46.04069866304261" lon="11.905414053429826"><ele>316.0</ele><time>2026-04-25T16:30:08Z</time></trkpt><trkpt lat="46.04072485000338" lon="11.905276980061428"><ele>316.0</ele><time>2026-04-25T16:30:09Z</time></trkpt><trkpt lat="46.040753685886926" lon="11.905132412244345"><ele>316.0</ele><time>2026-04-25T16:30:10Z</time></trkpt><trkpt lat="46.04077477983089" lon="11.90502022119755"><ele>316.0</ele><time>2026-04-25T16:30:11Z</time></trkpt><trkpt lat="46.040797270844976" lon="11.904815446513872"><ele>316.0</ele><time>2026-04-25T16:30:13Z</time></trkpt><trkpt lat="46.04078739108714" lon="11.9046731282724"><ele>316.0</ele><time>2026-04-25T16:30:14Z</time></trkpt><trkpt lat="46.040768100536134" lon="11.904515756124022"><ele>317.4</ele><time>2026-04-25T16:30:15Z</time></trkpt><trkpt lat="46.04074494633557" lon="11.904375053885657"><ele>318.8</ele><time>2026-04-25T16:30:16Z</time></trkpt><trkpt lat="46.04072069312353" lon="11.904260345103419"><ele>320.2</ele><time>2026-04-25T16:30:17Z</time></trkpt><trkpt lat="46.04069936863074" lon="11.904137019426381"><ele>321.59999999999997</ele><time>2026-04-25T16:30:18Z</time></trkpt><trkpt lat="46.04068379962787" lon="11.90399889455399"><ele>323.0</ele><time>2026-04-25T16:30:18.999Z</time></trkpt><trkpt lat="46.04068205031443" lon="11.903866808018087"><ele>323.4</ele><time>2026-04-25T16:30:19.999Z</time></trkpt><trkpt lat="46.04069475741522" lon="11.903734354899028"><ele>323.79999999999995</ele><time>2026-04-25T16:30:20.999Z</time></trkpt><trkpt lat="46.040746956605005" lon="11.903608981998861"><ele>324.2</ele><time>2026-04-25T16:30:21.999Z</time></trkpt><trkpt lat="46.04080259411166" lon="11.903490221726905"><ele>324.6</ele><time>2026-04-25T16:30:22.999Z</time></trkpt><trkpt lat="46.04085451490261" lon="11.903355683308382"><ele>325.0</ele><time>2026-04-25T16:30:23.999Z</time></trkpt><trkpt lat="46.040938620325534" lon="11.903230929317457"><ele>327.25</ele><time>2026-04-25T16:30:24.999Z</time></trkpt><trkpt lat="46.04102720211036" lon="11.903088280664432"><ele>329.5</ele><time>2026-04-25T16:30:25.999Z</time></trkpt><trkpt lat="46.0411110362893" lon="11.902944448809338"><ele>331.75</ele><time>2026-04-25T16:30:26.999Z</time></trkpt><trkpt lat="46.04118072983901" lon="11.902813475503388"><ele>334.0</ele><time>2026-04-25T16:30:27.999Z</time></trkpt><trkpt lat="46.04124882275111" lon="11.902666982636058"><ele>333.5</ele><time>2026-04-25T16:30:28.999Z</time></trkpt><trkpt lat="46.04131952531572" lon="11.90250260450856"><ele>333.0</ele><time>2026-04-25T16:30:29.999Z</time></trkpt><trkpt lat="46.041387479528744" lon="11.902340991135551"><ele>332.5</ele><time>2026-04-25T16:30:30.999Z</time></trkpt><trkpt lat="46.041440412902084" lon="11.902193287249483"><ele>332.0</ele><time>2026-04-25T16:30:31.999Z</time></trkpt><trkpt lat="46.041490831682054" lon="11.902062447393176"><ele>332.0</ele><time>2026-04-25T16:30:32.999Z</time></trkpt><trkpt lat="46.041536389324804" lon="11.901938750497134"><ele>332.0</ele><time>2026-04-25T16:30:33.999Z</time></trkpt><trkpt lat="46.04158724461104" lon="11.9017891093192"><ele>332.0</ele><time>2026-04-25T16:30:34.999Z</time></trkpt><trkpt lat="46.04164512284613" lon="11.901649835687461"><ele>332.0</ele><time>2026-04-25T16:30:35.999Z</time></trkpt><trkpt lat="46.04169489635852" lon="11.901517522699889"><ele>332.0</ele><time>2026-04-25T16:30:36.999Z</time></trkpt><trkpt lat="46.04172960756364" lon="11.901384203677868"><ele>333.25</ele><time>2026-04-25T16:30:37.999Z</time></trkpt><trkpt lat="46.04174759162931" lon="11.901223016208794"><ele>334.5</ele><time>2026-04-25T16:30:38.999Z</time></trkpt><trkpt lat="46.04176014751045" lon="11.901032123487584"><ele>335.75</ele><time>2026-04-25T16:30:39.999Z</time></trkpt><trkpt lat="46.0417616685742" lon="11.900831739231979"><ele>337.0</ele><time>2026-04-25T16:30:40.999Z</time></trkpt><trkpt lat="46.041746487819104" lon="11.90065126723004"><ele>337.25</ele><time>2026-04-25T16:30:41.999Z</time></trkpt><trkpt lat="46.04173222695697" lon="11.900496826981724"><ele>337.5</ele><time>2026-04-25T16:30:42.999Z</time></trkpt><trkpt lat="46.04172123565323" lon="11.900331710387757"><ele>337.75</ele><time>2026-04-25T16:30:43.999Z</time></trkpt><trkpt lat="46.04171340058406" lon="11.900149526901266"><ele>338.0</ele><time>2026-04-25T16:30:44.999Z</time></trkpt><trkpt lat="46.04170771982231" lon="11.899948943073001"><ele>338.0</ele><time>2026-04-25T16:30:45.999Z</time></trkpt><trkpt lat="46.041705564390305" lon="11.899722797304126"><ele>338.0</ele><time>2026-04-25T16:30:46.999Z</time></trkpt><trkpt lat="46.041706338434864" lon="11.899531361708801"><ele>338.0</ele><time>2026-04-25T16:30:47.999Z</time></trkpt><trkpt lat="46.04170786165701" lon="11.899349208891165"><ele>338.0</ele><time>2026-04-25T16:30:48.999Z</time></trkpt><trkpt lat="46.041707063130794" lon="11.89916818091118"><ele>337.5</ele><time>2026-04-25T16:30:49.999Z</time></trkpt><trkpt lat="46.04170605246372" lon="11.898970952464246"><ele>337.0</ele><time>2026-04-25T16:30:50.999Z</time></trkpt><trkpt lat="46.04170352314056" lon="11.89875182231978"><ele>336.5</ele><time>2026-04-25T16:30:51.999Z</time></trkpt><trkpt lat="46.04170555851672" lon="11.898530566370116"><ele>336.0</ele><time>2026-04-25T16:30:52.999Z</time></trkpt><trkpt lat="46.04170160988232" lon="11.89833497486741"><ele>335.25</ele><time>2026-04-25T16:30:54Z</time></trkpt><trkpt lat="46.04170186579601" lon="11.898118892085044"><ele>334.5</ele><time>2026-04-25T16:30:55Z</time></trkpt><trkpt lat="46.04170018521419" lon="11.897904627034237"><ele>333.75</ele><time>2026-04-25T16:30:56Z</time></trkpt><trkpt lat="46.04169965410271" lon="11.897705525133235"><ele>333.0</ele><time>2026-04-25T16:30:57Z</time></trkpt><trkpt lat="46.04170244940947" lon="11.897491089037787"><ele>332.5</ele><time>2026-04-25T16:30:58Z</time></trkpt><trkpt lat="46.041698406615964" lon="11.897273129885246"><ele>332.0</ele><time>2026-04-25T16:30:59Z</time></trkpt><trkpt lat="46.041711114402034" lon="11.897074264497684"><ele>331.5</ele><time>2026-04-25T16:31:00Z</time></trkpt><trkpt lat="46.04171077770915" lon="11.896889606913996"><ele>331.0</ele><time>2026-04-25T16:31:01Z</time></trkpt><trkpt lat="46.04169645988435" lon="11.896716418140182"><ele>332.3333333333333</ele><time>2026-04-25T16:31:02Z</time></trkpt><trkpt lat="46.04171758136036" lon="11.896531671915998"><ele>333.6666666666667</ele><time>2026-04-25T16:31:03Z</time></trkpt><trkpt lat="46.04173940021227" lon="11.896324393656842"><ele>335.0</ele><time>2026-04-25T16:31:04Z</time></trkpt><trkpt lat="46.041767671360354" lon="11.896068940909752"><ele>334.33333333333337</ele><time>2026-04-25T16:31:05Z</time></trkpt><trkpt lat="46.0418155479474" lon="11.89580675124677"><ele>333.6666666666667</ele><time>2026-04-25T16:31:06Z</time></trkpt><trkpt lat="46.04185646649367" lon="11.895578703397973"><ele>333.0</ele><time>2026-04-25T16:31:07Z</time></trkpt><trkpt lat="46.04190480231107" lon="11.895325661791507"><ele>332.6666666666667</ele><time>2026-04-25T16:31:08Z</time></trkpt><trkpt lat="46.04195020493211" lon="11.895076436542775"><ele>332.33333333333337</ele><time>2026-04-25T16:31:09Z</time></trkpt><trkpt lat="46.04199212509018" lon="11.894855480440585"><ele>332.0</ele><time>2026-04-25T16:31:10Z</time></trkpt><trkpt lat="46.04203113825149" lon="11.89464997317462"><ele>332.0</ele><time>2026-04-25T16:31:11Z</time></trkpt><trkpt lat="46.04206836331954" lon="11.894455076988498"><ele>332.0</ele><time>2026-04-25T16:31:12Z</time></trkpt><trkpt lat="46.04210739959999" lon="11.894242480591934"><ele>332.0</ele><time>2026-04-25T16:31:13Z</time></trkpt><trkpt lat="46.04214815648141" lon="11.894016752787042"><ele>332.0</ele><time>2026-04-25T16:31:14Z</time></trkpt><trkpt lat="46.04218645495842" lon="11.893815153009715"><ele>332.0</ele><time>2026-04-25T16:31:15Z</time></trkpt><trkpt lat="46.04223339493969" lon="11.893598822696843"><ele>332.0</ele><time>2026-04-25T16:31:16Z</time></trkpt><trkpt lat="46.04228126966111" lon="11.893388593389728"><ele>331.33333333333337</ele><time>2026-04-25T16:31:17Z</time></trkpt><trkpt lat="46.042340016897924" lon="11.89317600606696"><ele>330.6666666666667</ele><time>2026-04-25T16:31:18Z</time></trkpt><trkpt lat="46.04241177674839" lon="11.892949236192697"><ele>330.0</ele><time>2026-04-25T16:31:19Z</time></trkpt><trkpt lat="46.04247000383836" lon="11.892743911534083"><ele>331.5</ele><time>2026-04-25T16:31:20Z</time></trkpt><trkpt lat="46.042522343610074" lon="11.892554869867235"><ele>333.0</ele><time>2026-04-25T16:31:21Z</time></trkpt><trkpt lat="46.04257165377737" lon="11.892378367380852"><ele>334.5</ele><time>2026-04-25T16:31:22Z</time></trkpt><trkpt lat="46.04261386935489" lon="11.892187796987303"><ele>336.0</ele><time>2026-04-25T16:31:23Z</time></trkpt><trkpt lat="46.042650097992876" lon="11.891999927637727"><ele>336.0</ele><time>2026-04-25T16:31:24Z</time></trkpt><trkpt lat="46.042686368800766" lon="11.891828320791575"><ele>336.0</ele><time>2026-04-25T16:31:25Z</time></trkpt><trkpt lat="46.04271541580258" lon="11.89167257736404"><ele>336.0</ele><time>2026-04-25T16:31:26Z</time></trkpt><trkpt lat="46.04274223456139" lon="11.891538892453324"><ele>336.0</ele><time>2026-04-25T16:31:27Z</time></trkpt><trkpt lat="46.04277047818625" lon="11.89140793079356"><ele>336.0</ele><time>2026-04-25T16:31:28Z</time></trkpt><trkpt lat="46.04282410582312" lon="11.891273025629268"><ele>336.8</ele><time>2026-04-25T16:31:29Z</time></trkpt><trkpt lat="46.042899351906435" lon="11.891164144487371"><ele>337.6</ele><time>2026-04-25T16:31:30Z</time></trkpt><trkpt lat="46.042956683083716" lon="11.89107081566434"><ele>338.4</ele><time>2026-04-25T16:31:31Z</time></trkpt><trkpt lat="46.04299165056441" lon="11.890969203126255"><ele>339.2</ele><time>2026-04-25T16:31:32Z</time></trkpt><trkpt lat="46.04301633988974" lon="11.890844227016016"><ele>340.0</ele><time>2026-04-25T16:31:33Z</time></trkpt><trkpt lat="46.0430218531156" lon="11.890714189697594"><ele>340.0</ele><time>2026-04-25T16:31:34Z</time></trkpt><trkpt lat="46.04301786529512" lon="11.890605621175549"><ele>340.0</ele><time>2026-04-25T16:31:35Z</time></trkpt><trkpt lat="46.04301872583556" lon="11.890492100860827"><ele>340.0</ele><time>2026-04-25T16:31:36Z</time></trkpt><trkpt lat="46.043009564774415" lon="11.890382259288211"><ele>340.0</ele><time>2026-04-25T16:31:37Z</time></trkpt><trkpt lat="46.04301297454122" lon="11.890265793675802"><ele>340.0</ele><time>2026-04-25T16:31:38Z</time></trkpt><trkpt lat="46.043009981019985" lon="11.88998299069234"><ele>339.8333333333333</ele><time>2026-04-25T16:31:40Z</time></trkpt><trkpt lat="46.04301828817103" lon="11.889868664591779"><ele>339.66666666666663</ele><time>2026-04-25T16:31:41Z</time></trkpt><trkpt lat="46.043028297489805" lon="11.88975838143347"><ele>339.5</ele><time>2026-04-25T16:31:42Z</time></trkpt><trkpt lat="46.043040520645555" lon="11.889644227733895"><ele>339.3333333333333</ele><time>2026-04-25T16:31:43Z</time></trkpt><trkpt lat="46.04305521468656" lon="11.889509447015673"><ele>339.1666666666667</ele><time>2026-04-25T16:31:44Z</time></trkpt><trkpt lat="46.04305542711349" lon="11.889355963371186"><ele>339.0</ele><time>2026-04-25T16:31:45Z</time></trkpt><trkpt lat="46.043072753749634" lon="11.8892353868491"><ele>339.0</ele><time>2026-04-25T16:31:46Z</time></trkpt><trkpt lat="46.04308609920135" lon="11.889126620871151"><ele>339.0</ele><time>2026-04-25T16:31:47Z</time></trkpt><trkpt lat="46.043093641421166" lon="11.888991671181081"><ele>339.0</ele><time>2026-04-25T16:31:48Z</time></trkpt><trkpt lat="46.04309568458568" lon="11.888846245889077"><ele>339.0</ele><time>2026-04-25T16:31:49Z</time></trkpt><trkpt lat="46.04308826188727" lon="11.888696133647379"><ele>339.0</ele><time>2026-04-25T16:31:50Z</time></trkpt><trkpt lat="46.043081368561104" lon="11.888538557236549"><ele>338.5</ele><time>2026-04-25T16:31:51Z</time></trkpt><trkpt lat="46.04307168042028" lon="11.888365682503501"><ele>338.0</ele><time>2026-04-25T16:31:52Z</time></trkpt><trkpt lat="46.04304945540629" lon="11.888193647355301"><ele>337.5</ele><time>2026-04-25T16:31:53Z</time></trkpt><trkpt lat="46.0430295066913" lon="11.888037308662792"><ele>337.0</ele><time>2026-04-25T16:31:54Z</time></trkpt><trkpt lat="46.04303006925038" lon="11.887853334153455"><ele>337.0</ele><time>2026-04-25T16:31:55Z</time></trkpt><trkpt lat="46.043034522741664" lon="11.887663514077571"><ele>337.0</ele><time>2026-04-25T16:31:56Z</time></trkpt><trkpt lat="46.043040001883874" lon="11.887455284966801"><ele>337.0</ele><time>2026-04-25T16:31:57Z</time></trkpt><trkpt lat="46.04303717466457" lon="11.88733581266153"><ele>337.0</ele><time>2026-04-25T16:31:58Z</time></trkpt><trkpt lat="46.04303452089229" lon="11.88719510464277"><ele>337.0</ele><time>2026-04-25T16:31:59Z</time></trkpt><trkpt lat="46.043018852996624" lon="11.887055140306213"><ele>337.0</ele><time>2026-04-25T16:32:00Z</time></trkpt><trkpt lat="46.04298581865699" lon="11.886912153411131"><ele>337.0</ele><time>2026-04-25T16:32:01Z</time></trkpt><trkpt lat="46.04293335753082" lon="11.886779070277365"><ele>337.0</ele><time>2026-04-25T16:32:02Z</time></trkpt><trkpt lat="46.042852043893404" lon="11.886643830101027"><ele>337.0</ele><time>2026-04-25T16:32:03Z</time></trkpt><trkpt lat="46.04279316595443" lon="11.886499564690736"><ele>337.75</ele><time>2026-04-25T16:32:04Z</time></trkpt><trkpt lat="46.0427032492697" lon="11.88635334213906"><ele>338.5</ele><time>2026-04-25T16:32:05Z</time></trkpt><trkpt lat="46.04261591788261" lon="11.88620781998324"><ele>339.25</ele><time>2026-04-25T16:32:06Z</time></trkpt><trkpt lat="46.0425555957584" lon="11.886079435996965"><ele>340.0</ele><time>2026-04-25T16:32:07Z</time></trkpt><trkpt lat="46.04250956157421" lon="11.885951885204669"><ele>340.5</ele><time>2026-04-25T16:32:08Z</time></trkpt><trkpt lat="46.04246856980872" lon="11.885830417487144"><ele>341.0</ele><time>2026-04-25T16:32:09Z</time></trkpt><trkpt lat="46.04243431394739" lon="11.88571292310118"><ele>341.5</ele><time>2026-04-25T16:32:10Z</time></trkpt><trkpt lat="46.042405494896876" lon="11.885596401911899"><ele>342.0</ele><time>2026-04-25T16:32:10.999Z</time></trkpt><trkpt lat="46.04237539571588" lon="11.88548619473209"><ele>342.5</ele><time>2026-04-25T16:32:11.999Z</time></trkpt><trkpt lat="46.04235748437007" lon="11.885370242260134"><ele>343.0</ele><time>2026-04-25T16:32:12.999Z</time></trkpt><trkpt lat="46.04234386543144" lon="11.885259876150055"><ele>342.42857142857144</ele><time>2026-04-25T16:32:13.999Z</time></trkpt><trkpt lat="46.04232955623658" lon="11.885155406708645"><ele>341.8571428571429</ele><time>2026-04-25T16:32:14.999Z</time></trkpt><trkpt lat="46.04231808445849" lon="11.885058038996304"><ele>341.2857142857143</ele><time>2026-04-25T16:32:15.999Z</time></trkpt><trkpt lat="46.04230299457227" lon="11.88495866683266"><ele>340.7142857142857</ele><time>2026-04-25T16:32:16.999Z</time></trkpt><trkpt lat="46.042286017695275" lon="11.884863984407025"><ele>340.14285714285717</ele><time>2026-04-25T16:32:17.999Z</time></trkpt><trkpt lat="46.04227028773628" lon="11.884767636892429"><ele>339.57142857142856</ele><time>2026-04-25T16:32:18.999Z</time></trkpt><trkpt lat="46.042255954768834" lon="11.884665997124282"><ele>339.0</ele><time>2026-04-25T16:32:19.999Z</time></trkpt><trkpt lat="46.0422382708991" lon="11.884563438406229"><ele>339.0</ele><time>2026-04-25T16:32:20.999Z</time></trkpt><trkpt lat="46.04221183344058" lon="11.884459486822099"><ele>339.0</ele><time>2026-04-25T16:32:21.999Z</time></trkpt><trkpt lat="46.042173033400076" lon="11.884352987212658"><ele>339.0</ele><time>2026-04-25T16:32:22.999Z</time></trkpt><trkpt lat="46.0421305062512" lon="11.884241038833954"><ele>339.0</ele><time>2026-04-25T16:32:23.999Z</time></trkpt><trkpt lat="46.04208585771965" lon="11.884118965011497"><ele>339.0</ele><time>2026-04-25T16:32:24.999Z</time></trkpt><trkpt lat="46.04203599634408" lon="11.883986491530733"><ele>339.0</ele><time>2026-04-25T16:32:25.999Z</time></trkpt><trkpt lat="46.04198209534378" lon="11.8838476283954"><ele>340.6</ele><time>2026-04-25T16:32:26.999Z</time></trkpt><trkpt lat="46.04192794973731" lon="11.883701461943923"><ele>342.2</ele><time>2026-04-25T16:32:27.999Z</time></trkpt><trkpt lat="46.041875511735846" lon="11.88357151001442"><ele>343.8</ele><time>2026-04-25T16:32:28.999Z</time></trkpt><trkpt lat="46.0418240677633" lon="11.883439451516685"><ele>345.40000000000003</ele><time>2026-04-25T16:32:29.999Z</time></trkpt><trkpt lat="46.04177434547248" lon="11.88331150417182"><ele>347.0</ele><time>2026-04-25T16:32:30.999Z</time></trkpt><trkpt lat="46.04173192475324" lon="11.883198484199866"><ele>347.8</ele><time>2026-04-25T16:32:31.999Z</time></trkpt><trkpt lat="46.04169610172724" lon="11.883068155229447"><ele>348.6</ele><time>2026-04-25T16:32:32.999Z</time></trkpt><trkpt lat="46.041666591999785" lon="11.882939353442978"><ele>349.40000000000003</ele><time>2026-04-25T16:32:33.999Z</time></trkpt><trkpt lat="46.04165144398668" lon="11.882811874196857"><ele>350.20000000000005</ele><time>2026-04-25T16:32:34.999Z</time></trkpt><trkpt lat="46.04164816334794" lon="11.882709030942959"><ele>351.0</ele><time>2026-04-25T16:32:35.999Z</time></trkpt><trkpt lat="46.04166329317997" lon="11.882553916877086"><ele>350.6</ele><time>2026-04-25T16:32:37.999Z</time></trkpt><trkpt lat="46.04166134367966" lon="11.882443307302927"><ele>350.20000000000005</ele><time>2026-04-25T16:32:58.999Z</time></trkpt><trkpt lat="46.041632231338276" lon="11.88234451585319"><ele>349.79999999999995</ele><time>2026-04-25T16:33:02Z</time></trkpt><trkpt lat="46.041499492295024" lon="11.882365689581531"><ele>349.4</ele><time>2026-04-25T16:33:03Z</time></trkpt><trkpt lat="46.04141795543228" lon="11.882401862579055"><ele>349.0</ele><time>2026-04-25T16:33:04Z</time></trkpt><trkpt lat="46.04134065942939" lon="11.88243122282403"><ele>349.0</ele><time>2026-04-25T16:33:05Z</time></trkpt><trkpt lat="46.041265441257735" lon="11.882437279460282"><ele>349.0</ele><time>2026-04-25T16:33:06Z</time></trkpt><trkpt lat="46.04117649122768" lon="11.882433187817902"><ele>349.0</ele><time>2026-04-25T16:33:07Z</time></trkpt><trkpt lat="46.04109140682493" lon="11.882419946384301"><ele>349.0</ele><time>2026-04-25T16:33:08Z</time></trkpt><trkpt lat="46.04101648131801" lon="11.882362407321605"><ele>349.0</ele><time>2026-04-25T16:33:09Z</time></trkpt><trkpt lat="46.0409372687928" lon="11.882266901202788"><ele>349.0</ele><time>2026-04-25T16:33:10Z</time></trkpt><trkpt lat="46.0408688418229" lon="11.882131033194767"><ele>349.0</ele><time>2026-04-25T16:33:11Z</time></trkpt><trkpt lat="46.040806193853705" lon="11.881961918104754"><ele>349.0</ele><time>2026-04-25T16:33:12Z</time></trkpt><trkpt lat="46.040753858412714" lon="11.881809783151105"><ele>349.0</ele><time>2026-04-25T16:33:13Z</time></trkpt><trkpt lat="46.04070746179609" lon="11.881668573459828"><ele>349.0</ele><time>2026-04-25T16:33:14Z</time></trkpt><trkpt lat="46.040661539616615" lon="11.881519431569707"><ele>348.5</ele><time>2026-04-25T16:33:15Z</time></trkpt><trkpt lat="46.040619918244566" lon="11.88138036595843"><ele>348.0</ele><time>2026-04-25T16:33:16Z</time></trkpt><trkpt lat="46.04058316153415" lon="11.881256236749516"><ele>347.5</ele><time>2026-04-25T16:33:17Z</time></trkpt><trkpt lat="46.04054818275965" lon="11.881146480300764"><ele>347.0</ele><time>2026-04-25T16:33:18Z</time></trkpt><trkpt lat="46.040516895802035" lon="11.881044818249523"><ele>346.5</ele><time>2026-04-25T16:33:19Z</time></trkpt><trkpt lat="46.040488558040295" lon="11.880956747846337"><ele>346.0</ele><time>2026-04-25T16:33:20Z</time></trkpt><trkpt lat="46.04044994956938" lon="11.880883768567603"><ele>346.0</ele><time>2026-04-25T16:33:21Z</time></trkpt><trkpt lat="46.04039026395899" lon="11.880830048963132"><ele>346.0</ele><time>2026-04-25T16:33:22Z</time></trkpt><trkpt lat="46.04031407228007" lon="11.880798331817429"><ele>346.0</ele><time>2026-04-25T16:33:23Z</time></trkpt><trkpt lat="46.04022507995892" lon="11.880766683886845"><ele>346.0</ele><time>2026-04-25T16:33:24Z</time></trkpt><trkpt lat="46.04014537067231" lon="11.88073650814633"><ele>346.0</ele><time>2026-04-25T16:33:25Z</time></trkpt><trkpt lat="46.0400777441208" lon="11.880708237091214"><ele>346.0</ele><time>2026-04-25T16:33:26Z</time></trkpt><trkpt lat="46.03999454852463" lon="11.8806058878087"><ele>346.0</ele><time>2026-04-25T16:33:28Z</time></trkpt><trkpt lat="46.03997952894619" lon="11.880457995603015"><ele>346.0</ele><time>2026-04-25T16:33:30Z</time></trkpt><trkpt lat="46.039959695876185" lon="11.880359001950211"><ele>346.0</ele><time>2026-04-25T16:33:33Z</time></trkpt><trkpt lat="46.03993618243994" lon="11.880258034241784"><ele>346.0</ele><time>2026-04-25T16:33:38Z</time></trkpt><trkpt lat="46.03982482722541" lon="11.880280885414567"><ele>346.0</ele><time>2026-04-25T16:33:40Z</time></trkpt><trkpt lat="46.03973581200209" lon="11.880369330486477"><ele>345.3333333333333</ele><time>2026-04-25T16:33:42Z</time></trkpt><trkpt lat="46.039656695391294" lon="11.880440692846017"><ele>344.66666666666663</ele><time>2026-04-25T16:33:44Z</time></trkpt><trkpt lat="46.0395910315023" lon="11.880484119764528"><ele>344.0</ele><time>2026-04-25T16:33:46Z</time></trkpt><trkpt lat="46.03952142696984" lon="11.880531541973507"><ele>343.3333333333333</ele><time>2026-04-25T16:33:48Z</time></trkpt><trkpt lat="46.03944715537647" lon="11.880585991831397"><ele>342.6666666666667</ele><time>2026-04-25T16:33:50Z</time></trkpt><trkpt lat="46.03933676898081" lon="11.880633654732017"><ele>342.0</ele><time>2026-04-25T16:33:52Z</time></trkpt><trkpt lat="46.03927590129663" lon="11.880674387896635"><ele>342.0</ele><time>2026-04-25T16:33:53Z</time></trkpt><trkpt lat="46.03921522302322" lon="11.88071556471999"><ele>342.0</ele><time>2026-04-25T16:33:54Z</time></trkpt><trkpt lat="46.03914055319892" lon="11.88076725134418"><ele>342.0</ele><time>2026-04-25T16:33:55Z</time></trkpt><trkpt lat="46.0390636803711" lon="11.8808224097094"><ele>342.0</ele><time>2026-04-25T16:33:56Z</time></trkpt><trkpt lat="46.038972681037265" lon="11.880887704149917"><ele>342.0</ele><time>2026-04-25T16:33:57Z</time></trkpt><trkpt lat="46.03888815601663" lon="11.880948353160518"><ele>342.0</ele><time>2026-04-25T16:33:58Z</time></trkpt><trkpt lat="46.038818779756966" lon="11.881021784720339"><ele>341.5</ele><time>2026-04-25T16:33:59Z</time></trkpt><trkpt lat="46.038750311675436" lon="11.881069496612215"><ele>341.0</ele><time>2026-04-25T16:34:00Z</time></trkpt><trkpt lat="46.03867514242374" lon="11.88111669447419"><ele>340.5</ele><time>2026-04-25T16:34:01Z</time></trkpt><trkpt lat="46.03860021344536" lon="11.881170712924332"><ele>340.0</ele><time>2026-04-25T16:34:02Z</time></trkpt><trkpt lat="46.03852656321901" lon="11.881223266901864"><ele>339.5</ele><time>2026-04-25T16:34:03Z</time></trkpt><trkpt lat="46.038456923131065" lon="11.881268639290091"><ele>339.0</ele><time>2026-04-25T16:34:04Z</time></trkpt><trkpt lat="46.03838396965466" lon="11.881318792547688"><ele>339.0</ele><time>2026-04-25T16:34:05Z</time></trkpt><trkpt lat="46.038306477811744" lon="11.88137193634791"><ele>339.0</ele><time>2026-04-25T16:34:06Z</time></trkpt><trkpt lat="46.03822178133729" lon="11.881428678967998"><ele>339.0</ele><time>2026-04-25T16:34:07Z</time></trkpt><trkpt lat="46.03814854755129" lon="11.881487835645345"><ele>339.0</ele><time>2026-04-25T16:34:08Z</time></trkpt><trkpt lat="46.03807999693277" lon="11.881531086762433"><ele>339.0</ele><time>2026-04-25T16:34:09Z</time></trkpt><trkpt lat="46.038017193167285" lon="11.881574184067116"><ele>339.0</ele><time>2026-04-25T16:34:10Z</time></trkpt><trkpt lat="46.037958208718386" lon="11.881615299856419"><ele>338.4</ele><time>2026-04-25T16:34:11Z</time></trkpt><trkpt lat="46.03788825195396" lon="11.881665553117907"><ele>337.79999999999995</ele><time>2026-04-25T16:34:12Z</time></trkpt><trkpt lat="46.03780702238101" lon="11.881720899149393"><ele>337.20000000000005</ele><time>2026-04-25T16:34:12.999Z</time></trkpt><trkpt lat="46.03771773154981" lon="11.881793539067488"><ele>336.6</ele><time>2026-04-25T16:34:13.999Z</time></trkpt><trkpt lat="46.037603116330764" lon="11.881861554232685"><ele>336.0</ele><time>2026-04-25T16:34:14.999Z</time></trkpt><trkpt lat="46.03746295040616" lon="11.881959557517636"><ele>335.25</ele><time>2026-04-25T16:34:15.999Z</time></trkpt><trkpt lat="46.03732699706594" lon="11.88204088724651"><ele>334.5</ele><time>2026-04-25T16:34:16.999Z</time></trkpt><trkpt lat="46.03722139563051" lon="11.88211911193069"><ele>333.75</ele><time>2026-04-25T16:34:17.999Z</time></trkpt><trkpt lat="46.03710719268027" lon="11.882194285150256"><ele>333.0</ele><time>2026-04-25T16:34:18.999Z</time></trkpt><trkpt lat="46.03698753891994" lon="11.882285134780574"><ele>333.0</ele><time>2026-04-25T16:34:19.999Z</time></trkpt><trkpt lat="46.03687326989139" lon="11.882362030579664"><ele>333.0</ele><time>2026-04-25T16:34:20.999Z</time></trkpt><trkpt lat="46.036770509200885" lon="11.882430392952836"><ele>333.0</ele><time>2026-04-25T16:34:21.999Z</time></trkpt><trkpt lat="46.03667354214751" lon="11.882496414955162"><ele>333.0</ele><time>2026-04-25T16:34:22.999Z</time></trkpt><trkpt lat="46.03658537512456" lon="11.88255596416768"><ele>333.0</ele><time>2026-04-25T16:34:23.999Z</time></trkpt><trkpt lat="46.0364948685425" lon="11.882624956767486"><ele>332.0</ele><time>2026-04-25T16:34:24.999Z</time></trkpt><trkpt lat="46.036403977779166" lon="11.882665277944088"><ele>331.0</ele><time>2026-04-25T16:34:25.999Z</time></trkpt><trkpt lat="46.0363255666676" lon="11.88273089157794"><ele>330.0</ele><time>2026-04-25T16:34:26.999Z</time></trkpt><trkpt lat="46.036245970183906" lon="11.882784436488556"><ele>329.0</ele><time>2026-04-25T16:34:27.999Z</time></trkpt><trkpt lat="46.036175020634026" lon="11.882834026647847"><ele>328.0</ele><time>2026-04-25T16:34:28.999Z</time></trkpt><trkpt lat="46.03610471419188" lon="11.882887876688033"><ele>327.0</ele><time>2026-04-25T16:34:29.999Z</time></trkpt><trkpt lat="46.03598876460625" lon="11.882971916593958"><ele>327.0</ele><time>2026-04-25T16:34:31.999Z</time></trkpt><trkpt lat="46.035929019876846" lon="11.883012693751262"><ele>327.0</ele><time>2026-04-25T16:34:32.999Z</time></trkpt><trkpt lat="46.035819531900835" lon="11.883089336657223"><ele>327.0</ele><time>2026-04-25T16:34:34.999Z</time></trkpt><trkpt lat="46.03569232262045" lon="11.883188201747014"><ele>327.0</ele><time>2026-04-25T16:34:36.999Z</time></trkpt><trkpt lat="46.0355977424149" lon="11.883261560555743"><ele>327.0</ele><time>2026-04-25T16:34:37.999Z</time></trkpt><trkpt lat="46.03552100905402" lon="11.883333469486647"><ele>327.0</ele><time>2026-04-25T16:34:38.999Z</time></trkpt><trkpt lat="46.03543292653843" lon="11.8834010965014"><ele>327.0</ele><time>2026-04-25T16:34:39.999Z</time></trkpt><trkpt lat="46.035360512245916" lon="11.883473932218948"><ele>327.0</ele><time>2026-04-25T16:34:40.999Z</time></trkpt><trkpt lat="46.03527290507044" lon="11.883562748759086"><ele>327.0</ele><time>2026-04-25T16:34:41.999Z</time></trkpt><trkpt lat="46.035185528074166" lon="11.88365940624006"><ele>327.0</ele><time>2026-04-25T16:34:42.999Z</time></trkpt><trkpt lat="46.03509418995486" lon="11.883763968206347"><ele>327.0</ele><time>2026-04-25T16:34:43.999Z</time></trkpt><trkpt lat="46.035009607459024" lon="11.883870799313698"><ele>327.0</ele><time>2026-04-25T16:34:44.999Z</time></trkpt><trkpt lat="46.034936523837835" lon="11.88397436703842"><ele>327.0</ele><time>2026-04-25T16:34:45.999Z</time></trkpt><trkpt lat="46.03486281051235" lon="11.884068374644045"><ele>327.0</ele><time>2026-04-25T16:34:46.999Z</time></trkpt><trkpt lat="46.034789517922164" lon="11.884168345560392"><ele>327.0</ele><time>2026-04-25T16:34:47.999Z</time></trkpt><trkpt lat="46.03471219585092" lon="11.884283463852737"><ele>326.5</ele><time>2026-04-25T16:34:48.999Z</time></trkpt><trkpt lat="46.03461848657934" lon="11.884416869608067"><ele>326.0</ele><time>2026-04-25T16:34:49.999Z</time></trkpt><trkpt lat="46.03451333245421" lon="11.884567575832007"><ele>325.5</ele><time>2026-04-25T16:34:50.999Z</time></trkpt><trkpt lat="46.03441372256053" lon="11.88471623745721"><ele>325.0</ele><time>2026-04-25T16:34:51.999Z</time></trkpt><trkpt lat="46.034326208247876" lon="11.884842186923095"><ele>325.0</ele><time>2026-04-25T16:34:52.999Z</time></trkpt><trkpt lat="46.034242651832145" lon="11.884965190925499"><ele>325.0</ele><time>2026-04-25T16:34:53.999Z</time></trkpt><trkpt lat="46.03416434444434" lon="11.885079148597256"><ele>325.0</ele><time>2026-04-25T16:34:54.999Z</time></trkpt><trkpt lat="46.03408484777684" lon="11.885189437837997"><ele>325.0</ele><time>2026-04-25T16:34:55.999Z</time></trkpt><trkpt lat="46.03400010107558" lon="11.885307947284055"><ele>324.75</ele><time>2026-04-25T16:34:56.999Z</time></trkpt><trkpt lat="46.033910854965406" lon="11.885430781176744"><ele>324.5</ele><time>2026-04-25T16:34:57.999Z</time></trkpt><trkpt lat="46.03382314772436" lon="11.885562867370254"><ele>324.25</ele><time>2026-04-25T16:34:58.999Z</time></trkpt><trkpt lat="46.03372948693393" lon="11.885698698256038"><ele>324.0</ele><time>2026-04-25T16:34:59.999Z</time></trkpt><trkpt lat="46.033636108657625" lon="11.885831055005177"><ele>323.3333333333333</ele><time>2026-04-25T16:35:00.999Z</time></trkpt><trkpt lat="46.033530504930965" lon="11.885987411001564"><ele>322.66666666666663</ele><time>2026-04-25T16:35:01.999Z</time></trkpt><trkpt lat="46.03338911818129" lon="11.886197066953233"><ele>322.0</ele><time>2026-04-25T16:35:02.999Z</time></trkpt><trkpt lat="46.033257629070235" lon="11.886361937836522"><ele>322.0</ele><time>2026-04-25T16:35:03.999Z</time></trkpt><trkpt lat="46.033155503256474" lon="11.886521407206248"><ele>322.0</ele><time>2026-04-25T16:35:04.999Z</time></trkpt><trkpt lat="46.03304203027186" lon="11.886692434674318"><ele>322.0</ele><time>2026-04-25T16:35:06Z</time></trkpt><trkpt lat="46.03293089780517" lon="11.886856490128785"><ele>321.25</ele><time>2026-04-25T16:35:07Z</time></trkpt><trkpt lat="46.03282559026693" lon="11.887002969069385"><ele>320.5</ele><time>2026-04-25T16:35:08Z</time></trkpt><trkpt lat="46.032722182226905" lon="11.887153544479316"><ele>319.75</ele><time>2026-04-25T16:35:09Z</time></trkpt><trkpt lat="46.032621011405475" lon="11.887311072083461"><ele>319.0</ele><time>2026-04-25T16:35:10Z</time></trkpt><trkpt lat="46.032507686456285" lon="11.88747008447332"><ele>317.66666666666663</ele><time>2026-04-25T16:35:11Z</time></trkpt><trkpt lat="46.03239416910306" lon="11.887638317774957"><ele>316.3333333333333</ele><time>2026-04-25T16:35:12Z</time></trkpt><trkpt lat="46.03229001328711" lon="11.887792552643493"><ele>315.0</ele><time>2026-04-25T16:35:13Z</time></trkpt><trkpt lat="46.03218674174313" lon="11.8879328261326"><ele>315.0</ele><time>2026-04-25T16:35:14Z</time></trkpt><trkpt lat="46.03207831546891" lon="11.888092668628152"><ele>315.0</ele><time>2026-04-25T16:35:15Z</time></trkpt><trkpt lat="46.03195211981195" lon="11.888267976542892"><ele>315.0</ele><time>2026-04-25T16:35:16Z</time></trkpt><trkpt lat="46.0318369340028" lon="11.888449066903673"><ele>314.3333333333333</ele><time>2026-04-25T16:35:17Z</time></trkpt><trkpt lat="46.03171705595307" lon="11.888591342482954"><ele>313.66666666666663</ele><time>2026-04-25T16:35:18Z</time></trkpt><trkpt lat="46.031615440263" lon="11.888737314571811"><ele>313.0</ele><time>2026-04-25T16:35:19Z</time></trkpt><trkpt lat="46.031518397220125" lon="11.888909327062697"><ele>312.3333333333333</ele><time>2026-04-25T16:35:20Z</time></trkpt><trkpt lat="46.031403329834596" lon="11.889040625058854"><ele>311.6666666666667</ele><time>2026-04-25T16:35:21Z</time></trkpt><trkpt lat="46.0313001040836" lon="11.889188368979028"><ele>311.0</ele><time>2026-04-25T16:35:22Z</time></trkpt><trkpt lat="46.03117799504413" lon="11.889363678796911"><ele>310.0</ele><time>2026-04-25T16:35:23Z</time></trkpt><trkpt lat="46.03106106391532" lon="11.889531405289326"><ele>309.0</ele><time>2026-04-25T16:35:24Z</time></trkpt><trkpt lat="46.030959022248794" lon="11.889677773089119"><ele>308.0</ele><time>2026-04-25T16:35:25Z</time></trkpt><trkpt lat="46.03085923623035" lon="11.889820905413696"><ele>308.0</ele><time>2026-04-25T16:35:26Z</time></trkpt><trkpt lat="46.03074806592399" lon="11.88998036723451"><ele>308.0</ele><time>2026-04-25T16:35:27Z</time></trkpt><trkpt lat="46.03063414324955" lon="11.890143776042065"><ele>308.0</ele><time>2026-04-25T16:35:28Z</time></trkpt><trkpt lat="46.03053221256183" lon="11.89029447390971"><ele>308.0</ele><time>2026-04-25T16:35:29Z</time></trkpt><trkpt lat="46.03044397485298" lon="11.890460435875806"><ele>308.0</ele><time>2026-04-25T16:35:30Z</time></trkpt><trkpt lat="46.030338287155914" lon="11.890629325411695"><ele>308.0</ele><time>2026-04-25T16:35:31Z</time></trkpt><trkpt lat="46.030235866827816" lon="11.890817154132623"><ele>307.75</ele><time>2026-04-25T16:35:32Z</time></trkpt><trkpt lat="46.030150897531946" lon="11.89099598746683"><ele>307.5</ele><time>2026-04-25T16:35:33Z</time></trkpt><trkpt lat="46.030072415604764" lon="11.891171777200062"><ele>307.25</ele><time>2026-04-25T16:35:34Z</time></trkpt><trkpt lat="46.029996025539795" lon="11.891354005375934"><ele>307.0</ele><time>2026-04-25T16:35:35Z</time></trkpt><trkpt lat="46.02992089298853" lon="11.891555368548012"><ele>304.3333333333333</ele><time>2026-04-25T16:35:36Z</time></trkpt><trkpt lat="46.029843021079095" lon="11.891779979334252"><ele>301.6666666666667</ele><time>2026-04-25T16:35:37Z</time></trkpt><trkpt lat="46.02975808920444" lon="11.891968523121342"><ele>299.0</ele><time>2026-04-25T16:35:38Z</time></trkpt><trkpt lat="46.02969417023632" lon="11.892143389754557"><ele>299.0</ele><time>2026-04-25T16:35:39Z</time></trkpt><trkpt lat="46.029631886362544" lon="11.89231378308312"><ele>299.0</ele><time>2026-04-25T16:35:40Z</time></trkpt><trkpt lat="46.02956538003702" lon="11.892486559741618"><ele>299.0</ele><time>2026-04-25T16:35:41Z</time></trkpt><trkpt lat="46.029490679684976" lon="11.892651337132078"><ele>299.0</ele><time>2026-04-25T16:35:42Z</time></trkpt><trkpt lat="46.02941605462177" lon="11.892796782051965"><ele>299.0</ele><time>2026-04-25T16:35:43Z</time></trkpt><trkpt lat="46.02933098651158" lon="11.892925550857456"><ele>299.0</ele><time>2026-04-25T16:35:44Z</time></trkpt><trkpt lat="46.02922789932047" lon="11.89306527351952"><ele>299.0</ele><time>2026-04-25T16:35:45Z</time></trkpt><trkpt lat="46.02912445615738" lon="11.89318081889028"><ele>299.0</ele><time>2026-04-25T16:35:46Z</time></trkpt><trkpt lat="46.02898996129571" lon="11.893300062525517"><ele>298.33333333333337</ele><time>2026-04-25T16:35:47Z</time></trkpt><trkpt lat="46.02884923705733" lon="11.893403998393817"><ele>297.6666666666667</ele><time>2026-04-25T16:35:48Z</time></trkpt><trkpt lat="46.02871444468993" lon="11.89352353832193"><ele>297.0</ele><time>2026-04-25T16:35:49Z</time></trkpt><trkpt lat="46.02859259300817" lon="11.893606889052556"><ele>297.0</ele><time>2026-04-25T16:35:50Z</time></trkpt><trkpt lat="46.028469530653254" lon="11.893700130476521"><ele>297.0</ele><time>2026-04-25T16:35:51Z</time></trkpt><trkpt lat="46.02832098109119" lon="11.89379774009688"><ele>297.0</ele><time>2026-04-25T16:35:52Z</time></trkpt><trkpt lat="46.02818742974947" lon="11.893892180822322"><ele>296.75</ele><time>2026-04-25T16:35:53Z</time></trkpt><trkpt lat="46.02806832415614" lon="11.893976768844524"><ele>296.5</ele><time>2026-04-25T16:35:54Z</time></trkpt><trkpt lat="46.02795560383832" lon="11.894061646793457"><ele>296.25</ele><time>2026-04-25T16:35:55Z</time></trkpt><trkpt lat="46.027855361172975" lon="11.894133310307591"><ele>296.0</ele><time>2026-04-25T16:35:56Z</time></trkpt><trkpt lat="46.02776414488288" lon="11.894194125460547"><ele>296.0</ele><time>2026-04-25T16:35:57Z</time></trkpt><trkpt lat="46.02768855291292" lon="11.894240807595033"><ele>296.0</ele><time>2026-04-25T16:35:58Z</time></trkpt><trkpt lat="46.027603910348056" lon="11.894302756541371"><ele>296.0</ele><time>2026-04-25T16:35:59Z</time></trkpt><trkpt lat="46.02751211806163" lon="11.894370328584637"><ele>296.0</ele><time>2026-04-25T16:36:00Z</time></trkpt><trkpt lat="46.02740715314406" lon="11.894448460381373"><ele>296.0</ele><time>2026-04-25T16:36:01Z</time></trkpt><trkpt lat="46.02728663689321" lon="11.894532215263407"><ele>295.0</ele><time>2026-04-25T16:36:02Z</time></trkpt><trkpt lat="46.02716183268255" lon="11.894617599847138"><ele>294.0</ele><time>2026-04-25T16:36:03Z</time></trkpt><trkpt lat="46.02705698719878" lon="11.894687243152749"><ele>293.0</ele><time>2026-04-25T16:36:04Z</time></trkpt><trkpt lat="46.02693915329088" lon="11.894768921561324"><ele>292.0</ele><time>2026-04-25T16:36:05Z</time></trkpt><trkpt lat="46.02681815481456" lon="11.89486939794987"><ele>292.0</ele><time>2026-04-25T16:36:06Z</time></trkpt><trkpt lat="46.026706219253114" lon="11.894947049190083"><ele>292.0</ele><time>2026-04-25T16:36:07Z</time></trkpt><trkpt lat="46.02659717864004" lon="11.895024677763455"><ele>292.0</ele><time>2026-04-25T16:36:08Z</time></trkpt><trkpt lat="46.02647482424922" lon="11.895106494539425"><ele>292.0</ele><time>2026-04-25T16:36:09Z</time></trkpt><trkpt lat="46.026365198705015" lon="11.895179679532188"><ele>291.4</ele><time>2026-04-25T16:36:10Z</time></trkpt><trkpt lat="46.026268902282204" lon="11.895250453958138"><ele>290.79999999999995</ele><time>2026-04-25T16:36:11Z</time></trkpt><trkpt lat="46.026175034136855" lon="11.895323159748921"><ele>290.2</ele><time>2026-04-25T16:36:12Z</time></trkpt><trkpt lat="46.02608026164151" lon="11.89538761140024"><ele>289.59999999999997</ele><time>2026-04-25T16:36:13Z</time></trkpt><trkpt lat="46.02598316788048" lon="11.895455394205026"><ele>289.0</ele><time>2026-04-25T16:36:14Z</time></trkpt><trkpt lat="46.02587313019984" lon="11.895527315665786"><ele>288.5</ele><time>2026-04-25T16:36:15Z</time></trkpt><trkpt lat="46.0257668989169" lon="11.895620307617907"><ele>288.0</ele><time>2026-04-25T16:36:16Z</time></trkpt><trkpt lat="46.02566088974193" lon="11.89572527932767"><ele>287.5</ele><time>2026-04-25T16:36:17Z</time></trkpt><trkpt lat="46.025550596034535" lon="11.895833340868645"><ele>287.0</ele><time>2026-04-25T16:36:17.999Z</time></trkpt><trkpt lat="46.02546207582656" lon="11.895937567397192"><ele>286.83333333333337</ele><time>2026-04-25T16:36:18.999Z</time></trkpt><trkpt lat="46.025387334083085" lon="11.896040546976081"><ele>286.6666666666667</ele><time>2026-04-25T16:36:19.999Z</time></trkpt><trkpt lat="46.02530887796071" lon="11.8961326109879"><ele>286.5</ele><time>2026-04-25T16:36:20.999Z</time></trkpt><trkpt lat="46.02523905256948" lon="11.896217037219865"><ele>286.3333333333333</ele><time>2026-04-25T16:36:21.999Z</time></trkpt><trkpt lat="46.02517530301755" lon="11.896277401323367"><ele>286.16666666666663</ele><time>2026-04-25T16:36:22.999Z</time></trkpt><trkpt lat="46.02511024904843" lon="11.89631183937366"><ele>286.0</ele><time>2026-04-25T16:36:23.999Z</time></trkpt><trkpt lat="46.025048867415485" lon="11.896353130947244"><ele>286.0</ele><time>2026-04-25T16:36:24.999Z</time></trkpt><trkpt lat="46.02506806145649" lon="11.896603495528385"><ele>286.0</ele><time>2026-04-25T16:36:25.999Z</time></trkpt><trkpt lat="46.024996989331434" lon="11.896727410100993"><ele>286.0</ele><time>2026-04-25T16:36:26.999Z</time></trkpt><trkpt lat="46.02494023980094" lon="11.8968679729519"><ele>286.0</ele><time>2026-04-25T16:36:27.999Z</time></trkpt><trkpt lat="46.02491322077761" lon="11.897070442158283"><ele>286.0</ele><time>2026-04-25T16:36:28.999Z</time></trkpt><trkpt lat="46.02485616391543" lon="11.897256383319615"><ele>286.0</ele><time>2026-04-25T16:36:29.999Z</time></trkpt><trkpt lat="46.02480546245565" lon="11.897438389977857"><ele>286.0</ele><time>2026-04-25T16:36:30.999Z</time></trkpt><trkpt lat="46.02475825885698" lon="11.8975937347966"><ele>286.0</ele><time>2026-04-25T16:36:31.999Z</time></trkpt><trkpt lat="46.024712853763575" lon="11.897729636068764"><ele>285.6</ele><time>2026-04-25T16:36:32.999Z</time></trkpt><trkpt lat="46.02467041693074" lon="11.89784945932343"><ele>285.20000000000005</ele><time>2026-04-25T16:36:33.999Z</time></trkpt><trkpt lat="46.02462766717229" lon="11.897961782200005"><ele>284.79999999999995</ele><time>2026-04-25T16:36:34.999Z</time></trkpt><trkpt lat="46.02458359577804" lon="11.898072039978704"><ele>284.4</ele><time>2026-04-25T16:36:35.999Z</time></trkpt><trkpt lat="46.02453608066931" lon="11.898187543054474"><ele>284.0</ele><time>2026-04-25T16:36:36.999Z</time></trkpt><trkpt lat="46.02450100154629" lon="11.898307808233968"><ele>284.0</ele><time>2026-04-25T16:36:37.999Z</time></trkpt><trkpt lat="46.024456657782224" lon="11.898403400994903"><ele>284.0</ele><time>2026-04-25T16:36:38.999Z</time></trkpt><trkpt lat="46.024414386116156" lon="11.898479547481866"><ele>284.0</ele><time>2026-04-25T16:36:39.999Z</time></trkpt><trkpt lat="46.02435657267401" lon="11.898583793453263"><ele>284.0</ele><time>2026-04-25T16:36:41.999Z</time></trkpt><trkpt lat="46.02429863875794" lon="11.898663858915683"><ele>284.0</ele><time>2026-04-25T16:36:43.999Z</time></trkpt><trkpt lat="46.02435775289673" lon="11.898785516389598"><ele>284.0</ele><time>2026-04-25T16:36:44.999Z</time></trkpt><trkpt lat="46.02441445509201" lon="11.898862709063057"><ele>283.75</ele><time>2026-04-25T16:36:45.999Z</time></trkpt><trkpt lat="46.024451068152324" lon="11.898983214673027"><ele>283.5</ele><time>2026-04-25T16:36:46.999Z</time></trkpt><trkpt lat="46.0244877034818" lon="11.89913331010673"><ele>283.25</ele><time>2026-04-25T16:36:47.999Z</time></trkpt><trkpt lat="46.024536324704485" lon="11.8993290533065"><ele>283.0</ele><time>2026-04-25T16:36:48.999Z</time></trkpt><trkpt lat="46.02459306220013" lon="11.899500655078214"><ele>283.0</ele><time>2026-04-25T16:36:49.999Z</time></trkpt><trkpt lat="46.02463913919794" lon="11.899699788549338"><ele>283.0</ele><time>2026-04-25T16:36:50.999Z</time></trkpt><trkpt lat="46.02468772456174" lon="11.899891201643202"><ele>283.0</ele><time>2026-04-25T16:36:51.999Z</time></trkpt><trkpt lat="46.024724331456966" lon="11.900056859560136"><ele>283.0</ele><time>2026-04-25T16:36:52.999Z</time></trkpt><trkpt lat="46.02475555694288" lon="11.900207099469023"><ele>282.8</ele><time>2026-04-25T16:36:53.999Z</time></trkpt><trkpt lat="46.0247891959266" lon="11.900347086751568"><ele>282.6</ele><time>2026-04-25T16:36:54.999Z</time></trkpt><trkpt lat="46.02482565299262" lon="11.900474248290246"><ele>282.4</ele><time>2026-04-25T16:36:55.999Z</time></trkpt><trkpt lat="46.024857120551054" lon="11.900602540875294"><ele>282.2</ele><time>2026-04-25T16:36:56.999Z</time></trkpt><trkpt lat="46.02488544113395" lon="11.900734860250294"><ele>282.0</ele><time>2026-04-25T16:36:57.999Z</time></trkpt><trkpt lat="46.024911687455514" lon="11.900857143776864"><ele>282.0</ele><time>2026-04-25T16:36:58.999Z</time></trkpt><trkpt lat="46.02493402576436" lon="11.900960411448999"><ele>282.0</ele><time>2026-04-25T16:36:59.999Z</time></trkpt><trkpt lat="46.02495600435912" lon="11.9010530467997"><ele>282.0</ele><time>2026-04-25T16:37:00.999Z</time></trkpt><trkpt lat="46.024981569903225" lon="11.901221461288676"><ele>282.0</ele><time>2026-04-25T16:37:02.999Z</time></trkpt><trkpt lat="46.024995089033" lon="11.901345748715029"><ele>282.0</ele><time>2026-04-25T16:37:04.999Z</time></trkpt><trkpt lat="46.02500892682298" lon="11.901446987671976"><ele>282.0</ele><time>2026-04-25T16:37:07.999Z</time></trkpt><trkpt lat="46.025028008556475" lon="11.901563017420425"><ele>282.3333333333333</ele><time>2026-04-25T16:37:10.999Z</time></trkpt><trkpt lat="46.02503768217467" lon="11.901655281329138"><ele>282.6666666666667</ele><time>2026-04-25T16:37:14Z</time></trkpt><trkpt lat="46.02505160567662" lon="11.901784580516642"><ele>283.0</ele><time>2026-04-25T16:37:17Z</time></trkpt><trkpt lat="46.025059156114324" lon="11.90192069974751"><ele>283.33333333333337</ele><time>2026-04-25T16:37:20Z</time></trkpt><trkpt lat="46.02508369037565" lon="11.902085613239796"><ele>283.6666666666667</ele><time>2026-04-25T16:37:22Z</time></trkpt><trkpt lat="46.025095570537125" lon="11.902192464625095"><ele>284.0</ele><time>2026-04-25T16:37:23Z</time></trkpt><trkpt lat="46.02511371601711" lon="11.902304813344145"><ele>284.0</ele><time>2026-04-25T16:37:24Z</time></trkpt><trkpt lat="46.02511737740724" lon="11.90244462998606"><ele>284.0</ele><time>2026-04-25T16:37:25Z</time></trkpt><trkpt lat="46.02513284402971" lon="11.902570380230761"><ele>284.0</ele><time>2026-04-25T16:37:26Z</time></trkpt><trkpt lat="46.02514543091751" lon="11.902672717043483"><ele>284.0</ele><time>2026-04-25T16:37:27Z</time></trkpt><trkpt lat="46.025174257305565" lon="11.90279267550582"><ele>284.0</ele><time>2026-04-25T16:37:28Z</time></trkpt><trkpt lat="46.02519331626323" lon="11.902923096195144"><ele>284.0</ele><time>2026-04-25T16:37:29Z</time></trkpt><trkpt lat="46.02519626666911" lon="11.903066389705046"><ele>283.83333333333337</ele><time>2026-04-25T16:37:30Z</time></trkpt><trkpt lat="46.02521148755345" lon="11.903179990434504"><ele>283.6666666666667</ele><time>2026-04-25T16:37:31Z</time></trkpt><trkpt lat="46.02523136023838" lon="11.903320306063248"><ele>283.5</ele><time>2026-04-25T16:37:32Z</time></trkpt><trkpt lat="46.02524854024793" lon="11.903438445264268"><ele>283.3333333333333</ele><time>2026-04-25T16:37:33Z</time></trkpt><trkpt lat="46.02526326279521" lon="11.90353925265957"><ele>283.16666666666663</ele><time>2026-04-25T16:37:34Z</time></trkpt><trkpt lat="46.02527763340452" lon="11.903637650519816"><ele>283.0</ele><time>2026-04-25T16:37:35Z</time></trkpt><trkpt lat="46.025295971098686" lon="11.903763211565261"><ele>282.8333333333333</ele><time>2026-04-25T16:37:37Z</time></trkpt><trkpt lat="46.02543932676612" lon="11.90378680327494"><ele>282.66666666666663</ele><time>2026-04-25T16:37:40Z</time></trkpt><trkpt lat="46.02551315800303" lon="11.903758423496242"><ele>282.5</ele><time>2026-04-25T16:37:41Z</time></trkpt><trkpt lat="46.02559185499115" lon="11.903752494632052"><ele>282.3333333333333</ele><time>2026-04-25T16:37:42Z</time></trkpt><trkpt lat="46.02565445827659" lon="11.903791108606935"><ele>282.1666666666667</ele><time>2026-04-25T16:37:43Z</time></trkpt><trkpt lat="46.025699642903206" lon="11.903883255689442"><ele>282.0</ele><time>2026-04-25T16:37:44Z</time></trkpt><trkpt lat="46.025791097934324" lon="11.903980696288087"><ele>281.75</ele><time>2026-04-25T16:37:46Z</time></trkpt><trkpt lat="46.02589076486846" lon="11.90409323530584"><ele>281.5</ele><time>2026-04-25T16:37:48Z</time></trkpt><trkpt lat="46.02596231786003" lon="11.904174704593126"><ele>281.25</ele><time>2026-04-25T16:37:50Z</time></trkpt><trkpt lat="46.026099011684636" lon="11.903946436435657"><ele>281.0</ele><time>2026-04-25T16:37:53Z</time></trkpt><trkpt lat="46.02613883184586" lon="11.903799009144977"><ele>281.0</ele><time>2026-04-25T16:37:54Z</time></trkpt><trkpt lat="46.02619335983152" lon="11.903631502659294"><ele>281.0</ele><time>2026-04-25T16:37:55Z</time></trkpt><trkpt lat="46.02624191564398" lon="11.903464046029145"><ele>281.0</ele><time>2026-04-25T16:37:56Z</time></trkpt><trkpt lat="46.02621329112668" lon="11.903565921126198"><ele>281.0</ele><time>2026-04-25T16:37:57Z</time></trkpt><trkpt lat="46.02625922762998" lon="11.903481933515344"><ele>281.0</ele><time>2026-04-25T16:38:00Z</time></trkpt><trkpt lat="46.02632959639054" lon="11.903555072445418"><ele>281.0</ele><time>2026-04-25T16:38:04Z</time></trkpt><trkpt lat="46.02639271904307" lon="11.903592762821999"><ele>281.0</ele><time>2026-04-25T16:38:11Z</time></trkpt><trkpt lat="46.02639659477215" lon="11.903474115243238"><ele>281.0</ele><time>2026-04-25T16:39:27Z</time></trkpt><trkpt lat="46.02632629838916" lon="11.903413619155252"><ele>283.0</ele><time>2026-04-25T16:40:57.322Z</time></trkpt><trkpt lat="46.02628852245055" lon="11.903323000308037"><ele>283.0</ele><time>2026-04-25T16:41:05.999Z</time></trkpt><trkpt lat="46.02633574280962" lon="11.903470606680846"><ele>281.0</ele><time>2026-04-25T16:41:20.999Z</time></trkpt></trkseg></trk></gpx>